<?xml version="1.0" encoding="UTF-8" standalone="no" ?>
<gpx xmlns="http://www.topografix.com/GPX/1/1" xmlns:xsi="http://www.w3.org/2001/XMLSchema-instance" xsi:schemaLocation="http://www.topografix.com/GPX/1/1 http://www.topografix.com/GPX/1/1/gpx.xsd" version="1.1" creator="VisuGPX - https://www.visugpx.com">
  <metadata>
    <name>La Londe 2</name>
  </metadata>
  <trk>
    <name><![CDATA[La Londe 2_1]]></name>
    <trkseg>
      <trkpt lat="49.33941" lon="0.96145">
        <ele>87.11414337158</ele>
        <time>2020-08-30T17:50:10.507Z</time>
      </trkpt>
      <trkpt lat="49.33949" lon="0.96179">
        <ele>88.70376586914</ele>
        <time>2020-08-30T17:50:12.599Z</time>
      </trkpt>
      <trkpt lat="49.33949" lon="0.96185">
        <ele>88.99171447754</ele>
        <time>2020-08-30T17:50:14.693Z</time>
      </trkpt>
      <trkpt lat="49.33946" lon="0.96191">
        <ele>89.38176727295</ele>
        <time>2020-08-30T17:50:16.788Z</time>
      </trkpt>
      <trkpt lat="49.33917" lon="0.96216">
        <ele>90.23362731934</ele>
        <time>2020-08-30T17:50:18.894Z</time>
      </trkpt>
      <trkpt lat="49.33905" lon="0.96219">
        <ele>90.23362731934</ele>
        <time>2020-08-30T17:50:21.004Z</time>
      </trkpt>
      <trkpt lat="49.33903" lon="0.96229">
        <ele>91.02214813232</ele>
        <time>2020-08-30T17:50:23.117Z</time>
      </trkpt>
      <trkpt lat="49.33877" lon="0.96247">
        <ele>92.98536682129</ele>
        <time>2020-08-30T17:50:25.239Z</time>
      </trkpt>
      <trkpt lat="49.33873" lon="0.9625">
        <ele>93.38129425049</ele>
        <time>2020-08-30T17:50:27.363Z</time>
      </trkpt>
      <trkpt lat="49.33866" lon="0.96256">
        <ele>94.17316436768</ele>
        <time>2020-08-30T17:50:29.489Z</time>
      </trkpt>
      <trkpt lat="49.33833" lon="0.9628">
        <ele>97.92723083496</ele>
        <time>2020-08-30T17:50:31.627Z</time>
      </trkpt>
      <trkpt lat="49.33818" lon="0.96283">
        <ele>97.81925201416</ele>
        <time>2020-08-30T17:50:33.771Z</time>
      </trkpt>
      <trkpt lat="49.33818" lon="0.9627">
        <ele>96.72743225098</ele>
        <time>2020-08-30T17:50:35.917Z</time>
      </trkpt>
      <trkpt lat="49.33821" lon="0.9626">
        <ele>95.73310852051</ele>
        <time>2020-08-30T17:50:38.066Z</time>
      </trkpt>
      <trkpt lat="49.33824" lon="0.96254">
        <ele>94.86925506592</ele>
        <time>2020-08-30T17:50:40.216Z</time>
      </trkpt>
      <trkpt lat="49.33827" lon="0.9625">
        <ele>94.26935577393</ele>
        <time>2020-08-30T17:50:42.368Z</time>
      </trkpt>
      <trkpt lat="49.33831" lon="0.96246">
        <ele>93.64546203613</ele>
        <time>2020-08-30T17:50:44.521Z</time>
      </trkpt>
      <trkpt lat="49.33835" lon="0.96243">
        <ele>93.15354156494</ele>
        <time>2020-08-30T17:50:46.676Z</time>
      </trkpt>
      <trkpt lat="49.33844" lon="0.96234">
        <ele>91.74977111816</ele>
        <time>2020-08-30T17:50:48.834Z</time>
      </trkpt>
      <trkpt lat="49.33847" lon="0.9623">
        <ele>91.14987182617</ele>
        <time>2020-08-30T17:50:50.994Z</time>
      </trkpt>
      <trkpt lat="49.33854" lon="0.96221">
        <ele>89.99685668945</ele>
        <time>2020-08-30T17:50:53.157Z</time>
      </trkpt>
      <trkpt lat="49.33859" lon="0.96205">
        <ele>89.06992340088</ele>
        <time>2020-08-30T17:50:55.324Z</time>
      </trkpt>
      <trkpt lat="49.33868" lon="0.96185">
        <ele>88.15797424316</ele>
        <time>2020-08-30T17:50:57.496Z</time>
      </trkpt>
      <trkpt lat="49.33869" lon="0.96179">
        <ele>87.88201904297</ele>
        <time>2020-08-30T17:50:59.669Z</time>
      </trkpt>
      <trkpt lat="49.33874" lon="0.9616">
        <ele>87.03015899658</ele>
        <time>2020-08-30T17:51:01.847Z</time>
      </trkpt>
      <trkpt lat="49.33872" lon="0.96142">
        <ele>86.14231109619</ele>
        <time>2020-08-30T17:51:04.029Z</time>
      </trkpt>
      <trkpt lat="49.33868" lon="0.96125">
        <ele>85.08609008789</ele>
        <time>2020-08-30T17:51:06.215Z</time>
      </trkpt>
      <trkpt lat="49.3387" lon="0.9612">
        <ele>84.81014251709</ele>
        <time>2020-08-30T17:51:08.402Z</time>
      </trkpt>
      <trkpt lat="49.33871" lon="0.96107">
        <ele>84.0422668457</ele>
        <time>2020-08-30T17:51:10.592Z</time>
      </trkpt>
      <trkpt lat="49.33864" lon="0.9608">
        <ele>82.33855438232</ele>
        <time>2020-08-30T17:51:12.788Z</time>
      </trkpt>
      <trkpt lat="49.33863" lon="0.9605">
        <ele>80.65077209473</ele>
        <time>2020-08-30T17:51:14.991Z</time>
      </trkpt>
      <trkpt lat="49.33866" lon="0.9604">
        <ele>80.48290252686</ele>
        <time>2020-08-30T17:51:17.196Z</time>
      </trkpt>
      <trkpt lat="49.33869" lon="0.96032">
        <ele>80.37491607666</ele>
        <time>2020-08-30T17:51:19.403Z</time>
      </trkpt>
      <trkpt lat="49.33871" lon="0.96022">
        <ele>80.13495635986</ele>
        <time>2020-08-30T17:51:21.612Z</time>
      </trkpt>
      <trkpt lat="49.33871" lon="0.96019">
        <ele>80.02697753906</ele>
        <time>2020-08-30T17:51:23.822Z</time>
      </trkpt>
      <trkpt lat="49.33871" lon="0.96003">
        <ele>79.45107269287</ele>
        <time>2020-08-30T17:51:26.036Z</time>
      </trkpt>
      <trkpt lat="49.33871" lon="0.95979">
        <ele>78.72696685791</ele>
        <time>2020-08-30T17:51:28.255Z</time>
      </trkpt>
      <trkpt lat="49.33871" lon="0.95973">
        <ele>78.8709487915</ele>
        <time>2020-08-30T17:51:30.475Z</time>
      </trkpt>
      <trkpt lat="49.33872" lon="0.95959">
        <ele>79.3268737793</ele>
        <time>2020-08-30T17:51:32.698Z</time>
      </trkpt>
      <trkpt lat="49.33871" lon="0.95951">
        <ele>79.3988571167</ele>
        <time>2020-08-30T17:51:34.923Z</time>
      </trkpt>
      <trkpt lat="49.33869" lon="0.95927">
        <ele>79.73480224609</ele>
        <time>2020-08-30T17:51:37.153Z</time>
      </trkpt>
      <trkpt lat="49.33867" lon="0.95897">
        <ele>80.21472167969</ele>
        <time>2020-08-30T17:51:39.390Z</time>
      </trkpt>
      <trkpt lat="49.33866" lon="0.9587">
        <ele>80.76652526855</ele>
        <time>2020-08-30T17:51:41.633Z</time>
      </trkpt>
      <trkpt lat="49.33864" lon="0.95836">
        <ele>81.31813049316</ele>
        <time>2020-08-30T17:51:43.883Z</time>
      </trkpt>
      <trkpt lat="49.33859" lon="0.95763">
        <ele>82.22997283936</ele>
        <time>2020-08-30T17:51:46.149Z</time>
      </trkpt>
      <trkpt lat="49.33854" lon="0.95743">
        <ele>81.87003326416</ele>
        <time>2020-08-30T17:51:48.420Z</time>
      </trkpt>
      <trkpt lat="49.33854" lon="0.9574">
        <ele>81.94202423096</ele>
        <time>2020-08-30T17:51:50.691Z</time>
      </trkpt>
      <trkpt lat="49.33854" lon="0.95729">
        <ele>82.20597839355</ele>
        <time>2020-08-30T17:51:52.965Z</time>
      </trkpt>
      <trkpt lat="49.33854" lon="0.95717">
        <ele>82.49393463135</ele>
        <time>2020-08-30T17:51:55.241Z</time>
      </trkpt>
      <trkpt lat="49.33853" lon="0.95701">
        <ele>83.15219116211</ele>
        <time>2020-08-30T17:51:57.521Z</time>
      </trkpt>
      <trkpt lat="49.33852" lon="0.95687">
        <ele>83.7880859375</ele>
        <time>2020-08-30T17:51:59.804Z</time>
      </trkpt>
      <trkpt lat="49.33853" lon="0.95676">
        <ele>84.65193939209</ele>
        <time>2020-08-30T17:52:02.089Z</time>
      </trkpt>
      <trkpt lat="49.33853" lon="0.95669">
        <ele>85.07186889648</ele>
        <time>2020-08-30T17:52:04.376Z</time>
      </trkpt>
      <trkpt lat="49.33854" lon="0.95666">
        <ele>85.45580291748</ele>
        <time>2020-08-30T17:52:06.664Z</time>
      </trkpt>
      <trkpt lat="49.33857" lon="0.95652">
        <ele>86.90756225586</ele>
        <time>2020-08-30T17:52:08.955Z</time>
      </trkpt>
      <trkpt lat="49.33858" lon="0.95639">
        <ele>87.84462738037</ele>
        <time>2020-08-30T17:52:11.249Z</time>
      </trkpt>
      <trkpt lat="49.33857" lon="0.95632">
        <ele>87.98575592041</ele>
        <time>2020-08-30T17:52:13.544Z</time>
      </trkpt>
      <trkpt lat="49.33855" lon="0.95623">
        <ele>88.2377166748</ele>
        <time>2020-08-30T17:52:15.841Z</time>
      </trkpt>
      <trkpt lat="49.3385" lon="0.956">
        <ele>88.9095993042</ele>
        <time>2020-08-30T17:52:18.144Z</time>
      </trkpt>
      <trkpt lat="49.33849" lon="0.95595">
        <ele>89.07757568359</ele>
        <time>2020-08-30T17:52:20.448Z</time>
      </trkpt>
      <trkpt lat="49.33847" lon="0.95585">
        <ele>89.41352081299</ele>
        <time>2020-08-30T17:52:22.754Z</time>
      </trkpt>
      <trkpt lat="49.33844" lon="0.95567">
        <ele>90.16939544678</ele>
        <time>2020-08-30T17:52:25.064Z</time>
      </trkpt>
      <trkpt lat="49.33841" lon="0.95551">
        <ele>90.20281219482</ele>
        <time>2020-08-30T17:52:27.378Z</time>
      </trkpt>
      <trkpt lat="49.33835" lon="0.95529">
        <ele>88.69106292725</ele>
        <time>2020-08-30T17:52:29.697Z</time>
      </trkpt>
      <trkpt lat="49.33832" lon="0.95519">
        <ele>88.01429748535</ele>
        <time>2020-08-30T17:52:32.018Z</time>
      </trkpt>
      <trkpt lat="49.33829" lon="0.95504">
        <ele>87.40240478516</ele>
        <time>2020-08-30T17:52:34.343Z</time>
      </trkpt>
      <trkpt lat="49.33827" lon="0.95437">
        <ele>85.91701507568</ele>
        <time>2020-08-30T17:52:36.682Z</time>
      </trkpt>
      <trkpt lat="49.33826" lon="0.95422">
        <ele>86.62490081787</ele>
        <time>2020-08-30T17:52:39.025Z</time>
      </trkpt>
      <trkpt lat="49.33827" lon="0.95405">
        <ele>88.22063446045</ele>
        <time>2020-08-30T17:52:41.371Z</time>
      </trkpt>
      <trkpt lat="49.33826" lon="0.9534">
        <ele>89.02620697021</ele>
        <time>2020-08-30T17:52:43.732Z</time>
      </trkpt>
      <trkpt lat="49.33824" lon="0.95319">
        <ele>89.17018127441</ele>
        <time>2020-08-30T17:52:46.097Z</time>
      </trkpt>
      <trkpt lat="49.33819" lon="0.95284">
        <ele>89.82096862793</ele>
        <time>2020-08-30T17:52:48.470Z</time>
      </trkpt>
      <trkpt lat="49.33814" lon="0.95229">
        <ele>91.22762298584</ele>
        <time>2020-08-30T17:52:50.855Z</time>
      </trkpt>
      <trkpt lat="49.33811" lon="0.95179">
        <ele>92.99644470215</ele>
        <time>2020-08-30T17:52:53.251Z</time>
      </trkpt>
      <trkpt lat="49.33821" lon="0.95098">
        <ele>99.06413269043</ele>
        <time>2020-08-30T17:52:55.665Z</time>
      </trkpt>
      <trkpt lat="49.33826" lon="0.95089">
        <ele>100.02223968506</ele>
        <time>2020-08-30T17:52:58.082Z</time>
      </trkpt>
      <trkpt lat="49.33844" lon="0.9506">
        <ele>103.59764099121</ele>
        <time>2020-08-30T17:53:00.507Z</time>
      </trkpt>
      <trkpt lat="49.33857" lon="0.95048">
        <ele>106.39832305908</ele>
        <time>2020-08-30T17:53:02.937Z</time>
      </trkpt>
      <trkpt lat="49.33865" lon="0.9504">
        <ele>106.78308105469</ele>
        <time>2020-08-30T17:53:05.371Z</time>
      </trkpt>
      <trkpt lat="49.33876" lon="0.95036">
        <ele>107.31098937988</ele>
        <time>2020-08-30T17:53:07.808Z</time>
      </trkpt>
      <trkpt lat="49.33879" lon="0.9503">
        <ele>106.80707550049</ele>
        <time>2020-08-30T17:53:10.247Z</time>
      </trkpt>
      <trkpt lat="49.33883" lon="0.95019">
        <ele>105.73925018311</ele>
        <time>2020-08-30T17:53:12.689Z</time>
      </trkpt>
      <trkpt lat="49.33886" lon="0.95007">
        <ele>104.44346618652</ele>
        <time>2020-08-30T17:53:15.134Z</time>
      </trkpt>
      <trkpt lat="49.33887" lon="0.94999">
        <ele>103.48362731934</ele>
        <time>2020-08-30T17:53:17.580Z</time>
      </trkpt>
      <trkpt lat="49.33891" lon="0.94984">
        <ele>102.50565338135</ele>
        <time>2020-08-30T17:53:20.030Z</time>
      </trkpt>
      <trkpt lat="49.33901" lon="0.94943">
        <ele>101.76007080078</ele>
        <time>2020-08-30T17:53:22.489Z</time>
      </trkpt>
      <trkpt lat="49.33903" lon="0.94931">
        <ele>101.59210205078</ele>
        <time>2020-08-30T17:53:24.951Z</time>
      </trkpt>
      <trkpt lat="49.33906" lon="0.94912">
        <ele>102.55288696289</ele>
        <time>2020-08-30T17:53:27.417Z</time>
      </trkpt>
      <trkpt lat="49.33909" lon="0.94877">
        <ele>105.79315185547</ele>
        <time>2020-08-30T17:53:29.891Z</time>
      </trkpt>
      <trkpt lat="49.33909" lon="0.94864">
        <ele>107.82080841064</ele>
        <time>2020-08-30T17:53:32.368Z</time>
      </trkpt>
      <trkpt lat="49.33903" lon="0.94827">
        <ele>109.4034576416</ele>
        <time>2020-08-30T17:53:34.853Z</time>
      </trkpt>
      <trkpt lat="49.33904" lon="0.94822">
        <ele>109.439453125</ele>
        <time>2020-08-30T17:53:37.339Z</time>
      </trkpt>
      <trkpt lat="49.33905" lon="0.94817">
        <ele>109.4754486084</ele>
        <time>2020-08-30T17:53:39.827Z</time>
      </trkpt>
      <trkpt lat="49.33906" lon="0.94804">
        <ele>109.80346679688</ele>
        <time>2020-08-30T17:53:42.317Z</time>
      </trkpt>
      <trkpt lat="49.33908" lon="0.94799">
        <ele>110.29537963867</ele>
        <time>2020-08-30T17:53:44.809Z</time>
      </trkpt>
      <trkpt lat="49.33909" lon="0.94794">
        <ele>110.75130462646</ele>
        <time>2020-08-30T17:53:47.302Z</time>
      </trkpt>
      <trkpt lat="49.3391" lon="0.94791">
        <ele>111.03926086426</ele>
        <time>2020-08-30T17:53:49.796Z</time>
      </trkpt>
      <trkpt lat="49.3391" lon="0.9479">
        <ele>111.12324523926</ele>
        <time>2020-08-30T17:53:52.290Z</time>
      </trkpt>
      <trkpt lat="49.3391" lon="0.94777">
        <ele>112.21506500244</ele>
        <time>2020-08-30T17:53:54.787Z</time>
      </trkpt>
      <trkpt lat="49.33907" lon="0.9477">
        <ele>112.69498443604</ele>
        <time>2020-08-30T17:53:57.285Z</time>
      </trkpt>
      <trkpt lat="49.339" lon="0.94768">
        <ele>112.61100006104</ele>
        <time>2020-08-30T17:53:59.786Z</time>
      </trkpt>
      <trkpt lat="49.33896" lon="0.94766">
        <ele>112.63499450684</ele>
        <time>2020-08-30T17:54:02.288Z</time>
      </trkpt>
      <trkpt lat="49.33893" lon="0.9476">
        <ele>113.03092956543</ele>
        <time>2020-08-30T17:54:04.792Z</time>
      </trkpt>
      <trkpt lat="49.3389" lon="0.94749">
        <ele>113.84679412842</ele>
        <time>2020-08-30T17:54:07.298Z</time>
      </trkpt>
      <trkpt lat="49.3389" lon="0.94744">
        <ele>114.26672363281</ele>
        <time>2020-08-30T17:54:09.806Z</time>
      </trkpt>
      <trkpt lat="49.33889" lon="0.94739">
        <ele>114.65065765381</ele>
        <time>2020-08-30T17:54:12.315Z</time>
      </trkpt>
      <trkpt lat="49.3389" lon="0.94727">
        <ele>115.694480896</ele>
        <time>2020-08-30T17:54:14.826Z</time>
      </trkpt>
      <trkpt lat="49.33892" lon="0.94712">
        <ele>116.29859161377</ele>
        <time>2020-08-30T17:54:17.341Z</time>
      </trkpt>
      <trkpt lat="49.33891" lon="0.94706">
        <ele>116.40657806396</ele>
        <time>2020-08-30T17:54:19.857Z</time>
      </trkpt>
      <trkpt lat="49.33891" lon="0.94703">
        <ele>116.47856140137</ele>
        <time>2020-08-30T17:54:22.374Z</time>
      </trkpt>
      <trkpt lat="49.33891" lon="0.94686">
        <ele>116.88649749756</ele>
        <time>2020-08-30T17:54:24.894Z</time>
      </trkpt>
      <trkpt lat="49.33891" lon="0.94664">
        <ele>117.4596862793</ele>
        <time>2020-08-30T17:54:27.419Z</time>
      </trkpt>
      <trkpt lat="49.33891" lon="0.94662">
        <ele>117.53167724609</ele>
        <time>2020-08-30T17:54:29.945Z</time>
      </trkpt>
      <trkpt lat="49.33893" lon="0.94652">
        <ele>117.98760223389</ele>
        <time>2020-08-30T17:54:32.473Z</time>
      </trkpt>
      <trkpt lat="49.3389" lon="0.94643">
        <ele>118.16757202148</ele>
        <time>2020-08-30T17:54:35.003Z</time>
      </trkpt>
      <trkpt lat="49.33886" lon="0.94641">
        <ele>118.04759216309</ele>
        <time>2020-08-30T17:54:37.534Z</time>
      </trkpt>
      <trkpt lat="49.33885" lon="0.9464">
        <ele>118.12949371338</ele>
        <time>2020-08-30T17:54:40.066Z</time>
      </trkpt>
      <trkpt lat="49.33877" lon="0.94604">
        <ele>123.36061859131</ele>
        <time>2020-08-30T17:54:42.606Z</time>
      </trkpt>
      <trkpt lat="49.33882" lon="0.94572">
        <ele>128.18058776855</ele>
        <time>2020-08-30T17:54:45.153Z</time>
      </trkpt>
      <trkpt lat="49.33884" lon="0.94535">
        <ele>129.36839294434</ele>
        <time>2020-08-30T17:54:47.708Z</time>
      </trkpt>
      <trkpt lat="49.33891" lon="0.94494">
        <ele>130.59506225586</ele>
        <time>2020-08-30T17:54:50.273Z</time>
      </trkpt>
      <trkpt lat="49.33892" lon="0.94463">
        <ele>131.46032714844</ele>
        <time>2020-08-30T17:54:52.844Z</time>
      </trkpt>
      <trkpt lat="49.33841" lon="0.94431">
        <ele>130.38000488281</ele>
        <time>2020-08-30T17:54:55.434Z</time>
      </trkpt>
      <trkpt lat="49.33829" lon="0.94424">
        <ele>129.75610351562</ele>
        <time>2020-08-30T17:54:58.028Z</time>
      </trkpt>
      <trkpt lat="49.33805" lon="0.94411">
        <ele>128.55630493164</ele>
        <time>2020-08-30T17:55:00.631Z</time>
      </trkpt>
      <trkpt lat="49.338" lon="0.9441">
        <ele>128.38833618164</ele>
        <time>2020-08-30T17:55:03.235Z</time>
      </trkpt>
      <trkpt lat="49.33781" lon="0.944">
        <ele>127.34545898438</ele>
        <time>2020-08-30T17:55:05.846Z</time>
      </trkpt>
      <trkpt lat="49.33759" lon="0.94392">
        <ele>123.14692687988</ele>
        <time>2020-08-30T17:55:08.465Z</time>
      </trkpt>
      <trkpt lat="49.33749" lon="0.94388">
        <ele>121.26902770996</ele>
        <time>2020-08-30T17:55:11.087Z</time>
      </trkpt>
      <trkpt lat="49.33737" lon="0.94381">
        <ele>119.02539825439</ele>
        <time>2020-08-30T17:55:13.713Z</time>
      </trkpt>
      <trkpt lat="49.33714" lon="0.9437">
        <ele>114.75411224365</ele>
        <time>2020-08-30T17:55:16.347Z</time>
      </trkpt>
      <trkpt lat="49.33705" lon="0.94366">
        <ele>113.08638763428</ele>
        <time>2020-08-30T17:55:18.984Z</time>
      </trkpt>
      <trkpt lat="49.337" lon="0.94365">
        <ele>112.17454528809</ele>
        <time>2020-08-30T17:55:21.623Z</time>
      </trkpt>
      <trkpt lat="49.33695" lon="0.94363">
        <ele>111.00081634521</ele>
        <time>2020-08-30T17:55:24.264Z</time>
      </trkpt>
      <trkpt lat="49.33687" lon="0.94362">
        <ele>108.68520355225</ele>
        <time>2020-08-30T17:55:26.908Z</time>
      </trkpt>
      <trkpt lat="49.33675" lon="0.9436">
        <ele>105.2057800293</ele>
        <time>2020-08-30T17:55:29.556Z</time>
      </trkpt>
      <trkpt lat="49.33675" lon="0.94358">
        <ele>105.1817855835</ele>
        <time>2020-08-30T17:55:32.204Z</time>
      </trkpt>
      <trkpt lat="49.33674" lon="0.94356">
        <ele>104.8698348999</ele>
        <time>2020-08-30T17:55:34.853Z</time>
      </trkpt>
      <trkpt lat="49.33672" lon="0.94341">
        <ele>104.11396026611</ele>
        <time>2020-08-30T17:55:37.505Z</time>
      </trkpt>
      <trkpt lat="49.33672" lon="0.94329">
        <ele>103.96998596191</ele>
        <time>2020-08-30T17:55:40.159Z</time>
      </trkpt>
      <trkpt lat="49.33671" lon="0.94319">
        <ele>103.56205749512</ele>
        <time>2020-08-30T17:55:42.816Z</time>
      </trkpt>
      <trkpt lat="49.33669" lon="0.94301">
        <ele>102.84690093994</ele>
        <time>2020-08-30T17:55:45.477Z</time>
      </trkpt>
      <trkpt lat="49.33668" lon="0.94295">
        <ele>102.55894470215</ele>
        <time>2020-08-30T17:55:48.139Z</time>
      </trkpt>
      <trkpt lat="49.33667" lon="0.94276">
        <ele>102.29690551758</ele>
        <time>2020-08-30T17:55:50.805Z</time>
      </trkpt>
      <trkpt lat="49.33666" lon="0.9425">
        <ele>102.60884857178</ele>
        <time>2020-08-30T17:55:53.477Z</time>
      </trkpt>
      <trkpt lat="49.33666" lon="0.94241">
        <ele>102.82481384277</ele>
        <time>2020-08-30T17:55:56.151Z</time>
      </trkpt>
      <trkpt lat="49.33666" lon="0.94224">
        <ele>103.23442077637</ele>
        <time>2020-08-30T17:55:58.829Z</time>
      </trkpt>
      <trkpt lat="49.33666" lon="0.94216">
        <ele>103.71434020996</ele>
        <time>2020-08-30T17:56:01.508Z</time>
      </trkpt>
      <trkpt lat="49.33667" lon="0.94207">
        <ele>104.56620025635</ele>
        <time>2020-08-30T17:56:04.189Z</time>
      </trkpt>
      <trkpt lat="49.3367" lon="0.94187">
        <ele>106.23476409912</ele>
        <time>2020-08-30T17:56:06.875Z</time>
      </trkpt>
      <trkpt lat="49.33673" lon="0.94169">
        <ele>107.2425994873</ele>
        <time>2020-08-30T17:56:09.565Z</time>
      </trkpt>
      <trkpt lat="49.33676" lon="0.94161">
        <ele>108.1304473877</ele>
        <time>2020-08-30T17:56:12.257Z</time>
      </trkpt>
      <trkpt lat="49.33679" lon="0.94143">
        <ele>109.13828277588</ele>
        <time>2020-08-30T17:56:14.953Z</time>
      </trkpt>
      <trkpt lat="49.33684" lon="0.94117">
        <ele>112.35147094727</ele>
        <time>2020-08-30T17:56:17.655Z</time>
      </trkpt>
      <trkpt lat="49.3369" lon="0.94092">
        <ele>115.66291809082</ele>
        <time>2020-08-30T17:56:20.363Z</time>
      </trkpt>
      <trkpt lat="49.33692" lon="0.94082">
        <ele>116.88671875</ele>
        <time>2020-08-30T17:56:23.073Z</time>
      </trkpt>
      <trkpt lat="49.33699" lon="0.94045">
        <ele>121.40810394287</ele>
        <time>2020-08-30T17:56:25.791Z</time>
      </trkpt>
      <trkpt lat="49.33691" lon="0.94011">
        <ele>122.63089752197</ele>
        <time>2020-08-30T17:56:28.517Z</time>
      </trkpt>
      <trkpt lat="49.33681" lon="0.93982">
        <ele>122.53491210938</ele>
        <time>2020-08-30T17:56:31.250Z</time>
      </trkpt>
      <trkpt lat="49.33677" lon="0.93971">
        <ele>122.36682891846</ele>
        <time>2020-08-30T17:56:33.986Z</time>
      </trkpt>
      <trkpt lat="49.33668" lon="0.93956">
        <ele>120.85507965088</ele>
        <time>2020-08-30T17:56:36.726Z</time>
      </trkpt>
      <trkpt lat="49.33669" lon="0.93927">
        <ele>122.33367919922</ele>
        <time>2020-08-30T17:56:39.473Z</time>
      </trkpt>
      <trkpt lat="49.33663" lon="0.93901">
        <ele>121.51781463623</ele>
        <time>2020-08-30T17:56:42.226Z</time>
      </trkpt>
      <trkpt lat="49.33655" lon="0.9388">
        <ele>119.59056854248</ele>
        <time>2020-08-30T17:56:44.984Z</time>
      </trkpt>
      <trkpt lat="49.33652" lon="0.93874">
        <ele>118.72671508789</ele>
        <time>2020-08-30T17:56:47.744Z</time>
      </trkpt>
      <trkpt lat="49.33649" lon="0.93868">
        <ele>117.86285400391</ele>
        <time>2020-08-30T17:56:50.505Z</time>
      </trkpt>
      <trkpt lat="49.33639" lon="0.93853">
        <ele>115.10331726074</ele>
        <time>2020-08-30T17:56:53.271Z</time>
      </trkpt>
      <trkpt lat="49.3363" lon="0.9384">
        <ele>112.63172912598</ele>
        <time>2020-08-30T17:56:56.041Z</time>
      </trkpt>
      <trkpt lat="49.33618" lon="0.93826">
        <ele>109.41626739502</ele>
        <time>2020-08-30T17:56:58.816Z</time>
      </trkpt>
      <trkpt lat="49.33614" lon="0.93813">
        <ele>108.14447784424</ele>
        <time>2020-08-30T17:57:01.594Z</time>
      </trkpt>
      <trkpt lat="49.33613" lon="0.93798">
        <ele>107.32116699219</ele>
        <time>2020-08-30T17:57:04.376Z</time>
      </trkpt>
      <trkpt lat="49.33608" lon="0.9378">
        <ele>105.25750732422</ele>
        <time>2020-08-30T17:57:07.162Z</time>
      </trkpt>
      <trkpt lat="49.33603" lon="0.93776">
        <ele>103.86573791504</ele>
        <time>2020-08-30T17:57:09.950Z</time>
      </trkpt>
      <trkpt lat="49.33596" lon="0.93769">
        <ele>101.85007476807</ele>
        <time>2020-08-30T17:57:12.741Z</time>
      </trkpt>
      <trkpt lat="49.33594" lon="0.93764">
        <ele>101.13019561768</ele>
        <time>2020-08-30T17:57:15.533Z</time>
      </trkpt>
      <trkpt lat="49.33592" lon="0.93756">
        <ele>100.26634216309</ele>
        <time>2020-08-30T17:57:18.327Z</time>
      </trkpt>
      <trkpt lat="49.33593" lon="0.9375">
        <ele>100.21834564209</ele>
        <time>2020-08-30T17:57:21.122Z</time>
      </trkpt>
      <trkpt lat="49.33595" lon="0.93745">
        <ele>100.45830535889</ele>
        <time>2020-08-30T17:57:23.918Z</time>
      </trkpt>
      <trkpt lat="49.33603" lon="0.93729">
        <ele>101.61011505127</ele>
        <time>2020-08-30T17:57:26.719Z</time>
      </trkpt>
      <trkpt lat="49.33608" lon="0.93718">
        <ele>102.28200531006</ele>
        <time>2020-08-30T17:57:29.523Z</time>
      </trkpt>
      <trkpt lat="49.33613" lon="0.93709">
        <ele>101.70645904541</ele>
        <time>2020-08-30T17:57:32.329Z</time>
      </trkpt>
      <trkpt lat="49.33619" lon="0.93698">
        <ele>101.16773986816</ele>
        <time>2020-08-30T17:57:35.138Z</time>
      </trkpt>
      <trkpt lat="49.33633" lon="0.93687">
        <ele>102.10358428955</ele>
        <time>2020-08-30T17:57:37.953Z</time>
      </trkpt>
      <trkpt lat="49.33635" lon="0.93687">
        <ele>102.46352386475</ele>
        <time>2020-08-30T17:57:40.768Z</time>
      </trkpt>
      <trkpt lat="49.33637" lon="0.93687">
        <ele>102.82346343994</ele>
        <time>2020-08-30T17:57:43.584Z</time>
      </trkpt>
      <trkpt lat="49.3364" lon="0.93687">
        <ele>103.36337280273</ele>
        <time>2020-08-30T17:57:46.401Z</time>
      </trkpt>
      <trkpt lat="49.33646" lon="0.93688">
        <ele>104.58716583252</ele>
        <time>2020-08-30T17:57:49.220Z</time>
      </trkpt>
      <trkpt lat="49.33652" lon="0.93688">
        <ele>105.66698455811</ele>
        <time>2020-08-30T17:57:52.041Z</time>
      </trkpt>
      <trkpt lat="49.33662" lon="0.93689">
        <ele>107.61066436768</ele>
        <time>2020-08-30T17:57:54.865Z</time>
      </trkpt>
      <trkpt lat="49.33671" lon="0.93692">
        <ele>109.12010192871</ele>
        <time>2020-08-30T17:57:57.692Z</time>
      </trkpt>
      <trkpt lat="49.3371" lon="0.93706">
        <ele>114.99396514893</ele>
        <time>2020-08-30T17:58:00.533Z</time>
      </trkpt>
      <trkpt lat="49.33722" lon="0.93712">
        <ele>116.7216796875</ele>
        <time>2020-08-30T17:58:03.378Z</time>
      </trkpt>
      <trkpt lat="49.3374" lon="0.93718">
        <ele>118.59336853027</ele>
        <time>2020-08-30T17:58:06.229Z</time>
      </trkpt>
      <trkpt lat="49.33744" lon="0.93719">
        <ele>118.92931365967</ele>
        <time>2020-08-30T17:58:09.081Z</time>
      </trkpt>
      <trkpt lat="49.33746" lon="0.93719">
        <ele>118.97730255127</ele>
        <time>2020-08-30T17:58:11.934Z</time>
      </trkpt>
      <trkpt lat="49.33748" lon="0.9372">
        <ele>119.26525878906</ele>
        <time>2020-08-30T17:58:14.788Z</time>
      </trkpt>
      <trkpt lat="49.33752" lon="0.9372">
        <ele>119.36123657227</ele>
        <time>2020-08-30T17:58:17.643Z</time>
      </trkpt>
      <trkpt lat="49.33756" lon="0.93717">
        <ele>118.73734283447</ele>
        <time>2020-08-30T17:58:20.500Z</time>
      </trkpt>
      <trkpt lat="49.33763" lon="0.93715">
        <ele>118.42539215088</ele>
        <time>2020-08-30T17:58:23.359Z</time>
      </trkpt>
      <trkpt lat="49.33766" lon="0.93715">
        <ele>118.49738311768</ele>
        <time>2020-08-30T17:58:26.219Z</time>
      </trkpt>
      <trkpt lat="49.33776" lon="0.9372">
        <ele>119.93714141846</ele>
        <time>2020-08-30T17:58:29.083Z</time>
      </trkpt>
      <trkpt lat="49.33787" lon="0.93718">
        <ele>119.81525421143</ele>
        <time>2020-08-30T17:58:31.950Z</time>
      </trkpt>
      <trkpt lat="49.33794" lon="0.93717">
        <ele>120.11520385742</ele>
        <time>2020-08-30T17:58:34.820Z</time>
      </trkpt>
      <trkpt lat="49.33795" lon="0.93718">
        <ele>120.48714447021</ele>
        <time>2020-08-30T17:58:37.690Z</time>
      </trkpt>
      <trkpt lat="49.33808" lon="0.93727">
        <ele>123.62399291992</ele>
        <time>2020-08-30T17:58:40.565Z</time>
      </trkpt>
      <trkpt lat="49.33813" lon="0.93728">
        <ele>124.15190124512</ele>
        <time>2020-08-30T17:58:43.441Z</time>
      </trkpt>
      <trkpt lat="49.33816" lon="0.93729">
        <ele>124.51184082031</ele>
        <time>2020-08-30T17:58:46.318Z</time>
      </trkpt>
      <trkpt lat="49.33818" lon="0.9373">
        <ele>124.78779602051</ele>
        <time>2020-08-30T17:58:49.196Z</time>
      </trkpt>
      <trkpt lat="49.3382" lon="0.9373">
        <ele>124.95576477051</ele>
        <time>2020-08-30T17:58:52.075Z</time>
      </trkpt>
      <trkpt lat="49.33825" lon="0.93731">
        <ele>125.4836807251</ele>
        <time>2020-08-30T17:58:54.955Z</time>
      </trkpt>
      <trkpt lat="49.33827" lon="0.93732">
        <ele>125.75963592529</ele>
        <time>2020-08-30T17:58:57.836Z</time>
      </trkpt>
      <trkpt lat="49.33834" lon="0.93733">
        <ele>126.45552062988</ele>
        <time>2020-08-30T17:59:00.720Z</time>
      </trkpt>
      <trkpt lat="49.33838" lon="0.93733">
        <ele>126.79145812988</ele>
        <time>2020-08-30T17:59:03.605Z</time>
      </trkpt>
      <trkpt lat="49.33841" lon="0.93731">
        <ele>126.82745361328</ele>
        <time>2020-08-30T17:59:06.491Z</time>
      </trkpt>
      <trkpt lat="49.33869" lon="0.93711">
        <ele>125.73941040039</ele>
        <time>2020-08-30T17:59:09.387Z</time>
      </trkpt>
      <trkpt lat="49.33881" lon="0.93691">
        <ele>122.71591186523</ele>
        <time>2020-08-30T17:59:12.289Z</time>
      </trkpt>
      <trkpt lat="49.33889" lon="0.93672">
        <ele>119.47645568848</ele>
        <time>2020-08-30T17:59:15.196Z</time>
      </trkpt>
      <trkpt lat="49.33893" lon="0.93658">
        <ele>118.69533538818</ele>
        <time>2020-08-30T17:59:18.106Z</time>
      </trkpt>
      <trkpt lat="49.33896" lon="0.9364">
        <ele>118.31131744385</ele>
        <time>2020-08-30T17:59:21.021Z</time>
      </trkpt>
      <trkpt lat="49.33898" lon="0.93633">
        <ele>117.32747650146</ele>
        <time>2020-08-30T17:59:23.937Z</time>
      </trkpt>
      <trkpt lat="49.33911" lon="0.93584">
        <ele>111.87824249268</ele>
        <time>2020-08-30T17:59:26.865Z</time>
      </trkpt>
      <trkpt lat="49.33915" lon="0.93572">
        <ele>111.68627166748</ele>
        <time>2020-08-30T17:59:29.796Z</time>
      </trkpt>
      <trkpt lat="49.3392" lon="0.93558">
        <ele>111.57829284668</ele>
        <time>2020-08-30T17:59:32.730Z</time>
      </trkpt>
      <trkpt lat="49.33923" lon="0.93541">
        <ele>109.98810577393</ele>
        <time>2020-08-30T17:59:35.668Z</time>
      </trkpt>
      <trkpt lat="49.33928" lon="0.9352">
        <ele>109.09712219238</ele>
        <time>2020-08-30T17:59:38.611Z</time>
      </trkpt>
      <trkpt lat="49.33933" lon="0.93498">
        <ele>108.37724304199</ele>
        <time>2020-08-30T17:59:41.559Z</time>
      </trkpt>
      <trkpt lat="49.33944" lon="0.93443">
        <ele>107.36483764648</ele>
        <time>2020-08-30T17:59:44.519Z</time>
      </trkpt>
      <trkpt lat="49.33947" lon="0.93429">
        <ele>107.61679840088</ele>
        <time>2020-08-30T17:59:47.483Z</time>
      </trkpt>
      <trkpt lat="49.33947" lon="0.9342">
        <ele>106.96890258789</ele>
        <time>2020-08-30T17:59:50.449Z</time>
      </trkpt>
      <trkpt lat="49.33952" lon="0.93368">
        <ele>106.17791748047</ele>
        <time>2020-08-30T17:59:53.426Z</time>
      </trkpt>
      <trkpt lat="49.33955" lon="0.93353">
        <ele>106.93378448486</ele>
        <time>2020-08-30T17:59:56.407Z</time>
      </trkpt>
      <trkpt lat="49.33954" lon="0.93334">
        <ele>106.39387512207</ele>
        <time>2020-08-30T17:59:59.392Z</time>
      </trkpt>
      <trkpt lat="49.3396" lon="0.93306">
        <ele>108.09604644775</ele>
        <time>2020-08-30T18:00:02.383Z</time>
      </trkpt>
      <trkpt lat="49.33961" lon="0.93294">
        <ele>108.41999816895</ele>
        <time>2020-08-30T18:00:05.377Z</time>
      </trkpt>
      <trkpt lat="49.33965" lon="0.93285">
        <ele>109.71578216553</ele>
        <time>2020-08-30T18:00:08.373Z</time>
      </trkpt>
      <trkpt lat="49.33967" lon="0.93262">
        <ele>110.36367034912</ele>
        <time>2020-08-30T18:00:11.374Z</time>
      </trkpt>
      <trkpt lat="49.33967" lon="0.93257">
        <ele>110.36367034912</ele>
        <time>2020-08-30T18:00:14.376Z</time>
      </trkpt>
      <trkpt lat="49.33971" lon="0.93235">
        <ele>111.50919342041</ele>
        <time>2020-08-30T18:00:17.383Z</time>
      </trkpt>
      <trkpt lat="49.33971" lon="0.9323">
        <ele>111.44920349121</ele>
        <time>2020-08-30T18:00:20.391Z</time>
      </trkpt>
      <trkpt lat="49.33966" lon="0.93209">
        <ele>110.35161590576</ele>
        <time>2020-08-30T18:00:23.404Z</time>
      </trkpt>
      <trkpt lat="49.33964" lon="0.93206">
        <ele>109.83570098877</ele>
        <time>2020-08-30T18:00:26.418Z</time>
      </trkpt>
      <trkpt lat="49.33958" lon="0.93199">
        <ele>108.21597290039</ele>
        <time>2020-08-30T18:00:29.435Z</time>
      </trkpt>
      <trkpt lat="49.33951" lon="0.9319">
        <ele>106.35628509521</ele>
        <time>2020-08-30T18:00:32.455Z</time>
      </trkpt>
      <trkpt lat="49.33947" lon="0.93183">
        <ele>105.35191345215</ele>
        <time>2020-08-30T18:00:35.477Z</time>
      </trkpt>
      <trkpt lat="49.33942" lon="0.93172">
        <ele>104.06812286377</ele>
        <time>2020-08-30T18:00:38.502Z</time>
      </trkpt>
      <trkpt lat="49.33938" lon="0.93147">
        <ele>103.62419891357</ele>
        <time>2020-08-30T18:00:41.532Z</time>
      </trkpt>
      <trkpt lat="49.33928" lon="0.93122">
        <ele>101.60932159424</ele>
        <time>2020-08-30T18:00:44.569Z</time>
      </trkpt>
      <trkpt lat="49.33925" lon="0.93111">
        <ele>101.00305175781</ele>
        <time>2020-08-30T18:00:47.608Z</time>
      </trkpt>
      <trkpt lat="49.3392" lon="0.93095">
        <ele>99.88723754883</ele>
        <time>2020-08-30T18:00:50.651Z</time>
      </trkpt>
      <trkpt lat="49.33916" lon="0.93083">
        <ele>98.97538757324</ele>
        <time>2020-08-30T18:00:53.697Z</time>
      </trkpt>
      <trkpt lat="49.33913" lon="0.93074">
        <ele>98.29150390625</ele>
        <time>2020-08-30T18:00:56.745Z</time>
      </trkpt>
      <trkpt lat="49.3391" lon="0.93063">
        <ele>97.65560913086</ele>
        <time>2020-08-30T18:00:59.796Z</time>
      </trkpt>
      <trkpt lat="49.33908" lon="0.93047">
        <ele>98.29507446289</ele>
        <time>2020-08-30T18:01:02.850Z</time>
      </trkpt>
      <trkpt lat="49.33896" lon="0.93017">
        <ele>97.9351348877</ele>
        <time>2020-08-30T18:01:05.912Z</time>
      </trkpt>
      <trkpt lat="49.33896" lon="0.93006">
        <ele>99.12294006348</ele>
        <time>2020-08-30T18:01:08.976Z</time>
      </trkpt>
      <trkpt lat="49.33897" lon="0.92995">
        <ele>100.04296112061</ele>
        <time>2020-08-30T18:01:12.043Z</time>
      </trkpt>
      <trkpt lat="49.339" lon="0.92986">
        <ele>101.33874511719</ele>
        <time>2020-08-30T18:01:15.112Z</time>
      </trkpt>
      <trkpt lat="49.33901" lon="0.92984">
        <ele>101.71068572998</ele>
        <time>2020-08-30T18:01:18.182Z</time>
      </trkpt>
      <trkpt lat="49.33901" lon="0.92982">
        <ele>101.83066558838</ele>
        <time>2020-08-30T18:01:21.252Z</time>
      </trkpt>
      <trkpt lat="49.33902" lon="0.92978">
        <ele>102.32258605957</ele>
        <time>2020-08-30T18:01:24.323Z</time>
      </trkpt>
      <trkpt lat="49.33903" lon="0.92976">
        <ele>102.69451904297</ele>
        <time>2020-08-30T18:01:27.395Z</time>
      </trkpt>
      <trkpt lat="49.33904" lon="0.92971">
        <ele>103.38263702393</ele>
        <time>2020-08-30T18:01:30.468Z</time>
      </trkpt>
      <trkpt lat="49.33903" lon="0.92965">
        <ele>103.77857208252</ele>
        <time>2020-08-30T18:01:33.542Z</time>
      </trkpt>
      <trkpt lat="49.33904" lon="0.92963">
        <ele>104.24649810791</ele>
        <time>2020-08-30T18:01:36.617Z</time>
      </trkpt>
      <trkpt lat="49.33897" lon="0.92934">
        <ele>105.61426544189</ele>
        <time>2020-08-30T18:01:39.698Z</time>
      </trkpt>
      <trkpt lat="49.33893" lon="0.9291">
        <ele>106.74292755127</ele>
        <time>2020-08-30T18:01:42.785Z</time>
      </trkpt>
      <trkpt lat="49.33883" lon="0.92894">
        <ele>105.66310119629</ele>
        <time>2020-08-30T18:01:45.877Z</time>
      </trkpt>
      <trkpt lat="49.33881" lon="0.92875">
        <ele>107.51014709473</ele>
        <time>2020-08-30T18:01:48.973Z</time>
      </trkpt>
      <trkpt lat="49.33879" lon="0.92866">
        <ele>108.29001617432</ele>
        <time>2020-08-30T18:01:52.071Z</time>
      </trkpt>
      <trkpt lat="49.33884" lon="0.92855">
        <ele>110.76160430908</ele>
        <time>2020-08-30T18:01:55.172Z</time>
      </trkpt>
      <trkpt lat="49.33884" lon="0.92851">
        <ele>111.28951263428</ele>
        <time>2020-08-30T18:01:58.274Z</time>
      </trkpt>
      <trkpt lat="49.33884" lon="0.92848">
        <ele>111.68544769287</ele>
        <time>2020-08-30T18:02:01.376Z</time>
      </trkpt>
      <trkpt lat="49.33884" lon="0.92834">
        <ele>113.53314208984</ele>
        <time>2020-08-30T18:02:04.481Z</time>
      </trkpt>
      <trkpt lat="49.33887" lon="0.92825">
        <ele>114.9631729126</ele>
        <time>2020-08-30T18:02:07.589Z</time>
      </trkpt>
      <trkpt lat="49.33889" lon="0.92819">
        <ele>115.58706665039</ele>
        <time>2020-08-30T18:02:10.698Z</time>
      </trkpt>
      <trkpt lat="49.33891" lon="0.92818">
        <ele>115.91101074219</ele>
        <time>2020-08-30T18:02:13.808Z</time>
      </trkpt>
      <trkpt lat="49.33903" lon="0.92819">
        <ele>117.43475341797</ele>
        <time>2020-08-30T18:02:16.922Z</time>
      </trkpt>
      <trkpt lat="49.33912" lon="0.92814">
        <ele>118.92250823975</ele>
        <time>2020-08-30T18:02:20.039Z</time>
      </trkpt>
      <trkpt lat="49.33915" lon="0.92803">
        <ele>119.97833251953</ele>
        <time>2020-08-30T18:02:23.159Z</time>
      </trkpt>
      <trkpt lat="49.33915" lon="0.92791">
        <ele>120.69821166992</ele>
        <time>2020-08-30T18:02:26.281Z</time>
      </trkpt>
      <trkpt lat="49.33919" lon="0.92784">
        <ele>121.64605712891</ele>
        <time>2020-08-30T18:02:29.405Z</time>
      </trkpt>
      <trkpt lat="49.33939" lon="0.92758">
        <ele>124.3772354126</ele>
        <time>2020-08-30T18:02:32.538Z</time>
      </trkpt>
      <trkpt lat="49.33967" lon="0.92729">
        <ele>125.8267364502</ele>
        <time>2020-08-30T18:02:35.682Z</time>
      </trkpt>
      <trkpt lat="49.3398" lon="0.92723">
        <ele>125.598777771</ele>
        <time>2020-08-30T18:02:38.831Z</time>
      </trkpt>
      <trkpt lat="49.3399" lon="0.92717">
        <ele>125.4068069458</ele>
        <time>2020-08-30T18:02:41.983Z</time>
      </trkpt>
      <trkpt lat="49.33992" lon="0.92714">
        <ele>125.3468170166</ele>
        <time>2020-08-30T18:02:45.136Z</time>
      </trkpt>
      <trkpt lat="49.33991" lon="0.92708">
        <ele>125.2868270874</ele>
        <time>2020-08-30T18:02:48.291Z</time>
      </trkpt>
      <trkpt lat="49.33995" lon="0.927">
        <ele>125.1428527832</ele>
        <time>2020-08-30T18:02:51.448Z</time>
      </trkpt>
      <trkpt lat="49.33994" lon="0.92681">
        <ele>124.78067016602</ele>
        <time>2020-08-30T18:02:54.609Z</time>
      </trkpt>
      <trkpt lat="49.34" lon="0.92669">
        <ele>124.13277435303</ele>
        <time>2020-08-30T18:02:57.773Z</time>
      </trkpt>
      <trkpt lat="49.34005" lon="0.92666">
        <ele>123.84482574463</ele>
        <time>2020-08-30T18:03:00.939Z</time>
      </trkpt>
      <trkpt lat="49.3401" lon="0.92664">
        <ele>123.59286499023</ele>
        <time>2020-08-30T18:03:04.107Z</time>
      </trkpt>
      <trkpt lat="49.34012" lon="0.92662">
        <ele>123.44889068604</ele>
        <time>2020-08-30T18:03:07.276Z</time>
      </trkpt>
      <trkpt lat="49.34017" lon="0.92653">
        <ele>122.94497680664</ele>
        <time>2020-08-30T18:03:10.447Z</time>
      </trkpt>
      <trkpt lat="49.34027" lon="0.92654">
        <ele>122.62103271484</ele>
        <time>2020-08-30T18:03:13.621Z</time>
      </trkpt>
      <trkpt lat="49.3404" lon="0.92638">
        <ele>121.74752044678</ele>
        <time>2020-08-30T18:03:16.801Z</time>
      </trkpt>
      <trkpt lat="49.34045" lon="0.92635">
        <ele>121.59154510498</ele>
        <time>2020-08-30T18:03:19.983Z</time>
      </trkpt>
      <trkpt lat="49.34054" lon="0.92619">
        <ele>121.18361663818</ele>
        <time>2020-08-30T18:03:23.169Z</time>
      </trkpt>
      <trkpt lat="49.3404" lon="0.92553">
        <ele>120.08464050293</ele>
        <time>2020-08-30T18:03:26.371Z</time>
      </trkpt>
      <trkpt lat="49.34037" lon="0.92546">
        <ele>119.88067626953</ele>
        <time>2020-08-30T18:03:29.574Z</time>
      </trkpt>
      <trkpt lat="49.3401" lon="0.92502">
        <ele>118.68800354004</ele>
        <time>2020-08-30T18:03:32.791Z</time>
      </trkpt>
      <trkpt lat="49.33998" lon="0.92478">
        <ele>117.82415008545</ele>
        <time>2020-08-30T18:03:36.014Z</time>
      </trkpt>
      <trkpt lat="49.33989" lon="0.92459">
        <ele>117.11626434326</ele>
        <time>2020-08-30T18:03:39.242Z</time>
      </trkpt>
      <trkpt lat="49.33985" lon="0.92452">
        <ele>116.88830566406</ele>
        <time>2020-08-30T18:03:42.472Z</time>
      </trkpt>
      <trkpt lat="49.33977" lon="0.9244">
        <ele>116.55236053467</ele>
        <time>2020-08-30T18:03:45.706Z</time>
      </trkpt>
      <trkpt lat="49.33973" lon="0.92435">
        <ele>116.44438171387</ele>
        <time>2020-08-30T18:03:48.942Z</time>
      </trkpt>
      <trkpt lat="49.33968" lon="0.9243">
        <ele>116.38439178467</ele>
        <time>2020-08-30T18:03:52.180Z</time>
      </trkpt>
      <trkpt lat="49.33964" lon="0.92426">
        <ele>116.33639526367</ele>
        <time>2020-08-30T18:03:55.419Z</time>
      </trkpt>
      <trkpt lat="49.33956" lon="0.92416">
        <ele>116.12042999268</ele>
        <time>2020-08-30T18:03:58.662Z</time>
      </trkpt>
      <trkpt lat="49.33942" lon="0.92394">
        <ele>115.40827941895</ele>
        <time>2020-08-30T18:04:01.911Z</time>
      </trkpt>
      <trkpt lat="49.33916" lon="0.92346">
        <ele>114.28003692627</ele>
        <time>2020-08-30T18:04:05.174Z</time>
      </trkpt>
      <trkpt lat="49.3391" lon="0.92329">
        <ele>113.42817687988</ele>
        <time>2020-08-30T18:04:08.441Z</time>
      </trkpt>
      <trkpt lat="49.33906" lon="0.92313">
        <ele>112.4683380127</ele>
        <time>2020-08-30T18:04:11.712Z</time>
      </trkpt>
      <trkpt lat="49.33902" lon="0.92305">
        <ele>112.32870483398</ele>
        <time>2020-08-30T18:04:14.985Z</time>
      </trkpt>
      <trkpt lat="49.33899" lon="0.92297">
        <ele>112.52067565918</ele>
        <time>2020-08-30T18:04:18.260Z</time>
      </trkpt>
      <trkpt lat="49.33881" lon="0.92261">
        <ele>113.81645965576</ele>
        <time>2020-08-30T18:04:21.545Z</time>
      </trkpt>
      <trkpt lat="49.33856" lon="0.9219">
        <ele>111.10697937012</ele>
        <time>2020-08-30T18:04:24.848Z</time>
      </trkpt>
      <trkpt lat="49.33851" lon="0.9218">
        <ele>110.26712036133</ele>
        <time>2020-08-30T18:04:28.153Z</time>
      </trkpt>
      <trkpt lat="49.33846" lon="0.9217">
        <ele>109.42725372314</ele>
        <time>2020-08-30T18:04:31.461Z</time>
      </trkpt>
      <trkpt lat="49.33835" lon="0.92157">
        <ele>108.87535095215</ele>
        <time>2020-08-30T18:04:34.774Z</time>
      </trkpt>
      <trkpt lat="49.33832" lon="0.9215">
        <ele>108.22745513916</ele>
        <time>2020-08-30T18:04:38.089Z</time>
      </trkpt>
      <trkpt lat="49.33828" lon="0.92145">
        <ele>107.98749542236</ele>
        <time>2020-08-30T18:04:41.405Z</time>
      </trkpt>
      <trkpt lat="49.33824" lon="0.9214">
        <ele>107.73436737061</ele>
        <time>2020-08-30T18:04:44.723Z</time>
      </trkpt>
      <trkpt lat="49.3382" lon="0.92133">
        <ele>106.95449829102</ele>
        <time>2020-08-30T18:04:48.043Z</time>
      </trkpt>
      <trkpt lat="49.33807" lon="0.92121">
        <ele>106.35459136963</ele>
        <time>2020-08-30T18:04:51.368Z</time>
      </trkpt>
      <trkpt lat="49.33783" lon="0.92104">
        <ele>106.17462158203</ele>
        <time>2020-08-30T18:04:54.702Z</time>
      </trkpt>
      <trkpt lat="49.33747" lon="0.92103">
        <ele>105.06364440918</ele>
        <time>2020-08-30T18:04:58.048Z</time>
      </trkpt>
      <trkpt lat="49.33737" lon="0.92103">
        <ele>104.8547668457</ele>
        <time>2020-08-30T18:05:01.397Z</time>
      </trkpt>
      <trkpt lat="49.33728" lon="0.92099">
        <ele>103.93092346191</ele>
        <time>2020-08-30T18:05:04.749Z</time>
      </trkpt>
      <trkpt lat="49.33722" lon="0.92089">
        <ele>101.81927490234</ele>
        <time>2020-08-30T18:05:08.104Z</time>
      </trkpt>
      <trkpt lat="49.33704" lon="0.92077">
        <ele>99.15571594238</ele>
        <time>2020-08-30T18:05:11.466Z</time>
      </trkpt>
      <trkpt lat="49.33691" lon="0.9207">
        <ele>96.81441497803</ele>
        <time>2020-08-30T18:05:14.833Z</time>
      </trkpt>
      <trkpt lat="49.33681" lon="0.92069">
        <ele>95.29067230225</ele>
        <time>2020-08-30T18:05:18.203Z</time>
      </trkpt>
      <trkpt lat="49.33673" lon="0.92068">
        <ele>94.03088378906</ele>
        <time>2020-08-30T18:05:21.576Z</time>
      </trkpt>
      <trkpt lat="49.33667" lon="0.92067">
        <ele>93.03504943848</ele>
        <time>2020-08-30T18:05:24.951Z</time>
      </trkpt>
      <trkpt lat="49.33662" lon="0.92066">
        <ele>92.17118835449</ele>
        <time>2020-08-30T18:05:28.327Z</time>
      </trkpt>
      <trkpt lat="49.33652" lon="0.92064">
        <ele>90.44348144531</ele>
        <time>2020-08-30T18:05:31.707Z</time>
      </trkpt>
      <trkpt lat="49.33637" lon="0.92061">
        <ele>87.85191345215</ele>
        <time>2020-08-30T18:05:35.092Z</time>
      </trkpt>
      <trkpt lat="49.3363" lon="0.92059">
        <ele>86.52013397217</ele>
        <time>2020-08-30T18:05:38.479Z</time>
      </trkpt>
      <trkpt lat="49.33623" lon="0.92058">
        <ele>85.39231872559</ele>
        <time>2020-08-30T18:05:41.868Z</time>
      </trkpt>
      <trkpt lat="49.33613" lon="0.92058">
        <ele>84.00224304199</ele>
        <time>2020-08-30T18:05:45.261Z</time>
      </trkpt>
      <trkpt lat="49.33603" lon="0.92059">
        <ele>82.59848022461</ele>
        <time>2020-08-30T18:05:48.657Z</time>
      </trkpt>
      <trkpt lat="49.33591" lon="0.92057">
        <ele>80.41664123535</ele>
        <time>2020-08-30T18:05:52.057Z</time>
      </trkpt>
      <trkpt lat="49.33584" lon="0.92063">
        <ele>80.25887298584</ele>
        <time>2020-08-30T18:05:55.460Z</time>
      </trkpt>
      <trkpt lat="49.33576" lon="0.92084">
        <ele>82.28652954102</ele>
        <time>2020-08-30T18:05:58.868Z</time>
      </trkpt>
      <trkpt lat="49.33555" lon="0.9212">
        <ele>80.92107391357</ele>
        <time>2020-08-30T18:06:02.287Z</time>
      </trkpt>
      <trkpt lat="49.33548" lon="0.92128">
        <ele>79.6372833252</ele>
        <time>2020-08-30T18:06:05.709Z</time>
      </trkpt>
      <trkpt lat="49.33541" lon="0.92136">
        <ele>78.35350036621</ele>
        <time>2020-08-30T18:06:09.133Z</time>
      </trkpt>
      <trkpt lat="49.33534" lon="0.92146">
        <ele>77.63583374023</ele>
        <time>2020-08-30T18:06:12.561Z</time>
      </trkpt>
      <trkpt lat="49.3353" lon="0.92151">
        <ele>77.31424713135</ele>
        <time>2020-08-30T18:06:15.990Z</time>
      </trkpt>
      <trkpt lat="49.33526" lon="0.92154">
        <ele>77.13427734375</ele>
        <time>2020-08-30T18:06:19.421Z</time>
      </trkpt>
      <trkpt lat="49.33522" lon="0.92158">
        <ele>77.08628082275</ele>
        <time>2020-08-30T18:06:22.853Z</time>
      </trkpt>
      <trkpt lat="49.33519" lon="0.92161">
        <ele>77.05029296875</ele>
        <time>2020-08-30T18:06:26.287Z</time>
      </trkpt>
      <trkpt lat="49.33515" lon="0.92164">
        <ele>76.87032318115</ele>
        <time>2020-08-30T18:06:29.722Z</time>
      </trkpt>
      <trkpt lat="49.3351" lon="0.92168">
        <ele>76.67835235596</ele>
        <time>2020-08-30T18:06:33.159Z</time>
      </trkpt>
      <trkpt lat="49.33502" lon="0.92178">
        <ele>76.84632110596</ele>
        <time>2020-08-30T18:06:36.599Z</time>
      </trkpt>
      <trkpt lat="49.33499" lon="0.92183">
        <ele>77.07428741455</ele>
        <time>2020-08-30T18:06:40.041Z</time>
      </trkpt>
      <trkpt lat="49.3349" lon="0.92191">
        <ele>76.17029571533</ele>
        <time>2020-08-30T18:06:43.486Z</time>
      </trkpt>
      <trkpt lat="49.33487" lon="0.922">
        <ele>75.91833496094</ele>
        <time>2020-08-30T18:06:46.934Z</time>
      </trkpt>
      <trkpt lat="49.33486" lon="0.92203">
        <ele>75.83435058594</ele>
        <time>2020-08-30T18:06:50.382Z</time>
      </trkpt>
      <trkpt lat="49.33484" lon="0.92205">
        <ele>75.47441101074</ele>
        <time>2020-08-30T18:06:53.831Z</time>
      </trkpt>
      <trkpt lat="49.3348" lon="0.9221">
        <ele>74.80252075195</ele>
        <time>2020-08-30T18:06:57.282Z</time>
      </trkpt>
      <trkpt lat="49.33479" lon="0.92211">
        <ele>74.62255096436</ele>
        <time>2020-08-30T18:07:00.733Z</time>
      </trkpt>
      <trkpt lat="49.33477" lon="0.92209">
        <ele>74.07064056396</ele>
        <time>2020-08-30T18:07:04.185Z</time>
      </trkpt>
      <trkpt lat="49.33477" lon="0.92204">
        <ele>73.83068084717</ele>
        <time>2020-08-30T18:07:07.638Z</time>
      </trkpt>
      <trkpt lat="49.33479" lon="0.92197">
        <ele>73.95066070557</ele>
        <time>2020-08-30T18:07:11.093Z</time>
      </trkpt>
      <trkpt lat="49.33478" lon="0.92181">
        <ele>72.95482635498</ele>
        <time>2020-08-30T18:07:14.551Z</time>
      </trkpt>
      <trkpt lat="49.33476" lon="0.92174">
        <ele>72.16295623779</ele>
        <time>2020-08-30T18:07:18.011Z</time>
      </trkpt>
      <trkpt lat="49.33465" lon="0.92147">
        <ele>67.42789459229</ele>
        <time>2020-08-30T18:07:21.478Z</time>
      </trkpt>
      <trkpt lat="49.33457" lon="0.92117">
        <ele>65.12019348145</ele>
        <time>2020-08-30T18:07:24.952Z</time>
      </trkpt>
      <trkpt lat="49.33457" lon="0.92108">
        <ele>65.01220703125</ele>
        <time>2020-08-30T18:07:28.428Z</time>
      </trkpt>
      <trkpt lat="49.33457" lon="0.92092">
        <ele>64.82024383545</ele>
        <time>2020-08-30T18:07:31.907Z</time>
      </trkpt>
      <trkpt lat="49.33461" lon="0.92093">
        <ele>65.40814208984</ele>
        <time>2020-08-30T18:07:35.388Z</time>
      </trkpt>
      <trkpt lat="49.33459" lon="0.92094">
        <ele>65.13218688965</ele>
        <time>2020-08-30T18:07:38.870Z</time>
      </trkpt>
      <trkpt lat="49.33457" lon="0.9209">
        <ele>64.79624938965</ele>
        <time>2020-08-30T18:07:42.353Z</time>
      </trkpt>
      <trkpt lat="49.33455" lon="0.92087">
        <ele>64.47229766846</ele>
        <time>2020-08-30T18:07:45.837Z</time>
      </trkpt>
      <trkpt lat="49.33454" lon="0.92081">
        <ele>64.25633239746</ele>
        <time>2020-08-30T18:07:49.322Z</time>
      </trkpt>
      <trkpt lat="49.33453" lon="0.9208">
        <ele>64.10036468506</ele>
        <time>2020-08-30T18:07:52.807Z</time>
      </trkpt>
      <trkpt lat="49.33456" lon="0.92092">
        <ele>64.67626953125</ele>
        <time>2020-08-30T18:07:56.295Z</time>
      </trkpt>
      <trkpt lat="49.3345" lon="0.92091">
        <ele>63.80041122437</ele>
        <time>2020-08-30T18:07:59.785Z</time>
      </trkpt>
      <trkpt lat="49.3345" lon="0.92088">
        <ele>63.76441955566</ele>
        <time>2020-08-30T18:08:03.276Z</time>
      </trkpt>
      <trkpt lat="49.33453" lon="0.92084">
        <ele>64.14835357666</ele>
        <time>2020-08-30T18:08:06.768Z</time>
      </trkpt>
      <trkpt lat="49.33451" lon="0.92086">
        <ele>63.88439941406</ele>
        <time>2020-08-30T18:08:10.261Z</time>
      </trkpt>
      <trkpt lat="49.33451" lon="0.9209">
        <ele>63.93238830566</ele>
        <time>2020-08-30T18:08:13.755Z</time>
      </trkpt>
      <trkpt lat="49.33446" lon="0.92099">
        <ele>63.54949188232</ele>
        <time>2020-08-30T18:08:17.251Z</time>
      </trkpt>
      <trkpt lat="49.33451" lon="0.92092">
        <ele>63.95638656616</ele>
        <time>2020-08-30T18:08:20.750Z</time>
      </trkpt>
      <trkpt lat="49.33453" lon="0.92091">
        <ele>64.23233795166</ele>
        <time>2020-08-30T18:08:24.249Z</time>
      </trkpt>
      <trkpt lat="49.33453" lon="0.92088">
        <ele>64.19634246826</ele>
        <time>2020-08-30T18:08:27.749Z</time>
      </trkpt>
      <trkpt lat="49.33454" lon="0.92087">
        <ele>64.32832336426</ele>
        <time>2020-08-30T18:08:31.249Z</time>
      </trkpt>
      <trkpt lat="49.33455" lon="0.92081">
        <ele>64.40031433105</ele>
        <time>2020-08-30T18:08:34.751Z</time>
      </trkpt>
      <trkpt lat="49.33456" lon="0.92077">
        <ele>64.49629974365</ele>
        <time>2020-08-30T18:08:38.254Z</time>
      </trkpt>
      <trkpt lat="49.3346" lon="0.92064">
        <ele>64.64044952393</ele>
        <time>2020-08-30T18:08:41.760Z</time>
      </trkpt>
      <trkpt lat="49.33465" lon="0.92042">
        <ele>65.06195068359</ele>
        <time>2020-08-30T18:08:45.271Z</time>
      </trkpt>
      <trkpt lat="49.33467" lon="0.92033">
        <ele>65.46988677979</ele>
        <time>2020-08-30T18:08:48.784Z</time>
      </trkpt>
      <trkpt lat="49.33471" lon="0.92015">
        <ele>66.28575134277</ele>
        <time>2020-08-30T18:08:52.301Z</time>
      </trkpt>
      <trkpt lat="49.33471" lon="0.92008">
        <ele>66.45372009277</ele>
        <time>2020-08-30T18:08:55.820Z</time>
      </trkpt>
      <trkpt lat="49.33468" lon="0.92">
        <ele>66.35773468018</ele>
        <time>2020-08-30T18:08:59.341Z</time>
      </trkpt>
      <trkpt lat="49.33444" lon="0.91961">
        <ele>65.01505279541</ele>
        <time>2020-08-30T18:09:02.873Z</time>
      </trkpt>
      <trkpt lat="49.33444" lon="0.91947">
        <ele>64.51113891602</ele>
        <time>2020-08-30T18:09:06.408Z</time>
      </trkpt>
      <trkpt lat="49.33441" lon="0.9194">
        <ele>64.69110870361</ele>
        <time>2020-08-30T18:09:09.945Z</time>
      </trkpt>
      <trkpt lat="49.3344" lon="0.91928">
        <ele>64.40315246582</ele>
        <time>2020-08-30T18:09:13.485Z</time>
      </trkpt>
      <trkpt lat="49.33433" lon="0.91908">
        <ele>64.69110870361</ele>
        <time>2020-08-30T18:09:17.030Z</time>
      </trkpt>
      <trkpt lat="49.33432" lon="0.91901">
        <ele>64.58312225342</ele>
        <time>2020-08-30T18:09:20.576Z</time>
      </trkpt>
      <trkpt lat="49.33449" lon="0.91857">
        <ele>61.64162826538</ele>
        <time>2020-08-30T18:09:24.133Z</time>
      </trkpt>
      <trkpt lat="49.33454" lon="0.91856">
        <ele>61.74961090088</ele>
        <time>2020-08-30T18:09:27.692Z</time>
      </trkpt>
      <trkpt lat="49.33458" lon="0.91853">
        <ele>61.80960083008</ele>
        <time>2020-08-30T18:09:31.253Z</time>
      </trkpt>
      <trkpt lat="49.33468" lon="0.91849">
        <ele>62.00157165527</ele>
        <time>2020-08-30T18:09:34.817Z</time>
      </trkpt>
      <trkpt lat="49.33496" lon="0.91828">
        <ele>62.75389862061</ele>
        <time>2020-08-30T18:09:38.391Z</time>
      </trkpt>
      <trkpt lat="49.335" lon="0.91813">
        <ele>62.8978767395</ele>
        <time>2020-08-30T18:09:41.969Z</time>
      </trkpt>
      <trkpt lat="49.33516" lon="0.91742">
        <ele>63.29837417603</ele>
        <time>2020-08-30T18:09:45.563Z</time>
      </trkpt>
      <trkpt lat="49.33517" lon="0.91737">
        <ele>63.34636688232</ele>
        <time>2020-08-30T18:09:49.159Z</time>
      </trkpt>
      <trkpt lat="49.33517" lon="0.91711">
        <ele>63.80096435547</ele>
        <time>2020-08-30T18:09:52.760Z</time>
      </trkpt>
      <trkpt lat="49.33516" lon="0.91707">
        <ele>63.80047607422</ele>
        <time>2020-08-30T18:09:56.362Z</time>
      </trkpt>
      <trkpt lat="49.33516" lon="0.91706">
        <ele>63.78847885132</ele>
        <time>2020-08-30T18:09:59.964Z</time>
      </trkpt>
      <trkpt lat="49.33519" lon="0.917">
        <ele>63.71648788452</ele>
        <time>2020-08-30T18:10:03.568Z</time>
      </trkpt>
      <trkpt lat="49.33521" lon="0.91699">
        <ele>63.70449066162</ele>
        <time>2020-08-30T18:10:07.173Z</time>
      </trkpt>
      <trkpt lat="49.33522" lon="0.91698">
        <ele>63.69249343872</ele>
        <time>2020-08-30T18:10:10.778Z</time>
      </trkpt>
      <trkpt lat="49.33524" lon="0.91692">
        <ele>63.62050628662</ele>
        <time>2020-08-30T18:10:14.385Z</time>
      </trkpt>
      <trkpt lat="49.33525" lon="0.91688">
        <ele>63.57251358032</ele>
        <time>2020-08-30T18:10:17.992Z</time>
      </trkpt>
      <trkpt lat="49.33529" lon="0.91681">
        <ele>63.48852539062</ele>
        <time>2020-08-30T18:10:21.602Z</time>
      </trkpt>
      <trkpt lat="49.33532" lon="0.91679">
        <ele>63.86200332642</ele>
        <time>2020-08-30T18:10:25.213Z</time>
      </trkpt>
      <trkpt lat="49.33533" lon="0.91679">
        <ele>64.14995574951</ele>
        <time>2020-08-30T18:10:28.824Z</time>
      </trkpt>
      <trkpt lat="49.33538" lon="0.91678">
        <ele>65.57772064209</ele>
        <time>2020-08-30T18:10:32.437Z</time>
      </trkpt>
      <trkpt lat="49.33541" lon="0.91677">
        <ele>66.42958068848</ele>
        <time>2020-08-30T18:10:36.051Z</time>
      </trkpt>
      <trkpt lat="49.33542" lon="0.91675">
        <ele>66.69353485107</ele>
        <time>2020-08-30T18:10:39.665Z</time>
      </trkpt>
      <trkpt lat="49.33544" lon="0.91672">
        <ele>67.23344421387</ele>
        <time>2020-08-30T18:10:43.280Z</time>
      </trkpt>
      <trkpt lat="49.33546" lon="0.91665">
        <ele>67.72536468506</ele>
        <time>2020-08-30T18:10:46.897Z</time>
      </trkpt>
      <trkpt lat="49.33547" lon="0.9166">
        <ele>67.95332336426</ele>
        <time>2020-08-30T18:10:50.515Z</time>
      </trkpt>
      <trkpt lat="49.3355" lon="0.91654">
        <ele>68.67724609375</ele>
        <time>2020-08-30T18:10:54.135Z</time>
      </trkpt>
      <trkpt lat="49.3355" lon="0.91653">
        <ele>68.65325164795</ele>
        <time>2020-08-30T18:10:57.755Z</time>
      </trkpt>
      <trkpt lat="49.33549" lon="0.91649">
        <ele>68.28131103516</ele>
        <time>2020-08-30T18:11:01.376Z</time>
      </trkpt>
      <trkpt lat="49.33551" lon="0.91634">
        <ele>68.54866027832</ele>
        <time>2020-08-30T18:11:05.000Z</time>
      </trkpt>
      <trkpt lat="49.33554" lon="0.91623">
        <ele>69.24454498291</ele>
        <time>2020-08-30T18:11:08.627Z</time>
      </trkpt>
      <trkpt lat="49.33563" lon="0.91595">
        <ele>71.39218902588</ele>
        <time>2020-08-30T18:11:12.260Z</time>
      </trkpt>
      <trkpt lat="49.33566" lon="0.91586">
        <ele>71.73318481445</ele>
        <time>2020-08-30T18:11:15.896Z</time>
      </trkpt>
      <trkpt lat="49.33573" lon="0.91572">
        <ele>72.23709869385</ele>
        <time>2020-08-30T18:11:19.536Z</time>
      </trkpt>
      <trkpt lat="49.33581" lon="0.9156">
        <ele>73.10095977783</ele>
        <time>2020-08-30T18:11:23.179Z</time>
      </trkpt>
      <trkpt lat="49.33589" lon="0.91545">
        <ele>74.46485137939</ele>
        <time>2020-08-30T18:11:26.826Z</time>
      </trkpt>
      <trkpt lat="49.33593" lon="0.91538">
        <ele>75.24472045898</ele>
        <time>2020-08-30T18:11:30.476Z</time>
      </trkpt>
      <trkpt lat="49.336" lon="0.91526">
        <ele>74.98378753662</ele>
        <time>2020-08-30T18:11:34.129Z</time>
      </trkpt>
      <trkpt lat="49.33611" lon="0.91514">
        <ele>75.00778198242</ele>
        <time>2020-08-30T18:11:37.787Z</time>
      </trkpt>
      <trkpt lat="49.3362" lon="0.915">
        <ele>75.66163635254</ele>
        <time>2020-08-30T18:11:41.449Z</time>
      </trkpt>
      <trkpt lat="49.33621" lon="0.91496">
        <ele>75.52966308594</ele>
        <time>2020-08-30T18:11:45.112Z</time>
      </trkpt>
      <trkpt lat="49.33622" lon="0.91496">
        <ele>75.82961273193</ele>
        <time>2020-08-30T18:11:48.775Z</time>
      </trkpt>
      <trkpt lat="49.33623" lon="0.91491">
        <ele>75.58965301514</ele>
        <time>2020-08-30T18:11:52.439Z</time>
      </trkpt>
      <trkpt lat="49.33625" lon="0.91491">
        <ele>76.18955230713</ele>
        <time>2020-08-30T18:11:56.104Z</time>
      </trkpt>
      <trkpt lat="49.33635" lon="0.91481">
        <ele>77.45551300049</ele>
        <time>2020-08-30T18:11:59.773Z</time>
      </trkpt>
      <trkpt lat="49.33638" lon="0.91478">
        <ele>77.74346923828</ele>
        <time>2020-08-30T18:12:03.443Z</time>
      </trkpt>
      <trkpt lat="49.33649" lon="0.91469">
        <ele>79.38648223877</ele>
        <time>2020-08-30T18:12:07.117Z</time>
      </trkpt>
      <trkpt lat="49.33661" lon="0.91463">
        <ele>81.83407592773</ele>
        <time>2020-08-30T18:12:10.795Z</time>
      </trkpt>
      <trkpt lat="49.33683" lon="0.91454">
        <ele>85.94379425049</ele>
        <time>2020-08-30T18:12:14.481Z</time>
      </trkpt>
      <trkpt lat="49.3369" lon="0.91452">
        <ele>86.54369354248</ele>
        <time>2020-08-30T18:12:18.169Z</time>
      </trkpt>
      <trkpt lat="49.33693" lon="0.91449">
        <ele>86.36372375488</ele>
        <time>2020-08-30T18:12:21.859Z</time>
      </trkpt>
      <trkpt lat="49.33693" lon="0.91441">
        <ele>84.73199462891</ele>
        <time>2020-08-30T18:12:25.550Z</time>
      </trkpt>
      <trkpt lat="49.33694" lon="0.91444">
        <ele>85.4878692627</ele>
        <time>2020-08-30T18:12:29.242Z</time>
      </trkpt>
      <trkpt lat="49.33693" lon="0.91444">
        <ele>85.3438949585</ele>
        <time>2020-08-30T18:12:32.934Z</time>
      </trkpt>
      <trkpt lat="49.33698" lon="0.9144">
        <ele>85.28905487061</ele>
        <time>2020-08-30T18:12:36.628Z</time>
      </trkpt>
      <trkpt lat="49.33699" lon="0.9144">
        <ele>85.493019104</ele>
        <time>2020-08-30T18:12:40.323Z</time>
      </trkpt>
      <trkpt lat="49.337" lon="0.9144">
        <ele>85.6969909668</ele>
        <time>2020-08-30T18:12:44.018Z</time>
      </trkpt>
      <trkpt lat="49.33705" lon="0.91438">
        <ele>86.30888366699</ele>
        <time>2020-08-30T18:12:47.715Z</time>
      </trkpt>
      <trkpt lat="49.33706" lon="0.91437">
        <ele>86.30888366699</ele>
        <time>2020-08-30T18:12:51.412Z</time>
      </trkpt>
      <trkpt lat="49.33733" lon="0.91415">
        <ele>86.93541717529</ele>
        <time>2020-08-30T18:12:55.119Z</time>
      </trkpt>
      <trkpt lat="49.33734" lon="0.91409">
        <ele>85.66362762451</ele>
        <time>2020-08-30T18:12:58.828Z</time>
      </trkpt>
      <trkpt lat="49.33737" lon="0.91407">
        <ele>85.68762207031</ele>
        <time>2020-08-30T18:13:02.538Z</time>
      </trkpt>
      <trkpt lat="49.33773" lon="0.91368">
        <ele>85.07138824463</ele>
        <time>2020-08-30T18:13:06.262Z</time>
      </trkpt>
      <trkpt lat="49.33776" lon="0.91363">
        <ele>84.47148895264</ele>
        <time>2020-08-30T18:13:09.988Z</time>
      </trkpt>
      <trkpt lat="49.33774" lon="0.91361">
        <ele>84.03955841064</ele>
        <time>2020-08-30T18:13:13.715Z</time>
      </trkpt>
      <trkpt lat="49.33775" lon="0.91359">
        <ele>83.78759765625</ele>
        <time>2020-08-30T18:13:17.442Z</time>
      </trkpt>
      <trkpt lat="49.33779" lon="0.91356">
        <ele>83.55963897705</ele>
        <time>2020-08-30T18:13:21.171Z</time>
      </trkpt>
      <trkpt lat="49.33784" lon="0.91351">
        <ele>83.76069641113</ele>
        <time>2020-08-30T18:13:24.902Z</time>
      </trkpt>
      <trkpt lat="49.33782" lon="0.91349">
        <ele>82.92083740234</ele>
        <time>2020-08-30T18:13:28.634Z</time>
      </trkpt>
      <trkpt lat="49.33787" lon="0.91339">
        <ele>82.68087768555</ele>
        <time>2020-08-30T18:13:32.368Z</time>
      </trkpt>
      <trkpt lat="49.33788" lon="0.91333">
        <ele>82.00898742676</ele>
        <time>2020-08-30T18:13:36.104Z</time>
      </trkpt>
      <trkpt lat="49.33792" lon="0.9133">
        <ele>82.59689331055</ele>
        <time>2020-08-30T18:13:39.841Z</time>
      </trkpt>
      <trkpt lat="49.33794" lon="0.91329">
        <ele>82.96882629395</ele>
        <time>2020-08-30T18:13:43.579Z</time>
      </trkpt>
      <trkpt lat="49.33797" lon="0.91328">
        <ele>83.60472106934</ele>
        <time>2020-08-30T18:13:47.318Z</time>
      </trkpt>
      <trkpt lat="49.3381" lon="0.91309">
        <ele>82.76570892334</ele>
        <time>2020-08-30T18:13:51.063Z</time>
      </trkpt>
      <trkpt lat="49.33816" lon="0.91303">
        <ele>83.67859649658</ele>
        <time>2020-08-30T18:13:54.810Z</time>
      </trkpt>
      <trkpt lat="49.33825" lon="0.9129">
        <ele>85.77825164795</ele>
        <time>2020-08-30T18:13:58.561Z</time>
      </trkpt>
      <trkpt lat="49.33833" lon="0.91266">
        <ele>86.01487731934</ele>
        <time>2020-08-30T18:14:02.318Z</time>
      </trkpt>
      <trkpt lat="49.33832" lon="0.91262">
        <ele>85.30699157715</ele>
        <time>2020-08-30T18:14:06.076Z</time>
      </trkpt>
      <trkpt lat="49.33834" lon="0.91257">
        <ele>84.53912353516</ele>
        <time>2020-08-30T18:14:09.835Z</time>
      </trkpt>
      <trkpt lat="49.33839" lon="0.91258">
        <ele>84.88706207275</ele>
        <time>2020-08-30T18:14:13.596Z</time>
      </trkpt>
      <trkpt lat="49.3385" lon="0.91253">
        <ele>84.44313812256</ele>
        <time>2020-08-30T18:14:17.361Z</time>
      </trkpt>
      <trkpt lat="49.3385" lon="0.91252">
        <ele>84.27516937256</ele>
        <time>2020-08-30T18:14:21.126Z</time>
      </trkpt>
      <trkpt lat="49.33854" lon="0.91241">
        <ele>82.57144927979</ele>
        <time>2020-08-30T18:14:24.894Z</time>
      </trkpt>
      <trkpt lat="49.3385" lon="0.91242">
        <ele>82.59544372559</ele>
        <time>2020-08-30T18:14:28.663Z</time>
      </trkpt>
      <trkpt lat="49.33842" lon="0.91237">
        <ele>81.4676361084</ele>
        <time>2020-08-30T18:14:32.435Z</time>
      </trkpt>
      <trkpt lat="49.33841" lon="0.91229">
        <ele>80.08786773682</ele>
        <time>2020-08-30T18:14:36.209Z</time>
      </trkpt>
      <trkpt lat="49.33842" lon="0.91228">
        <ele>79.95588684082</ele>
        <time>2020-08-30T18:14:39.983Z</time>
      </trkpt>
      <trkpt lat="49.33845" lon="0.91225">
        <ele>79.55995178223</ele>
        <time>2020-08-30T18:14:43.759Z</time>
      </trkpt>
      <trkpt lat="49.33849" lon="0.91221">
        <ele>79.55144500732</ele>
        <time>2020-08-30T18:14:47.536Z</time>
      </trkpt>
      <trkpt lat="49.33853" lon="0.9122">
        <ele>79.73141479492</ele>
        <time>2020-08-30T18:14:51.314Z</time>
      </trkpt>
      <trkpt lat="49.33856" lon="0.9122">
        <ele>79.83939361572</ele>
        <time>2020-08-30T18:14:55.093Z</time>
      </trkpt>
      <trkpt lat="49.33857" lon="0.91219">
        <ele>79.91138458252</ele>
        <time>2020-08-30T18:14:58.873Z</time>
      </trkpt>
      <trkpt lat="49.33858" lon="0.91219">
        <ele>79.94737243652</ele>
        <time>2020-08-30T18:15:02.653Z</time>
      </trkpt>
      <trkpt lat="49.33859" lon="0.91218">
        <ele>79.97418212891</ele>
        <time>2020-08-30T18:15:06.434Z</time>
      </trkpt>
      <trkpt lat="49.33863" lon="0.9122">
        <ele>79.87819671631</ele>
        <time>2020-08-30T18:15:10.216Z</time>
      </trkpt>
      <trkpt lat="49.33864" lon="0.91222">
        <ele>79.9261932373</ele>
        <time>2020-08-30T18:15:13.999Z</time>
      </trkpt>
      <trkpt lat="49.33866" lon="0.91215">
        <ele>80.25885772705</ele>
        <time>2020-08-30T18:15:17.783Z</time>
      </trkpt>
      <trkpt lat="49.33863" lon="0.9121">
        <ele>79.39827728271</ele>
        <time>2020-08-30T18:15:21.569Z</time>
      </trkpt>
      <trkpt lat="49.33862" lon="0.91208">
        <ele>79.35028839111</ele>
        <time>2020-08-30T18:15:25.355Z</time>
      </trkpt>
      <trkpt lat="49.33869" lon="0.91209">
        <ele>80.97873687744</ele>
        <time>2020-08-30T18:15:29.144Z</time>
      </trkpt>
      <trkpt lat="49.33871" lon="0.91208">
        <ele>81.60263061523</ele>
        <time>2020-08-30T18:15:32.933Z</time>
      </trkpt>
      <trkpt lat="49.3387" lon="0.91206">
        <ele>81.17070007324</ele>
        <time>2020-08-30T18:15:36.723Z</time>
      </trkpt>
      <trkpt lat="49.33868" lon="0.91205">
        <ele>80.45082092285</ele>
        <time>2020-08-30T18:15:40.514Z</time>
      </trkpt>
      <trkpt lat="49.33871" lon="0.91202">
        <ele>81.31468200684</ele>
        <time>2020-08-30T18:15:44.306Z</time>
      </trkpt>
      <trkpt lat="49.33876" lon="0.91192">
        <ele>82.51448059082</ele>
        <time>2020-08-30T18:15:48.101Z</time>
      </trkpt>
      <trkpt lat="49.33881" lon="0.91193">
        <ele>84.2421875</ele>
        <time>2020-08-30T18:15:51.897Z</time>
      </trkpt>
      <trkpt lat="49.33873" lon="0.91201">
        <ele>81.93857574463</ele>
        <time>2020-08-30T18:15:55.696Z</time>
      </trkpt>
      <trkpt lat="49.33874" lon="0.91201">
        <ele>82.27452087402</ele>
        <time>2020-08-30T18:15:59.496Z</time>
      </trkpt>
      <trkpt lat="49.33873" lon="0.91194">
        <ele>81.60263061523</ele>
        <time>2020-08-30T18:16:03.297Z</time>
      </trkpt>
      <trkpt lat="49.33871" lon="0.91203">
        <ele>81.36267089844</ele>
        <time>2020-08-30T18:16:07.100Z</time>
      </trkpt>
      <trkpt lat="49.33876" lon="0.91204">
        <ele>83.09038543701</ele>
        <time>2020-08-30T18:16:10.905Z</time>
      </trkpt>
      <trkpt lat="49.33874" lon="0.912">
        <ele>82.22652435303</ele>
        <time>2020-08-30T18:16:14.711Z</time>
      </trkpt>
      <trkpt lat="49.33874" lon="0.91198">
        <ele>82.13054656982</ele>
        <time>2020-08-30T18:16:18.518Z</time>
      </trkpt>
      <trkpt lat="49.33878" lon="0.91196">
        <ele>83.37833404541</ele>
        <time>2020-08-30T18:16:22.326Z</time>
      </trkpt>
      <trkpt lat="49.33883" lon="0.91193">
        <ele>84.91407775879</ele>
        <time>2020-08-30T18:16:26.136Z</time>
      </trkpt>
      <trkpt lat="49.33884" lon="0.9119">
        <ele>85.10604858398</ele>
        <time>2020-08-30T18:16:29.947Z</time>
      </trkpt>
      <trkpt lat="49.3389" lon="0.91182">
        <ele>86.73777770996</ele>
        <time>2020-08-30T18:16:33.760Z</time>
      </trkpt>
      <trkpt lat="49.33894" lon="0.91171">
        <ele>87.55364227295</ele>
        <time>2020-08-30T18:16:37.576Z</time>
      </trkpt>
      <trkpt lat="49.33895" lon="0.91164">
        <ele>87.20854187012</ele>
        <time>2020-08-30T18:16:41.393Z</time>
      </trkpt>
      <trkpt lat="49.33896" lon="0.9115">
        <ele>86.15271759033</ele>
        <time>2020-08-30T18:16:45.214Z</time>
      </trkpt>
      <trkpt lat="49.33897" lon="0.91145">
        <ele>85.96074676514</ele>
        <time>2020-08-30T18:16:49.036Z</time>
      </trkpt>
      <trkpt lat="49.33897" lon="0.91141">
        <ele>85.57681274414</ele>
        <time>2020-08-30T18:16:52.859Z</time>
      </trkpt>
      <trkpt lat="49.33898" lon="0.91133">
        <ele>85.70153045654</ele>
        <time>2020-08-30T18:16:56.683Z</time>
      </trkpt>
      <trkpt lat="49.33901" lon="0.91126">
        <ele>86.48139953613</ele>
        <time>2020-08-30T18:17:00.509Z</time>
      </trkpt>
      <trkpt lat="49.33901" lon="0.91124">
        <ele>86.45740509033</ele>
        <time>2020-08-30T18:17:04.336Z</time>
      </trkpt>
      <trkpt lat="49.33902" lon="0.91117">
        <ele>86.66136932373</ele>
        <time>2020-08-30T18:17:08.164Z</time>
      </trkpt>
      <trkpt lat="49.33902" lon="0.91111">
        <ele>86.58938598633</ele>
        <time>2020-08-30T18:17:11.993Z</time>
      </trkpt>
      <trkpt lat="49.33904" lon="0.91101">
        <ele>87.04531097412</ele>
        <time>2020-08-30T18:17:15.825Z</time>
      </trkpt>
      <trkpt lat="49.33904" lon="0.91102">
        <ele>87.05730438232</ele>
        <time>2020-08-30T18:17:19.657Z</time>
      </trkpt>
      <trkpt lat="49.33904" lon="0.91098">
        <ele>87.00931549072</ele>
        <time>2020-08-30T18:17:23.490Z</time>
      </trkpt>
      <trkpt lat="49.33904" lon="0.91097">
        <ele>86.99731445312</ele>
        <time>2020-08-30T18:17:27.323Z</time>
      </trkpt>
      <trkpt lat="49.33908" lon="0.91087">
        <ele>87.69695281982</ele>
        <time>2020-08-30T18:17:31.159Z</time>
      </trkpt>
      <trkpt lat="49.33909" lon="0.91082">
        <ele>87.78093719482</ele>
        <time>2020-08-30T18:17:34.996Z</time>
      </trkpt>
      <trkpt lat="49.33906" lon="0.91081">
        <ele>86.95307922363</ele>
        <time>2020-08-30T18:17:38.834Z</time>
      </trkpt>
      <trkpt lat="49.33905" lon="0.91081">
        <ele>86.68912506104</ele>
        <time>2020-08-30T18:17:42.672Z</time>
      </trkpt>
      <trkpt lat="49.33905" lon="0.91079">
        <ele>86.61713409424</ele>
        <time>2020-08-30T18:17:46.511Z</time>
      </trkpt>
      <trkpt lat="49.33905" lon="0.91076">
        <ele>86.50915527344</ele>
        <time>2020-08-30T18:17:50.350Z</time>
      </trkpt>
      <trkpt lat="49.33906" lon="0.91071">
        <ele>86.59313964844</ele>
        <time>2020-08-30T18:17:54.190Z</time>
      </trkpt>
      <trkpt lat="49.33906" lon="0.91065">
        <ele>86.37717437744</ele>
        <time>2020-08-30T18:17:58.032Z</time>
      </trkpt>
      <trkpt lat="49.33905" lon="0.91058">
        <ele>85.86125946045</ele>
        <time>2020-08-30T18:18:01.875Z</time>
      </trkpt>
      <trkpt lat="49.33904" lon="0.91045">
        <ele>85.69818878174</ele>
        <time>2020-08-30T18:18:05.721Z</time>
      </trkpt>
      <trkpt lat="49.339" lon="0.91029">
        <ele>84.83432769775</ele>
        <time>2020-08-30T18:18:09.571Z</time>
      </trkpt>
      <trkpt lat="49.33901" lon="0.91017">
        <ele>85.24226379395</ele>
        <time>2020-08-30T18:18:13.423Z</time>
      </trkpt>
      <trkpt lat="49.33904" lon="0.91001">
        <ele>86.076171875</ele>
        <time>2020-08-30T18:18:17.279Z</time>
      </trkpt>
      <trkpt lat="49.33905" lon="0.9097">
        <ele>86.49633026123</ele>
        <time>2020-08-30T18:18:21.142Z</time>
      </trkpt>
      <trkpt lat="49.33896" lon="0.90961">
        <ele>84.66063690186</ele>
        <time>2020-08-30T18:18:25.008Z</time>
      </trkpt>
      <trkpt lat="49.33893" lon="0.90957">
        <ele>84.09673309326</ele>
        <time>2020-08-30T18:18:28.876Z</time>
      </trkpt>
      <trkpt lat="49.33888" lon="0.9095">
        <ele>83.17288208008</ele>
        <time>2020-08-30T18:18:32.746Z</time>
      </trkpt>
      <trkpt lat="49.33888" lon="0.90943">
        <ele>83.50882720947</ele>
        <time>2020-08-30T18:18:36.618Z</time>
      </trkpt>
      <trkpt lat="49.33881" lon="0.90899">
        <ele>84.24786376953</ele>
        <time>2020-08-30T18:18:40.499Z</time>
      </trkpt>
      <trkpt lat="49.3388" lon="0.90895">
        <ele>84.33184814453</ele>
        <time>2020-08-30T18:18:44.381Z</time>
      </trkpt>
      <trkpt lat="49.33881" lon="0.90893">
        <ele>84.82376861572</ele>
        <time>2020-08-30T18:18:48.264Z</time>
      </trkpt>
      <trkpt lat="49.33881" lon="0.90885">
        <ele>85.65351867676</ele>
        <time>2020-08-30T18:18:52.149Z</time>
      </trkpt>
      <trkpt lat="49.33882" lon="0.90881">
        <ele>86.38539886475</ele>
        <time>2020-08-30T18:18:56.035Z</time>
      </trkpt>
      <trkpt lat="49.33881" lon="0.9088">
        <ele>86.19342803955</ele>
        <time>2020-08-30T18:18:59.921Z</time>
      </trkpt>
      <trkpt lat="49.33878" lon="0.90871">
        <ele>86.26541900635</ele>
        <time>2020-08-30T18:19:03.809Z</time>
      </trkpt>
      <trkpt lat="49.33876" lon="0.90865">
        <ele>86.31340789795</ele>
        <time>2020-08-30T18:19:07.699Z</time>
      </trkpt>
      <trkpt lat="49.33871" lon="0.90832">
        <ele>88.37706756592</ele>
        <time>2020-08-30T18:19:11.596Z</time>
      </trkpt>
      <trkpt lat="49.33868" lon="0.90817">
        <ele>89.09694671631</ele>
        <time>2020-08-30T18:19:15.496Z</time>
      </trkpt>
      <trkpt lat="49.33866" lon="0.90801">
        <ele>90.10922241211</ele>
        <time>2020-08-30T18:19:19.400Z</time>
      </trkpt>
      <trkpt lat="49.33861" lon="0.90786">
        <ele>89.95365905762</ele>
        <time>2020-08-30T18:19:23.308Z</time>
      </trkpt>
      <trkpt lat="49.3385" lon="0.90748">
        <ele>90.24161529541</ele>
        <time>2020-08-30T18:19:27.225Z</time>
      </trkpt>
      <trkpt lat="49.33843" lon="0.90735">
        <ele>89.48574066162</ele>
        <time>2020-08-30T18:19:31.145Z</time>
      </trkpt>
      <trkpt lat="49.33842" lon="0.90728">
        <ele>89.80968475342</ele>
        <time>2020-08-30T18:19:35.067Z</time>
      </trkpt>
      <trkpt lat="49.3384" lon="0.9072">
        <ele>89.78745269775</ele>
        <time>2020-08-30T18:19:38.991Z</time>
      </trkpt>
      <trkpt lat="49.33839" lon="0.90695">
        <ele>90.63059234619</ele>
        <time>2020-08-30T18:19:42.920Z</time>
      </trkpt>
      <trkpt lat="49.33826" lon="0.90672">
        <ele>88.62692260742</ele>
        <time>2020-08-30T18:19:46.856Z</time>
      </trkpt>
      <trkpt lat="49.33825" lon="0.90671">
        <ele>88.39896392822</ele>
        <time>2020-08-30T18:19:50.792Z</time>
      </trkpt>
      <trkpt lat="49.33823" lon="0.90667">
        <ele>88.13500976562</ele>
        <time>2020-08-30T18:19:54.729Z</time>
      </trkpt>
      <trkpt lat="49.33821" lon="0.90666">
        <ele>87.58309936523</ele>
        <time>2020-08-30T18:19:58.667Z</time>
      </trkpt>
      <trkpt lat="49.33817" lon="0.90676">
        <ele>85.32747650146</ele>
        <time>2020-08-30T18:20:02.608Z</time>
      </trkpt>
      <trkpt lat="49.33821" lon="0.90676">
        <ele>86.62326049805</ele>
        <time>2020-08-30T18:20:06.550Z</time>
      </trkpt>
      <trkpt lat="49.33827" lon="0.90677">
        <ele>88.47095489502</ele>
        <time>2020-08-30T18:20:10.494Z</time>
      </trkpt>
      <trkpt lat="49.33823" lon="0.90685">
        <ele>86.5599899292</ele>
        <time>2020-08-30T18:20:14.440Z</time>
      </trkpt>
      <trkpt lat="49.33821" lon="0.90687">
        <ele>85.96009063721</ele>
        <time>2020-08-30T18:20:18.387Z</time>
      </trkpt>
      <trkpt lat="49.33821" lon="0.90688">
        <ele>85.92409515381</ele>
        <time>2020-08-30T18:20:22.334Z</time>
      </trkpt>
      <trkpt lat="49.3382" lon="0.90686">
        <ele>85.73213195801</ele>
        <time>2020-08-30T18:20:26.282Z</time>
      </trkpt>
      <trkpt lat="49.33818" lon="0.90682">
        <ele>85.34819793701</ele>
        <time>2020-08-30T18:20:30.231Z</time>
      </trkpt>
      <trkpt lat="49.33818" lon="0.90679">
        <ele>85.45617675781</ele>
        <time>2020-08-30T18:20:34.181Z</time>
      </trkpt>
      <trkpt lat="49.33817" lon="0.90678">
        <ele>85.22821807861</ele>
        <time>2020-08-30T18:20:38.131Z</time>
      </trkpt>
      <trkpt lat="49.33816" lon="0.9068">
        <ele>84.89227294922</ele>
        <time>2020-08-30T18:20:42.081Z</time>
      </trkpt>
      <trkpt lat="49.33814" lon="0.90684">
        <ele>84.22038269043</ele>
        <time>2020-08-30T18:20:46.033Z</time>
      </trkpt>
      <trkpt lat="49.33814" lon="0.9069">
        <ele>84.00441741943</ele>
        <time>2020-08-30T18:20:49.986Z</time>
      </trkpt>
      <trkpt lat="49.33811" lon="0.90699">
        <ele>82.88860321045</ele>
        <time>2020-08-30T18:20:53.941Z</time>
      </trkpt>
      <trkpt lat="49.3381" lon="0.90709">
        <ele>82.26470947266</ele>
        <time>2020-08-30T18:20:57.898Z</time>
      </trkpt>
      <trkpt lat="49.33808" lon="0.90723">
        <ele>81.23287963867</ele>
        <time>2020-08-30T18:21:01.858Z</time>
      </trkpt>
      <trkpt lat="49.33806" lon="0.9074">
        <ele>79.29943847656</ele>
        <time>2020-08-30T18:21:05.822Z</time>
      </trkpt>
      <trkpt lat="49.33804" lon="0.90753">
        <ele>78.05152893066</ele>
        <time>2020-08-30T18:21:09.789Z</time>
      </trkpt>
      <trkpt lat="49.33802" lon="0.90765">
        <ele>77.35564422607</ele>
        <time>2020-08-30T18:21:13.759Z</time>
      </trkpt>
      <trkpt lat="49.338" lon="0.90775">
        <ele>76.70775604248</ele>
        <time>2020-08-30T18:21:17.731Z</time>
      </trkpt>
      <trkpt lat="49.33798" lon="0.90785">
        <ele>76.05986022949</ele>
        <time>2020-08-30T18:21:21.705Z</time>
      </trkpt>
      <trkpt lat="49.33796" lon="0.90796">
        <ele>75.3879776001</ele>
        <time>2020-08-30T18:21:25.682Z</time>
      </trkpt>
      <trkpt lat="49.33793" lon="0.90816">
        <ele>73.52436065674</ele>
        <time>2020-08-30T18:21:29.663Z</time>
      </trkpt>
      <trkpt lat="49.33792" lon="0.90824">
        <ele>73.0181350708</ele>
        <time>2020-08-30T18:21:33.646Z</time>
      </trkpt>
      <trkpt lat="49.33792" lon="0.90831">
        <ele>72.93414306641</ele>
        <time>2020-08-30T18:21:37.631Z</time>
      </trkpt>
      <trkpt lat="49.33789" lon="0.90858">
        <ele>72.28625488281</ele>
        <time>2020-08-30T18:21:41.622Z</time>
      </trkpt>
      <trkpt lat="49.33788" lon="0.90873">
        <ele>71.99830627441</ele>
        <time>2020-08-30T18:21:45.616Z</time>
      </trkpt>
      <trkpt lat="49.33787" lon="0.90879">
        <ele>71.81832885742</ele>
        <time>2020-08-30T18:21:49.611Z</time>
      </trkpt>
      <trkpt lat="49.33786" lon="0.90884">
        <ele>71.65036010742</ele>
        <time>2020-08-30T18:21:53.607Z</time>
      </trkpt>
      <trkpt lat="49.33784" lon="0.90896">
        <ele>71.35048675537</ele>
        <time>2020-08-30T18:21:57.606Z</time>
      </trkpt>
      <trkpt lat="49.33778" lon="0.90919">
        <ele>73.14534759521</ele>
        <time>2020-08-30T18:22:01.610Z</time>
      </trkpt>
      <trkpt lat="49.33778" lon="0.90921">
        <ele>73.26532745361</ele>
        <time>2020-08-30T18:22:05.615Z</time>
      </trkpt>
      <trkpt lat="49.33778" lon="0.90933">
        <ele>73.9852142334</ele>
        <time>2020-08-30T18:22:09.623Z</time>
      </trkpt>
      <trkpt lat="49.3378" lon="0.90941">
        <ele>74.1531829834</ele>
        <time>2020-08-30T18:22:13.632Z</time>
      </trkpt>
      <trkpt lat="49.33779" lon="0.90941">
        <ele>74.3091583252</ele>
        <time>2020-08-30T18:22:17.642Z</time>
      </trkpt>
      <trkpt lat="49.33779" lon="0.90939">
        <ele>74.1891784668</ele>
        <time>2020-08-30T18:22:21.652Z</time>
      </trkpt>
      <trkpt lat="49.33785" lon="0.90946">
        <ele>74.34998321533</ele>
        <time>2020-08-30T18:22:25.665Z</time>
      </trkpt>
      <trkpt lat="49.33816" lon="0.91008">
        <ele>75.58612823486</ele>
        <time>2020-08-30T18:22:29.695Z</time>
      </trkpt>
      <trkpt lat="49.33839" lon="0.91086">
        <ele>76.24987792969</ele>
        <time>2020-08-30T18:22:33.743Z</time>
      </trkpt>
      <trkpt lat="49.33843" lon="0.91113">
        <ele>76.42984771729</ele>
        <time>2020-08-30T18:22:37.797Z</time>
      </trkpt>
      <trkpt lat="49.33842" lon="0.91128">
        <ele>76.76349639893</ele>
        <time>2020-08-30T18:22:41.855Z</time>
      </trkpt>
      <trkpt lat="49.33835" lon="0.91171">
        <ele>78.87036895752</ele>
        <time>2020-08-30T18:22:45.922Z</time>
      </trkpt>
      <trkpt lat="49.33826" lon="0.91188">
        <ele>79.91138458252</ele>
        <time>2020-08-30T18:22:49.994Z</time>
      </trkpt>
      <trkpt lat="49.33822" lon="0.91193">
        <ele>79.58743286133</ele>
        <time>2020-08-30T18:22:54.068Z</time>
      </trkpt>
      <trkpt lat="49.33801" lon="0.91221">
        <ele>77.82373046875</ele>
        <time>2020-08-30T18:22:58.151Z</time>
      </trkpt>
      <trkpt lat="49.33773" lon="0.91255">
        <ele>76.34686279297</ele>
        <time>2020-08-30T18:23:02.246Z</time>
      </trkpt>
      <trkpt lat="49.3373" lon="0.91305">
        <ele>73.02899169922</ele>
        <time>2020-08-30T18:23:06.359Z</time>
      </trkpt>
      <trkpt lat="49.33685" lon="0.91361">
        <ele>72.85794830322</ele>
        <time>2020-08-30T18:23:10.491Z</time>
      </trkpt>
      <trkpt lat="49.33645" lon="0.91411">
        <ele>71.70216369629</ele>
        <time>2020-08-30T18:23:14.641Z</time>
      </trkpt>
      <trkpt lat="49.33601" lon="0.91463">
        <ele>69.95238494873</ele>
        <time>2020-08-30T18:23:18.809Z</time>
      </trkpt>
      <trkpt lat="49.33586" lon="0.91482">
        <ele>68.55285644531</ele>
        <time>2020-08-30T18:23:22.984Z</time>
      </trkpt>
      <trkpt lat="49.33583" lon="0.91486">
        <ele>68.62484741211</ele>
        <time>2020-08-30T18:23:27.160Z</time>
      </trkpt>
      <trkpt lat="49.33555" lon="0.91523">
        <ele>66.8581237793</ele>
        <time>2020-08-30T18:23:31.348Z</time>
      </trkpt>
      <trkpt lat="49.33545" lon="0.9156">
        <ele>65.32625579834</ele>
        <time>2020-08-30T18:23:35.545Z</time>
      </trkpt>
      <trkpt lat="49.33541" lon="0.91582">
        <ele>65.16522216797</ele>
        <time>2020-08-30T18:23:39.747Z</time>
      </trkpt>
      <trkpt lat="49.33527" lon="0.91644">
        <ele>63.04460144043</ele>
        <time>2020-08-30T18:23:43.963Z</time>
      </trkpt>
      <trkpt lat="49.33525" lon="0.91653">
        <ele>63.15258407593</ele>
        <time>2020-08-30T18:23:48.181Z</time>
      </trkpt>
      <trkpt lat="49.33522" lon="0.91673">
        <ele>63.39254379272</ele>
        <time>2020-08-30T18:23:52.404Z</time>
      </trkpt>
      <trkpt lat="49.33518" lon="0.91728">
        <ele>63.39435577393</ele>
        <time>2020-08-30T18:23:56.639Z</time>
      </trkpt>
      <trkpt lat="49.33519" lon="0.91743">
        <ele>63.44234848022</ele>
        <time>2020-08-30T18:24:00.877Z</time>
      </trkpt>
      <trkpt lat="49.33522" lon="0.91758">
        <ele>63.58632659912</ele>
        <time>2020-08-30T18:24:05.119Z</time>
      </trkpt>
      <trkpt lat="49.33523" lon="0.9177">
        <ele>63.63431930542</ele>
        <time>2020-08-30T18:24:09.363Z</time>
      </trkpt>
      <trkpt lat="49.33522" lon="0.91781">
        <ele>63.58632659912</ele>
        <time>2020-08-30T18:24:13.610Z</time>
      </trkpt>
      <trkpt lat="49.33524" lon="0.91806">
        <ele>63.75000762939</ele>
        <time>2020-08-30T18:24:17.862Z</time>
      </trkpt>
      <trkpt lat="49.33524" lon="0.91825">
        <ele>63.76173400879</ele>
        <time>2020-08-30T18:24:22.118Z</time>
      </trkpt>
      <trkpt lat="49.33524" lon="0.91842">
        <ele>63.76173400879</ele>
        <time>2020-08-30T18:24:26.378Z</time>
      </trkpt>
      <trkpt lat="49.33525" lon="0.91902">
        <ele>64.14532470703</ele>
        <time>2020-08-30T18:24:30.651Z</time>
      </trkpt>
      <trkpt lat="49.33531" lon="0.91914">
        <ele>64.58180999756</ele>
        <time>2020-08-30T18:24:34.927Z</time>
      </trkpt>
      <trkpt lat="49.33534" lon="0.91914">
        <ele>64.68979644775</ele>
        <time>2020-08-30T18:24:39.204Z</time>
      </trkpt>
      <trkpt lat="49.3353" lon="0.91913">
        <ele>64.52925872803</ele>
        <time>2020-08-30T18:24:43.483Z</time>
      </trkpt>
      <trkpt lat="49.33527" lon="0.91914">
        <ele>64.48126220703</ele>
        <time>2020-08-30T18:24:47.763Z</time>
      </trkpt>
      <trkpt lat="49.33522" lon="0.91923">
        <ele>64.57724761963</ele>
        <time>2020-08-30T18:24:52.045Z</time>
      </trkpt>
      <trkpt lat="49.33522" lon="0.91938">
        <ele>64.93718719482</ele>
        <time>2020-08-30T18:24:56.331Z</time>
      </trkpt>
      <trkpt lat="49.33522" lon="0.91943">
        <ele>65.05716705322</ele>
        <time>2020-08-30T18:25:00.618Z</time>
      </trkpt>
      <trkpt lat="49.33523" lon="0.91954">
        <ele>65.34512329102</ele>
        <time>2020-08-30T18:25:04.907Z</time>
      </trkpt>
      <trkpt lat="49.33523" lon="0.91956">
        <ele>65.39311218262</ele>
        <time>2020-08-30T18:25:09.197Z</time>
      </trkpt>
      <trkpt lat="49.3352" lon="0.9197">
        <ele>65.74043273926</ele>
        <time>2020-08-30T18:25:13.490Z</time>
      </trkpt>
      <trkpt lat="49.33518" lon="0.91978">
        <ele>66.108253479</ele>
        <time>2020-08-30T18:25:17.785Z</time>
      </trkpt>
      <trkpt lat="49.33517" lon="0.91986">
        <ele>66.57617950439</ele>
        <time>2020-08-30T18:25:22.082Z</time>
      </trkpt>
      <trkpt lat="49.33511" lon="0.91998">
        <ele>67.22406768799</ele>
        <time>2020-08-30T18:25:26.382Z</time>
      </trkpt>
      <trkpt lat="49.33505" lon="0.92001">
        <ele>67.33205413818</ele>
        <time>2020-08-30T18:25:30.684Z</time>
      </trkpt>
      <trkpt lat="49.33485" lon="0.9199">
        <ele>66.4322052002</ele>
        <time>2020-08-30T18:25:34.993Z</time>
      </trkpt>
      <trkpt lat="49.33479" lon="0.91993">
        <ele>66.540184021</ele>
        <time>2020-08-30T18:25:39.304Z</time>
      </trkpt>
      <trkpt lat="49.33475" lon="0.92009">
        <ele>66.81365966797</ele>
        <time>2020-08-30T18:25:43.619Z</time>
      </trkpt>
      <trkpt lat="49.33466" lon="0.92048">
        <ele>65.01396179199</ele>
        <time>2020-08-30T18:25:47.943Z</time>
      </trkpt>
      <trkpt lat="49.33462" lon="0.92069">
        <ele>65.13236999512</ele>
        <time>2020-08-30T18:25:52.272Z</time>
      </trkpt>
      <trkpt lat="49.33459" lon="0.92087">
        <ele>65.04820251465</ele>
        <time>2020-08-30T18:25:56.605Z</time>
      </trkpt>
      <trkpt lat="49.33471" lon="0.9216">
        <ele>70.00746154785</ele>
        <time>2020-08-30T18:26:00.954Z</time>
      </trkpt>
      <trkpt lat="49.33482" lon="0.92161">
        <ele>71.72317504883</ele>
        <time>2020-08-30T18:26:05.307Z</time>
      </trkpt>
      <trkpt lat="49.33488" lon="0.92161">
        <ele>72.58703613281</ele>
        <time>2020-08-30T18:26:09.662Z</time>
      </trkpt>
      <trkpt lat="49.335" lon="0.92149">
        <ele>72.73101043701</ele>
        <time>2020-08-30T18:26:14.022Z</time>
      </trkpt>
      <trkpt lat="49.33503" lon="0.92147">
        <ele>72.89897918701</ele>
        <time>2020-08-30T18:26:18.383Z</time>
      </trkpt>
      <trkpt lat="49.33503" lon="0.92148">
        <ele>73.03096008301</ele>
        <time>2020-08-30T18:26:22.744Z</time>
      </trkpt>
      <trkpt lat="49.33504" lon="0.92148">
        <ele>73.17493438721</ele>
        <time>2020-08-30T18:26:27.105Z</time>
      </trkpt>
      <trkpt lat="49.33506" lon="0.92152">
        <ele>73.9907989502</ele>
        <time>2020-08-30T18:26:31.467Z</time>
      </trkpt>
      <trkpt lat="49.33506" lon="0.92153">
        <ele>74.12277984619</ele>
        <time>2020-08-30T18:26:35.830Z</time>
      </trkpt>
      <trkpt lat="49.33505" lon="0.9216">
        <ele>74.90264892578</ele>
        <time>2020-08-30T18:26:40.194Z</time>
      </trkpt>
      <trkpt lat="49.33502" lon="0.9217">
        <ele>75.79049682617</ele>
        <time>2020-08-30T18:26:44.560Z</time>
      </trkpt>
      <trkpt lat="49.33496" lon="0.92182">
        <ele>76.51037597656</ele>
        <time>2020-08-30T18:26:48.930Z</time>
      </trkpt>
      <trkpt lat="49.33488" lon="0.92198">
        <ele>76.05030822754</ele>
        <time>2020-08-30T18:26:53.304Z</time>
      </trkpt>
      <trkpt lat="49.33481" lon="0.92212">
        <ele>75.12646484375</ele>
        <time>2020-08-30T18:26:57.682Z</time>
      </trkpt>
      <trkpt lat="49.33473" lon="0.9222">
        <ele>73.68670654297</ele>
        <time>2020-08-30T18:27:02.063Z</time>
      </trkpt>
      <trkpt lat="49.33471" lon="0.92225">
        <ele>73.4861831665</ele>
        <time>2020-08-30T18:27:06.445Z</time>
      </trkpt>
      <trkpt lat="49.33468" lon="0.92229">
        <ele>73.04225158691</ele>
        <time>2020-08-30T18:27:10.829Z</time>
      </trkpt>
      <trkpt lat="49.33465" lon="0.92235">
        <ele>72.71830749512</ele>
        <time>2020-08-30T18:27:15.214Z</time>
      </trkpt>
      <trkpt lat="49.33458" lon="0.92241">
        <ele>71.48251342773</ele>
        <time>2020-08-30T18:27:19.602Z</time>
      </trkpt>
      <trkpt lat="49.33446" lon="0.92253">
        <ele>69.57371520996</ele>
        <time>2020-08-30T18:27:23.995Z</time>
      </trkpt>
      <trkpt lat="49.33441" lon="0.92254">
        <ele>68.91382598877</ele>
        <time>2020-08-30T18:27:28.390Z</time>
      </trkpt>
      <trkpt lat="49.3344" lon="0.92255">
        <ele>68.82984161377</ele>
        <time>2020-08-30T18:27:32.785Z</time>
      </trkpt>
      <trkpt lat="49.33438" lon="0.92257">
        <ele>68.66187286377</ele>
        <time>2020-08-30T18:27:37.181Z</time>
      </trkpt>
      <trkpt lat="49.33436" lon="0.92258">
        <ele>68.43390655518</ele>
        <time>2020-08-30T18:27:41.577Z</time>
      </trkpt>
      <trkpt lat="49.33414" lon="0.92265">
        <ele>65.68636322021</ele>
        <time>2020-08-30T18:27:45.981Z</time>
      </trkpt>
      <trkpt lat="49.33409" lon="0.92267">
        <ele>65.08646392822</ele>
        <time>2020-08-30T18:27:50.387Z</time>
      </trkpt>
      <trkpt lat="49.33394" lon="0.92294">
        <ele>64.06409454346</ele>
        <time>2020-08-30T18:27:54.800Z</time>
      </trkpt>
      <trkpt lat="49.33395" lon="0.92303">
        <ele>64.65199279785</ele>
        <time>2020-08-30T18:27:59.215Z</time>
      </trkpt>
      <trkpt lat="49.33382" lon="0.9233">
        <ele>61.79325866699</ele>
        <time>2020-08-30T18:28:03.638Z</time>
      </trkpt>
      <trkpt lat="49.3338" lon="0.92331">
        <ele>61.6372833252</ele>
        <time>2020-08-30T18:28:08.061Z</time>
      </trkpt>
      <trkpt lat="49.33378" lon="0.92331">
        <ele>61.4693145752</ele>
        <time>2020-08-30T18:28:12.485Z</time>
      </trkpt>
      <trkpt lat="49.33377" lon="0.9233">
        <ele>61.3733291626</ele>
        <time>2020-08-30T18:28:16.910Z</time>
      </trkpt>
      <trkpt lat="49.33373" lon="0.92319">
        <ele>60.9054069519</ele>
        <time>2020-08-30T18:28:21.337Z</time>
      </trkpt>
      <trkpt lat="49.33374" lon="0.92314">
        <ele>61.15509796143</ele>
        <time>2020-08-30T18:28:25.765Z</time>
      </trkpt>
      <trkpt lat="49.33373" lon="0.92311">
        <ele>61.17909622192</ele>
        <time>2020-08-30T18:28:30.194Z</time>
      </trkpt>
      <trkpt lat="49.33367" lon="0.92313">
        <ele>60.32950210571</ele>
        <time>2020-08-30T18:28:34.625Z</time>
      </trkpt>
      <trkpt lat="49.33367" lon="0.92315">
        <ele>60.35350036621</ele>
        <time>2020-08-30T18:28:39.057Z</time>
      </trkpt>
      <trkpt lat="49.33361" lon="0.92328">
        <ele>60.11084747314</ele>
        <time>2020-08-30T18:28:43.492Z</time>
      </trkpt>
      <trkpt lat="49.33357" lon="0.92336">
        <ele>60.01486206055</ele>
        <time>2020-08-30T18:28:47.929Z</time>
      </trkpt>
      <trkpt lat="49.33354" lon="0.92344">
        <ele>59.96686935425</ele>
        <time>2020-08-30T18:28:52.368Z</time>
      </trkpt>
      <trkpt lat="49.33354" lon="0.92349">
        <ele>60.02685928345</ele>
        <time>2020-08-30T18:28:56.808Z</time>
      </trkpt>
      <trkpt lat="49.33352" lon="0.92377">
        <ele>60.26681900024</ele>
        <time>2020-08-30T18:29:01.255Z</time>
      </trkpt>
      <trkpt lat="49.33358" lon="0.92388">
        <ele>60.89776992798</ele>
        <time>2020-08-30T18:29:05.705Z</time>
      </trkpt>
      <trkpt lat="49.33366" lon="0.92403">
        <ele>61.02489471436</ele>
        <time>2020-08-30T18:29:10.159Z</time>
      </trkpt>
      <trkpt lat="49.33369" lon="0.92409">
        <ele>61.06088638306</ele>
        <time>2020-08-30T18:29:14.615Z</time>
      </trkpt>
      <trkpt lat="49.33374" lon="0.92425">
        <ele>61.12087631226</ele>
        <time>2020-08-30T18:29:19.074Z</time>
      </trkpt>
      <trkpt lat="49.33378" lon="0.92432">
        <ele>61.16886901855</ele>
        <time>2020-08-30T18:29:23.535Z</time>
      </trkpt>
      <trkpt lat="49.33375" lon="0.92449">
        <ele>61.13287353516</ele>
        <time>2020-08-30T18:29:28.000Z</time>
      </trkpt>
      <trkpt lat="49.33373" lon="0.9245">
        <ele>61.10887908936</ele>
        <time>2020-08-30T18:29:32.466Z</time>
      </trkpt>
      <trkpt lat="49.3336" lon="0.92464">
        <ele>61.04709625244</ele>
        <time>2020-08-30T18:29:36.937Z</time>
      </trkpt>
      <trkpt lat="49.33346" lon="0.92479">
        <ele>62.51585388184</ele>
        <time>2020-08-30T18:29:41.414Z</time>
      </trkpt>
      <trkpt lat="49.33329" lon="0.92482">
        <ele>63.78763961792</ele>
        <time>2020-08-30T18:29:45.897Z</time>
      </trkpt>
      <trkpt lat="49.33294" lon="0.92535">
        <ele>69.1909866333</ele>
        <time>2020-08-30T18:29:50.396Z</time>
      </trkpt>
      <trkpt lat="49.33251" lon="0.92553">
        <ele>70.49747467041</ele>
        <time>2020-08-30T18:29:54.910Z</time>
      </trkpt>
      <trkpt lat="49.33248" lon="0.92554">
        <ele>70.49747467041</ele>
        <time>2020-08-30T18:29:59.425Z</time>
      </trkpt>
      <trkpt lat="49.33207" lon="0.9257">
        <ele>72.28370666504</ele>
        <time>2020-08-30T18:30:03.954Z</time>
      </trkpt>
      <trkpt lat="49.33188" lon="0.92578">
        <ele>73.39952087402</ele>
        <time>2020-08-30T18:30:08.490Z</time>
      </trkpt>
      <trkpt lat="49.33162" lon="0.92589">
        <ele>74.9352645874</ele>
        <time>2020-08-30T18:30:13.035Z</time>
      </trkpt>
      <trkpt lat="49.33117" lon="0.92614">
        <ele>75.3683013916</ele>
        <time>2020-08-30T18:30:17.596Z</time>
      </trkpt>
      <trkpt lat="49.33074" lon="0.92635">
        <ele>75.47662353516</ele>
        <time>2020-08-30T18:30:22.172Z</time>
      </trkpt>
      <trkpt lat="49.3302" lon="0.92662">
        <ele>77.26346588135</ele>
        <time>2020-08-30T18:30:26.767Z</time>
      </trkpt>
      <trkpt lat="49.33017" lon="0.92664">
        <ele>77.68339538574</ele>
        <time>2020-08-30T18:30:31.363Z</time>
      </trkpt>
      <trkpt lat="49.32971" lon="0.92694">
        <ele>79.35570526123</ele>
        <time>2020-08-30T18:30:35.975Z</time>
      </trkpt>
      <trkpt lat="49.32933" lon="0.92714">
        <ele>77.39318084717</ele>
        <time>2020-08-30T18:30:40.601Z</time>
      </trkpt>
      <trkpt lat="49.32903" lon="0.92728">
        <ele>79.44791412354</ele>
        <time>2020-08-30T18:30:45.237Z</time>
      </trkpt>
      <trkpt lat="49.32888" lon="0.92734">
        <ele>81.21161651611</ele>
        <time>2020-08-30T18:30:49.878Z</time>
      </trkpt>
      <trkpt lat="49.32873" lon="0.9273">
        <ele>80.93566131592</ele>
        <time>2020-08-30T18:30:54.525Z</time>
      </trkpt>
      <trkpt lat="49.32864" lon="0.92726">
        <ele>80.41920471191</ele>
        <time>2020-08-30T18:30:59.175Z</time>
      </trkpt>
      <trkpt lat="49.32826" lon="0.92705">
        <ele>83.19013214111</ele>
        <time>2020-08-30T18:31:03.838Z</time>
      </trkpt>
      <trkpt lat="49.32797" lon="0.92693">
        <ele>85.86568450928</ele>
        <time>2020-08-30T18:31:08.511Z</time>
      </trkpt>
      <trkpt lat="49.32745" lon="0.92672">
        <ele>86.88009643555</ele>
        <time>2020-08-30T18:31:13.202Z</time>
      </trkpt>
      <trkpt lat="49.32726" lon="0.92665">
        <ele>86.66413116455</ele>
        <time>2020-08-30T18:31:17.900Z</time>
      </trkpt>
      <trkpt lat="49.32712" lon="0.92659">
        <ele>86.69039154053</ele>
        <time>2020-08-30T18:31:22.603Z</time>
      </trkpt>
      <trkpt lat="49.32691" lon="0.92651">
        <ele>87.14100646973</ele>
        <time>2020-08-30T18:31:27.313Z</time>
      </trkpt>
      <trkpt lat="49.32687" lon="0.92649">
        <ele>87.04502868652</ele>
        <time>2020-08-30T18:31:32.024Z</time>
      </trkpt>
      <trkpt lat="49.32647" lon="0.92637">
        <ele>87.92557525635</ele>
        <time>2020-08-30T18:31:36.749Z</time>
      </trkpt>
      <trkpt lat="49.32608" lon="0.92643">
        <ele>89.89687347412</ele>
        <time>2020-08-30T18:31:41.487Z</time>
      </trkpt>
      <trkpt lat="49.32564" lon="0.92666">
        <ele>89.46494293213</ele>
        <time>2020-08-30T18:31:46.240Z</time>
      </trkpt>
      <trkpt lat="49.32538" lon="0.92673">
        <ele>86.77713012695</ele>
        <time>2020-08-30T18:31:51.002Z</time>
      </trkpt>
      <trkpt lat="49.32517" lon="0.92677">
        <ele>87.32975006104</ele>
        <time>2020-08-30T18:31:55.771Z</time>
      </trkpt>
      <trkpt lat="49.32501" lon="0.92686">
        <ele>89.27342987061</ele>
        <time>2020-08-30T18:32:00.546Z</time>
      </trkpt>
      <trkpt lat="49.32496" lon="0.92698">
        <ele>89.16654205322</ele>
        <time>2020-08-30T18:32:05.324Z</time>
      </trkpt>
      <trkpt lat="49.32496" lon="0.92718">
        <ele>87.48682403564</ele>
        <time>2020-08-30T18:32:10.106Z</time>
      </trkpt>
      <trkpt lat="49.32515" lon="0.92769">
        <ele>90.7964630127</ele>
        <time>2020-08-30T18:32:14.901Z</time>
      </trkpt>
      <trkpt lat="49.32527" lon="0.92797">
        <ele>93.14807128906</ele>
        <time>2020-08-30T18:32:19.703Z</time>
      </trkpt>
      <trkpt lat="49.32532" lon="0.92816">
        <ele>95.24308013916</ele>
        <time>2020-08-30T18:32:24.510Z</time>
      </trkpt>
      <trkpt lat="49.3254" lon="0.92834">
        <ele>98.00261688232</ele>
        <time>2020-08-30T18:32:29.322Z</time>
      </trkpt>
      <trkpt lat="49.32547" lon="0.92854">
        <ele>100.97811889648</ele>
        <time>2020-08-30T18:32:34.139Z</time>
      </trkpt>
      <trkpt lat="49.32551" lon="0.92871">
        <ele>103.41371917725</ele>
        <time>2020-08-30T18:32:38.960Z</time>
      </trkpt>
      <trkpt lat="49.32555" lon="0.92886">
        <ele>105.58535003662</ele>
        <time>2020-08-30T18:32:43.784Z</time>
      </trkpt>
      <trkpt lat="49.32558" lon="0.92902">
        <ele>107.28863525391</ele>
        <time>2020-08-30T18:32:48.612Z</time>
      </trkpt>
      <trkpt lat="49.3256" lon="0.92913">
        <ele>108.30846405029</ele>
        <time>2020-08-30T18:32:53.442Z</time>
      </trkpt>
      <trkpt lat="49.3256" lon="0.92921">
        <ele>109.01498413086</ele>
        <time>2020-08-30T18:32:58.274Z</time>
      </trkpt>
      <trkpt lat="49.32559" lon="0.92941">
        <ele>111.40258026123</ele>
        <time>2020-08-30T18:33:03.110Z</time>
      </trkpt>
      <trkpt lat="49.32558" lon="0.92956">
        <ele>113.190284729</ele>
        <time>2020-08-30T18:33:07.950Z</time>
      </trkpt>
      <trkpt lat="49.32555" lon="0.92974">
        <ele>115.2964553833</ele>
        <time>2020-08-30T18:33:12.794Z</time>
      </trkpt>
      <trkpt lat="49.32553" lon="0.92988">
        <ele>115.4404296875</ele>
        <time>2020-08-30T18:33:17.641Z</time>
      </trkpt>
      <trkpt lat="49.3255" lon="0.93007">
        <ele>116.12245178223</ele>
        <time>2020-08-30T18:33:22.492Z</time>
      </trkpt>
      <trkpt lat="49.32546" lon="0.93027">
        <ele>117.17827606201</ele>
        <time>2020-08-30T18:33:27.348Z</time>
      </trkpt>
      <trkpt lat="49.32543" lon="0.93046">
        <ele>118.162109375</ele>
        <time>2020-08-30T18:33:32.208Z</time>
      </trkpt>
      <trkpt lat="49.32539" lon="0.9306">
        <ele>118.72736358643</ele>
        <time>2020-08-30T18:33:37.071Z</time>
      </trkpt>
      <trkpt lat="49.32537" lon="0.93071">
        <ele>118.42420959473</ele>
        <time>2020-08-30T18:33:41.937Z</time>
      </trkpt>
      <trkpt lat="49.32536" lon="0.93075">
        <ele>118.29222869873</ele>
        <time>2020-08-30T18:33:46.804Z</time>
      </trkpt>
      <trkpt lat="49.32531" lon="0.93093">
        <ele>117.70432281494</ele>
        <time>2020-08-30T18:33:51.675Z</time>
      </trkpt>
      <trkpt lat="49.32524" lon="0.93112">
        <ele>116.94957733154</ele>
        <time>2020-08-30T18:33:56.551Z</time>
      </trkpt>
      <trkpt lat="49.32517" lon="0.93128">
        <ele>116.37802886963</ele>
        <time>2020-08-30T18:34:01.431Z</time>
      </trkpt>
      <trkpt lat="49.3251" lon="0.93141">
        <ele>117.70655059814</ele>
        <time>2020-08-30T18:34:06.315Z</time>
      </trkpt>
      <trkpt lat="49.32508" lon="0.93145">
        <ele>117.77853393555</ele>
        <time>2020-08-30T18:34:11.200Z</time>
      </trkpt>
      <trkpt lat="49.32503" lon="0.93159">
        <ele>117.86252593994</ele>
        <time>2020-08-30T18:34:16.088Z</time>
      </trkpt>
      <trkpt lat="49.32498" lon="0.93176">
        <ele>117.87451934814</ele>
        <time>2020-08-30T18:34:20.980Z</time>
      </trkpt>
      <trkpt lat="49.32492" lon="0.93191">
        <ele>118.08536529541</ele>
        <time>2020-08-30T18:34:25.876Z</time>
      </trkpt>
      <trkpt lat="49.32487" lon="0.93206">
        <ele>118.38531494141</ele>
        <time>2020-08-30T18:34:30.776Z</time>
      </trkpt>
      <trkpt lat="49.3248" lon="0.93226">
        <ele>118.8935546875</ele>
        <time>2020-08-30T18:34:35.681Z</time>
      </trkpt>
      <trkpt lat="49.3247" lon="0.9325">
        <ele>120.23577880859</ele>
        <time>2020-08-30T18:34:40.592Z</time>
      </trkpt>
      <trkpt lat="49.32463" lon="0.93267">
        <ele>119.8758392334</ele>
        <time>2020-08-30T18:34:45.507Z</time>
      </trkpt>
      <trkpt lat="49.32455" lon="0.93288">
        <ele>119.40791320801</ele>
        <time>2020-08-30T18:34:50.428Z</time>
      </trkpt>
      <trkpt lat="49.32425" lon="0.93355">
        <ele>118.29862976074</ele>
        <time>2020-08-30T18:34:55.366Z</time>
      </trkpt>
      <trkpt lat="49.32407" lon="0.93397">
        <ele>118.36832427979</ele>
        <time>2020-08-30T18:35:00.315Z</time>
      </trkpt>
      <trkpt lat="49.32385" lon="0.93447">
        <ele>118.52745056152</ele>
        <time>2020-08-30T18:35:05.277Z</time>
      </trkpt>
      <trkpt lat="49.32359" lon="0.9351">
        <ele>116.70139312744</ele>
        <time>2020-08-30T18:35:10.256Z</time>
      </trkpt>
      <trkpt lat="49.32353" lon="0.93524">
        <ele>116.19747161865</ele>
        <time>2020-08-30T18:35:15.238Z</time>
      </trkpt>
      <trkpt lat="49.32343" lon="0.93567">
        <ele>114.89879608154</ele>
        <time>2020-08-30T18:35:20.230Z</time>
      </trkpt>
      <trkpt lat="49.32338" lon="0.93595">
        <ele>113.95095062256</ele>
        <time>2020-08-30T18:35:25.229Z</time>
      </trkpt>
      <trkpt lat="49.32337" lon="0.93603">
        <ele>113.67499542236</ele>
        <time>2020-08-30T18:35:30.229Z</time>
      </trkpt>
      <trkpt lat="49.32334" lon="0.93634">
        <ele>113.15050506592</ele>
        <time>2020-08-30T18:35:35.236Z</time>
      </trkpt>
      <trkpt lat="49.32332" lon="0.93642">
        <ele>113.10990905762</ele>
        <time>2020-08-30T18:35:40.245Z</time>
      </trkpt>
      <trkpt lat="49.32328" lon="0.93669">
        <ele>112.60598754883</ele>
        <time>2020-08-30T18:35:45.260Z</time>
      </trkpt>
      <trkpt lat="49.32325" lon="0.93686">
        <ele>112.32512664795</ele>
        <time>2020-08-30T18:35:50.279Z</time>
      </trkpt>
      <trkpt lat="49.32321" lon="0.93706">
        <ele>112.56508636475</ele>
        <time>2020-08-30T18:35:55.302Z</time>
      </trkpt>
      <trkpt lat="49.32319" lon="0.93721">
        <ele>112.68506622314</ele>
        <time>2020-08-30T18:36:00.329Z</time>
      </trkpt>
      <trkpt lat="49.32319" lon="0.93735">
        <ele>112.42022705078</ele>
        <time>2020-08-30T18:36:05.359Z</time>
      </trkpt>
      <trkpt lat="49.3232" lon="0.93743">
        <ele>112.16826629639</ele>
        <time>2020-08-30T18:36:10.391Z</time>
      </trkpt>
      <trkpt lat="49.32324" lon="0.93796">
        <ele>110.99784088135</ele>
        <time>2020-08-30T18:36:15.434Z</time>
      </trkpt>
      <trkpt lat="49.32321" lon="0.93837">
        <ele>110.72188568115</ele>
        <time>2020-08-30T18:36:20.486Z</time>
      </trkpt>
      <trkpt lat="49.32322" lon="0.93863">
        <ele>109.83039855957</ele>
        <time>2020-08-30T18:36:25.544Z</time>
      </trkpt>
      <trkpt lat="49.32325" lon="0.93884">
        <ele>108.71458435059</ele>
        <time>2020-08-30T18:36:30.607Z</time>
      </trkpt>
      <trkpt lat="49.32321" lon="0.93924">
        <ele>108.13900756836</ele>
        <time>2020-08-30T18:36:35.678Z</time>
      </trkpt>
      <trkpt lat="49.32319" lon="0.93938">
        <ele>107.41286468506</ele>
        <time>2020-08-30T18:36:40.753Z</time>
      </trkpt>
      <trkpt lat="49.32322" lon="0.9396">
        <ele>105.67315673828</ele>
        <time>2020-08-30T18:36:45.832Z</time>
      </trkpt>
      <trkpt lat="49.32333" lon="0.93999">
        <ele>105.19277191162</ele>
        <time>2020-08-30T18:36:50.921Z</time>
      </trkpt>
      <trkpt lat="49.32339" lon="0.94007">
        <ele>105.50471496582</ele>
        <time>2020-08-30T18:36:56.012Z</time>
      </trkpt>
      <trkpt lat="49.32342" lon="0.9401">
        <ele>105.64868927002</ele>
        <time>2020-08-30T18:37:01.105Z</time>
      </trkpt>
      <trkpt lat="49.32366" lon="0.94037">
        <ele>106.78270721436</ele>
        <time>2020-08-30T18:37:06.208Z</time>
      </trkpt>
      <trkpt lat="49.32381" lon="0.94053">
        <ele>107.15464782715</ele>
        <time>2020-08-30T18:37:11.317Z</time>
      </trkpt>
      <trkpt lat="49.32391" lon="0.94062">
        <ele>107.10378265381</ele>
        <time>2020-08-30T18:37:16.429Z</time>
      </trkpt>
      <trkpt lat="49.32434" lon="0.94114">
        <ele>105.12410736084</ele>
        <time>2020-08-30T18:37:21.560Z</time>
      </trkpt>
      <trkpt lat="49.32444" lon="0.94117">
        <ele>105.10011291504</ele>
        <time>2020-08-30T18:37:26.694Z</time>
      </trkpt>
      <trkpt lat="49.3245" lon="0.94118">
        <ele>105.22828674316</ele>
        <time>2020-08-30T18:37:31.830Z</time>
      </trkpt>
      <trkpt lat="49.32475" lon="0.9413">
        <ele>105.85218048096</ele>
        <time>2020-08-30T18:37:36.975Z</time>
      </trkpt>
      <trkpt lat="49.32507" lon="0.94166">
        <ele>105.66020965576</ele>
        <time>2020-08-30T18:37:42.133Z</time>
      </trkpt>
      <trkpt lat="49.32524" lon="0.94189">
        <ele>105.37226104736</ele>
        <time>2020-08-30T18:37:47.299Z</time>
      </trkpt>
      <trkpt lat="49.32558" lon="0.94252">
        <ele>104.64638519287</ele>
        <time>2020-08-30T18:37:52.483Z</time>
      </trkpt>
      <trkpt lat="49.3257" lon="0.94296">
        <ele>103.78253173828</ele>
        <time>2020-08-30T18:37:57.677Z</time>
      </trkpt>
      <trkpt lat="49.32581" lon="0.94315">
        <ele>103.75853729248</ele>
        <time>2020-08-30T18:38:02.876Z</time>
      </trkpt>
      <trkpt lat="49.32585" lon="0.94318">
        <ele>103.89051055908</ele>
        <time>2020-08-30T18:38:08.077Z</time>
      </trkpt>
      <trkpt lat="49.32586" lon="0.94326">
        <ele>103.66255187988</ele>
        <time>2020-08-30T18:38:13.280Z</time>
      </trkpt>
      <trkpt lat="49.32586" lon="0.94331">
        <ele>103.48258209229</ele>
        <time>2020-08-30T18:38:18.484Z</time>
      </trkpt>
      <trkpt lat="49.32587" lon="0.94334">
        <ele>103.43458557129</ele>
        <time>2020-08-30T18:38:23.689Z</time>
      </trkpt>
      <trkpt lat="49.32592" lon="0.94351">
        <ele>103.12264251709</ele>
        <time>2020-08-30T18:38:28.898Z</time>
      </trkpt>
      <trkpt lat="49.32599" lon="0.94367">
        <ele>102.96666717529</ele>
        <time>2020-08-30T18:38:34.111Z</time>
      </trkpt>
      <trkpt lat="49.32606" lon="0.94389">
        <ele>102.81282806396</ele>
        <time>2020-08-30T18:38:39.329Z</time>
      </trkpt>
      <trkpt lat="49.32608" lon="0.94409">
        <ele>102.86081695557</ele>
        <time>2020-08-30T18:38:44.552Z</time>
      </trkpt>
      <trkpt lat="49.32617" lon="0.94438">
        <ele>103.53747558594</ele>
        <time>2020-08-30T18:38:49.782Z</time>
      </trkpt>
      <trkpt lat="49.32619" lon="0.9448">
        <ele>103.66917419434</ele>
        <time>2020-08-30T18:38:55.021Z</time>
      </trkpt>
      <trkpt lat="49.32619" lon="0.9452">
        <ele>102.70933532715</ele>
        <time>2020-08-30T18:39:00.269Z</time>
      </trkpt>
      <trkpt lat="49.32621" lon="0.94562">
        <ele>102.12297821045</ele>
        <time>2020-08-30T18:39:05.526Z</time>
      </trkpt>
      <trkpt lat="49.32625" lon="0.94577">
        <ele>102.54615783691</ele>
        <time>2020-08-30T18:39:10.786Z</time>
      </trkpt>
      <trkpt lat="49.32627" lon="0.94584">
        <ele>102.73812103271</ele>
        <time>2020-08-30T18:39:16.048Z</time>
      </trkpt>
      <trkpt lat="49.32636" lon="0.94644">
        <ele>102.95669555664</ele>
        <time>2020-08-30T18:39:21.323Z</time>
      </trkpt>
      <trkpt lat="49.32638" lon="0.94651">
        <ele>103.23265075684</ele>
        <time>2020-08-30T18:39:26.600Z</time>
      </trkpt>
      <trkpt lat="49.32642" lon="0.94664">
        <ele>103.79655456543</ele>
        <time>2020-08-30T18:39:31.880Z</time>
      </trkpt>
      <trkpt lat="49.3265" lon="0.94692">
        <ele>104.72019195557</ele>
        <time>2020-08-30T18:39:37.167Z</time>
      </trkpt>
      <trkpt lat="49.32673" lon="0.94742">
        <ele>108.36446380615</ele>
        <time>2020-08-30T18:39:42.467Z</time>
      </trkpt>
      <trkpt lat="49.32677" lon="0.94748">
        <ele>109.13233947754</ele>
        <time>2020-08-30T18:39:47.769Z</time>
      </trkpt>
      <trkpt lat="49.32683" lon="0.94757">
        <ele>110.28414916992</ele>
        <time>2020-08-30T18:39:53.074Z</time>
      </trkpt>
      <trkpt lat="49.3269" lon="0.94765">
        <ele>111.62792205811</ele>
        <time>2020-08-30T18:39:58.382Z</time>
      </trkpt>
      <trkpt lat="49.32702" lon="0.94781">
        <ele>113.52398681641</ele>
        <time>2020-08-30T18:40:03.695Z</time>
      </trkpt>
      <trkpt lat="49.32711" lon="0.94788">
        <ele>114.49582672119</ele>
        <time>2020-08-30T18:40:09.011Z</time>
      </trkpt>
      <trkpt lat="49.32712" lon="0.94789">
        <ele>114.60381317139</ele>
        <time>2020-08-30T18:40:14.328Z</time>
      </trkpt>
      <trkpt lat="49.32717" lon="0.94794">
        <ele>115.14372253418</ele>
        <time>2020-08-30T18:40:19.647Z</time>
      </trkpt>
      <trkpt lat="49.32709" lon="0.94857">
        <ele>115.63577270508</ele>
        <time>2020-08-30T18:40:24.980Z</time>
      </trkpt>
      <trkpt lat="49.32697" lon="0.94896">
        <ele>116.03202819824</ele>
        <time>2020-08-30T18:40:30.322Z</time>
      </trkpt>
      <trkpt lat="49.32691" lon="0.94915">
        <ele>115.03619384766</ele>
        <time>2020-08-30T18:40:35.669Z</time>
      </trkpt>
      <trkpt lat="49.32687" lon="0.94929">
        <ele>114.38829803467</ele>
        <time>2020-08-30T18:40:41.019Z</time>
      </trkpt>
      <trkpt lat="49.32683" lon="0.94942">
        <ele>113.72840881348</ele>
        <time>2020-08-30T18:40:46.372Z</time>
      </trkpt>
      <trkpt lat="49.3268" lon="0.94959">
        <ele>113.34418487549</ele>
        <time>2020-08-30T18:40:51.729Z</time>
      </trkpt>
      <trkpt lat="49.32681" lon="0.94969">
        <ele>113.77611541748</ele>
        <time>2020-08-30T18:40:57.088Z</time>
      </trkpt>
      <trkpt lat="49.32695" lon="0.9504">
        <ele>118.95719146729</ele>
        <time>2020-08-30T18:41:02.463Z</time>
      </trkpt>
      <trkpt lat="49.32701" lon="0.95069">
        <ele>120.55101013184</ele>
        <time>2020-08-30T18:41:07.845Z</time>
      </trkpt>
      <trkpt lat="49.32703" lon="0.95074">
        <ele>120.79096984863</ele>
        <time>2020-08-30T18:41:13.228Z</time>
      </trkpt>
      <trkpt lat="49.32708" lon="0.95078">
        <ele>120.98294067383</ele>
        <time>2020-08-30T18:41:18.613Z</time>
      </trkpt>
      <trkpt lat="49.32716" lon="0.95086">
        <ele>121.36687469482</ele>
        <time>2020-08-30T18:41:24.001Z</time>
      </trkpt>
      <trkpt lat="49.32717" lon="0.95087">
        <ele>121.41486358643</ele>
        <time>2020-08-30T18:41:29.390Z</time>
      </trkpt>
      <trkpt lat="49.32717" lon="0.95084">
        <ele>121.27088928223</ele>
        <time>2020-08-30T18:41:34.779Z</time>
      </trkpt>
      <trkpt lat="49.32716" lon="0.95083">
        <ele>121.22290039062</ele>
        <time>2020-08-30T18:41:40.169Z</time>
      </trkpt>
      <trkpt lat="49.32716" lon="0.9508">
        <ele>121.07891845703</ele>
        <time>2020-08-30T18:41:45.560Z</time>
      </trkpt>
      <trkpt lat="49.32714" lon="0.95077">
        <ele>120.93494415283</ele>
        <time>2020-08-30T18:41:50.951Z</time>
      </trkpt>
      <trkpt lat="49.32713" lon="0.95076">
        <ele>120.88695526123</ele>
        <time>2020-08-30T18:41:56.343Z</time>
      </trkpt>
      <trkpt lat="49.32712" lon="0.95077">
        <ele>120.93494415283</ele>
        <time>2020-08-30T18:42:01.735Z</time>
      </trkpt>
      <trkpt lat="49.32713" lon="0.95079">
        <ele>121.03092956543</ele>
        <time>2020-08-30T18:42:07.128Z</time>
      </trkpt>
      <trkpt lat="49.32714" lon="0.9508">
        <ele>121.07891845703</ele>
        <time>2020-08-30T18:42:12.521Z</time>
      </trkpt>
      <trkpt lat="49.32718" lon="0.95079">
        <ele>121.03092956543</ele>
        <time>2020-08-30T18:42:17.916Z</time>
      </trkpt>
      <trkpt lat="49.32719" lon="0.9507">
        <ele>120.82387542725</ele>
        <time>2020-08-30T18:42:23.313Z</time>
      </trkpt>
      <trkpt lat="49.32721" lon="0.95067">
        <ele>120.79988098145</ele>
        <time>2020-08-30T18:42:28.710Z</time>
      </trkpt>
      <trkpt lat="49.32722" lon="0.95066">
        <ele>120.79988098145</ele>
        <time>2020-08-30T18:42:34.108Z</time>
      </trkpt>
      <trkpt lat="49.32724" lon="0.9506">
        <ele>120.70389556885</ele>
        <time>2020-08-30T18:42:39.507Z</time>
      </trkpt>
      <trkpt lat="49.32729" lon="0.95054">
        <ele>120.63768005371</ele>
        <time>2020-08-30T18:42:44.908Z</time>
      </trkpt>
      <trkpt lat="49.32733" lon="0.9505">
        <ele>120.58969116211</ele>
        <time>2020-08-30T18:42:50.311Z</time>
      </trkpt>
      <trkpt lat="49.32763" lon="0.95047">
        <ele>121.2015838623</ele>
        <time>2020-08-30T18:42:55.724Z</time>
      </trkpt>
      <trkpt lat="49.32776" lon="0.95057">
        <ele>121.87347412109</ele>
        <time>2020-08-30T18:43:01.142Z</time>
      </trkpt>
      <trkpt lat="49.32782" lon="0.95059">
        <ele>121.96445465088</ele>
        <time>2020-08-30T18:43:06.562Z</time>
      </trkpt>
      <trkpt lat="49.32792" lon="0.95063">
        <ele>121.86846923828</ele>
        <time>2020-08-30T18:43:11.985Z</time>
      </trkpt>
      <trkpt lat="49.32794" lon="0.95067">
        <ele>121.77248382568</ele>
        <time>2020-08-30T18:43:17.410Z</time>
      </trkpt>
      <trkpt lat="49.32795" lon="0.95071">
        <ele>121.67650604248</ele>
        <time>2020-08-30T18:43:22.835Z</time>
      </trkpt>
      <trkpt lat="49.328" lon="0.9509">
        <ele>121.84332275391</ele>
        <time>2020-08-30T18:43:28.265Z</time>
      </trkpt>
      <trkpt lat="49.32804" lon="0.95104">
        <ele>121.98729705811</ele>
        <time>2020-08-30T18:43:33.698Z</time>
      </trkpt>
      <trkpt lat="49.32807" lon="0.95111">
        <ele>122.01129150391</ele>
        <time>2020-08-30T18:43:39.133Z</time>
      </trkpt>
      <trkpt lat="49.3281" lon="0.95118">
        <ele>122.03528594971</ele>
        <time>2020-08-30T18:43:44.570Z</time>
      </trkpt>
      <trkpt lat="49.32816" lon="0.95123">
        <ele>121.86731719971</ele>
        <time>2020-08-30T18:43:50.009Z</time>
      </trkpt>
      <trkpt lat="49.32873" lon="0.95121">
        <ele>120.25694274902</ele>
        <time>2020-08-30T18:43:55.467Z</time>
      </trkpt>
      <trkpt lat="49.32891" lon="0.95114">
        <ele>119.99298858643</ele>
        <time>2020-08-30T18:44:00.931Z</time>
      </trkpt>
      <trkpt lat="49.32901" lon="0.95112">
        <ele>119.80101776123</ele>
        <time>2020-08-30T18:44:06.399Z</time>
      </trkpt>
      <trkpt lat="49.32921" lon="0.95119">
        <ele>119.15312957764</ele>
        <time>2020-08-30T18:44:11.874Z</time>
      </trkpt>
      <trkpt lat="49.32939" lon="0.95123">
        <ele>118.27690887451</ele>
        <time>2020-08-30T18:44:17.355Z</time>
      </trkpt>
      <trkpt lat="49.32947" lon="0.95141">
        <ele>118.01097106934</ele>
        <time>2020-08-30T18:44:22.840Z</time>
      </trkpt>
      <trkpt lat="49.32952" lon="0.95143">
        <ele>117.71746063232</ele>
        <time>2020-08-30T18:44:28.327Z</time>
      </trkpt>
      <trkpt lat="49.32963" lon="0.95139">
        <ele>116.46002197266</ele>
        <time>2020-08-30T18:44:33.818Z</time>
      </trkpt>
      <trkpt lat="49.32967" lon="0.95137">
        <ele>116.05208587646</ele>
        <time>2020-08-30T18:44:39.310Z</time>
      </trkpt>
      <trkpt lat="49.32971" lon="0.95136">
        <ele>115.65615081787</ele>
        <time>2020-08-30T18:44:44.804Z</time>
      </trkpt>
      <trkpt lat="49.32974" lon="0.95135">
        <ele>115.35620117188</ele>
        <time>2020-08-30T18:44:50.299Z</time>
      </trkpt>
      <trkpt lat="49.32979" lon="0.95132">
        <ele>114.84028625488</ele>
        <time>2020-08-30T18:44:55.796Z</time>
      </trkpt>
      <trkpt lat="49.32982" lon="0.95126">
        <ele>114.48034667969</ele>
        <time>2020-08-30T18:45:01.294Z</time>
      </trkpt>
      <trkpt lat="49.32985" lon="0.95119">
        <ele>114.10841369629</ele>
        <time>2020-08-30T18:45:06.794Z</time>
      </trkpt>
      <trkpt lat="49.32989" lon="0.95113">
        <ele>113.6524887085</ele>
        <time>2020-08-30T18:45:12.296Z</time>
      </trkpt>
      <trkpt lat="49.32992" lon="0.95106">
        <ele>113.2805480957</ele>
        <time>2020-08-30T18:45:17.800Z</time>
      </trkpt>
      <trkpt lat="49.32994" lon="0.95098">
        <ele>112.76477050781</ele>
        <time>2020-08-30T18:45:23.306Z</time>
      </trkpt>
      <trkpt lat="49.32996" lon="0.95085">
        <ele>111.87691497803</ele>
        <time>2020-08-30T18:45:28.814Z</time>
      </trkpt>
      <trkpt lat="49.32998" lon="0.9508">
        <ele>111.37300109863</ele>
        <time>2020-08-30T18:45:34.324Z</time>
      </trkpt>
      <trkpt lat="49.33" lon="0.9508">
        <ele>111.10904693604</ele>
        <time>2020-08-30T18:45:39.834Z</time>
      </trkpt>
      <trkpt lat="49.33006" lon="0.9508">
        <ele>110.31717681885</ele>
        <time>2020-08-30T18:45:45.346Z</time>
      </trkpt>
      <trkpt lat="49.3302" lon="0.95079">
        <ele>108.42149353027</ele>
        <time>2020-08-30T18:45:50.863Z</time>
      </trkpt>
      <trkpt lat="49.33028" lon="0.95079">
        <ele>107.36566925049</ele>
        <time>2020-08-30T18:45:56.383Z</time>
      </trkpt>
      <trkpt lat="49.33045" lon="0.9507">
        <ele>104.33599853516</ele>
        <time>2020-08-30T18:46:01.909Z</time>
      </trkpt>
      <trkpt lat="49.33049" lon="0.95071">
        <ele>103.96406555176</ele>
        <time>2020-08-30T18:46:07.436Z</time>
      </trkpt>
      <trkpt lat="49.33058" lon="0.95072">
        <ele>103.17219543457</ele>
        <time>2020-08-30T18:46:12.966Z</time>
      </trkpt>
      <trkpt lat="49.33063" lon="0.95073">
        <ele>102.71627044678</ele>
        <time>2020-08-30T18:46:18.498Z</time>
      </trkpt>
      <trkpt lat="49.33084" lon="0.95074">
        <ele>100.9165725708</ele>
        <time>2020-08-30T18:46:24.037Z</time>
      </trkpt>
      <trkpt lat="49.3309" lon="0.95076">
        <ele>100.34066772461</ele>
        <time>2020-08-30T18:46:29.578Z</time>
      </trkpt>
      <trkpt lat="49.33097" lon="0.95079">
        <ele>99.64478302002</ele>
        <time>2020-08-30T18:46:35.121Z</time>
      </trkpt>
      <trkpt lat="49.33106" lon="0.95083">
        <ele>98.74493408203</ele>
        <time>2020-08-30T18:46:40.667Z</time>
      </trkpt>
      <trkpt lat="49.33121" lon="0.95089">
        <ele>98.20839691162</ele>
        <time>2020-08-30T18:46:46.219Z</time>
      </trkpt>
      <trkpt lat="49.33123" lon="0.95092">
        <ele>98.19639587402</ele>
        <time>2020-08-30T18:46:51.772Z</time>
      </trkpt>
      <trkpt lat="49.33127" lon="0.951">
        <ele>98.10041046143</ele>
        <time>2020-08-30T18:46:57.327Z</time>
      </trkpt>
      <trkpt lat="49.33137" lon="0.95145">
        <ele>96.41500091553</ele>
        <time>2020-08-30T18:47:02.892Z</time>
      </trkpt>
      <trkpt lat="49.33138" lon="0.95149">
        <ele>95.79110717773</ele>
        <time>2020-08-30T18:47:08.458Z</time>
      </trkpt>
      <trkpt lat="49.33148" lon="0.95164">
        <ele>93.75144195557</ele>
        <time>2020-08-30T18:47:14.029Z</time>
      </trkpt>
      <trkpt lat="49.33157" lon="0.95182">
        <ele>91.1598739624</ele>
        <time>2020-08-30T18:47:19.605Z</time>
      </trkpt>
      <trkpt lat="49.33163" lon="0.95192">
        <ele>90.22804260254</ele>
        <time>2020-08-30T18:47:25.184Z</time>
      </trkpt>
      <trkpt lat="49.33166" lon="0.95194">
        <ele>89.80811309814</ele>
        <time>2020-08-30T18:47:30.764Z</time>
      </trkpt>
      <trkpt lat="49.33177" lon="0.95196">
        <ele>89.76811218262</ele>
        <time>2020-08-30T18:47:36.347Z</time>
      </trkpt>
      <trkpt lat="49.33224" lon="0.95232">
        <ele>85.65556335449</ele>
        <time>2020-08-30T18:47:41.948Z</time>
      </trkpt>
      <trkpt lat="49.33228" lon="0.95237">
        <ele>84.9596786499</ele>
        <time>2020-08-30T18:47:47.551Z</time>
      </trkpt>
      <trkpt lat="49.33235" lon="0.95248">
        <ele>83.36394500732</ele>
        <time>2020-08-30T18:47:53.157Z</time>
      </trkpt>
      <trkpt lat="49.33239" lon="0.95254">
        <ele>82.50009155273</ele>
        <time>2020-08-30T18:47:58.765Z</time>
      </trkpt>
      <trkpt lat="49.33246" lon="0.9526">
        <ele>81.74421691895</ele>
        <time>2020-08-30T18:48:04.376Z</time>
      </trkpt>
      <trkpt lat="49.33251" lon="0.95266">
        <ele>80.91635131836</ele>
        <time>2020-08-30T18:48:09.989Z</time>
      </trkpt>
      <trkpt lat="49.33256" lon="0.95272">
        <ele>80.08849334717</ele>
        <time>2020-08-30T18:48:15.604Z</time>
      </trkpt>
      <trkpt lat="49.33266" lon="0.95282">
        <ele>78.76870727539</ele>
        <time>2020-08-30T18:48:21.223Z</time>
      </trkpt>
      <trkpt lat="49.33274" lon="0.95288">
        <ele>78.048828125</ele>
        <time>2020-08-30T18:48:26.845Z</time>
      </trkpt>
      <trkpt lat="49.33284" lon="0.95301">
        <ele>76.3893661499</ele>
        <time>2020-08-30T18:48:32.471Z</time>
      </trkpt>
      <trkpt lat="49.33289" lon="0.9531">
        <ele>75.35608673096</ele>
        <time>2020-08-30T18:48:38.100Z</time>
      </trkpt>
      <trkpt lat="49.33296" lon="0.95317">
        <ele>74.93615722656</ele>
        <time>2020-08-30T18:48:43.731Z</time>
      </trkpt>
      <trkpt lat="49.33303" lon="0.95325">
        <ele>74.37225341797</ele>
        <time>2020-08-30T18:48:49.365Z</time>
      </trkpt>
      <trkpt lat="49.3331" lon="0.95333">
        <ele>73.80834197998</ele>
        <time>2020-08-30T18:48:55.002Z</time>
      </trkpt>
      <trkpt lat="49.33328" lon="0.95345">
        <ele>73.59238433838</ele>
        <time>2020-08-30T18:49:00.646Z</time>
      </trkpt>
      <trkpt lat="49.33332" lon="0.95351">
        <ele>73.06446838379</ele>
        <time>2020-08-30T18:49:06.292Z</time>
      </trkpt>
      <trkpt lat="49.33335" lon="0.95357">
        <ele>72.4525680542</ele>
        <time>2020-08-30T18:49:11.939Z</time>
      </trkpt>
      <trkpt lat="49.33341" lon="0.95369">
        <ele>71.33865356445</ele>
        <time>2020-08-30T18:49:17.590Z</time>
      </trkpt>
      <trkpt lat="49.33343" lon="0.95376">
        <ele>71.03870391846</ele>
        <time>2020-08-30T18:49:23.242Z</time>
      </trkpt>
      <trkpt lat="49.33346" lon="0.95382">
        <ele>70.75075531006</ele>
        <time>2020-08-30T18:49:28.896Z</time>
      </trkpt>
      <trkpt lat="49.3335" lon="0.95389">
        <ele>70.40280914307</ele>
        <time>2020-08-30T18:49:34.552Z</time>
      </trkpt>
      <trkpt lat="49.33352" lon="0.95396">
        <ele>69.79737091064</ele>
        <time>2020-08-30T18:49:40.210Z</time>
      </trkpt>
      <trkpt lat="49.33354" lon="0.95405">
        <ele>68.88552093506</ele>
        <time>2020-08-30T18:49:45.870Z</time>
      </trkpt>
      <trkpt lat="49.33353" lon="0.95413">
        <ele>68.14164733887</ele>
        <time>2020-08-30T18:49:51.532Z</time>
      </trkpt>
      <trkpt lat="49.3335" lon="0.95419">
        <ele>67.63773345947</ele>
        <time>2020-08-30T18:49:57.195Z</time>
      </trkpt>
      <trkpt lat="49.33348" lon="0.95423">
        <ele>67.30178833008</ele>
        <time>2020-08-30T18:50:02.859Z</time>
      </trkpt>
      <trkpt lat="49.33347" lon="0.95429">
        <ele>66.74987792969</ele>
        <time>2020-08-30T18:50:08.525Z</time>
      </trkpt>
      <trkpt lat="49.33343" lon="0.95437">
        <ele>66.0779876709</ele>
        <time>2020-08-30T18:50:14.193Z</time>
      </trkpt>
      <trkpt lat="49.33339" lon="0.95439">
        <ele>65.9820022583</ele>
        <time>2020-08-30T18:50:19.862Z</time>
      </trkpt>
      <trkpt lat="49.33333" lon="0.95438">
        <ele>66.22196960449</ele>
        <time>2020-08-30T18:50:25.533Z</time>
      </trkpt>
      <trkpt lat="49.3333" lon="0.95435">
        <ele>66.58190917969</ele>
        <time>2020-08-30T18:50:31.205Z</time>
      </trkpt>
      <trkpt lat="49.33328" lon="0.9543">
        <ele>67.10981750488</ele>
        <time>2020-08-30T18:50:36.879Z</time>
      </trkpt>
      <trkpt lat="49.33328" lon="0.95432">
        <ele>66.91784667969</ele>
        <time>2020-08-30T18:50:42.553Z</time>
      </trkpt>
      <trkpt lat="49.33329" lon="0.9544">
        <ele>66.18228149414</ele>
        <time>2020-08-30T18:50:48.229Z</time>
      </trkpt>
      <trkpt lat="49.33331" lon="0.95455">
        <ele>65.78634643555</ele>
        <time>2020-08-30T18:50:53.908Z</time>
      </trkpt>
      <trkpt lat="49.33332" lon="0.95474">
        <ele>65.45040893555</ele>
        <time>2020-08-30T18:50:59.591Z</time>
      </trkpt>
      <trkpt lat="49.33333" lon="0.95491">
        <ele>64.3348236084</ele>
        <time>2020-08-30T18:51:05.278Z</time>
      </trkpt>
      <trkpt lat="49.33331" lon="0.95502">
        <ele>63.89089584351</ele>
        <time>2020-08-30T18:51:10.968Z</time>
      </trkpt>
      <trkpt lat="49.33329" lon="0.95505">
        <ele>63.9268913269</ele>
        <time>2020-08-30T18:51:16.659Z</time>
      </trkpt>
      <trkpt lat="49.33326" lon="0.95506">
        <ele>64.1908493042</ele>
        <time>2020-08-30T18:51:22.351Z</time>
      </trkpt>
      <trkpt lat="49.33324" lon="0.95509">
        <ele>64.2268447876</ele>
        <time>2020-08-30T18:51:28.044Z</time>
      </trkpt>
      <trkpt lat="49.33322" lon="0.9552">
        <ele>63.36796188354</ele>
        <time>2020-08-30T18:51:33.739Z</time>
      </trkpt>
      <trkpt lat="49.33319" lon="0.95553">
        <ele>58.25681304932</ele>
        <time>2020-08-30T18:51:39.441Z</time>
      </trkpt>
      <trkpt lat="49.33318" lon="0.95562">
        <ele>57.07611083984</ele>
        <time>2020-08-30T18:51:45.145Z</time>
      </trkpt>
      <trkpt lat="49.33314" lon="0.9557">
        <ele>56.26025009155</ele>
        <time>2020-08-30T18:51:50.851Z</time>
      </trkpt>
      <trkpt lat="49.33277" lon="0.95609">
        <ele>56.17723846436</ele>
        <time>2020-08-30T18:51:56.572Z</time>
      </trkpt>
      <trkpt lat="49.33244" lon="0.95643">
        <ele>57.36327362061</ele>
        <time>2020-08-30T18:52:02.307Z</time>
      </trkpt>
      <trkpt lat="49.33221" lon="0.95675">
        <ele>57.14393234253</ele>
        <time>2020-08-30T18:52:08.052Z</time>
      </trkpt>
      <trkpt lat="49.33206" lon="0.95695">
        <ele>56.72400283813</ele>
        <time>2020-08-30T18:52:13.804Z</time>
      </trkpt>
      <trkpt lat="49.33183" lon="0.95751">
        <ele>58.4780921936</ele>
        <time>2020-08-30T18:52:19.570Z</time>
      </trkpt>
      <trkpt lat="49.33171" lon="0.9579">
        <ele>60.40559387207</ele>
        <time>2020-08-30T18:52:25.346Z</time>
      </trkpt>
      <trkpt lat="49.33153" lon="0.95846">
        <ele>62.75457763672</ele>
        <time>2020-08-30T18:52:31.135Z</time>
      </trkpt>
      <trkpt lat="49.33145" lon="0.95882">
        <ele>64.52116394043</ele>
        <time>2020-08-30T18:52:36.932Z</time>
      </trkpt>
      <trkpt lat="49.33137" lon="0.95918">
        <ele>66.43697357178</ele>
        <time>2020-08-30T18:52:42.738Z</time>
      </trkpt>
      <trkpt lat="49.33134" lon="0.95938">
        <ele>67.85273742676</ele>
        <time>2020-08-30T18:52:48.548Z</time>
      </trkpt>
      <trkpt lat="49.3313" lon="0.95949">
        <ele>69.36448669434</ele>
        <time>2020-08-30T18:52:54.361Z</time>
      </trkpt>
      <trkpt lat="49.33129" lon="0.95952">
        <ele>69.74842071533</ele>
        <time>2020-08-30T18:53:00.175Z</time>
      </trkpt>
      <trkpt lat="49.33125" lon="0.95962">
        <ele>71.23617553711</ele>
        <time>2020-08-30T18:53:05.991Z</time>
      </trkpt>
      <trkpt lat="49.33121" lon="0.95975">
        <ele>72.82767486572</ele>
        <time>2020-08-30T18:53:11.810Z</time>
      </trkpt>
      <trkpt lat="49.33121" lon="0.95977">
        <ele>72.97165679932</ele>
        <time>2020-08-30T18:53:17.630Z</time>
      </trkpt>
      <trkpt lat="49.33121" lon="0.95983">
        <ele>73.40357971191</ele>
        <time>2020-08-30T18:53:23.451Z</time>
      </trkpt>
      <trkpt lat="49.3312" lon="0.95998">
        <ele>74.79534912109</ele>
        <time>2020-08-30T18:53:29.275Z</time>
      </trkpt>
      <trkpt lat="49.33118" lon="0.96007">
        <ele>76.06713867188</ele>
        <time>2020-08-30T18:53:35.102Z</time>
      </trkpt>
      <trkpt lat="49.33118" lon="0.96023">
        <ele>77.21894836426</ele>
        <time>2020-08-30T18:53:40.932Z</time>
      </trkpt>
      <trkpt lat="49.33117" lon="0.96031">
        <ele>78.10679626465</ele>
        <time>2020-08-30T18:53:46.764Z</time>
      </trkpt>
      <trkpt lat="49.33117" lon="0.96038">
        <ele>78.61071777344</ele>
        <time>2020-08-30T18:53:52.597Z</time>
      </trkpt>
      <trkpt lat="49.33117" lon="0.96045">
        <ele>79.11463165283</ele>
        <time>2020-08-30T18:53:58.432Z</time>
      </trkpt>
      <trkpt lat="49.33116" lon="0.96056">
        <ele>80.21844482422</ele>
        <time>2020-08-30T18:54:04.269Z</time>
      </trkpt>
      <trkpt lat="49.33116" lon="0.96065">
        <ele>80.16648864746</ele>
        <time>2020-08-30T18:54:10.108Z</time>
      </trkpt>
      <trkpt lat="49.33116" lon="0.96074">
        <ele>79.73455810547</ele>
        <time>2020-08-30T18:54:15.949Z</time>
      </trkpt>
      <trkpt lat="49.33116" lon="0.96076">
        <ele>79.63857269287</ele>
        <time>2020-08-30T18:54:21.791Z</time>
      </trkpt>
      <trkpt lat="49.33117" lon="0.96079">
        <ele>79.26663208008</ele>
        <time>2020-08-30T18:54:27.633Z</time>
      </trkpt>
      <trkpt lat="49.33125" lon="0.96083">
        <ele>77.25096893311</ele>
        <time>2020-08-30T18:54:33.478Z</time>
      </trkpt>
      <trkpt lat="49.33125" lon="0.9608">
        <ele>77.3949508667</ele>
        <time>2020-08-30T18:54:39.324Z</time>
      </trkpt>
      <trkpt lat="49.33127" lon="0.9608">
        <ele>76.93902587891</ele>
        <time>2020-08-30T18:54:45.170Z</time>
      </trkpt>
      <trkpt lat="49.33126" lon="0.9608">
        <ele>77.16698455811</ele>
        <time>2020-08-30T18:54:51.017Z</time>
      </trkpt>
      <trkpt lat="49.33125" lon="0.96079">
        <ele>77.4429397583</ele>
        <time>2020-08-30T18:54:56.864Z</time>
      </trkpt>
      <trkpt lat="49.33127" lon="0.96082">
        <ele>76.84304046631</ele>
        <time>2020-08-30T18:55:02.712Z</time>
      </trkpt>
      <trkpt lat="49.33127" lon="0.96083">
        <ele>76.79504394531</ele>
        <time>2020-08-30T18:55:08.560Z</time>
      </trkpt>
      <trkpt lat="49.33126" lon="0.96084">
        <ele>76.97501373291</ele>
        <time>2020-08-30T18:55:14.409Z</time>
      </trkpt>
      <trkpt lat="49.33128" lon="0.96095">
        <ele>75.99118041992</ele>
        <time>2020-08-30T18:55:20.260Z</time>
      </trkpt>
      <trkpt lat="49.33126" lon="0.96102">
        <ele>76.11116027832</ele>
        <time>2020-08-30T18:55:26.113Z</time>
      </trkpt>
      <trkpt lat="49.33126" lon="0.96107">
        <ele>75.87120056152</ele>
        <time>2020-08-30T18:55:31.967Z</time>
      </trkpt>
      <trkpt lat="49.33126" lon="0.96116">
        <ele>75.43927001953</ele>
        <time>2020-08-30T18:55:37.823Z</time>
      </trkpt>
      <trkpt lat="49.33126" lon="0.96123">
        <ele>75.10333251953</ele>
        <time>2020-08-30T18:55:43.680Z</time>
      </trkpt>
      <trkpt lat="49.33126" lon="0.96126">
        <ele>74.95935058594</ele>
        <time>2020-08-30T18:55:49.538Z</time>
      </trkpt>
      <trkpt lat="49.33132" lon="0.96146">
        <ele>72.98933410645</ele>
        <time>2020-08-30T18:55:55.401Z</time>
      </trkpt>
      <trkpt lat="49.33133" lon="0.96154">
        <ele>72.95333862305</ele>
        <time>2020-08-30T18:56:01.266Z</time>
      </trkpt>
      <trkpt lat="49.33133" lon="0.96162">
        <ele>72.92323303223</ele>
        <time>2020-08-30T18:56:07.132Z</time>
      </trkpt>
      <trkpt lat="49.33134" lon="0.96181">
        <ele>70.99155426025</ele>
        <time>2020-08-30T18:56:13.003Z</time>
      </trkpt>
      <trkpt lat="49.33133" lon="0.96199">
        <ele>69.37182617188</ele>
        <time>2020-08-30T18:56:18.878Z</time>
      </trkpt>
      <trkpt lat="49.33132" lon="0.96208">
        <ele>68.61595153809</ele>
        <time>2020-08-30T18:56:24.755Z</time>
      </trkpt>
      <trkpt lat="49.33128" lon="0.96223">
        <ele>67.6081161499</ele>
        <time>2020-08-30T18:56:30.635Z</time>
      </trkpt>
      <trkpt lat="49.33118" lon="0.96243">
        <ele>68.52964782715</ele>
        <time>2020-08-30T18:56:36.521Z</time>
      </trkpt>
      <trkpt lat="49.33111" lon="0.96254">
        <ele>69.05977630615</ele>
        <time>2020-08-30T18:56:42.410Z</time>
      </trkpt>
      <trkpt lat="49.33108" lon="0.9626">
        <ele>69.41971588135</ele>
        <time>2020-08-30T18:56:48.301Z</time>
      </trkpt>
      <trkpt lat="49.33104" lon="0.96267">
        <ele>69.91163635254</ele>
        <time>2020-08-30T18:56:54.194Z</time>
      </trkpt>
      <trkpt lat="49.33096" lon="0.96279">
        <ele>70.91947174072</ele>
        <time>2020-08-30T18:57:00.090Z</time>
      </trkpt>
      <trkpt lat="49.33089" lon="0.96293">
        <ele>72.12490081787</ele>
        <time>2020-08-30T18:57:05.990Z</time>
      </trkpt>
      <trkpt lat="49.33087" lon="0.96299">
        <ele>72.62881469727</ele>
        <time>2020-08-30T18:57:11.892Z</time>
      </trkpt>
      <trkpt lat="49.33084" lon="0.96315">
        <ele>74.86157226562</ele>
        <time>2020-08-30T18:57:17.797Z</time>
      </trkpt>
      <trkpt lat="49.33091" lon="0.96334">
        <ele>77.47713470459</ele>
        <time>2020-08-30T18:57:23.707Z</time>
      </trkpt>
      <trkpt lat="49.33094" lon="0.96336">
        <ele>77.34516143799</ele>
        <time>2020-08-30T18:57:29.618Z</time>
      </trkpt>
      <trkpt lat="49.331" lon="0.96334">
        <ele>75.85740661621</ele>
        <time>2020-08-30T18:57:35.531Z</time>
      </trkpt>
      <trkpt lat="49.33101" lon="0.96335">
        <ele>75.88140106201</ele>
        <time>2020-08-30T18:57:41.445Z</time>
      </trkpt>
      <trkpt lat="49.33103" lon="0.96337">
        <ele>75.92939758301</ele>
        <time>2020-08-30T18:57:47.359Z</time>
      </trkpt>
      <trkpt lat="49.33104" lon="0.96333">
        <ele>74.93356323242</ele>
        <time>2020-08-30T18:57:53.274Z</time>
      </trkpt>
      <trkpt lat="49.33104" lon="0.96336">
        <ele>75.54545593262</ele>
        <time>2020-08-30T18:57:59.190Z</time>
      </trkpt>
      <trkpt lat="49.33105" lon="0.96341">
        <ele>76.3853225708</ele>
        <time>2020-08-30T18:58:05.107Z</time>
      </trkpt>
      <trkpt lat="49.33105" lon="0.96347">
        <ele>77.60911560059</ele>
        <time>2020-08-30T18:58:11.025Z</time>
      </trkpt>
      <trkpt lat="49.33106" lon="0.96355">
        <ele>79.06087493896</ele>
        <time>2020-08-30T18:58:16.945Z</time>
      </trkpt>
      <trkpt lat="49.33106" lon="0.96364">
        <ele>80.89656829834</ele>
        <time>2020-08-30T18:58:22.867Z</time>
      </trkpt>
      <trkpt lat="49.33107" lon="0.96379">
        <ele>83.7760848999</ele>
        <time>2020-08-30T18:58:28.792Z</time>
      </trkpt>
      <trkpt lat="49.3311" lon="0.96397">
        <ele>86.62558746338</ele>
        <time>2020-08-30T18:58:34.721Z</time>
      </trkpt>
      <trkpt lat="49.33114" lon="0.96418">
        <ele>89.82346343994</ele>
        <time>2020-08-30T18:58:40.655Z</time>
      </trkpt>
      <trkpt lat="49.33118" lon="0.96445">
        <ele>93.91477966309</ele>
        <time>2020-08-30T18:58:46.595Z</time>
      </trkpt>
      <trkpt lat="49.33121" lon="0.96474">
        <ele>98.55800628662</ele>
        <time>2020-08-30T18:58:52.542Z</time>
      </trkpt>
      <trkpt lat="49.33126" lon="0.96497">
        <ele>98.75761413574</ele>
        <time>2020-08-30T18:58:58.494Z</time>
      </trkpt>
      <trkpt lat="49.3313" lon="0.96522">
        <ele>99.18954467773</ele>
        <time>2020-08-30T18:59:04.452Z</time>
      </trkpt>
      <trkpt lat="49.33132" lon="0.96529">
        <ele>99.14154815674</ele>
        <time>2020-08-30T18:59:10.411Z</time>
      </trkpt>
      <trkpt lat="49.33145" lon="0.96569">
        <ele>98.70040130615</ele>
        <time>2020-08-30T18:59:16.380Z</time>
      </trkpt>
      <trkpt lat="49.33153" lon="0.96601">
        <ele>98.78811645508</ele>
        <time>2020-08-30T18:59:22.356Z</time>
      </trkpt>
      <trkpt lat="49.33157" lon="0.96612">
        <ele>98.17622375488</ele>
        <time>2020-08-30T18:59:28.335Z</time>
      </trkpt>
      <trkpt lat="49.33163" lon="0.9663">
        <ele>97.2403793335</ele>
        <time>2020-08-30T18:59:34.319Z</time>
      </trkpt>
      <trkpt lat="49.3317" lon="0.96641">
        <ele>96.26853942871</ele>
        <time>2020-08-30T18:59:40.306Z</time>
      </trkpt>
      <trkpt lat="49.33182" lon="0.96663">
        <ele>94.03969573975</ele>
        <time>2020-08-30T18:59:46.299Z</time>
      </trkpt>
      <trkpt lat="49.33191" lon="0.96682">
        <ele>92.27598571777</ele>
        <time>2020-08-30T18:59:52.297Z</time>
      </trkpt>
      <trkpt lat="49.3319" lon="0.967">
        <ele>91.74807739258</ele>
        <time>2020-08-30T18:59:58.299Z</time>
      </trkpt>
      <trkpt lat="49.33189" lon="0.96705">
        <ele>91.68808746338</ele>
        <time>2020-08-30T19:00:04.302Z</time>
      </trkpt>
      <trkpt lat="49.33188" lon="0.96715">
        <ele>91.44812774658</ele>
        <time>2020-08-30T19:00:10.308Z</time>
      </trkpt>
      <trkpt lat="49.33184" lon="0.96725">
        <ele>92.19019317627</ele>
        <time>2020-08-30T19:00:16.316Z</time>
      </trkpt>
      <trkpt lat="49.33182" lon="0.96735">
        <ele>91.92623901367</ele>
        <time>2020-08-30T19:00:22.326Z</time>
      </trkpt>
      <trkpt lat="49.3318" lon="0.96743">
        <ele>91.78226470947</ele>
        <time>2020-08-30T19:00:28.338Z</time>
      </trkpt>
      <trkpt lat="49.33175" lon="0.96757">
        <ele>91.78226470947</ele>
        <time>2020-08-30T19:00:34.354Z</time>
      </trkpt>
      <trkpt lat="49.33171" lon="0.96768">
        <ele>91.79425811768</ele>
        <time>2020-08-30T19:00:40.373Z</time>
      </trkpt>
      <trkpt lat="49.33167" lon="0.96778">
        <ele>91.87129211426</ele>
        <time>2020-08-30T19:00:46.394Z</time>
      </trkpt>
      <trkpt lat="49.33163" lon="0.96792">
        <ele>91.91928100586</ele>
        <time>2020-08-30T19:00:52.418Z</time>
      </trkpt>
      <trkpt lat="49.3316" lon="0.96803">
        <ele>91.93128204346</ele>
        <time>2020-08-30T19:00:58.445Z</time>
      </trkpt>
      <trkpt lat="49.33156" lon="0.96815">
        <ele>92.16151428223</ele>
        <time>2020-08-30T19:01:04.475Z</time>
      </trkpt>
      <trkpt lat="49.33153" lon="0.96819">
        <ele>92.55744934082</ele>
        <time>2020-08-30T19:01:10.506Z</time>
      </trkpt>
      <trkpt lat="49.3315" lon="0.96824">
        <ele>92.91738891602</ele>
        <time>2020-08-30T19:01:16.539Z</time>
      </trkpt>
      <trkpt lat="49.33144" lon="0.96835">
        <ele>93.6012802124</ele>
        <time>2020-08-30T19:01:22.575Z</time>
      </trkpt>
      <trkpt lat="49.3314" lon="0.96846">
        <ele>93.9252243042</ele>
        <time>2020-08-30T19:01:28.614Z</time>
      </trkpt>
      <trkpt lat="49.33131" lon="0.96867">
        <ele>94.78907775879</ele>
        <time>2020-08-30T19:01:34.658Z</time>
      </trkpt>
      <trkpt lat="49.33124" lon="0.96881">
        <ele>95.54495239258</ele>
        <time>2020-08-30T19:01:40.706Z</time>
      </trkpt>
      <trkpt lat="49.33116" lon="0.969">
        <ele>95.87646484375</ele>
        <time>2020-08-30T19:01:46.759Z</time>
      </trkpt>
      <trkpt lat="49.33112" lon="0.96911">
        <ele>95.53690338135</ele>
        <time>2020-08-30T19:01:52.815Z</time>
      </trkpt>
      <trkpt lat="49.33113" lon="0.96911">
        <ele>95.42892456055</ele>
        <time>2020-08-30T19:01:58.871Z</time>
      </trkpt>
      <trkpt lat="49.33114" lon="0.9691">
        <ele>95.39654541016</ele>
        <time>2020-08-30T19:02:04.927Z</time>
      </trkpt>
      <trkpt lat="49.33117" lon="0.9691">
        <ele>94.85663604736</ele>
        <time>2020-08-30T19:02:10.984Z</time>
      </trkpt>
      <trkpt lat="49.33117" lon="0.96911">
        <ele>94.77265167236</ele>
        <time>2020-08-30T19:02:17.042Z</time>
      </trkpt>
      <trkpt lat="49.33114" lon="0.96907">
        <ele>95.64850616455</ele>
        <time>2020-08-30T19:02:23.101Z</time>
      </trkpt>
      <trkpt lat="49.33114" lon="0.96903">
        <ele>95.98444366455</ele>
        <time>2020-08-30T19:02:29.161Z</time>
      </trkpt>
      <trkpt lat="49.33114" lon="0.96901">
        <ele>96.15242004395</ele>
        <time>2020-08-30T19:02:35.221Z</time>
      </trkpt>
      <trkpt lat="49.33113" lon="0.969">
        <ele>96.35276794434</ele>
        <time>2020-08-30T19:02:41.282Z</time>
      </trkpt>
      <trkpt lat="49.33113" lon="0.96906">
        <ele>95.84885406494</ele>
        <time>2020-08-30T19:02:47.344Z</time>
      </trkpt>
      <trkpt lat="49.33112" lon="0.96911">
        <ele>95.53690338135</ele>
        <time>2020-08-30T19:02:53.407Z</time>
      </trkpt>
      <trkpt lat="49.3311" lon="0.96919">
        <ele>95.08097839355</ele>
        <time>2020-08-30T19:02:59.472Z</time>
      </trkpt>
      <trkpt lat="49.33109" lon="0.96916">
        <ele>95.44092559814</ele>
        <time>2020-08-30T19:03:05.538Z</time>
      </trkpt>
      <trkpt lat="49.33108" lon="0.96915">
        <ele>95.63288879395</ele>
        <time>2020-08-30T19:03:11.604Z</time>
      </trkpt>
      <trkpt lat="49.33107" lon="0.9692">
        <ele>95.32094573975</ele>
        <time>2020-08-30T19:03:17.671Z</time>
      </trkpt>
      <trkpt lat="49.33104" lon="0.96925">
        <ele>95.22496032715</ele>
        <time>2020-08-30T19:03:23.740Z</time>
      </trkpt>
      <trkpt lat="49.33101" lon="0.9693">
        <ele>95.12897491455</ele>
        <time>2020-08-30T19:03:29.810Z</time>
      </trkpt>
      <trkpt lat="49.33092" lon="0.96945">
        <ele>94.84101867676</ele>
        <time>2020-08-30T19:03:35.885Z</time>
      </trkpt>
      <trkpt lat="49.33084" lon="0.96961">
        <ele>93.5750579834</ele>
        <time>2020-08-30T19:03:41.964Z</time>
      </trkpt>
      <trkpt lat="49.33077" lon="0.96978">
        <ele>91.70942687988</ele>
        <time>2020-08-30T19:03:48.047Z</time>
      </trkpt>
      <trkpt lat="49.33066" lon="0.96996">
        <ele>89.77774810791</ele>
        <time>2020-08-30T19:03:54.136Z</time>
      </trkpt>
      <trkpt lat="49.33059" lon="0.9701">
        <ele>88.01328277588</ele>
        <time>2020-08-30T19:04:00.229Z</time>
      </trkpt>
      <trkpt lat="49.33051" lon="0.97024">
        <ele>85.9496307373</ele>
        <time>2020-08-30T19:04:06.326Z</time>
      </trkpt>
      <trkpt lat="49.33044" lon="0.97037">
        <ele>84.01795196533</ele>
        <time>2020-08-30T19:04:12.426Z</time>
      </trkpt>
      <trkpt lat="49.3304" lon="0.97047">
        <ele>82.48220825195</ele>
        <time>2020-08-30T19:04:18.529Z</time>
      </trkpt>
      <trkpt lat="49.33038" lon="0.97052">
        <ele>81.71433258057</ele>
        <time>2020-08-30T19:04:24.633Z</time>
      </trkpt>
      <trkpt lat="49.33035" lon="0.97056">
        <ele>81.15042877197</ele>
        <time>2020-08-30T19:04:30.739Z</time>
      </trkpt>
      <trkpt lat="49.33033" lon="0.97062">
        <ele>80.06378173828</ele>
        <time>2020-08-30T19:04:36.846Z</time>
      </trkpt>
      <trkpt lat="49.33032" lon="0.97067">
        <ele>78.8399810791</ele>
        <time>2020-08-30T19:04:42.954Z</time>
      </trkpt>
      <trkpt lat="49.3303" lon="0.97069">
        <ele>78.25415802002</ele>
        <time>2020-08-30T19:04:49.063Z</time>
      </trkpt>
      <trkpt lat="49.33027" lon="0.97071">
        <ele>77.37830352783</ele>
        <time>2020-08-30T19:04:55.173Z</time>
      </trkpt>
      <trkpt lat="49.33022" lon="0.97075">
        <ele>75.75857543945</ele>
        <time>2020-08-30T19:05:01.285Z</time>
      </trkpt>
      <trkpt lat="49.33019" lon="0.97077">
        <ele>74.88272094727</ele>
        <time>2020-08-30T19:05:07.398Z</time>
      </trkpt>
      <trkpt lat="49.33016" lon="0.97079">
        <ele>74.00686645508</ele>
        <time>2020-08-30T19:05:13.512Z</time>
      </trkpt>
      <trkpt lat="49.33014" lon="0.97079">
        <ele>73.74291229248</ele>
        <time>2020-08-30T19:05:19.627Z</time>
      </trkpt>
      <trkpt lat="49.33011" lon="0.97081">
        <ele>72.86705780029</ele>
        <time>2020-08-30T19:05:25.743Z</time>
      </trkpt>
      <trkpt lat="49.33003" lon="0.97085">
        <ele>70.85139465332</ele>
        <time>2020-08-30T19:05:31.862Z</time>
      </trkpt>
      <trkpt lat="49.32993" lon="0.97091">
        <ele>68.09185028076</ele>
        <time>2020-08-30T19:05:37.984Z</time>
      </trkpt>
      <trkpt lat="49.32986" lon="0.97094">
        <ele>66.44812774658</ele>
        <time>2020-08-30T19:05:44.109Z</time>
      </trkpt>
      <trkpt lat="49.3298" lon="0.97095">
        <ele>65.5724029541</ele>
        <time>2020-08-30T19:05:50.236Z</time>
      </trkpt>
      <trkpt lat="49.32975" lon="0.97095">
        <ele>65.09248352051</ele>
        <time>2020-08-30T19:05:56.364Z</time>
      </trkpt>
      <trkpt lat="49.32971" lon="0.97096">
        <ele>64.50458526611</ele>
        <time>2020-08-30T19:06:02.494Z</time>
      </trkpt>
      <trkpt lat="49.32959" lon="0.97103">
        <ele>61.92501449585</ele>
        <time>2020-08-30T19:06:08.628Z</time>
      </trkpt>
      <trkpt lat="49.32949" lon="0.97104">
        <ele>60.76120758057</ele>
        <time>2020-08-30T19:06:14.765Z</time>
      </trkpt>
      <trkpt lat="49.3294" lon="0.97114">
        <ele>58.03020095825</ele>
        <time>2020-08-30T19:06:20.906Z</time>
      </trkpt>
      <trkpt lat="49.32937" lon="0.97113">
        <ele>58.01820373535</ele>
        <time>2020-08-30T19:06:27.048Z</time>
      </trkpt>
      <trkpt lat="49.32936" lon="0.97113">
        <ele>57.94621658325</ele>
        <time>2020-08-30T19:06:33.190Z</time>
      </trkpt>
      <trkpt lat="49.32935" lon="0.97112">
        <ele>58.07819366455</ele>
        <time>2020-08-30T19:06:39.333Z</time>
      </trkpt>
      <trkpt lat="49.32932" lon="0.97112">
        <ele>57.86222839355</ele>
        <time>2020-08-30T19:06:45.477Z</time>
      </trkpt>
      <trkpt lat="49.32928" lon="0.97116">
        <ele>56.75841140747</ele>
        <time>2020-08-30T19:06:51.622Z</time>
      </trkpt>
      <trkpt lat="49.32931" lon="0.97117">
        <ele>56.77041244507</ele>
        <time>2020-08-30T19:06:57.768Z</time>
      </trkpt>
      <trkpt lat="49.32933" lon="0.97117">
        <ele>56.91438674927</ele>
        <time>2020-08-30T19:07:03.915Z</time>
      </trkpt>
      <trkpt lat="49.32943" lon="0.9712">
        <ele>57.02236938477</ele>
        <time>2020-08-30T19:07:10.065Z</time>
      </trkpt>
      <trkpt lat="49.32962" lon="0.97123">
        <ele>58.133644104</ele>
        <time>2020-08-30T19:07:16.222Z</time>
      </trkpt>
      <trkpt lat="49.32971" lon="0.97133">
        <ele>56.95783996582</ele>
        <time>2020-08-30T19:07:22.383Z</time>
      </trkpt>
      <trkpt lat="49.32975" lon="0.97136">
        <ele>56.72987747192</ele>
        <time>2020-08-30T19:07:28.545Z</time>
      </trkpt>
      <trkpt lat="49.32978" lon="0.97138">
        <ele>56.60989761353</ele>
        <time>2020-08-30T19:07:34.708Z</time>
      </trkpt>
      <trkpt lat="49.32983" lon="0.97138">
        <ele>57.08982086182</ele>
        <time>2020-08-30T19:07:40.873Z</time>
      </trkpt>
      <trkpt lat="49.32987" lon="0.97141">
        <ele>56.86185836792</ele>
        <time>2020-08-30T19:07:47.039Z</time>
      </trkpt>
      <trkpt lat="49.32991" lon="0.97144">
        <ele>56.70109939575</ele>
        <time>2020-08-30T19:07:53.207Z</time>
      </trkpt>
      <trkpt lat="49.32994" lon="0.97145">
        <ele>56.80908203125</ele>
        <time>2020-08-30T19:07:59.376Z</time>
      </trkpt>
      <trkpt lat="49.32997" lon="0.97145">
        <ele>57.09703445435</ele>
        <time>2020-08-30T19:08:05.546Z</time>
      </trkpt>
      <trkpt lat="49.32998" lon="0.97146">
        <ele>57.01305007935</ele>
        <time>2020-08-30T19:08:11.716Z</time>
      </trkpt>
      <trkpt lat="49.33003" lon="0.97149">
        <ele>56.95306015015</ele>
        <time>2020-08-30T19:08:17.888Z</time>
      </trkpt>
      <trkpt lat="49.33005" lon="0.97152">
        <ele>56.60511779785</ele>
        <time>2020-08-30T19:08:24.061Z</time>
      </trkpt>
      <trkpt lat="49.33015" lon="0.97156">
        <ele>56.84507751465</ele>
        <time>2020-08-30T19:08:30.237Z</time>
      </trkpt>
      <trkpt lat="49.33025" lon="0.97157">
        <ele>57.62494659424</ele>
        <time>2020-08-30T19:08:36.417Z</time>
      </trkpt>
      <trkpt lat="49.33033" lon="0.97158">
        <ele>58.03549194336</ele>
        <time>2020-08-30T19:08:42.599Z</time>
      </trkpt>
      <trkpt lat="49.33041" lon="0.97161">
        <ele>57.68755340576</ele>
        <time>2020-08-30T19:08:48.784Z</time>
      </trkpt>
      <trkpt lat="49.33053" lon="0.97165">
        <ele>57.25562286377</ele>
        <time>2020-08-30T19:08:54.973Z</time>
      </trkpt>
      <trkpt lat="49.33054" lon="0.97166">
        <ele>57.09965133667</ele>
        <time>2020-08-30T19:09:01.163Z</time>
      </trkpt>
      <trkpt lat="49.33062" lon="0.97172">
        <ele>56.21179580688</ele>
        <time>2020-08-30T19:09:07.356Z</time>
      </trkpt>
      <trkpt lat="49.33069" lon="0.97175">
        <ele>55.83985900879</ele>
        <time>2020-08-30T19:09:13.551Z</time>
      </trkpt>
      <trkpt lat="49.33091" lon="0.97179">
        <ele>55.64789199829</ele>
        <time>2020-08-30T19:09:19.753Z</time>
      </trkpt>
      <trkpt lat="49.33094" lon="0.97184">
        <ele>54.8200302124</ele>
        <time>2020-08-30T19:09:25.957Z</time>
      </trkpt>
      <trkpt lat="49.33092" lon="0.97189">
        <ele>53.87218856812</ele>
        <time>2020-08-30T19:09:32.162Z</time>
      </trkpt>
      <trkpt lat="49.33089" lon="0.97199">
        <ele>52.00049972534</ele>
        <time>2020-08-30T19:09:38.370Z</time>
      </trkpt>
      <trkpt lat="49.33084" lon="0.97205">
        <ele>50.80070114136</ele>
        <time>2020-08-30T19:09:44.580Z</time>
      </trkpt>
      <trkpt lat="49.33078" lon="0.97205">
        <ele>50.65672302246</ele>
        <time>2020-08-30T19:09:50.792Z</time>
      </trkpt>
      <trkpt lat="49.33072" lon="0.97203">
        <ele>50.87268829346</ele>
        <time>2020-08-30T19:09:57.006Z</time>
      </trkpt>
      <trkpt lat="49.33068" lon="0.97205">
        <ele>50.41676330566</ele>
        <time>2020-08-30T19:10:03.221Z</time>
      </trkpt>
      <trkpt lat="49.33066" lon="0.97209">
        <ele>49.64889144897</ele>
        <time>2020-08-30T19:10:09.437Z</time>
      </trkpt>
      <trkpt lat="49.33065" lon="0.97215">
        <ele>48.54507446289</ele>
        <time>2020-08-30T19:10:15.655Z</time>
      </trkpt>
      <trkpt lat="49.33066" lon="0.97224">
        <ele>46.94934082031</ele>
        <time>2020-08-30T19:10:21.875Z</time>
      </trkpt>
      <trkpt lat="49.33066" lon="0.97226">
        <ele>46.64171981812</ele>
        <time>2020-08-30T19:10:28.095Z</time>
      </trkpt>
      <trkpt lat="49.33068" lon="0.97228">
        <ele>46.40176010132</ele>
        <time>2020-08-30T19:10:34.316Z</time>
      </trkpt>
      <trkpt lat="49.33073" lon="0.97234">
        <ele>45.65788269043</ele>
        <time>2020-08-30T19:10:40.539Z</time>
      </trkpt>
      <trkpt lat="49.33076" lon="0.97236">
        <ele>45.44191741943</ele>
        <time>2020-08-30T19:10:46.763Z</time>
      </trkpt>
      <trkpt lat="49.33083" lon="0.97235">
        <ele>45.75386810303</ele>
        <time>2020-08-30T19:10:52.989Z</time>
      </trkpt>
      <trkpt lat="49.33093" lon="0.97231">
        <ele>46.56972885132</ele>
        <time>2020-08-30T19:10:59.219Z</time>
      </trkpt>
      <trkpt lat="49.33099" lon="0.97228">
        <ele>47.14563369751</ele>
        <time>2020-08-30T19:11:05.451Z</time>
      </trkpt>
      <trkpt lat="49.33108" lon="0.97222">
        <ele>48.31711196899</ele>
        <time>2020-08-30T19:11:11.686Z</time>
      </trkpt>
      <trkpt lat="49.3311" lon="0.9722">
        <ele>48.72504425049</ele>
        <time>2020-08-30T19:11:17.922Z</time>
      </trkpt>
      <trkpt lat="49.33127" lon="0.97207">
        <ele>50.05624771118</ele>
        <time>2020-08-30T19:11:24.164Z</time>
      </trkpt>
      <trkpt lat="49.33127" lon="0.97206">
        <ele>50.23621749878</ele>
        <time>2020-08-30T19:11:30.407Z</time>
      </trkpt>
      <trkpt lat="49.3313" lon="0.97206">
        <ele>49.98425674438</ele>
        <time>2020-08-30T19:11:36.651Z</time>
      </trkpt>
      <trkpt lat="49.33132" lon="0.97205">
        <ele>49.99625778198</ele>
        <time>2020-08-30T19:11:42.895Z</time>
      </trkpt>
      <trkpt lat="49.33134" lon="0.97204">
        <ele>50.00825500488</ele>
        <time>2020-08-30T19:11:49.140Z</time>
      </trkpt>
      <trkpt lat="49.33134" lon="0.9721">
        <ele>48.9284324646</ele>
        <time>2020-08-30T19:11:55.386Z</time>
      </trkpt>
      <trkpt lat="49.3313" lon="0.97223">
        <ele>46.92476654053</ele>
        <time>2020-08-30T19:12:01.635Z</time>
      </trkpt>
      <trkpt lat="49.33129" lon="0.97233">
        <ele>45.91902923584</ele>
        <time>2020-08-30T19:12:07.887Z</time>
      </trkpt>
      <trkpt lat="49.33128" lon="0.97237">
        <ele>45.61907958984</ele>
        <time>2020-08-30T19:12:14.140Z</time>
      </trkpt>
      <trkpt lat="49.33127" lon="0.9724">
        <ele>45.30295562744</ele>
        <time>2020-08-30T19:12:20.393Z</time>
      </trkpt>
      <trkpt lat="49.33125" lon="0.97243">
        <ele>44.94301223755</ele>
        <time>2020-08-30T19:12:26.647Z</time>
      </trkpt>
      <trkpt lat="49.33124" lon="0.97247">
        <ele>44.40310287476</ele>
        <time>2020-08-30T19:12:32.902Z</time>
      </trkpt>
      <trkpt lat="49.33122" lon="0.97258">
        <ele>42.89135742188</ele>
        <time>2020-08-30T19:12:39.160Z</time>
      </trkpt>
      <trkpt lat="49.33117" lon="0.97269">
        <ele>41.48759078979</ele>
        <time>2020-08-30T19:12:45.421Z</time>
      </trkpt>
      <trkpt lat="49.33113" lon="0.97276">
        <ele>40.570728302</ele>
        <time>2020-08-30T19:12:51.684Z</time>
      </trkpt>
      <trkpt lat="49.33109" lon="0.97282">
        <ele>39.61088943481</ele>
        <time>2020-08-30T19:12:57.948Z</time>
      </trkpt>
      <trkpt lat="49.33101" lon="0.97291">
        <ele>38.12313842773</ele>
        <time>2020-08-30T19:13:04.216Z</time>
      </trkpt>
      <trkpt lat="49.33093" lon="0.973">
        <ele>36.94709014893</ele>
        <time>2020-08-30T19:13:10.487Z</time>
      </trkpt>
      <trkpt lat="49.33088" lon="0.97303">
        <ele>36.58715057373</ele>
        <time>2020-08-30T19:13:16.760Z</time>
      </trkpt>
      <trkpt lat="49.33081" lon="0.97307">
        <ele>36.10723114014</ele>
        <time>2020-08-30T19:13:23.035Z</time>
      </trkpt>
      <trkpt lat="49.33079" lon="0.97319">
        <ele>35.33373641968</ele>
        <time>2020-08-30T19:13:29.313Z</time>
      </trkpt>
      <trkpt lat="49.33081" lon="0.97331">
        <ele>34.61385345459</ele>
        <time>2020-08-30T19:13:35.594Z</time>
      </trkpt>
      <trkpt lat="49.33078" lon="0.97343">
        <ele>33.8939743042</ele>
        <time>2020-08-30T19:13:41.878Z</time>
      </trkpt>
      <trkpt lat="49.33079" lon="0.97345">
        <ele>33.7739944458</ele>
        <time>2020-08-30T19:13:48.162Z</time>
      </trkpt>
      <trkpt lat="49.33078" lon="0.97356">
        <ele>33.09868621826</ele>
        <time>2020-08-30T19:13:54.449Z</time>
      </trkpt>
      <trkpt lat="49.33075" lon="0.97371">
        <ele>31.76690673828</ele>
        <time>2020-08-30T19:14:00.739Z</time>
      </trkpt>
      <trkpt lat="49.33057" lon="0.97432">
        <ele>31.39409446716</ele>
        <time>2020-08-30T19:14:07.044Z</time>
      </trkpt>
      <trkpt lat="49.33086" lon="0.97486">
        <ele>34.95115280151</ele>
        <time>2020-08-30T19:14:13.364Z</time>
      </trkpt>
      <trkpt lat="49.3309" lon="0.97485">
        <ele>35.15512084961</ele>
        <time>2020-08-30T19:14:19.685Z</time>
      </trkpt>
      <trkpt lat="49.33092" lon="0.97486">
        <ele>35.38307952881</ele>
        <time>2020-08-30T19:14:26.007Z</time>
      </trkpt>
      <trkpt lat="49.33091" lon="0.97487">
        <ele>35.39508056641</ele>
        <time>2020-08-30T19:14:32.329Z</time>
      </trkpt>
      <trkpt lat="49.33095" lon="0.97483">
        <ele>35.34708786011</ele>
        <time>2020-08-30T19:14:38.653Z</time>
      </trkpt>
      <trkpt lat="49.33119" lon="0.97477">
        <ele>36.35778427124</ele>
        <time>2020-08-30T19:14:44.985Z</time>
      </trkpt>
      <trkpt lat="49.33139" lon="0.97462">
        <ele>36.14887619019</ele>
        <time>2020-08-30T19:14:51.324Z</time>
      </trkpt>
      <trkpt lat="49.33154" lon="0.97452">
        <ele>36.08888626099</ele>
        <time>2020-08-30T19:14:57.669Z</time>
      </trkpt>
      <trkpt lat="49.33167" lon="0.97437">
        <ele>35.74523162842</ele>
        <time>2020-08-30T19:15:04.019Z</time>
      </trkpt>
      <trkpt lat="49.33202" lon="0.97419">
        <ele>36.67554092407</ele>
        <time>2020-08-30T19:15:10.382Z</time>
      </trkpt>
      <trkpt lat="49.33208" lon="0.97419">
        <ele>37.10746765137</ele>
        <time>2020-08-30T19:15:16.747Z</time>
      </trkpt>
      <trkpt lat="49.33221" lon="0.97411">
        <ele>37.65937805176</ele>
        <time>2020-08-30T19:15:23.116Z</time>
      </trkpt>
      <trkpt lat="49.33224" lon="0.97409">
        <ele>37.77935791016</ele>
        <time>2020-08-30T19:15:29.486Z</time>
      </trkpt>
      <trkpt lat="49.3323" lon="0.97405">
        <ele>38.01931762695</ele>
        <time>2020-08-30T19:15:35.859Z</time>
      </trkpt>
      <trkpt lat="49.33235" lon="0.97399">
        <ele>38.09130477905</ele>
        <time>2020-08-30T19:15:42.234Z</time>
      </trkpt>
      <trkpt lat="49.33247" lon="0.97391">
        <ele>38.5770072937</ele>
        <time>2020-08-30T19:15:48.613Z</time>
      </trkpt>
      <trkpt lat="49.33256" lon="0.97387">
        <ele>39.12891387939</ele>
        <time>2020-08-30T19:15:54.995Z</time>
      </trkpt>
      <trkpt lat="49.33264" lon="0.97381">
        <ele>39.56084060669</ele>
        <time>2020-08-30T19:16:01.380Z</time>
      </trkpt>
      <trkpt lat="49.3327" lon="0.97374">
        <ele>39.74485397339</ele>
        <time>2020-08-30T19:16:07.768Z</time>
      </trkpt>
      <trkpt lat="49.33272" lon="0.97374">
        <ele>39.86483764648</ele>
        <time>2020-08-30T19:16:14.156Z</time>
      </trkpt>
      <trkpt lat="49.33276" lon="0.97376">
        <ele>40.17678451538</ele>
        <time>2020-08-30T19:16:20.546Z</time>
      </trkpt>
      <trkpt lat="49.33279" lon="0.97377">
        <ele>40.39274597168</ele>
        <time>2020-08-30T19:16:26.937Z</time>
      </trkpt>
      <trkpt lat="49.33281" lon="0.97377">
        <ele>40.52791976929</ele>
        <time>2020-08-30T19:16:33.328Z</time>
      </trkpt>
      <trkpt lat="49.33291" lon="0.97372">
        <ele>41.30778884888</ele>
        <time>2020-08-30T19:16:39.723Z</time>
      </trkpt>
      <trkpt lat="49.33314" lon="0.97354">
        <ele>42.86752700806</ele>
        <time>2020-08-30T19:16:46.127Z</time>
      </trkpt>
      <trkpt lat="49.33331" lon="0.97364">
        <ele>44.85919570923</ele>
        <time>2020-08-30T19:16:52.537Z</time>
      </trkpt>
      <trkpt lat="49.33335" lon="0.97368">
        <ele>45.38710784912</ele>
        <time>2020-08-30T19:16:58.948Z</time>
      </trkpt>
      <trkpt lat="49.33337" lon="0.97371">
        <ele>45.68705749512</ele>
        <time>2020-08-30T19:17:05.360Z</time>
      </trkpt>
      <trkpt lat="49.33338" lon="0.97373">
        <ele>45.85503005981</ele>
        <time>2020-08-30T19:17:11.773Z</time>
      </trkpt>
      <trkpt lat="49.33341" lon="0.97378">
        <ele>46.32295227051</ele>
        <time>2020-08-30T19:17:18.187Z</time>
      </trkpt>
      <trkpt lat="49.33344" lon="0.9738">
        <ele>46.6828918457</ele>
        <time>2020-08-30T19:17:24.602Z</time>
      </trkpt>
      <trkpt lat="49.33351" lon="0.97382">
        <ele>47.42676925659</ele>
        <time>2020-08-30T19:17:31.020Z</time>
      </trkpt>
      <trkpt lat="49.33352" lon="0.97384">
        <ele>47.59474182129</ele>
        <time>2020-08-30T19:17:37.438Z</time>
      </trkpt>
      <trkpt lat="49.33354" lon="0.97388">
        <ele>47.93068313599</ele>
        <time>2020-08-30T19:17:43.857Z</time>
      </trkpt>
      <trkpt lat="49.33357" lon="0.97395">
        <ele>48.42549133301</ele>
        <time>2020-08-30T19:17:50.278Z</time>
      </trkpt>
      <trkpt lat="49.33358" lon="0.97398">
        <ele>48.59346389771</ele>
        <time>2020-08-30T19:17:56.700Z</time>
      </trkpt>
      <trkpt lat="49.33368" lon="0.97413">
        <ele>50.05991363525</ele>
        <time>2020-08-30T19:18:03.127Z</time>
      </trkpt>
      <trkpt lat="49.33371" lon="0.97413">
        <ele>50.45584869385</ele>
        <time>2020-08-30T19:18:09.555Z</time>
      </trkpt>
      <trkpt lat="49.33374" lon="0.97413">
        <ele>50.85177993774</ele>
        <time>2020-08-30T19:18:15.984Z</time>
      </trkpt>
      <trkpt lat="49.33375" lon="0.97412">
        <ele>50.95976257324</ele>
        <time>2020-08-30T19:18:22.413Z</time>
      </trkpt>
      <trkpt lat="49.3338" lon="0.97413">
        <ele>51.64365005493</ele>
        <time>2020-08-30T19:18:28.844Z</time>
      </trkpt>
      <trkpt lat="49.33383" lon="0.97415">
        <ele>52.08757400513</ele>
        <time>2020-08-30T19:18:35.276Z</time>
      </trkpt>
      <trkpt lat="49.33391" lon="0.97415">
        <ele>53.06383514404</ele>
        <time>2020-08-30T19:18:41.710Z</time>
      </trkpt>
      <trkpt lat="49.33392" lon="0.97408">
        <ele>52.83587265015</ele>
        <time>2020-08-30T19:18:48.146Z</time>
      </trkpt>
      <trkpt lat="49.33394" lon="0.974">
        <ele>52.66790008545</ele>
        <time>2020-08-30T19:18:54.584Z</time>
      </trkpt>
      <trkpt lat="49.33395" lon="0.97398">
        <ele>52.67989730835</ele>
        <time>2020-08-30T19:19:01.022Z</time>
      </trkpt>
      <trkpt lat="49.33397" lon="0.9739">
        <ele>52.52681732178</ele>
        <time>2020-08-30T19:19:07.462Z</time>
      </trkpt>
      <trkpt lat="49.33398" lon="0.97389">
        <ele>52.59880447388</ele>
        <time>2020-08-30T19:19:13.903Z</time>
      </trkpt>
      <trkpt lat="49.334" lon="0.9738">
        <ele>52.49082183838</ele>
        <time>2020-08-30T19:19:20.346Z</time>
      </trkpt>
      <trkpt lat="49.334" lon="0.97376">
        <ele>52.34684371948</ele>
        <time>2020-08-30T19:19:26.790Z</time>
      </trkpt>
      <trkpt lat="49.334" lon="0.97367">
        <ele>52.02289962769</ele>
        <time>2020-08-30T19:19:33.236Z</time>
      </trkpt>
      <trkpt lat="49.334" lon="0.97357">
        <ele>51.66296005249</ele>
        <time>2020-08-30T19:19:39.684Z</time>
      </trkpt>
      <trkpt lat="49.33401" lon="0.97355">
        <ele>51.69895172119</ele>
        <time>2020-08-30T19:19:46.132Z</time>
      </trkpt>
      <trkpt lat="49.33403" lon="0.97351">
        <ele>51.77094268799</ele>
        <time>2020-08-30T19:19:52.581Z</time>
      </trkpt>
      <trkpt lat="49.33409" lon="0.97339">
        <ele>52.15449905396</ele>
        <time>2020-08-30T19:19:59.034Z</time>
      </trkpt>
      <trkpt lat="49.33414" lon="0.97333">
        <ele>52.61042404175</ele>
        <time>2020-08-30T19:20:05.489Z</time>
      </trkpt>
      <trkpt lat="49.33425" lon="0.97319">
        <ele>53.59426116943</ele>
        <time>2020-08-30T19:20:11.949Z</time>
      </trkpt>
      <trkpt lat="49.33431" lon="0.97313">
        <ele>54.17016220093</ele>
        <time>2020-08-30T19:20:18.411Z</time>
      </trkpt>
      <trkpt lat="49.33435" lon="0.97307">
        <ele>54.50610733032</ele>
        <time>2020-08-30T19:20:24.875Z</time>
      </trkpt>
      <trkpt lat="49.33438" lon="0.97306">
        <ele>54.84205245972</ele>
        <time>2020-08-30T19:20:31.340Z</time>
      </trkpt>
      <trkpt lat="49.33441" lon="0.97306">
        <ele>55.20199203491</ele>
        <time>2020-08-30T19:20:37.806Z</time>
      </trkpt>
      <trkpt lat="49.33444" lon="0.97306">
        <ele>55.56193161011</ele>
        <time>2020-08-30T19:20:44.273Z</time>
      </trkpt>
      <trkpt lat="49.33447" lon="0.97309">
        <ele>55.9938583374</ele>
        <time>2020-08-30T19:20:50.741Z</time>
      </trkpt>
      <trkpt lat="49.33449" lon="0.97311">
        <ele>56.2818107605</ele>
        <time>2020-08-30T19:20:57.210Z</time>
      </trkpt>
      <trkpt lat="49.3345" lon="0.97313">
        <ele>56.4497833252</ele>
        <time>2020-08-30T19:21:03.679Z</time>
      </trkpt>
      <trkpt lat="49.33449" lon="0.97316">
        <ele>56.4017906189</ele>
        <time>2020-08-30T19:21:10.149Z</time>
      </trkpt>
      <trkpt lat="49.33447" lon="0.97323">
        <ele>56.3298034668</ele>
        <time>2020-08-30T19:21:16.621Z</time>
      </trkpt>
      <trkpt lat="49.33448" lon="0.97325">
        <ele>56.49777603149</ele>
        <time>2020-08-30T19:21:23.093Z</time>
      </trkpt>
      <trkpt lat="49.33448" lon="0.9733">
        <ele>56.61775588989</ele>
        <time>2020-08-30T19:21:29.566Z</time>
      </trkpt>
      <trkpt lat="49.3345" lon="0.97334">
        <ele>56.95370101929</ele>
        <time>2020-08-30T19:21:36.041Z</time>
      </trkpt>
      <trkpt lat="49.33455" lon="0.97346">
        <ele>57.84155273438</ele>
        <time>2020-08-30T19:21:42.519Z</time>
      </trkpt>
      <trkpt lat="49.3346" lon="0.97353">
        <ele>58.60942459106</ele>
        <time>2020-08-30T19:21:48.999Z</time>
      </trkpt>
      <trkpt lat="49.33462" lon="0.9736">
        <ele>59.01735687256</ele>
        <time>2020-08-30T19:21:55.481Z</time>
      </trkpt>
      <trkpt lat="49.33469" lon="0.97365">
        <ele>59.97719573975</ele>
        <time>2020-08-30T19:22:01.965Z</time>
      </trkpt>
      <trkpt lat="49.33469" lon="0.97366">
        <ele>60.00119018555</ele>
        <time>2020-08-30T19:22:08.449Z</time>
      </trkpt>
      <trkpt lat="49.33473" lon="0.9737">
        <ele>60.57709503174</ele>
        <time>2020-08-30T19:22:14.935Z</time>
      </trkpt>
      <trkpt lat="49.33479" lon="0.97373">
        <ele>61.36896514893</ele>
        <time>2020-08-30T19:22:21.423Z</time>
      </trkpt>
      <trkpt lat="49.33481" lon="0.97373">
        <ele>61.60892486572</ele>
        <time>2020-08-30T19:22:27.912Z</time>
      </trkpt>
      <trkpt lat="49.33485" lon="0.97375">
        <ele>62.13683700562</ele>
        <time>2020-08-30T19:22:34.402Z</time>
      </trkpt>
      <trkpt lat="49.33489" lon="0.97376">
        <ele>62.64075088501</ele>
        <time>2020-08-30T19:22:40.893Z</time>
      </trkpt>
      <trkpt lat="49.33493" lon="0.9738">
        <ele>63.2166557312</ele>
        <time>2020-08-30T19:22:47.386Z</time>
      </trkpt>
      <trkpt lat="49.33494" lon="0.97382">
        <ele>63.3846282959</ele>
        <time>2020-08-30T19:22:53.880Z</time>
      </trkpt>
      <trkpt lat="49.33494" lon="0.97384">
        <ele>63.4326210022</ele>
        <time>2020-08-30T19:23:00.374Z</time>
      </trkpt>
      <trkpt lat="49.33496" lon="0.97391">
        <ele>63.84055328369</ele>
        <time>2020-08-30T19:23:06.870Z</time>
      </trkpt>
      <trkpt lat="49.33499" lon="0.97395">
        <ele>64.25137329102</ele>
        <time>2020-08-30T19:23:13.367Z</time>
      </trkpt>
      <trkpt lat="49.33501" lon="0.97399">
        <ele>64.53932952881</ele>
        <time>2020-08-30T19:23:19.865Z</time>
      </trkpt>
      <trkpt lat="49.33504" lon="0.97403">
        <ele>64.94725799561</ele>
        <time>2020-08-30T19:23:26.364Z</time>
      </trkpt>
      <trkpt lat="49.33514" lon="0.97415">
        <ele>66.29103851318</ele>
        <time>2020-08-30T19:23:32.868Z</time>
      </trkpt>
      <trkpt lat="49.33517" lon="0.97418">
        <ele>66.68696594238</ele>
        <time>2020-08-30T19:23:39.373Z</time>
      </trkpt>
      <trkpt lat="49.33522" lon="0.97424">
        <ele>67.35885620117</ele>
        <time>2020-08-30T19:23:45.880Z</time>
      </trkpt>
      <trkpt lat="49.33523" lon="0.97425">
        <ele>67.49083709717</ele>
        <time>2020-08-30T19:23:52.387Z</time>
      </trkpt>
      <trkpt lat="49.33539" lon="0.97434">
        <ele>69.7195892334</ele>
        <time>2020-08-30T19:23:58.900Z</time>
      </trkpt>
      <trkpt lat="49.33548" lon="0.97438">
        <ele>71.06336975098</ele>
        <time>2020-08-30T19:24:05.416Z</time>
      </trkpt>
      <trkpt lat="49.33554" lon="0.97442">
        <ele>71.97521972656</ele>
        <time>2020-08-30T19:24:11.934Z</time>
      </trkpt>
      <trkpt lat="49.33562" lon="0.97448">
        <ele>73.19901275635</ele>
        <time>2020-08-30T19:24:18.455Z</time>
      </trkpt>
      <trkpt lat="49.33574" lon="0.97457">
        <ele>75.03470611572</ele>
        <time>2020-08-30T19:24:24.981Z</time>
      </trkpt>
      <trkpt lat="49.3358" lon="0.9746">
        <ele>75.93455505371</ele>
        <time>2020-08-30T19:24:31.509Z</time>
      </trkpt>
      <trkpt lat="49.33585" lon="0.97461">
        <ele>76.6664352417</ele>
        <time>2020-08-30T19:24:38.039Z</time>
      </trkpt>
      <trkpt lat="49.33594" lon="0.97464">
        <ele>77.99821472168</ele>
        <time>2020-08-30T19:24:44.572Z</time>
      </trkpt>
      <trkpt lat="49.336" lon="0.97466">
        <ele>78.88606262207</ele>
        <time>2020-08-30T19:24:51.107Z</time>
      </trkpt>
      <trkpt lat="49.33606" lon="0.97469">
        <ele>79.78591156006</ele>
        <time>2020-08-30T19:24:57.644Z</time>
      </trkpt>
      <trkpt lat="49.33609" lon="0.97471">
        <ele>80.24183654785</ele>
        <time>2020-08-30T19:25:04.182Z</time>
      </trkpt>
      <trkpt lat="49.33611" lon="0.9748">
        <ele>81.09229278564</ele>
        <time>2020-08-30T19:25:10.722Z</time>
      </trkpt>
      <trkpt lat="49.33613" lon="0.97486">
        <ele>81.95614624023</ele>
        <time>2020-08-30T19:25:17.263Z</time>
      </trkpt>
      <trkpt lat="49.33614" lon="0.97491">
        <ele>82.57964324951</ele>
        <time>2020-08-30T19:25:23.806Z</time>
      </trkpt>
      <trkpt lat="49.33614" lon="0.97496">
        <ele>83.05956268311</ele>
        <time>2020-08-30T19:25:30.350Z</time>
      </trkpt>
      <trkpt lat="49.33616" lon="0.97513">
        <ele>84.95524597168</ele>
        <time>2020-08-30T19:25:36.897Z</time>
      </trkpt>
      <trkpt lat="49.33613" lon="0.9752">
        <ele>85.21960449219</ele>
        <time>2020-08-30T19:25:43.446Z</time>
      </trkpt>
      <trkpt lat="49.33613" lon="0.97522">
        <ele>85.41156768799</ele>
        <time>2020-08-30T19:25:49.996Z</time>
      </trkpt>
      <trkpt lat="49.33612" lon="0.97534">
        <ele>86.41940307617</ele>
        <time>2020-08-30T19:25:56.548Z</time>
      </trkpt>
      <trkpt lat="49.33618" lon="0.97549">
        <ele>88.67462921143</ele>
        <time>2020-08-30T19:26:03.104Z</time>
      </trkpt>
      <trkpt lat="49.33621" lon="0.97556">
        <ele>89.74245452881</ele>
        <time>2020-08-30T19:26:09.662Z</time>
      </trkpt>
      <trkpt lat="49.33622" lon="0.97561">
        <ele>90.17050170898</ele>
        <time>2020-08-30T19:26:16.221Z</time>
      </trkpt>
      <trkpt lat="49.33622" lon="0.97563">
        <ele>90.24249267578</ele>
        <time>2020-08-30T19:26:22.781Z</time>
      </trkpt>
      <trkpt lat="49.33623" lon="0.97577">
        <ele>91.84124755859</ele>
        <time>2020-08-30T19:26:29.344Z</time>
      </trkpt>
      <trkpt lat="49.33622" lon="0.97581">
        <ele>92.33316802979</ele>
        <time>2020-08-30T19:26:35.908Z</time>
      </trkpt>
      <trkpt lat="49.33615" lon="0.97591">
        <ele>93.40098571777</ele>
        <time>2020-08-30T19:26:42.475Z</time>
      </trkpt>
      <trkpt lat="49.33616" lon="0.97591">
        <ele>93.43698120117</ele>
        <time>2020-08-30T19:26:49.042Z</time>
      </trkpt>
      <trkpt lat="49.33617" lon="0.9759">
        <ele>93.34099578857</ele>
        <time>2020-08-30T19:26:55.610Z</time>
      </trkpt>
      <trkpt lat="49.33614" lon="0.97592">
        <ele>93.49697113037</ele>
        <time>2020-08-30T19:27:02.179Z</time>
      </trkpt>
      <trkpt lat="49.33614" lon="0.97593">
        <ele>93.62895202637</ele>
        <time>2020-08-30T19:27:08.748Z</time>
      </trkpt>
      <trkpt lat="49.33614" lon="0.97594">
        <ele>93.76092529297</ele>
        <time>2020-08-30T19:27:15.317Z</time>
      </trkpt>
      <trkpt lat="49.33615" lon="0.97595">
        <ele>93.92890167236</ele>
        <time>2020-08-30T19:27:21.886Z</time>
      </trkpt>
      <trkpt lat="49.33615" lon="0.97597">
        <ele>94.19285583496</ele>
        <time>2020-08-30T19:27:28.456Z</time>
      </trkpt>
      <trkpt lat="49.33613" lon="0.97597">
        <ele>94.02806091309</ele>
        <time>2020-08-30T19:27:35.027Z</time>
      </trkpt>
      <trkpt lat="49.33611" lon="0.97598">
        <ele>93.89608764648</ele>
        <time>2020-08-30T19:27:41.598Z</time>
      </trkpt>
      <trkpt lat="49.33609" lon="0.97597">
        <ele>93.50015258789</ele>
        <time>2020-08-30T19:27:48.170Z</time>
      </trkpt>
      <trkpt lat="49.336" lon="0.97588">
        <ele>91.12454986572</ele>
        <time>2020-08-30T19:27:54.746Z</time>
      </trkpt>
      <trkpt lat="49.33583" lon="0.97567">
        <ele>86.10938262939</ele>
        <time>2020-08-30T19:28:01.329Z</time>
      </trkpt>
      <trkpt lat="49.33574" lon="0.97562">
        <ele>84.26168823242</ele>
        <time>2020-08-30T19:28:07.915Z</time>
      </trkpt>
      <trkpt lat="49.3357" lon="0.97562">
        <ele>83.73377990723</ele>
        <time>2020-08-30T19:28:14.502Z</time>
      </trkpt>
      <trkpt lat="49.33568" lon="0.97562">
        <ele>83.46982574463</ele>
        <time>2020-08-30T19:28:21.090Z</time>
      </trkpt>
      <trkpt lat="49.33565" lon="0.97559">
        <ele>82.67795562744</ele>
        <time>2020-08-30T19:28:27.679Z</time>
      </trkpt>
      <trkpt lat="49.33537" lon="0.97548">
        <ele>77.76921844482</ele>
        <time>2020-08-30T19:28:34.278Z</time>
      </trkpt>
      <trkpt lat="49.3353" lon="0.97541">
        <ele>76.11923980713</ele>
        <time>2020-08-30T19:28:40.880Z</time>
      </trkpt>
      <trkpt lat="49.33522" lon="0.97536">
        <ele>74.90744018555</ele>
        <time>2020-08-30T19:28:47.485Z</time>
      </trkpt>
      <trkpt lat="49.33515" lon="0.97532">
        <ele>73.88761138916</ele>
        <time>2020-08-30T19:28:54.092Z</time>
      </trkpt>
      <trkpt lat="49.3351" lon="0.97533">
        <ele>73.57566070557</ele>
        <time>2020-08-30T19:29:00.701Z</time>
      </trkpt>
      <trkpt lat="49.33488" lon="0.97548">
        <ele>72.17126464844</ele>
        <time>2020-08-30T19:29:07.318Z</time>
      </trkpt>
      <trkpt lat="49.3348" lon="0.97555">
        <ele>71.71533966064</ele>
        <time>2020-08-30T19:29:13.938Z</time>
      </trkpt>
      <trkpt lat="49.33475" lon="0.97559">
        <ele>71.41616821289</ele>
        <time>2020-08-30T19:29:20.560Z</time>
      </trkpt>
      <trkpt lat="49.3347" lon="0.97562">
        <ele>71.0682220459</ele>
        <time>2020-08-30T19:29:27.184Z</time>
      </trkpt>
      <trkpt lat="49.33462" lon="0.97567">
        <ele>70.52831268311</ele>
        <time>2020-08-30T19:29:33.810Z</time>
      </trkpt>
      <trkpt lat="49.33457" lon="0.9757">
        <ele>70.0401763916</ele>
        <time>2020-08-30T19:29:40.438Z</time>
      </trkpt>
      <trkpt lat="49.33453" lon="0.97572">
        <ele>69.36828613281</ele>
        <time>2020-08-30T19:29:47.068Z</time>
      </trkpt>
      <trkpt lat="49.33449" lon="0.97576">
        <ele>68.74439239502</ele>
        <time>2020-08-30T19:29:53.699Z</time>
      </trkpt>
      <trkpt lat="49.33446" lon="0.97581">
        <ele>68.35499572754</ele>
        <time>2020-08-30T19:30:00.332Z</time>
      </trkpt>
      <trkpt lat="49.33439" lon="0.97599">
        <ele>67.69509887695</ele>
        <time>2020-08-30T19:30:06.969Z</time>
      </trkpt>
      <trkpt lat="49.33438" lon="0.97617">
        <ele>67.97105407715</ele>
        <time>2020-08-30T19:30:13.610Z</time>
      </trkpt>
      <trkpt lat="49.33433" lon="0.9764">
        <ele>68.05479431152</ele>
        <time>2020-08-30T19:30:20.256Z</time>
      </trkpt>
      <trkpt lat="49.33435" lon="0.97641">
        <ele>68.36674499512</ele>
        <time>2020-08-30T19:30:26.903Z</time>
      </trkpt>
      <trkpt lat="49.33437" lon="0.97647">
        <ele>68.85005950928</ele>
        <time>2020-08-30T19:30:33.552Z</time>
      </trkpt>
      <trkpt lat="49.33437" lon="0.97651">
        <ele>68.99403381348</ele>
        <time>2020-08-30T19:30:40.202Z</time>
      </trkpt>
      <trkpt lat="49.33438" lon="0.97654">
        <ele>69.23399353027</ele>
        <time>2020-08-30T19:30:46.852Z</time>
      </trkpt>
      <trkpt lat="49.33431" lon="0.97662">
        <ele>68.59809875488</ele>
        <time>2020-08-30T19:30:53.505Z</time>
      </trkpt>
      <trkpt lat="49.33429" lon="0.9767">
        <ele>68.62209320068</ele>
        <time>2020-08-30T19:31:00.160Z</time>
      </trkpt>
      <trkpt lat="49.33427" lon="0.97683">
        <ele>68.82605743408</ele>
        <time>2020-08-30T19:31:06.818Z</time>
      </trkpt>
      <trkpt lat="49.33426" lon="0.97701">
        <ele>69.34197235107</ele>
        <time>2020-08-30T19:31:13.480Z</time>
      </trkpt>
      <trkpt lat="49.33422" lon="0.97735">
        <ele>68.57614135742</ele>
        <time>2020-08-30T19:31:20.149Z</time>
      </trkpt>
      <trkpt lat="49.33422" lon="0.97751">
        <ele>68.76811218262</ele>
        <time>2020-08-30T19:31:26.822Z</time>
      </trkpt>
      <trkpt lat="49.33414" lon="0.97831">
        <ele>69.54636383057</ele>
        <time>2020-08-30T19:31:33.513Z</time>
      </trkpt>
      <trkpt lat="49.33406" lon="0.97862">
        <ele>70.32747650146</ele>
        <time>2020-08-30T19:31:40.211Z</time>
      </trkpt>
      <trkpt lat="49.33401" lon="0.97883">
        <ele>70.50744628906</ele>
        <time>2020-08-30T19:31:46.914Z</time>
      </trkpt>
      <trkpt lat="49.33381" lon="0.97926">
        <ele>69.5871887207</ele>
        <time>2020-08-30T19:31:53.628Z</time>
      </trkpt>
      <trkpt lat="49.33379" lon="0.9793">
        <ele>69.2992401123</ele>
        <time>2020-08-30T19:32:00.343Z</time>
      </trkpt>
      <trkpt lat="49.33378" lon="0.97935">
        <ele>69.3352355957</ele>
        <time>2020-08-30T19:32:07.059Z</time>
      </trkpt>
      <trkpt lat="49.33373" lon="0.97956">
        <ele>69.2752456665</ele>
        <time>2020-08-30T19:32:13.780Z</time>
      </trkpt>
      <trkpt lat="49.33372" lon="0.97972">
        <ele>69.9711227417</ele>
        <time>2020-08-30T19:32:20.505Z</time>
      </trkpt>
      <trkpt lat="49.33365" lon="0.97996">
        <ele>69.80619812012</ele>
        <time>2020-08-30T19:32:27.236Z</time>
      </trkpt>
      <trkpt lat="49.33364" lon="0.98004">
        <ele>70.13014221191</ele>
        <time>2020-08-30T19:32:33.968Z</time>
      </trkpt>
      <trkpt lat="49.33364" lon="0.9801">
        <ele>70.56207275391</ele>
        <time>2020-08-30T19:32:40.702Z</time>
      </trkpt>
      <trkpt lat="49.33364" lon="0.98021">
        <ele>71.35394287109</ele>
        <time>2020-08-30T19:32:47.438Z</time>
      </trkpt>
      <trkpt lat="49.33365" lon="0.98025">
        <ele>71.89385223389</ele>
        <time>2020-08-30T19:32:54.175Z</time>
      </trkpt>
      <trkpt lat="49.33365" lon="0.98027">
        <ele>72.03782653809</ele>
        <time>2020-08-30T19:33:00.912Z</time>
      </trkpt>
      <trkpt lat="49.33363" lon="0.98036">
        <ele>72.48152160645</ele>
        <time>2020-08-30T19:33:07.651Z</time>
      </trkpt>
      <trkpt lat="49.33367" lon="0.98051">
        <ele>74.26945495605</ele>
        <time>2020-08-30T19:33:14.394Z</time>
      </trkpt>
      <trkpt lat="49.33367" lon="0.98056">
        <ele>74.62939453125</ele>
        <time>2020-08-30T19:33:21.138Z</time>
      </trkpt>
      <trkpt lat="49.33368" lon="0.98072">
        <ele>75.76090240479</ele>
        <time>2020-08-30T19:33:27.886Z</time>
      </trkpt>
      <trkpt lat="49.33369" lon="0.98091">
        <ele>77.50061035156</ele>
        <time>2020-08-30T19:33:34.638Z</time>
      </trkpt>
      <trkpt lat="49.33368" lon="0.98093">
        <ele>77.52461242676</ele>
        <time>2020-08-30T19:33:41.390Z</time>
      </trkpt>
      <trkpt lat="49.33367" lon="0.981">
        <ele>77.96853637695</ele>
        <time>2020-08-30T19:33:48.144Z</time>
      </trkpt>
      <trkpt lat="49.33365" lon="0.9811">
        <ele>78.52044677734</ele>
        <time>2020-08-30T19:33:54.900Z</time>
      </trkpt>
      <trkpt lat="49.33365" lon="0.98134">
        <ele>80.53610992432</ele>
        <time>2020-08-30T19:34:01.661Z</time>
      </trkpt>
      <trkpt lat="49.33364" lon="0.98175">
        <ele>83.02309417725</ele>
        <time>2020-08-30T19:34:08.431Z</time>
      </trkpt>
      <trkpt lat="49.33363" lon="0.98181">
        <ele>83.51085662842</ele>
        <time>2020-08-30T19:34:15.203Z</time>
      </trkpt>
      <trkpt lat="49.33357" lon="0.98185">
        <ele>84.6146697998</ele>
        <time>2020-08-30T19:34:21.977Z</time>
      </trkpt>
      <trkpt lat="49.33356" lon="0.98183">
        <ele>84.63866424561</ele>
        <time>2020-08-30T19:34:28.751Z</time>
      </trkpt>
      <trkpt lat="49.33355" lon="0.9818">
        <ele>84.60266876221</ele>
        <time>2020-08-30T19:34:35.526Z</time>
      </trkpt>
      <trkpt lat="49.33353" lon="0.98171">
        <ele>84.35071563721</ele>
        <time>2020-08-30T19:34:42.303Z</time>
      </trkpt>
      <trkpt lat="49.33348" lon="0.98157">
        <ele>84.23073577881</ele>
        <time>2020-08-30T19:34:49.084Z</time>
      </trkpt>
      <trkpt lat="49.33347" lon="0.98153">
        <ele>84.13475036621</ele>
        <time>2020-08-30T19:34:55.866Z</time>
      </trkpt>
      <trkpt lat="49.33344" lon="0.98133">
        <ele>82.96537780762</ele>
        <time>2020-08-30T19:35:02.652Z</time>
      </trkpt>
      <trkpt lat="49.33339" lon="0.98117">
        <ele>81.95755004883</ele>
        <time>2020-08-30T19:35:09.442Z</time>
      </trkpt>
      <trkpt lat="49.33334" lon="0.98103">
        <ele>81.36822509766</ele>
        <time>2020-08-30T19:35:16.235Z</time>
      </trkpt>
      <trkpt lat="49.33316" lon="0.98068">
        <ele>80.58835601807</ele>
        <time>2020-08-30T19:35:23.038Z</time>
      </trkpt>
      <trkpt lat="49.33301" lon="0.98055">
        <ele>81.18757629395</ele>
        <time>2020-08-30T19:35:29.847Z</time>
      </trkpt>
      <trkpt lat="49.33295" lon="0.98038">
        <ele>79.86779785156</ele>
        <time>2020-08-30T19:35:36.660Z</time>
      </trkpt>
      <trkpt lat="49.33289" lon="0.98025">
        <ele>79.02793884277</ele>
        <time>2020-08-30T19:35:43.477Z</time>
      </trkpt>
      <trkpt lat="49.33281" lon="0.98003">
        <ele>77.3482208252</ele>
        <time>2020-08-30T19:35:50.299Z</time>
      </trkpt>
      <trkpt lat="49.33275" lon="0.97993">
        <ele>77.00215148926</ele>
        <time>2020-08-30T19:35:57.124Z</time>
      </trkpt>
      <trkpt lat="49.33267" lon="0.97979">
        <ele>76.47423553467</ele>
        <time>2020-08-30T19:36:03.953Z</time>
      </trkpt>
      <trkpt lat="49.33252" lon="0.97956">
        <ele>75.20227813721</ele>
        <time>2020-08-30T19:36:10.789Z</time>
      </trkpt>
      <trkpt lat="49.33242" lon="0.97939">
        <ele>73.99047851562</ele>
        <time>2020-08-30T19:36:17.630Z</time>
      </trkpt>
      <trkpt lat="49.33227" lon="0.97915">
        <ele>72.69918060303</ele>
        <time>2020-08-30T19:36:24.478Z</time>
      </trkpt>
      <trkpt lat="49.33204" lon="0.9788">
        <ele>70.71983337402</ele>
        <time>2020-08-30T19:36:31.337Z</time>
      </trkpt>
      <trkpt lat="49.33199" lon="0.97876">
        <ele>70.62385559082</ele>
        <time>2020-08-30T19:36:38.198Z</time>
      </trkpt>
      <trkpt lat="49.33196" lon="0.97872">
        <ele>70.21776580811</ele>
        <time>2020-08-30T19:36:45.060Z</time>
      </trkpt>
      <trkpt lat="49.33192" lon="0.97864">
        <ele>69.06595611572</ele>
        <time>2020-08-30T19:36:51.925Z</time>
      </trkpt>
      <trkpt lat="49.33161" lon="0.97837">
        <ele>65.17860412598</ele>
        <time>2020-08-30T19:36:58.802Z</time>
      </trkpt>
      <trkpt lat="49.33156" lon="0.97838">
        <ele>65.32258605957</ele>
        <time>2020-08-30T19:37:05.680Z</time>
      </trkpt>
      <trkpt lat="49.33147" lon="0.97834">
        <ele>64.74668121338</ele>
        <time>2020-08-30T19:37:12.561Z</time>
      </trkpt>
      <trkpt lat="49.33134" lon="0.97837">
        <ele>65.17860412598</ele>
        <time>2020-08-30T19:37:19.447Z</time>
      </trkpt>
      <trkpt lat="49.33133" lon="0.9784">
        <ele>65.61053466797</ele>
        <time>2020-08-30T19:37:26.333Z</time>
      </trkpt>
      <trkpt lat="49.33127" lon="0.97847">
        <ele>66.61837005615</ele>
        <time>2020-08-30T19:37:33.222Z</time>
      </trkpt>
      <trkpt lat="49.3312" lon="0.97846">
        <ele>66.47438812256</ele>
        <time>2020-08-30T19:37:40.113Z</time>
      </trkpt>
      <trkpt lat="49.33083" lon="0.97844">
        <ele>61.36940765381</ele>
        <time>2020-08-30T19:37:47.017Z</time>
      </trkpt>
      <trkpt lat="49.33076" lon="0.97846">
        <ele>60.56554412842</ele>
        <time>2020-08-30T19:37:53.923Z</time>
      </trkpt>
      <trkpt lat="49.33072" lon="0.97851">
        <ele>60.56798553467</ele>
        <time>2020-08-30T19:38:00.831Z</time>
      </trkpt>
      <trkpt lat="49.33069" lon="0.9786">
        <ele>60.67596817017</ele>
        <time>2020-08-30T19:38:07.741Z</time>
      </trkpt>
      <trkpt lat="49.33046" lon="0.97906">
        <ele>61.33294677734</ele>
        <time>2020-08-30T19:38:14.664Z</time>
      </trkpt>
      <trkpt lat="49.33041" lon="0.97913">
        <ele>60.73923492432</ele>
        <time>2020-08-30T19:38:21.589Z</time>
      </trkpt>
      <trkpt lat="49.33034" lon="0.97932">
        <ele>60.91920471191</ele>
        <time>2020-08-30T19:38:28.519Z</time>
      </trkpt>
      <trkpt lat="49.33032" lon="0.97944">
        <ele>61.7590637207</ele>
        <time>2020-08-30T19:38:35.451Z</time>
      </trkpt>
      <trkpt lat="49.3303" lon="0.97951">
        <ele>62.19206619263</ele>
        <time>2020-08-30T19:38:42.385Z</time>
      </trkpt>
      <trkpt lat="49.33028" lon="0.9796">
        <ele>63.39186477661</ele>
        <time>2020-08-30T19:38:49.321Z</time>
      </trkpt>
      <trkpt lat="49.33026" lon="0.97976">
        <ele>65.12090301514</ele>
        <time>2020-08-30T19:38:56.261Z</time>
      </trkpt>
      <trkpt lat="49.33025" lon="0.97981">
        <ele>65.76879882812</ele>
        <time>2020-08-30T19:39:03.202Z</time>
      </trkpt>
      <trkpt lat="49.33021" lon="0.97998">
        <ele>67.9644317627</ele>
        <time>2020-08-30T19:39:10.147Z</time>
      </trkpt>
      <trkpt lat="49.33021" lon="0.98003">
        <ele>68.62432098389</ele>
        <time>2020-08-30T19:39:17.093Z</time>
      </trkpt>
      <trkpt lat="49.33018" lon="0.9801">
        <ele>69.51217651367</ele>
        <time>2020-08-30T19:39:24.041Z</time>
      </trkpt>
      <trkpt lat="49.33015" lon="0.98017">
        <ele>70.40002441406</ele>
        <time>2020-08-30T19:39:30.990Z</time>
      </trkpt>
      <trkpt lat="49.33012" lon="0.9803">
        <ele>72.07974243164</ele>
        <time>2020-08-30T19:39:37.942Z</time>
      </trkpt>
      <trkpt lat="49.33009" lon="0.98038">
        <ele>73.04495239258</ele>
        <time>2020-08-30T19:39:44.896Z</time>
      </trkpt>
      <trkpt lat="49.33008" lon="0.98044">
        <ele>73.57286071777</ele>
        <time>2020-08-30T19:39:51.852Z</time>
      </trkpt>
      <trkpt lat="49.33004" lon="0.98054">
        <ele>74.34073638916</ele>
        <time>2020-08-30T19:39:58.810Z</time>
      </trkpt>
      <trkpt lat="49.33001" lon="0.98062">
        <ele>75.20346832275</ele>
        <time>2020-08-30T19:40:05.770Z</time>
      </trkpt>
      <trkpt lat="49.33" lon="0.98066">
        <ele>75.77937316895</ele>
        <time>2020-08-30T19:40:12.731Z</time>
      </trkpt>
      <trkpt lat="49.32999" lon="0.98068">
        <ele>76.04332733154</ele>
        <time>2020-08-30T19:40:19.693Z</time>
      </trkpt>
      <trkpt lat="49.32998" lon="0.98074">
        <ele>76.93118286133</ele>
        <time>2020-08-30T19:40:26.656Z</time>
      </trkpt>
      <trkpt lat="49.32988" lon="0.98112">
        <ele>82.37827301025</ele>
        <time>2020-08-30T19:40:33.628Z</time>
      </trkpt>
      <trkpt lat="49.32985" lon="0.98123">
        <ele>83.95001220703</ele>
        <time>2020-08-30T19:40:40.603Z</time>
      </trkpt>
      <trkpt lat="49.32983" lon="0.98129">
        <ele>84.78987121582</ele>
        <time>2020-08-30T19:40:47.579Z</time>
      </trkpt>
      <trkpt lat="49.32979" lon="0.98156">
        <ele>87.93130493164</ele>
        <time>2020-08-30T19:40:54.561Z</time>
      </trkpt>
      <trkpt lat="49.32976" lon="0.98162">
        <ele>88.36322784424</ele>
        <time>2020-08-30T19:41:01.545Z</time>
      </trkpt>
      <trkpt lat="49.32974" lon="0.98167">
        <ele>88.74716949463</ele>
        <time>2020-08-30T19:41:08.530Z</time>
      </trkpt>
      <trkpt lat="49.32972" lon="0.98174">
        <ele>89.60466003418</ele>
        <time>2020-08-30T19:41:15.517Z</time>
      </trkpt>
      <trkpt lat="49.3297" lon="0.98176">
        <ele>89.84461975098</ele>
        <time>2020-08-30T19:41:22.505Z</time>
      </trkpt>
      <trkpt lat="49.32965" lon="0.98181">
        <ele>90.44451904297</ele>
        <time>2020-08-30T19:41:29.495Z</time>
      </trkpt>
      <trkpt lat="49.32963" lon="0.98186">
        <ele>91.08041381836</ele>
        <time>2020-08-30T19:41:36.486Z</time>
      </trkpt>
      <trkpt lat="49.32952" lon="0.98197">
        <ele>92.40019226074</ele>
        <time>2020-08-30T19:41:43.481Z</time>
      </trkpt>
      <trkpt lat="49.32951" lon="0.98192">
        <ele>91.72830200195</ele>
        <time>2020-08-30T19:41:50.477Z</time>
      </trkpt>
      <trkpt lat="49.32947" lon="0.98194">
        <ele>91.96015167236</ele>
        <time>2020-08-30T19:41:57.475Z</time>
      </trkpt>
      <trkpt lat="49.32946" lon="0.98195">
        <ele>92.16411590576</ele>
        <time>2020-08-30T19:42:04.473Z</time>
      </trkpt>
      <trkpt lat="49.32945" lon="0.98196">
        <ele>92.36808013916</ele>
        <time>2020-08-30T19:42:11.472Z</time>
      </trkpt>
      <trkpt lat="49.32944" lon="0.98206">
        <ele>93.75984954834</ele>
        <time>2020-08-30T19:42:18.473Z</time>
      </trkpt>
      <trkpt lat="49.32943" lon="0.98205">
        <ele>93.69985961914</ele>
        <time>2020-08-30T19:42:25.474Z</time>
      </trkpt>
      <trkpt lat="49.32941" lon="0.982">
        <ele>93.18394470215</ele>
        <time>2020-08-30T19:42:32.477Z</time>
      </trkpt>
      <trkpt lat="49.32938" lon="0.98184">
        <ele>91.28826141357</ele>
        <time>2020-08-30T19:42:39.483Z</time>
      </trkpt>
      <trkpt lat="49.32937" lon="0.98181">
        <ele>90.96431732178</ele>
        <time>2020-08-30T19:42:46.490Z</time>
      </trkpt>
      <trkpt lat="49.32938" lon="0.98178">
        <ele>90.49639129639</ele>
        <time>2020-08-30T19:42:53.498Z</time>
      </trkpt>
      <trkpt lat="49.32942" lon="0.98172">
        <ele>89.4165725708</ele>
        <time>2020-08-30T19:43:00.508Z</time>
      </trkpt>
      <trkpt lat="49.32944" lon="0.98166">
        <ele>88.48072814941</ele>
        <time>2020-08-30T19:43:07.519Z</time>
      </trkpt>
      <trkpt lat="49.32942" lon="0.98153">
        <ele>86.90898895264</ele>
        <time>2020-08-30T19:43:14.533Z</time>
      </trkpt>
      <trkpt lat="49.32941" lon="0.98149">
        <ele>86.45306396484</ele>
        <time>2020-08-30T19:43:21.548Z</time>
      </trkpt>
      <trkpt lat="49.32942" lon="0.98142">
        <ele>85.45722961426</ele>
        <time>2020-08-30T19:43:28.564Z</time>
      </trkpt>
      <trkpt lat="49.32946" lon="0.98128">
        <ele>82.95806121826</ele>
        <time>2020-08-30T19:43:35.584Z</time>
      </trkpt>
      <trkpt lat="49.32948" lon="0.98114">
        <ele>80.77053833008</ele>
        <time>2020-08-30T19:43:42.607Z</time>
      </trkpt>
      <trkpt lat="49.32948" lon="0.98104">
        <ele>79.2108001709</ele>
        <time>2020-08-30T19:43:49.632Z</time>
      </trkpt>
      <trkpt lat="49.32942" lon="0.98083">
        <ele>76.08320617676</ele>
        <time>2020-08-30T19:43:56.662Z</time>
      </trkpt>
      <trkpt lat="49.3294" lon="0.98073">
        <ele>74.59545135498</ele>
        <time>2020-08-30T19:44:03.694Z</time>
      </trkpt>
      <trkpt lat="49.32941" lon="0.98069">
        <ele>73.93556213379</ele>
        <time>2020-08-30T19:44:10.727Z</time>
      </trkpt>
      <trkpt lat="49.32943" lon="0.98047">
        <ele>70.54029083252</ele>
        <time>2020-08-30T19:44:17.765Z</time>
      </trkpt>
      <trkpt lat="49.32942" lon="0.98029">
        <ele>68.71659851074</ele>
        <time>2020-08-30T19:44:24.807Z</time>
      </trkpt>
      <trkpt lat="49.32941" lon="0.98025">
        <ele>68.23667907715</ele>
        <time>2020-08-30T19:44:31.850Z</time>
      </trkpt>
      <trkpt lat="49.32935" lon="0.98012">
        <ele>66.41297912598</ele>
        <time>2020-08-30T19:44:38.896Z</time>
      </trkpt>
      <trkpt lat="49.32934" lon="0.98005">
        <ele>65.64511108398</ele>
        <time>2020-08-30T19:44:45.944Z</time>
      </trkpt>
      <trkpt lat="49.32933" lon="0.9799">
        <ele>64.10936737061</ele>
        <time>2020-08-30T19:44:52.995Z</time>
      </trkpt>
      <trkpt lat="49.32932" lon="0.97985">
        <ele>63.53345870972</ele>
        <time>2020-08-30T19:45:00.047Z</time>
      </trkpt>
      <trkpt lat="49.32932" lon="0.97966">
        <ele>61.50168228149</ele>
        <time>2020-08-30T19:45:07.104Z</time>
      </trkpt>
      <trkpt lat="49.3293" lon="0.97962">
        <ele>60.8297958374</ele>
        <time>2020-08-30T19:45:14.162Z</time>
      </trkpt>
      <trkpt lat="49.32928" lon="0.97963">
        <ele>60.75780487061</ele>
        <time>2020-08-30T19:45:21.220Z</time>
      </trkpt>
      <trkpt lat="49.32925" lon="0.97966">
        <ele>60.8297958374</ele>
        <time>2020-08-30T19:45:28.280Z</time>
      </trkpt>
      <trkpt lat="49.32922" lon="0.97966">
        <ele>60.54184341431</ele>
        <time>2020-08-30T19:45:35.341Z</time>
      </trkpt>
      <trkpt lat="49.3292" lon="0.97964">
        <ele>60.10991287231</ele>
        <time>2020-08-30T19:45:42.402Z</time>
      </trkpt>
      <trkpt lat="49.32918" lon="0.97963">
        <ele>59.79796600342</ele>
        <time>2020-08-30T19:45:49.464Z</time>
      </trkpt>
      <trkpt lat="49.32913" lon="0.97962">
        <ele>59.19806671143</ele>
        <time>2020-08-30T19:45:56.528Z</time>
      </trkpt>
      <trkpt lat="49.32909" lon="0.97961">
        <ele>58.69414901733</ele>
        <time>2020-08-30T19:46:03.593Z</time>
      </trkpt>
      <trkpt lat="49.32899" lon="0.97948">
        <ele>56.17457199097</ele>
        <time>2020-08-30T19:46:10.662Z</time>
      </trkpt>
      <trkpt lat="49.32899" lon="0.97936">
        <ele>54.73480987549</ele>
        <time>2020-08-30T19:46:17.734Z</time>
      </trkpt>
      <trkpt lat="49.32898" lon="0.97935">
        <ele>54.51884460449</ele>
        <time>2020-08-30T19:46:24.806Z</time>
      </trkpt>
      <trkpt lat="49.32895" lon="0.9792">
        <ele>52.60989761353</ele>
        <time>2020-08-30T19:46:31.882Z</time>
      </trkpt>
      <trkpt lat="49.32896" lon="0.97919">
        <ele>52.72987747192</ele>
        <time>2020-08-30T19:46:38.958Z</time>
      </trkpt>
      <trkpt lat="49.32903" lon="0.97908">
        <ele>53.37776947021</ele>
        <time>2020-08-30T19:46:46.038Z</time>
      </trkpt>
      <trkpt lat="49.32905" lon="0.97909">
        <ele>53.76170730591</ele>
        <time>2020-08-30T19:46:53.118Z</time>
      </trkpt>
      <trkpt lat="49.32908" lon="0.97907">
        <ele>54.1696395874</ele>
        <time>2020-08-30T19:47:00.199Z</time>
      </trkpt>
      <trkpt lat="49.32905" lon="0.979">
        <ele>53.32977676392</ele>
        <time>2020-08-30T19:47:07.282Z</time>
      </trkpt>
      <trkpt lat="49.32909" lon="0.97895">
        <ele>53.76170730591</ele>
        <time>2020-08-30T19:47:14.367Z</time>
      </trkpt>
      <trkpt lat="49.3291" lon="0.97895">
        <ele>53.92967605591</ele>
        <time>2020-08-30T19:47:21.452Z</time>
      </trkpt>
      <trkpt lat="49.32911" lon="0.97894">
        <ele>54.049659729</ele>
        <time>2020-08-30T19:47:28.538Z</time>
      </trkpt>
      <trkpt lat="49.32911" lon="0.97892">
        <ele>53.95367431641</ele>
        <time>2020-08-30T19:47:35.624Z</time>
      </trkpt>
      <trkpt lat="49.3291" lon="0.97889">
        <ele>53.69749832153</ele>
        <time>2020-08-30T19:47:42.711Z</time>
      </trkpt>
      <trkpt lat="49.32911" lon="0.97889">
        <ele>53.86547088623</ele>
        <time>2020-08-30T19:47:49.798Z</time>
      </trkpt>
      <trkpt lat="49.32911" lon="0.97888">
        <ele>53.84147644043</ele>
        <time>2020-08-30T19:47:56.885Z</time>
      </trkpt>
      <trkpt lat="49.32912" lon="0.97888">
        <ele>54.00944900513</ele>
        <time>2020-08-30T19:48:03.973Z</time>
      </trkpt>
      <trkpt lat="49.32912" lon="0.97887">
        <ele>53.98545074463</ele>
        <time>2020-08-30T19:48:11.061Z</time>
      </trkpt>
      <trkpt lat="49.32912" lon="0.97888">
        <ele>54.00944900513</ele>
        <time>2020-08-30T19:48:18.149Z</time>
      </trkpt>
      <trkpt lat="49.3291" lon="0.97889">
        <ele>53.69749832153</ele>
        <time>2020-08-30T19:48:25.238Z</time>
      </trkpt>
      <trkpt lat="49.32909" lon="0.97889">
        <ele>53.52952575684</ele>
        <time>2020-08-30T19:48:32.327Z</time>
      </trkpt>
      <trkpt lat="49.32909" lon="0.9789">
        <ele>53.55352401733</ele>
        <time>2020-08-30T19:48:39.416Z</time>
      </trkpt>
      <trkpt lat="49.3291" lon="0.97889">
        <ele>53.69749832153</ele>
        <time>2020-08-30T19:48:46.506Z</time>
      </trkpt>
      <trkpt lat="49.3291" lon="0.9789">
        <ele>53.72149658203</ele>
        <time>2020-08-30T19:48:53.596Z</time>
      </trkpt>
      <trkpt lat="49.32908" lon="0.97892">
        <ele>53.44975662231</ele>
        <time>2020-08-30T19:49:00.687Z</time>
      </trkpt>
      <trkpt lat="49.3289" lon="0.9791">
        <ele>51.29011917114</ele>
        <time>2020-08-30T19:49:07.785Z</time>
      </trkpt>
      <trkpt lat="49.32893" lon="0.97904">
        <ele>51.50608062744</ele>
        <time>2020-08-30T19:49:14.885Z</time>
      </trkpt>
      <trkpt lat="49.32899" lon="0.97897">
        <ele>52.17797088623</ele>
        <time>2020-08-30T19:49:21.987Z</time>
      </trkpt>
      <trkpt lat="49.32901" lon="0.97895">
        <ele>52.41793060303</ele>
        <time>2020-08-30T19:49:29.090Z</time>
      </trkpt>
      <trkpt lat="49.32905" lon="0.97891">
        <ele>52.90563201904</ele>
        <time>2020-08-30T19:49:36.195Z</time>
      </trkpt>
      <trkpt lat="49.32911" lon="0.97874">
        <ele>53.50553131104</ele>
        <time>2020-08-30T19:49:43.304Z</time>
      </trkpt>
      <trkpt lat="49.32911" lon="0.97871">
        <ele>53.43354415894</ele>
        <time>2020-08-30T19:49:50.413Z</time>
      </trkpt>
      <trkpt lat="49.32913" lon="0.97847">
        <ele>52.82877731323</ele>
        <time>2020-08-30T19:49:57.528Z</time>
      </trkpt>
      <trkpt lat="49.32917" lon="0.9784">
        <ele>52.93675994873</ele>
        <time>2020-08-30T19:50:04.645Z</time>
      </trkpt>
      <trkpt lat="49.32919" lon="0.97827">
        <ele>52.42084503174</ele>
        <time>2020-08-30T19:50:11.765Z</time>
      </trkpt>
      <trkpt lat="49.32916" lon="0.97815">
        <ele>51.30503082275</ele>
        <time>2020-08-30T19:50:18.888Z</time>
      </trkpt>
      <trkpt lat="49.32909" lon="0.97802">
        <ele>50.03159332275</ele>
        <time>2020-08-30T19:50:26.014Z</time>
      </trkpt>
      <trkpt lat="49.32905" lon="0.97794">
        <ele>49.59966278076</ele>
        <time>2020-08-30T19:50:33.142Z</time>
      </trkpt>
      <trkpt lat="49.32904" lon="0.97789">
        <ele>49.52767562866</ele>
        <time>2020-08-30T19:50:40.272Z</time>
      </trkpt>
      <trkpt lat="49.32905" lon="0.97784">
        <ele>49.71964263916</ele>
        <time>2020-08-30T19:50:47.403Z</time>
      </trkpt>
      <trkpt lat="49.32907" lon="0.97777">
        <ele>50.06758499146</ele>
        <time>2020-08-30T19:50:54.535Z</time>
      </trkpt>
      <trkpt lat="49.32909" lon="0.97774">
        <ele>50.36753463745</ele>
        <time>2020-08-30T19:51:01.668Z</time>
      </trkpt>
      <trkpt lat="49.32913" lon="0.97773">
        <ele>50.83181381226</ele>
        <time>2020-08-30T19:51:08.803Z</time>
      </trkpt>
      <trkpt lat="49.32914" lon="0.97772">
        <ele>50.78382110596</ele>
        <time>2020-08-30T19:51:15.938Z</time>
      </trkpt>
      <trkpt lat="49.32917" lon="0.97772">
        <ele>50.89180374146</ele>
        <time>2020-08-30T19:51:23.074Z</time>
      </trkpt>
      <trkpt lat="49.3292" lon="0.97764">
        <ele>50.32789611816</ele>
        <time>2020-08-30T19:51:30.212Z</time>
      </trkpt>
      <trkpt lat="49.32919" lon="0.9776">
        <ele>49.95595932007</ele>
        <time>2020-08-30T19:51:37.351Z</time>
      </trkpt>
      <trkpt lat="49.32914" lon="0.97746">
        <ele>48.60018539429</ele>
        <time>2020-08-30T19:51:44.493Z</time>
      </trkpt>
      <trkpt lat="49.32911" lon="0.97736">
        <ele>47.65234375</ele>
        <time>2020-08-30T19:51:51.638Z</time>
      </trkpt>
      <trkpt lat="49.32906" lon="0.97728">
        <ele>46.80048751831</ele>
        <time>2020-08-30T19:51:58.785Z</time>
      </trkpt>
      <trkpt lat="49.32902" lon="0.97717">
        <ele>46.64809036255</ele>
        <time>2020-08-30T19:52:05.935Z</time>
      </trkpt>
      <trkpt lat="49.32898" lon="0.97705">
        <ele>46.93604278564</ele>
        <time>2020-08-30T19:52:13.088Z</time>
      </trkpt>
      <trkpt lat="49.32895" lon="0.977">
        <ele>47.00803375244</ele>
        <time>2020-08-30T19:52:20.242Z</time>
      </trkpt>
      <trkpt lat="49.32889" lon="0.97693">
        <ele>47.04402542114</ele>
        <time>2020-08-30T19:52:27.399Z</time>
      </trkpt>
      <trkpt lat="49.3288" lon="0.97675">
        <ele>47.36797332764</ele>
        <time>2020-08-30T19:52:34.561Z</time>
      </trkpt>
      <trkpt lat="49.32878" lon="0.97671">
        <ele>47.43996047974</ele>
        <time>2020-08-30T19:52:41.724Z</time>
      </trkpt>
      <trkpt lat="49.32875" lon="0.97666">
        <ele>47.51194763184</ele>
        <time>2020-08-30T19:52:48.888Z</time>
      </trkpt>
      <trkpt lat="49.3287" lon="0.97659">
        <ele>47.58393478394</ele>
        <time>2020-08-30T19:52:56.055Z</time>
      </trkpt>
      <trkpt lat="49.32863" lon="0.97653">
        <ele>47.43683242798</ele>
        <time>2020-08-30T19:53:03.224Z</time>
      </trkpt>
      <trkpt lat="49.32857" lon="0.97633">
        <ele>47.33894729614</ele>
        <time>2020-08-30T19:53:10.398Z</time>
      </trkpt>
      <trkpt lat="49.32845" lon="0.97591">
        <ele>44.53141784668</ele>
        <time>2020-08-30T19:53:17.582Z</time>
      </trkpt>
      <trkpt lat="49.32842" lon="0.97577">
        <ele>43.61956787109</ele>
        <time>2020-08-30T19:53:24.769Z</time>
      </trkpt>
      <trkpt lat="49.32839" lon="0.97559">
        <ele>42.46775817871</ele>
        <time>2020-08-30T19:53:31.960Z</time>
      </trkpt>
      <trkpt lat="49.3283" lon="0.9753">
        <ele>41.85276031494</ele>
        <time>2020-08-30T19:53:39.158Z</time>
      </trkpt>
      <trkpt lat="49.32818" lon="0.97509">
        <ele>41.16438674927</ele>
        <time>2020-08-30T19:53:46.363Z</time>
      </trkpt>
      <trkpt lat="49.32813" lon="0.97502">
        <ele>40.86443710327</ele>
        <time>2020-08-30T19:53:53.570Z</time>
      </trkpt>
      <trkpt lat="49.32804" lon="0.97472">
        <ele>39.28070068359</ele>
        <time>2020-08-30T19:54:00.784Z</time>
      </trkpt>
      <trkpt lat="49.328" lon="0.97465">
        <ele>38.9567565918</ele>
        <time>2020-08-30T19:54:08.000Z</time>
      </trkpt>
      <trkpt lat="49.32796" lon="0.97464">
        <ele>38.9927482605</ele>
        <time>2020-08-30T19:54:15.217Z</time>
      </trkpt>
      <trkpt lat="49.32794" lon="0.97464">
        <ele>39.0407409668</ele>
        <time>2020-08-30T19:54:22.435Z</time>
      </trkpt>
      <trkpt lat="49.32788" lon="0.97458">
        <ele>38.8247756958</ele>
        <time>2020-08-30T19:54:29.655Z</time>
      </trkpt>
      <trkpt lat="49.32778" lon="0.97453">
        <ele>38.49541091919</ele>
        <time>2020-08-30T19:54:36.879Z</time>
      </trkpt>
      <trkpt lat="49.32776" lon="0.97455">
        <ele>38.44741821289</ele>
        <time>2020-08-30T19:54:44.104Z</time>
      </trkpt>
      <trkpt lat="49.32774" lon="0.97466">
        <ele>38.93933486938</ele>
        <time>2020-08-30T19:54:51.331Z</time>
      </trkpt>
      <trkpt lat="49.32772" lon="0.97467">
        <ele>38.77697372437</ele>
        <time>2020-08-30T19:54:58.559Z</time>
      </trkpt>
      <trkpt lat="49.3277" lon="0.97467">
        <ele>38.48902130127</ele>
        <time>2020-08-30T19:55:05.788Z</time>
      </trkpt>
      <trkpt lat="49.32766" lon="0.97468">
        <ele>37.91311645508</ele>
        <time>2020-08-30T19:55:13.018Z</time>
      </trkpt>
      <trkpt lat="49.3276" lon="0.9747">
        <ele>37.04926300049</ele>
        <time>2020-08-30T19:55:20.250Z</time>
      </trkpt>
      <trkpt lat="49.32759" lon="0.97471">
        <ele>36.90528488159</ele>
        <time>2020-08-30T19:55:27.482Z</time>
      </trkpt>
      <trkpt lat="49.32759" lon="0.97473">
        <ele>36.90528488159</ele>
        <time>2020-08-30T19:55:34.715Z</time>
      </trkpt>
      <trkpt lat="49.3276" lon="0.97483">
        <ele>37.15018844604</ele>
        <time>2020-08-30T19:55:41.950Z</time>
      </trkpt>
      <trkpt lat="49.32757" lon="0.97488">
        <ele>36.77824783325</ele>
        <time>2020-08-30T19:55:49.187Z</time>
      </trkpt>
      <trkpt lat="49.32756" lon="0.97493">
        <ele>36.69426345825</ele>
        <time>2020-08-30T19:55:56.425Z</time>
      </trkpt>
      <trkpt lat="49.32757" lon="0.97499">
        <ele>36.91022872925</ele>
        <time>2020-08-30T19:56:03.664Z</time>
      </trkpt>
      <trkpt lat="49.32756" lon="0.97523">
        <ele>37.05420303345</ele>
        <time>2020-08-30T19:56:10.908Z</time>
      </trkpt>
      <trkpt lat="49.32758" lon="0.9753">
        <ele>37.42613983154</ele>
        <time>2020-08-30T19:56:18.154Z</time>
      </trkpt>
      <trkpt lat="49.3276" lon="0.97539">
        <ele>37.82207489014</ele>
        <time>2020-08-30T19:56:25.402Z</time>
      </trkpt>
      <trkpt lat="49.32758" lon="0.97548">
        <ele>37.64210510254</ele>
        <time>2020-08-30T19:56:32.652Z</time>
      </trkpt>
      <trkpt lat="49.32765" lon="0.97581">
        <ele>36.83203887939</ele>
        <time>2020-08-30T19:56:39.910Z</time>
      </trkpt>
      <trkpt lat="49.32764" lon="0.97594">
        <ele>35.59624481201</ele>
        <time>2020-08-30T19:56:47.170Z</time>
      </trkpt>
      <trkpt lat="49.32765" lon="0.97598">
        <ele>35.40427780151</ele>
        <time>2020-08-30T19:56:54.431Z</time>
      </trkpt>
      <trkpt lat="49.3277" lon="0.97606">
        <ele>35.45226669312</ele>
        <time>2020-08-30T19:57:01.695Z</time>
      </trkpt>
      <trkpt lat="49.32772" lon="0.97608">
        <ele>35.57224655151</ele>
        <time>2020-08-30T19:57:08.960Z</time>
      </trkpt>
      <trkpt lat="49.32773" lon="0.97609">
        <ele>35.63223648071</ele>
        <time>2020-08-30T19:57:16.225Z</time>
      </trkpt>
      <trkpt lat="49.32773" lon="0.97618">
        <ele>34.87636566162</ele>
        <time>2020-08-30T19:57:23.492Z</time>
      </trkpt>
      <trkpt lat="49.32772" lon="0.97622">
        <ele>34.39644241333</ele>
        <time>2020-08-30T19:57:30.760Z</time>
      </trkpt>
      <trkpt lat="49.32773" lon="0.9763">
        <ele>33.86853027344</ele>
        <time>2020-08-30T19:57:38.030Z</time>
      </trkpt>
      <trkpt lat="49.32775" lon="0.97637">
        <ele>33.64129257202</ele>
        <time>2020-08-30T19:57:45.301Z</time>
      </trkpt>
      <trkpt lat="49.32782" lon="0.97648">
        <ele>33.82346725464</ele>
        <time>2020-08-30T19:57:52.576Z</time>
      </trkpt>
      <trkpt lat="49.32791" lon="0.97663">
        <ele>34.57934188843</ele>
        <time>2020-08-30T19:57:59.855Z</time>
      </trkpt>
      <trkpt lat="49.32796" lon="0.97671">
        <ele>35.02326965332</ele>
        <time>2020-08-30T19:58:07.137Z</time>
      </trkpt>
      <trkpt lat="49.328" lon="0.97674">
        <ele>35.62316894531</ele>
        <time>2020-08-30T19:58:14.420Z</time>
      </trkpt>
      <trkpt lat="49.32805" lon="0.97682">
        <ele>36.06709671021</ele>
        <time>2020-08-30T19:58:21.705Z</time>
      </trkpt>
      <trkpt lat="49.32807" lon="0.97687">
        <ele>36.11508560181</ele>
        <time>2020-08-30T19:58:28.992Z</time>
      </trkpt>
      <trkpt lat="49.32813" lon="0.97697">
        <ele>36.6190032959</ele>
        <time>2020-08-30T19:58:36.282Z</time>
      </trkpt>
      <trkpt lat="49.32815" lon="0.977">
        <ele>36.8109703064</ele>
        <time>2020-08-30T19:58:43.573Z</time>
      </trkpt>
      <trkpt lat="49.32821" lon="0.97715">
        <ele>36.95494842529</ele>
        <time>2020-08-30T19:58:50.867Z</time>
      </trkpt>
      <trkpt lat="49.32828" lon="0.97723">
        <ele>37.80680465698</ele>
        <time>2020-08-30T19:58:58.164Z</time>
      </trkpt>
      <trkpt lat="49.32829" lon="0.97723">
        <ele>38.01077270508</ele>
        <time>2020-08-30T19:59:05.462Z</time>
      </trkpt>
      <trkpt lat="49.3283" lon="0.97719">
        <ele>38.50268936157</ele>
        <time>2020-08-30T19:59:12.761Z</time>
      </trkpt>
      <trkpt lat="49.32831" lon="0.97717">
        <ele>38.85063171387</ele>
        <time>2020-08-30T19:59:20.060Z</time>
      </trkpt>
      <trkpt lat="49.32835" lon="0.97715">
        <ele>39.81047058105</ele>
        <time>2020-08-30T19:59:27.361Z</time>
      </trkpt>
      <trkpt lat="49.32838" lon="0.97714">
        <ele>40.49435806274</ele>
        <time>2020-08-30T19:59:34.663Z</time>
      </trkpt>
      <trkpt lat="49.3284" lon="0.97712">
        <ele>41.04626464844</ele>
        <time>2020-08-30T19:59:41.965Z</time>
      </trkpt>
      <trkpt lat="49.32844" lon="0.97708">
        <ele>42.15008163452</ele>
        <time>2020-08-30T19:59:49.269Z</time>
      </trkpt>
      <trkpt lat="49.32847" lon="0.97706">
        <ele>42.84159851074</ele>
        <time>2020-08-30T19:59:56.574Z</time>
      </trkpt>
      <trkpt lat="49.32852" lon="0.9771">
        <ele>43.53748321533</ele>
        <time>2020-08-30T20:00:03.881Z</time>
      </trkpt>
      <trkpt lat="49.32855" lon="0.97713">
        <ele>43.93341827393</ele>
        <time>2020-08-30T20:00:11.189Z</time>
      </trkpt>
      <trkpt lat="49.32858" lon="0.97718">
        <ele>44.25736236572</ele>
        <time>2020-08-30T20:00:18.499Z</time>
      </trkpt>
      <trkpt lat="49.32861" lon="0.97727">
        <ele>44.39191818237</ele>
        <time>2020-08-30T20:00:25.811Z</time>
      </trkpt>
      <trkpt lat="49.32865" lon="0.97732">
        <ele>45.06441879272</ele>
        <time>2020-08-30T20:00:33.125Z</time>
      </trkpt>
      <trkpt lat="49.32873" lon="0.97756">
        <ele>45.83229064941</ele>
        <time>2020-08-30T20:00:40.444Z</time>
      </trkpt>
      <trkpt lat="49.32879" lon="0.9778">
        <ele>46.33620834351</ele>
        <time>2020-08-30T20:00:47.769Z</time>
      </trkpt>
      <trkpt lat="49.32885" lon="0.97797">
        <ele>46.9241104126</ele>
        <time>2020-08-30T20:00:55.098Z</time>
      </trkpt>
      <trkpt lat="49.32885" lon="0.97807">
        <ele>46.8041305542</ele>
        <time>2020-08-30T20:01:02.429Z</time>
      </trkpt>
      <trkpt lat="49.32884" lon="0.9782">
        <ele>47.38168716431</ele>
        <time>2020-08-30T20:01:09.763Z</time>
      </trkpt>
      <trkpt lat="49.32883" lon="0.97829">
        <ele>47.72249603271</ele>
        <time>2020-08-30T20:01:17.099Z</time>
      </trkpt>
      <trkpt lat="49.32882" lon="0.97838">
        <ele>47.77048873901</ele>
        <time>2020-08-30T20:01:24.437Z</time>
      </trkpt>
      <trkpt lat="49.32881" lon="0.97865">
        <ele>48.25040817261</ele>
        <time>2020-08-30T20:01:31.781Z</time>
      </trkpt>
      <trkpt lat="49.32876" lon="0.97874">
        <ele>47.62651062012</ele>
        <time>2020-08-30T20:01:39.128Z</time>
      </trkpt>
      <trkpt lat="49.32871" lon="0.9789">
        <ele>47.17058563232</ele>
        <time>2020-08-30T20:01:46.479Z</time>
      </trkpt>
      <trkpt lat="49.32866" lon="0.97911">
        <ele>48.56783676147</ele>
        <time>2020-08-30T20:01:53.835Z</time>
      </trkpt>
      <trkpt lat="49.32866" lon="0.97917">
        <ele>49.28771972656</ele>
        <time>2020-08-30T20:02:01.192Z</time>
      </trkpt>
      <trkpt lat="49.32866" lon="0.97941">
        <ele>52.16723632812</ele>
        <time>2020-08-30T20:02:08.554Z</time>
      </trkpt>
      <trkpt lat="49.32855" lon="0.97979">
        <ele>54.22852706909</ele>
        <time>2020-08-30T20:02:15.925Z</time>
      </trkpt>
      <trkpt lat="49.3285" lon="0.97989">
        <ele>54.94840621948</ele>
        <time>2020-08-30T20:02:23.299Z</time>
      </trkpt>
      <trkpt lat="49.32847" lon="0.97996">
        <ele>55.60829544067</ele>
        <time>2020-08-30T20:02:30.675Z</time>
      </trkpt>
      <trkpt lat="49.32832" lon="0.98016">
        <ele>55.48831558228</ele>
        <time>2020-08-30T20:02:38.057Z</time>
      </trkpt>
      <trkpt lat="49.32826" lon="0.98027">
        <ele>55.79675292969</ele>
        <time>2020-08-30T20:02:45.442Z</time>
      </trkpt>
      <trkpt lat="49.3282" lon="0.98037">
        <ele>55.43681335449</ele>
        <time>2020-08-30T20:02:52.830Z</time>
      </trkpt>
      <trkpt lat="49.3281" lon="0.98045">
        <ele>53.27717590332</ele>
        <time>2020-08-30T20:03:00.222Z</time>
      </trkpt>
      <trkpt lat="49.32808" lon="0.98048">
        <ele>53.09720611572</ele>
        <time>2020-08-30T20:03:07.615Z</time>
      </trkpt>
      <trkpt lat="49.32806" lon="0.98052">
        <ele>53.09720611572</ele>
        <time>2020-08-30T20:03:15.009Z</time>
      </trkpt>
      <trkpt lat="49.32798" lon="0.9806">
        <ele>51.6812171936</ele>
        <time>2020-08-30T20:03:22.406Z</time>
      </trkpt>
      <trkpt lat="49.32787" lon="0.98072">
        <ele>50.38427734375</ele>
        <time>2020-08-30T20:03:29.808Z</time>
      </trkpt>
      <trkpt lat="49.32783" lon="0.98077">
        <ele>50.33628463745</ele>
        <time>2020-08-30T20:03:37.212Z</time>
      </trkpt>
      <trkpt lat="49.32776" lon="0.98085">
        <ele>50.61159515381</ele>
        <time>2020-08-30T20:03:44.619Z</time>
      </trkpt>
      <trkpt lat="49.32762" lon="0.98099">
        <ele>51.2834854126</ele>
        <time>2020-08-30T20:03:52.031Z</time>
      </trkpt>
      <trkpt lat="49.32754" lon="0.98111">
        <ele>52.62726211548</ele>
        <time>2020-08-30T20:03:59.447Z</time>
      </trkpt>
      <trkpt lat="49.32747" lon="0.98119">
        <ele>52.40203094482</ele>
        <time>2020-08-30T20:04:06.866Z</time>
      </trkpt>
      <trkpt lat="49.32739" lon="0.98126">
        <ele>51.46618652344</ele>
        <time>2020-08-30T20:04:14.288Z</time>
      </trkpt>
      <trkpt lat="49.32731" lon="0.98139">
        <ele>51.53817749023</ele>
        <time>2020-08-30T20:04:21.714Z</time>
      </trkpt>
      <trkpt lat="49.32716" lon="0.98163">
        <ele>52.61505126953</ele>
        <time>2020-08-30T20:04:29.147Z</time>
      </trkpt>
      <trkpt lat="49.32711" lon="0.98164">
        <ele>51.43924713135</ele>
        <time>2020-08-30T20:04:36.582Z</time>
      </trkpt>
      <trkpt lat="49.32714" lon="0.98169">
        <ele>53.28694152832</ele>
        <time>2020-08-30T20:04:44.018Z</time>
      </trkpt>
      <trkpt lat="49.3271" lon="0.98178">
        <ele>54.01881790161</ele>
        <time>2020-08-30T20:04:51.457Z</time>
      </trkpt>
      <trkpt lat="49.32699" lon="0.98196">
        <ele>54.654712677</ele>
        <time>2020-08-30T20:04:58.901Z</time>
      </trkpt>
      <trkpt lat="49.3269" lon="0.98208">
        <ele>55.90504074097</ele>
        <time>2020-08-30T20:05:06.349Z</time>
      </trkpt>
      <trkpt lat="49.32673" lon="0.98218">
        <ele>56.1037979126</ele>
        <time>2020-08-30T20:05:13.803Z</time>
      </trkpt>
      <trkpt lat="49.32661" lon="0.98226">
        <ele>56.43639373779</ele>
        <time>2020-08-30T20:05:21.261Z</time>
      </trkpt>
      <trkpt lat="49.32656" lon="0.98227">
        <ele>56.1604385376</ele>
        <time>2020-08-30T20:05:28.721Z</time>
      </trkpt>
      <trkpt lat="49.32653" lon="0.98226">
        <ele>55.57253646851</ele>
        <time>2020-08-30T20:05:36.182Z</time>
      </trkpt>
      <trkpt lat="49.32644" lon="0.98237">
        <ele>57.50421524048</ele>
        <time>2020-08-30T20:05:43.647Z</time>
      </trkpt>
      <trkpt lat="49.32643" lon="0.98233">
        <ele>56.3404083252</ele>
        <time>2020-08-30T20:05:51.113Z</time>
      </trkpt>
      <trkpt lat="49.32642" lon="0.9823">
        <ele>55.44055938721</ele>
        <time>2020-08-30T20:05:58.580Z</time>
      </trkpt>
      <trkpt lat="49.32641" lon="0.9823">
        <ele>55.33257675171</ele>
        <time>2020-08-30T20:06:06.047Z</time>
      </trkpt>
      <trkpt lat="49.32639" lon="0.98229">
        <ele>54.85265731812</ele>
        <time>2020-08-30T20:06:13.515Z</time>
      </trkpt>
      <trkpt lat="49.32635" lon="0.98226">
        <ele>53.62886047363</ele>
        <time>2020-08-30T20:06:20.984Z</time>
      </trkpt>
      <trkpt lat="49.32636" lon="0.98224">
        <ele>53.26027297974</ele>
        <time>2020-08-30T20:06:28.454Z</time>
      </trkpt>
      <trkpt lat="49.32637" lon="0.98221">
        <ele>52.79235076904</ele>
        <time>2020-08-30T20:06:35.924Z</time>
      </trkpt>
      <trkpt lat="49.32638" lon="0.98218">
        <ele>52.32442855835</ele>
        <time>2020-08-30T20:06:43.395Z</time>
      </trkpt>
      <trkpt lat="49.32641" lon="0.98216">
        <ele>52.26443862915</ele>
        <time>2020-08-30T20:06:50.867Z</time>
      </trkpt>
      <trkpt lat="49.32641" lon="0.98217">
        <ele>52.45640563965</ele>
        <time>2020-08-30T20:06:58.339Z</time>
      </trkpt>
      <trkpt lat="49.3264" lon="0.98219">
        <ele>52.73236083984</ele>
        <time>2020-08-30T20:07:05.812Z</time>
      </trkpt>
      <trkpt lat="49.32634" lon="0.98224">
        <ele>53.04430770874</ele>
        <time>2020-08-30T20:07:13.287Z</time>
      </trkpt>
      <trkpt lat="49.32634" lon="0.98226">
        <ele>53.52087783813</ele>
        <time>2020-08-30T20:07:20.763Z</time>
      </trkpt>
      <trkpt lat="49.32636" lon="0.98229">
        <ele>54.52871322632</ele>
        <time>2020-08-30T20:07:28.240Z</time>
      </trkpt>
      <trkpt lat="49.32636" lon="0.9823">
        <ele>54.79266738892</ele>
        <time>2020-08-30T20:07:35.717Z</time>
      </trkpt>
      <trkpt lat="49.32634" lon="0.98234">
        <ele>55.63252639771</ele>
        <time>2020-08-30T20:07:43.195Z</time>
      </trkpt>
      <trkpt lat="49.32635" lon="0.98238">
        <ele>56.79633331299</ele>
        <time>2020-08-30T20:07:50.674Z</time>
      </trkpt>
      <trkpt lat="49.32637" lon="0.98239">
        <ele>57.27625274658</ele>
        <time>2020-08-30T20:07:58.154Z</time>
      </trkpt>
      <trkpt lat="49.3264" lon="0.98243">
        <ele>58.65602493286</ele>
        <time>2020-08-30T20:08:05.635Z</time>
      </trkpt>
      <trkpt lat="49.3264" lon="0.98249">
        <ele>60.23976135254</ele>
        <time>2020-08-30T20:08:13.117Z</time>
      </trkpt>
      <trkpt lat="49.32638" lon="0.98258">
        <ele>62.18134689331</ele>
        <time>2020-08-30T20:08:20.601Z</time>
      </trkpt>
      <trkpt lat="49.32636" lon="0.9826">
        <ele>62.39731216431</ele>
        <time>2020-08-30T20:08:28.086Z</time>
      </trkpt>
      <trkpt lat="49.32626" lon="0.98265">
        <ele>62.27733230591</ele>
        <time>2020-08-30T20:08:35.575Z</time>
      </trkpt>
      <trkpt lat="49.32592" lon="0.98278">
        <ele>61.43267822266</ele>
        <time>2020-08-30T20:08:43.075Z</time>
      </trkpt>
      <trkpt lat="49.3259" lon="0.98278">
        <ele>61.21671295166</ele>
        <time>2020-08-30T20:08:50.576Z</time>
      </trkpt>
      <trkpt lat="49.32573" lon="0.9828">
        <ele>60.31949615479</ele>
        <time>2020-08-30T20:08:58.083Z</time>
      </trkpt>
      <trkpt lat="49.32556" lon="0.98283">
        <ele>59.92356109619</ele>
        <time>2020-08-30T20:09:05.595Z</time>
      </trkpt>
      <trkpt lat="49.32553" lon="0.98283">
        <ele>59.70759963989</ele>
        <time>2020-08-30T20:09:13.108Z</time>
      </trkpt>
      <trkpt lat="49.32542" lon="0.98284">
        <ele>59.1916847229</ele>
        <time>2020-08-30T20:09:20.625Z</time>
      </trkpt>
      <trkpt lat="49.32498" lon="0.98296">
        <ele>61.42721557617</ele>
        <time>2020-08-30T20:09:28.157Z</time>
      </trkpt>
      <trkpt lat="49.32486" lon="0.98302">
        <ele>62.86697387695</ele>
        <time>2020-08-30T20:09:35.693Z</time>
      </trkpt>
      <trkpt lat="49.32454" lon="0.98308">
        <ele>64.06677246094</ele>
        <time>2020-08-30T20:09:43.240Z</time>
      </trkpt>
      <trkpt lat="49.32443" lon="0.98311">
        <ele>64.27545166016</ele>
        <time>2020-08-30T20:09:50.791Z</time>
      </trkpt>
      <trkpt lat="49.32438" lon="0.98309">
        <ele>63.80752944946</ele>
        <time>2020-08-30T20:09:58.343Z</time>
      </trkpt>
      <trkpt lat="49.32433" lon="0.98308">
        <ele>63.48358154297</ele>
        <time>2020-08-30T20:10:05.897Z</time>
      </trkpt>
      <trkpt lat="49.32431" lon="0.98308">
        <ele>63.41159439087</ele>
        <time>2020-08-30T20:10:13.452Z</time>
      </trkpt>
      <trkpt lat="49.3242" lon="0.98309">
        <ele>63.15963745117</ele>
        <time>2020-08-30T20:10:21.010Z</time>
      </trkpt>
      <trkpt lat="49.32416" lon="0.9831">
        <ele>63.15963745117</ele>
        <time>2020-08-30T20:10:28.570Z</time>
      </trkpt>
      <trkpt lat="49.32398" lon="0.98305">
        <ele>61.79186248779</ele>
        <time>2020-08-30T20:10:36.136Z</time>
      </trkpt>
      <trkpt lat="49.3239" lon="0.98299">
        <ele>60.64005661011</ele>
        <time>2020-08-30T20:10:43.705Z</time>
      </trkpt>
      <trkpt lat="49.32374" lon="0.98288">
        <ele>58.48041534424</ele>
        <time>2020-08-30T20:10:51.280Z</time>
      </trkpt>
      <trkpt lat="49.32365" lon="0.98279">
        <ele>56.86068725586</ele>
        <time>2020-08-30T20:10:58.858Z</time>
      </trkpt>
      <trkpt lat="49.32357" lon="0.9827">
        <ele>55.52021789551</ele>
        <time>2020-08-30T20:11:06.440Z</time>
      </trkpt>
      <trkpt lat="49.3235" lon="0.98265">
        <ele>54.80033493042</ele>
        <time>2020-08-30T20:11:14.024Z</time>
      </trkpt>
      <trkpt lat="49.32336" lon="0.98255">
        <ele>53.36057662964</ele>
        <time>2020-08-30T20:11:21.613Z</time>
      </trkpt>
      <trkpt lat="49.3233" lon="0.98252">
        <ele>52.92864990234</ele>
        <time>2020-08-30T20:11:29.204Z</time>
      </trkpt>
      <trkpt lat="49.32323" lon="0.98253">
        <ele>53.07262420654</ele>
        <time>2020-08-30T20:11:36.798Z</time>
      </trkpt>
      <trkpt lat="49.32321" lon="0.98256">
        <ele>53.50455093384</ele>
        <time>2020-08-30T20:11:44.393Z</time>
      </trkpt>
      <trkpt lat="49.32316" lon="0.98267">
        <ele>54.44537353516</ele>
        <time>2020-08-30T20:11:51.991Z</time>
      </trkpt>
      <trkpt lat="49.32314" lon="0.98274">
        <ele>54.58934783936</ele>
        <time>2020-08-30T20:11:59.590Z</time>
      </trkpt>
      <trkpt lat="49.32313" lon="0.98277">
        <ele>54.63734054565</ele>
        <time>2020-08-30T20:12:07.190Z</time>
      </trkpt>
      <trkpt lat="49.32308" lon="0.98281">
        <ele>54.34938812256</ele>
        <time>2020-08-30T20:12:14.792Z</time>
      </trkpt>
      <trkpt lat="49.32305" lon="0.98282">
        <ele>54.10942840576</ele>
        <time>2020-08-30T20:12:22.395Z</time>
      </trkpt>
      <trkpt lat="49.32296" lon="0.98287">
        <ele>53.48553466797</ele>
        <time>2020-08-30T20:12:30.001Z</time>
      </trkpt>
      <trkpt lat="49.32293" lon="0.98292">
        <ele>53.43754196167</ele>
        <time>2020-08-30T20:12:37.609Z</time>
      </trkpt>
      <trkpt lat="49.32264" lon="0.98367">
        <ele>54.64721298218</ele>
        <time>2020-08-30T20:12:45.236Z</time>
      </trkpt>
      <trkpt lat="49.32259" lon="0.98385">
        <ele>55.5111579895</ele>
        <time>2020-08-30T20:12:52.867Z</time>
      </trkpt>
      <trkpt lat="49.32248" lon="0.98421">
        <ele>56.15461349487</ele>
        <time>2020-08-30T20:13:00.507Z</time>
      </trkpt>
      <trkpt lat="49.32236" lon="0.98459">
        <ele>56.14673995972</ele>
        <time>2020-08-30T20:13:08.156Z</time>
      </trkpt>
      <trkpt lat="49.32213" lon="0.9852">
        <ele>52.87682723999</ele>
        <time>2020-08-30T20:13:15.820Z</time>
      </trkpt>
      <trkpt lat="49.32205" lon="0.98532">
        <ele>50.52521896362</ele>
        <time>2020-08-30T20:13:23.488Z</time>
      </trkpt>
      <trkpt lat="49.32185" lon="0.98562">
        <ele>44.31438064575</ele>
        <time>2020-08-30T20:13:31.165Z</time>
      </trkpt>
      <trkpt lat="49.32175" lon="0.98575">
        <ele>40.7989692688</ele>
        <time>2020-08-30T20:13:38.847Z</time>
      </trkpt>
      <trkpt lat="49.32172" lon="0.98583">
        <ele>39.20323562622</ele>
        <time>2020-08-30T20:13:46.531Z</time>
      </trkpt>
      <trkpt lat="49.32172" lon="0.98584">
        <ele>39.07125473022</ele>
        <time>2020-08-30T20:13:54.215Z</time>
      </trkpt>
      <trkpt lat="49.32171" lon="0.9859">
        <ele>38.09941864014</ele>
        <time>2020-08-30T20:14:01.900Z</time>
      </trkpt>
      <trkpt lat="49.32169" lon="0.98599">
        <ele>36.55167770386</ele>
        <time>2020-08-30T20:14:09.587Z</time>
      </trkpt>
      <trkpt lat="49.32169" lon="0.98609">
        <ele>35.23189544678</ele>
        <time>2020-08-30T20:14:17.276Z</time>
      </trkpt>
      <trkpt lat="49.32172" lon="0.98619">
        <ele>34.29516220093</ele>
        <time>2020-08-30T20:14:24.968Z</time>
      </trkpt>
      <trkpt lat="49.32177" lon="0.98625">
        <ele>34.34315490723</ele>
        <time>2020-08-30T20:14:32.662Z</time>
      </trkpt>
      <trkpt lat="49.32182" lon="0.98628">
        <ele>34.96705245972</ele>
        <time>2020-08-30T20:14:40.358Z</time>
      </trkpt>
      <trkpt lat="49.32188" lon="0.98632">
        <ele>35.61583328247</ele>
        <time>2020-08-30T20:14:48.056Z</time>
      </trkpt>
      <trkpt lat="49.32191" lon="0.98637">
        <ele>35.39897918701</ele>
        <time>2020-08-30T20:14:55.755Z</time>
      </trkpt>
      <trkpt lat="49.32193" lon="0.98646">
        <ele>34.97018051147</ele>
        <time>2020-08-30T20:15:03.456Z</time>
      </trkpt>
      <trkpt lat="49.32193" lon="0.98656">
        <ele>34.85020065308</ele>
        <time>2020-08-30T20:15:11.160Z</time>
      </trkpt>
      <trkpt lat="49.32193" lon="0.98665">
        <ele>34.74221801758</ele>
        <time>2020-08-30T20:15:18.866Z</time>
      </trkpt>
      <trkpt lat="49.32193" lon="0.98678">
        <ele>34.58624267578</ele>
        <time>2020-08-30T20:15:26.574Z</time>
      </trkpt>
      <trkpt lat="49.32185" lon="0.98695">
        <ele>32.46259689331</ele>
        <time>2020-08-30T20:15:34.287Z</time>
      </trkpt>
      <trkpt lat="49.32183" lon="0.98705">
        <ele>31.86269760132</ele>
        <time>2020-08-30T20:15:42.002Z</time>
      </trkpt>
      <trkpt lat="49.32182" lon="0.9871">
        <ele>31.56274795532</ele>
        <time>2020-08-30T20:15:49.718Z</time>
      </trkpt>
      <trkpt lat="49.32182" lon="0.98711">
        <ele>31.55075073242</ele>
        <time>2020-08-30T20:15:57.435Z</time>
      </trkpt>
      <trkpt lat="49.32181" lon="0.98716">
        <ele>31.25079917908</ele>
        <time>2020-08-30T20:16:05.153Z</time>
      </trkpt>
      <trkpt lat="49.32174" lon="0.98721">
        <ele>29.51108932495</ele>
        <time>2020-08-30T20:16:12.873Z</time>
      </trkpt>
      <trkpt lat="49.32167" lon="0.98739">
        <ele>29.48995399475</ele>
        <time>2020-08-30T20:16:20.598Z</time>
      </trkpt>
      <trkpt lat="49.32162" lon="0.98756">
        <ele>30.32981491089</ele>
        <time>2020-08-30T20:16:28.327Z</time>
      </trkpt>
      <trkpt lat="49.32161" lon="0.98765">
        <ele>31.16967391968</ele>
        <time>2020-08-30T20:16:36.058Z</time>
      </trkpt>
      <trkpt lat="49.32161" lon="0.98779">
        <ele>32.26818084717</ele>
        <time>2020-08-30T20:16:43.792Z</time>
      </trkpt>
      <trkpt lat="49.3216" lon="0.98791">
        <ele>32.37616348267</ele>
        <time>2020-08-30T20:16:51.529Z</time>
      </trkpt>
      <trkpt lat="49.3216" lon="0.98805">
        <ele>32.88007736206</ele>
        <time>2020-08-30T20:16:59.269Z</time>
      </trkpt>
      <trkpt lat="49.3216" lon="0.98808">
        <ele>32.98805999756</ele>
        <time>2020-08-30T20:17:07.009Z</time>
      </trkpt>
      <trkpt lat="49.32159" lon="0.98822">
        <ele>33.50052642822</ele>
        <time>2020-08-30T20:17:14.752Z</time>
      </trkpt>
      <trkpt lat="49.32156" lon="0.98832">
        <ele>33.12858581543</ele>
        <time>2020-08-30T20:17:22.498Z</time>
      </trkpt>
      <trkpt lat="49.32148" lon="0.98866">
        <ele>31.44535636902</ele>
        <time>2020-08-30T20:17:30.252Z</time>
      </trkpt>
      <trkpt lat="49.32145" lon="0.98875">
        <ele>30.43752479553</ele>
        <time>2020-08-30T20:17:38.008Z</time>
      </trkpt>
      <trkpt lat="49.32143" lon="0.98886">
        <ele>29.82562637329</ele>
        <time>2020-08-30T20:17:45.766Z</time>
      </trkpt>
      <trkpt lat="49.32139" lon="0.98902">
        <ele>29.03419303894</ele>
        <time>2020-08-30T20:17:53.528Z</time>
      </trkpt>
      <trkpt lat="49.32131" lon="0.98929">
        <ele>28.16376113892</ele>
        <time>2020-08-30T20:18:01.297Z</time>
      </trkpt>
      <trkpt lat="49.32125" lon="0.98945">
        <ele>27.41988372803</ele>
        <time>2020-08-30T20:18:09.070Z</time>
      </trkpt>
      <trkpt lat="49.32122" lon="0.98952">
        <ele>26.96396064758</ele>
        <time>2020-08-30T20:18:16.844Z</time>
      </trkpt>
      <trkpt lat="49.32121" lon="0.9896">
        <ele>27.28790664673</ele>
        <time>2020-08-30T20:18:24.620Z</time>
      </trkpt>
      <trkpt lat="49.32117" lon="0.98969">
        <ele>26.65201187134</ele>
        <time>2020-08-30T20:18:32.399Z</time>
      </trkpt>
      <trkpt lat="49.32115" lon="0.98973">
        <ele>26.29207229614</ele>
        <time>2020-08-30T20:18:40.179Z</time>
      </trkpt>
      <trkpt lat="49.32114" lon="0.98977">
        <ele>26.36807823181</ele>
        <time>2020-08-30T20:18:47.960Z</time>
      </trkpt>
      <trkpt lat="49.32113" lon="0.9898">
        <ele>26.53330612183</ele>
        <time>2020-08-30T20:18:55.741Z</time>
      </trkpt>
      <trkpt lat="49.3211" lon="0.98995">
        <ele>27.97306632996</ele>
        <time>2020-08-30T20:19:03.526Z</time>
      </trkpt>
      <trkpt lat="49.32108" lon="0.98998">
        <ele>28.09304618835</ele>
        <time>2020-08-30T20:19:11.312Z</time>
      </trkpt>
      <trkpt lat="49.32107" lon="0.99001">
        <ele>28.33300590515</ele>
        <time>2020-08-30T20:19:19.098Z</time>
      </trkpt>
      <trkpt lat="49.32107" lon="0.99003">
        <ele>28.57296562195</ele>
        <time>2020-08-30T20:19:26.885Z</time>
      </trkpt>
      <trkpt lat="49.32107" lon="0.99005">
        <ele>28.81292533875</ele>
        <time>2020-08-30T20:19:34.672Z</time>
      </trkpt>
      <trkpt lat="49.32105" lon="0.99009">
        <ele>29.05288505554</ele>
        <time>2020-08-30T20:19:42.460Z</time>
      </trkpt>
      <trkpt lat="49.321" lon="0.99018">
        <ele>29.53280639648</ele>
        <time>2020-08-30T20:19:50.251Z</time>
      </trkpt>
      <trkpt lat="49.32097" lon="0.99024">
        <ele>29.89274597168</ele>
        <time>2020-08-30T20:19:58.044Z</time>
      </trkpt>
      <trkpt lat="49.32092" lon="0.99029">
        <ele>29.89274597168</ele>
        <time>2020-08-30T20:20:05.839Z</time>
      </trkpt>
      <trkpt lat="49.32089" lon="0.99031">
        <ele>29.77276611328</ele>
        <time>2020-08-30T20:20:13.635Z</time>
      </trkpt>
      <trkpt lat="49.32086" lon="0.99038">
        <ele>29.07797050476</ele>
        <time>2020-08-30T20:20:21.433Z</time>
      </trkpt>
      <trkpt lat="49.32076" lon="0.99055">
        <ele>25.70653343201</ele>
        <time>2020-08-30T20:20:29.236Z</time>
      </trkpt>
      <trkpt lat="49.32065" lon="0.99059">
        <ele>22.65411949158</ele>
        <time>2020-08-30T20:20:37.042Z</time>
      </trkpt>
      <trkpt lat="49.32062" lon="0.99059">
        <ele>21.82625770569</ele>
        <time>2020-08-30T20:20:44.849Z</time>
      </trkpt>
      <trkpt lat="49.32059" lon="0.99062">
        <ele>21.358335495</ele>
        <time>2020-08-30T20:20:52.658Z</time>
      </trkpt>
      <trkpt lat="49.32056" lon="0.99065">
        <ele>20.8904132843</ele>
        <time>2020-08-30T20:21:00.468Z</time>
      </trkpt>
      <trkpt lat="49.3205" lon="0.99072">
        <ele>20.07454872131</ele>
        <time>2020-08-30T20:21:08.280Z</time>
      </trkpt>
      <trkpt lat="49.32009" lon="0.99135">
        <ele>17.75821113586</ele>
        <time>2020-08-30T20:21:16.112Z</time>
      </trkpt>
      <trkpt lat="49.31973" lon="0.99202">
        <ele>18.05182647705</ele>
        <time>2020-08-30T20:21:23.963Z</time>
      </trkpt>
      <trkpt lat="49.31942" lon="0.99275">
        <ele>16.10531997681</ele>
        <time>2020-08-30T20:21:31.833Z</time>
      </trkpt>
      <trkpt lat="49.31929" lon="0.99304">
        <ele>16.60488128662</ele>
        <time>2020-08-30T20:21:39.710Z</time>
      </trkpt>
      <trkpt lat="49.31923" lon="0.99316">
        <ele>16.69489479065</ele>
        <time>2020-08-30T20:21:47.590Z</time>
      </trkpt>
      <trkpt lat="49.31917" lon="0.99334">
        <ele>17.77471542358</ele>
        <time>2020-08-30T20:21:55.475Z</time>
      </trkpt>
      <trkpt lat="49.31916" lon="0.99341">
        <ele>18.24263763428</ele>
        <time>2020-08-30T20:22:03.361Z</time>
      </trkpt>
      <trkpt lat="49.31914" lon="0.99343">
        <ele>18.31462478638</ele>
        <time>2020-08-30T20:22:11.248Z</time>
      </trkpt>
      <trkpt lat="49.31911" lon="0.99348">
        <ele>18.56658363342</ele>
        <time>2020-08-30T20:22:19.137Z</time>
      </trkpt>
      <trkpt lat="49.31911" lon="0.99354">
        <ele>18.99851036072</ele>
        <time>2020-08-30T20:22:27.027Z</time>
      </trkpt>
      <trkpt lat="49.31908" lon="0.99377">
        <ele>19.07960891724</ele>
        <time>2020-08-30T20:22:34.922Z</time>
      </trkpt>
      <trkpt lat="49.31898" lon="0.99387">
        <ele>18.2397480011</ele>
        <time>2020-08-30T20:22:42.821Z</time>
      </trkpt>
      <trkpt lat="49.31889" lon="0.99395">
        <ele>18.12950515747</ele>
        <time>2020-08-30T20:22:50.724Z</time>
      </trkpt>
      <trkpt lat="49.31876" lon="0.99393">
        <ele>16.47377967834</ele>
        <time>2020-08-30T20:22:58.631Z</time>
      </trkpt>
      <trkpt lat="49.31865" lon="0.99399">
        <ele>16.27575874329</ele>
        <time>2020-08-30T20:23:06.542Z</time>
      </trkpt>
      <trkpt lat="49.31849" lon="0.99403">
        <ele>16.46895599365</ele>
        <time>2020-08-30T20:23:14.458Z</time>
      </trkpt>
      <trkpt lat="49.3184" lon="0.9941">
        <ele>17.36880493164</ele>
        <time>2020-08-30T20:23:22.378Z</time>
      </trkpt>
      <trkpt lat="49.31834" lon="0.99414">
        <ele>17.87272262573</ele>
        <time>2020-08-30T20:23:30.300Z</time>
      </trkpt>
      <trkpt lat="49.31832" lon="0.99415">
        <ele>17.99270248413</ele>
        <time>2020-08-30T20:23:38.223Z</time>
      </trkpt>
      <trkpt lat="49.31901" lon="0.99212">
        <ele>18.30620956421</ele>
        <time>2020-08-30T17:37:15.000Z</time>
      </trkpt>
      <trkpt lat="49.31901" lon="0.99212">
        <ele>18.30620956421</ele>
        <time>2020-08-30T17:37:15.000Z</time>
      </trkpt>
      <trkpt lat="49.31907" lon="0.99196">
        <ele>19.86594963074</ele>
        <time>2020-08-30T17:37:15.004Z</time>
      </trkpt>
      <trkpt lat="49.3191" lon="0.99188">
        <ele>20.64581871033</ele>
        <time>2020-08-30T17:37:15.010Z</time>
      </trkpt>
      <trkpt lat="49.3193" lon="0.99128">
        <ele>18.68717002869</ele>
        <time>2020-08-30T17:37:15.031Z</time>
      </trkpt>
      <trkpt lat="49.31933" lon="0.99121">
        <ele>18.98711967468</ele>
        <time>2020-08-30T17:37:15.054Z</time>
      </trkpt>
      <trkpt lat="49.31937" lon="0.99115">
        <ele>18.98711967468</ele>
        <time>2020-08-30T17:37:15.078Z</time>
      </trkpt>
      <trkpt lat="49.31943" lon="0.99101">
        <ele>19.58702087402</ele>
        <time>2020-08-30T17:37:15.106Z</time>
      </trkpt>
      <trkpt lat="49.31948" lon="0.99079">
        <ele>21.54957962036</ele>
        <time>2020-08-30T17:37:15.139Z</time>
      </trkpt>
      <trkpt lat="49.32006" lon="0.99116">
        <ele>19.68455696106</ele>
        <time>2020-08-30T17:37:15.193Z</time>
      </trkpt>
      <trkpt lat="49.32025" lon="0.99075">
        <ele>14.71738433838</ele>
        <time>2020-08-30T17:37:15.258Z</time>
      </trkpt>
      <trkpt lat="49.32034" lon="0.99062">
        <ele>14.44843196869</ele>
        <time>2020-08-30T17:37:15.327Z</time>
      </trkpt>
      <trkpt lat="49.32041" lon="0.99049">
        <ele>16.26410675049</ele>
        <time>2020-08-30T17:37:15.400Z</time>
      </trkpt>
      <trkpt lat="49.32059" lon="0.99008">
        <ele>22.70703315735</ele>
        <time>2020-08-30T17:37:15.484Z</time>
      </trkpt>
      <trkpt lat="49.32079" lon="0.98966">
        <ele>22.57695198059</ele>
        <time>2020-08-30T17:37:15.579Z</time>
      </trkpt>
      <trkpt lat="49.32088" lon="0.98939">
        <ele>24.22429847717</ele>
        <time>2020-08-30T17:37:15.681Z</time>
      </trkpt>
      <trkpt lat="49.32095" lon="0.98916">
        <ele>21.95667648315</ele>
        <time>2020-08-30T17:37:15.788Z</time>
      </trkpt>
      <trkpt lat="49.32101" lon="0.98861">
        <ele>19.70220947266</ele>
        <time>2020-08-30T17:37:15.907Z</time>
      </trkpt>
      <trkpt lat="49.32106" lon="0.98836">
        <ele>18.98232841492</ele>
        <time>2020-08-30T17:37:16.032Z</time>
      </trkpt>
      <trkpt lat="49.32111" lon="0.98821">
        <ele>18.38242912292</ele>
        <time>2020-08-30T17:37:16.161Z</time>
      </trkpt>
      <trkpt lat="49.32117" lon="0.98806">
        <ele>18.9863948822</ele>
        <time>2020-08-30T17:37:16.294Z</time>
      </trkpt>
      <trkpt lat="49.32118" lon="0.98802">
        <ele>19.1663646698</ele>
        <time>2020-08-30T17:37:16.427Z</time>
      </trkpt>
      <trkpt lat="49.32122" lon="0.98789">
        <ele>19.99422645569</ele>
        <time>2020-08-30T17:37:16.564Z</time>
      </trkpt>
      <trkpt lat="49.32124" lon="0.98777">
        <ele>20.21018981934</ele>
        <time>2020-08-30T17:37:16.703Z</time>
      </trkpt>
      <trkpt lat="49.32124" lon="0.98773">
        <ele>20.06621360779</ele>
        <time>2020-08-30T17:37:16.843Z</time>
      </trkpt>
      <trkpt lat="49.32126" lon="0.98764">
        <ele>20.39015960693</ele>
        <time>2020-08-30T17:37:16.985Z</time>
      </trkpt>
      <trkpt lat="49.32129" lon="0.98752">
        <ele>20.93007087708</ele>
        <time>2020-08-30T17:37:17.130Z</time>
      </trkpt>
      <trkpt lat="49.32131" lon="0.98743">
        <ele>21.25401687622</ele>
        <time>2020-08-30T17:37:17.277Z</time>
      </trkpt>
      <trkpt lat="49.32133" lon="0.98737">
        <ele>21.09135437012</ele>
        <time>2020-08-30T17:37:17.426Z</time>
      </trkpt>
      <trkpt lat="49.32135" lon="0.9873">
        <ele>20.73141479492</ele>
        <time>2020-08-30T17:37:17.576Z</time>
      </trkpt>
      <trkpt lat="49.3214" lon="0.98719">
        <ele>21.37644577026</ele>
        <time>2020-08-30T17:37:17.729Z</time>
      </trkpt>
      <trkpt lat="49.32145" lon="0.98712">
        <ele>22.6602306366</ele>
        <time>2020-08-30T17:37:17.884Z</time>
      </trkpt>
      <trkpt lat="49.32151" lon="0.98703">
        <ele>24.20797348022</ele>
        <time>2020-08-30T17:37:18.042Z</time>
      </trkpt>
      <trkpt lat="49.32155" lon="0.98694">
        <ele>25.27579498291</ele>
        <time>2020-08-30T17:37:18.203Z</time>
      </trkpt>
      <trkpt lat="49.3216" lon="0.98685">
        <ele>26.58357810974</ele>
        <time>2020-08-30T17:37:18.366Z</time>
      </trkpt>
      <trkpt lat="49.32168" lon="0.98677">
        <ele>28.59924125671</ele>
        <time>2020-08-30T17:37:18.532Z</time>
      </trkpt>
      <trkpt lat="49.32175" lon="0.98673">
        <ele>30.32695388794</ele>
        <time>2020-08-30T17:37:18.701Z</time>
      </trkpt>
      <trkpt lat="49.32183" lon="0.98668">
        <ele>32.30662536621</ele>
        <time>2020-08-30T17:37:18.873Z</time>
      </trkpt>
      <trkpt lat="49.32192" lon="0.98666">
        <ele>34.49026107788</ele>
        <time>2020-08-30T17:37:19.048Z</time>
      </trkpt>
      <trkpt lat="49.32198" lon="0.98667">
        <ele>35.94047927856</ele>
        <time>2020-08-30T17:37:19.225Z</time>
      </trkpt>
      <trkpt lat="49.32207" lon="0.98672">
        <ele>38.25609207153</ele>
        <time>2020-08-30T17:37:19.405Z</time>
      </trkpt>
      <trkpt lat="49.32214" lon="0.98677">
        <ele>40.04379653931</ele>
        <time>2020-08-30T17:37:19.588Z</time>
      </trkpt>
      <trkpt lat="49.32215" lon="0.9868">
        <ele>40.2717590332</ele>
        <time>2020-08-30T17:37:19.771Z</time>
      </trkpt>
      <trkpt lat="49.3222" lon="0.98684">
        <ele>41.54354476929</ele>
        <time>2020-08-30T17:37:19.956Z</time>
      </trkpt>
      <trkpt lat="49.32224" lon="0.98688">
        <ele>42.55137634277</ele>
        <time>2020-08-30T17:37:20.143Z</time>
      </trkpt>
      <trkpt lat="49.32226" lon="0.98687">
        <ele>43.09128952026</ele>
        <time>2020-08-30T17:37:20.330Z</time>
      </trkpt>
      <trkpt lat="49.32232" lon="0.98683">
        <ele>44.72301483154</ele>
        <time>2020-08-30T17:37:20.520Z</time>
      </trkpt>
      <trkpt lat="49.32234" lon="0.98681">
        <ele>45.27492523193</ele>
        <time>2020-08-30T17:37:20.710Z</time>
      </trkpt>
      <trkpt lat="49.32234" lon="0.98671">
        <ele>45.30629730225</ele>
        <time>2020-08-30T17:37:20.903Z</time>
      </trkpt>
      <trkpt lat="49.3223" lon="0.9866">
        <ele>44.29846572876</ele>
        <time>2020-08-30T17:37:21.098Z</time>
      </trkpt>
      <trkpt lat="49.32229" lon="0.98658">
        <ele>44.04650497437</ele>
        <time>2020-08-30T17:37:21.294Z</time>
      </trkpt>
      <trkpt lat="49.32217" lon="0.98643">
        <ele>41.02301025391</ele>
        <time>2020-08-30T17:37:21.495Z</time>
      </trkpt>
      <trkpt lat="49.3221" lon="0.98634">
        <ele>40.24244689941</ele>
        <time>2020-08-30T17:37:21.699Z</time>
      </trkpt>
      <trkpt lat="49.32201" lon="0.98623">
        <ele>39.42658233643</ele>
        <time>2020-08-30T17:37:21.907Z</time>
      </trkpt>
      <trkpt lat="49.32193" lon="0.98615">
        <ele>38.75930786133</ele>
        <time>2020-08-30T17:37:22.118Z</time>
      </trkpt>
      <trkpt lat="49.32184" lon="0.98608">
        <ele>38.06342315674</ele>
        <time>2020-08-30T17:37:22.333Z</time>
      </trkpt>
      <trkpt lat="49.32178" lon="0.98604">
        <ele>37.51151657104</ele>
        <time>2020-08-30T17:37:22.550Z</time>
      </trkpt>
      <trkpt lat="49.32171" lon="0.9859">
        <ele>38.09941864014</ele>
        <time>2020-08-30T17:37:22.771Z</time>
      </trkpt>
      <trkpt lat="49.32171" lon="0.98568">
        <ele>41.0029335022</ele>
        <time>2020-08-30T17:37:22.996Z</time>
      </trkpt>
      <trkpt lat="49.32174" lon="0.98561">
        <ele>42.46669006348</ele>
        <time>2020-08-30T17:37:23.223Z</time>
      </trkpt>
      <trkpt lat="49.32178" lon="0.98552">
        <ele>44.74043655396</ele>
        <time>2020-08-30T17:37:23.453Z</time>
      </trkpt>
      <trkpt lat="49.32179" lon="0.9855">
        <ele>45.30434036255</ele>
        <time>2020-08-30T17:37:23.683Z</time>
      </trkpt>
      <trkpt lat="49.3218" lon="0.9855">
        <ele>45.48431015015</ele>
        <time>2020-08-30T17:37:23.913Z</time>
      </trkpt>
      <trkpt lat="49.32181" lon="0.9855">
        <ele>45.66427993774</ele>
        <time>2020-08-30T17:37:24.144Z</time>
      </trkpt>
      <trkpt lat="49.32181" lon="0.98549">
        <ele>45.85625076294</ele>
        <time>2020-08-30T17:37:24.375Z</time>
      </trkpt>
      <trkpt lat="49.32186" lon="0.98546">
        <ele>47.21992111206</ele>
        <time>2020-08-30T17:37:24.608Z</time>
      </trkpt>
      <trkpt lat="49.32187" lon="0.98544">
        <ele>47.45988082886</ele>
        <time>2020-08-30T17:37:24.841Z</time>
      </trkpt>
      <trkpt lat="49.32186" lon="0.98546">
        <ele>47.21992111206</ele>
        <time>2020-08-30T17:37:25.075Z</time>
      </trkpt>
      <trkpt lat="49.32188" lon="0.98544">
        <ele>47.53186798096</ele>
        <time>2020-08-30T17:37:25.310Z</time>
      </trkpt>
      <trkpt lat="49.32191" lon="0.98539">
        <ele>48.16776275635</ele>
        <time>2020-08-30T17:37:25.546Z</time>
      </trkpt>
      <trkpt lat="49.32192" lon="0.98537">
        <ele>48.40772247314</ele>
        <time>2020-08-30T17:37:25.783Z</time>
      </trkpt>
      <trkpt lat="49.32198" lon="0.98528">
        <ele>49.68535614014</ele>
        <time>2020-08-30T17:37:26.023Z</time>
      </trkpt>
      <trkpt lat="49.32209" lon="0.98501">
        <ele>53.80067062378</ele>
        <time>2020-08-30T17:37:26.269Z</time>
      </trkpt>
      <trkpt lat="49.3222" lon="0.98481">
        <ele>55.52578353882</ele>
        <time>2020-08-30T17:37:26.521Z</time>
      </trkpt>
      <trkpt lat="49.32231" lon="0.98456">
        <ele>55.81079483032</ele>
        <time>2020-08-30T17:37:26.780Z</time>
      </trkpt>
      <trkpt lat="49.32233" lon="0.98454">
        <ele>55.90678024292</ele>
        <time>2020-08-30T17:37:27.040Z</time>
      </trkpt>
      <trkpt lat="49.32236" lon="0.9845">
        <ele>56.03875732422</ele>
        <time>2020-08-30T17:37:27.301Z</time>
      </trkpt>
      <trkpt lat="49.32246" lon="0.98431">
        <ele>56.29859161377</ele>
        <time>2020-08-30T17:37:27.567Z</time>
      </trkpt>
      <trkpt lat="49.32263" lon="0.98398">
        <ele>56.32258605957</ele>
        <time>2020-08-30T17:37:27.842Z</time>
      </trkpt>
      <trkpt lat="49.32265" lon="0.98401">
        <ele>56.49055862427</ele>
        <time>2020-08-30T17:37:28.118Z</time>
      </trkpt>
      <trkpt lat="49.32271" lon="0.98409">
        <ele>56.97047805786</ele>
        <time>2020-08-30T17:37:28.397Z</time>
      </trkpt>
      <trkpt lat="49.32279" lon="0.98416">
        <ele>57.52238845825</ele>
        <time>2020-08-30T17:37:28.679Z</time>
      </trkpt>
      <trkpt lat="49.32284" lon="0.9842">
        <ele>58.11667251587</ele>
        <time>2020-08-30T17:37:28.963Z</time>
      </trkpt>
      <trkpt lat="49.32293" lon="0.98432">
        <ele>59.48444366455</ele>
        <time>2020-08-30T17:37:29.251Z</time>
      </trkpt>
      <trkpt lat="49.32298" lon="0.98438">
        <ele>60.22832107544</ele>
        <time>2020-08-30T17:37:29.541Z</time>
      </trkpt>
      <trkpt lat="49.32299" lon="0.98441">
        <ele>60.42028808594</ele>
        <time>2020-08-30T17:37:29.832Z</time>
      </trkpt>
      <trkpt lat="49.32302" lon="0.98445">
        <ele>60.87621307373</ele>
        <time>2020-08-30T17:37:30.124Z</time>
      </trkpt>
      <trkpt lat="49.32306" lon="0.98452">
        <ele>61.52410507202</ele>
        <time>2020-08-30T17:37:30.418Z</time>
      </trkpt>
      <trkpt lat="49.32312" lon="0.98458">
        <ele>62.38796234131</ele>
        <time>2020-08-30T17:37:30.714Z</time>
      </trkpt>
      <trkpt lat="49.32318" lon="0.98466">
        <ele>63.2998085022</ele>
        <time>2020-08-30T17:37:31.013Z</time>
      </trkpt>
      <trkpt lat="49.3233" lon="0.98484">
        <ele>65.17149353027</ele>
        <time>2020-08-30T17:37:31.318Z</time>
      </trkpt>
      <trkpt lat="49.32337" lon="0.98501">
        <ele>66.41928863525</ele>
        <time>2020-08-30T17:37:31.627Z</time>
      </trkpt>
      <trkpt lat="49.32344" lon="0.98514">
        <ele>67.57109832764</ele>
        <time>2020-08-30T17:37:31.940Z</time>
      </trkpt>
      <trkpt lat="49.32344" lon="0.98517">
        <ele>67.64308166504</ele>
        <time>2020-08-30T17:37:32.253Z</time>
      </trkpt>
      <trkpt lat="49.32348" lon="0.98523">
        <ele>68.26698303223</ele>
        <time>2020-08-30T17:37:32.568Z</time>
      </trkpt>
      <trkpt lat="49.32349" lon="0.98524">
        <ele>68.41095733643</ele>
        <time>2020-08-30T17:37:32.884Z</time>
      </trkpt>
      <trkpt lat="49.3235" lon="0.98529">
        <ele>68.65091705322</ele>
        <time>2020-08-30T17:37:33.201Z</time>
      </trkpt>
      <trkpt lat="49.32353" lon="0.98538">
        <ele>69.22682189941</ele>
        <time>2020-08-30T17:37:33.520Z</time>
      </trkpt>
      <trkpt lat="49.32353" lon="0.98541">
        <ele>69.29881286621</ele>
        <time>2020-08-30T17:37:33.840Z</time>
      </trkpt>
      <trkpt lat="49.32355" lon="0.98548">
        <ele>69.70674133301</ele>
        <time>2020-08-30T17:37:34.161Z</time>
      </trkpt>
      <trkpt lat="49.32357" lon="0.98551">
        <ele>70.0186920166</ele>
        <time>2020-08-30T17:37:34.483Z</time>
      </trkpt>
      <trkpt lat="49.32359" lon="0.98558">
        <ele>70.4266204834</ele>
        <time>2020-08-30T17:37:34.807Z</time>
      </trkpt>
      <trkpt lat="49.32362" lon="0.98566">
        <ele>71.26280975342</ele>
        <time>2020-08-30T17:37:35.133Z</time>
      </trkpt>
      <trkpt lat="49.32364" lon="0.98572">
        <ele>71.87139892578</ele>
        <time>2020-08-30T17:37:35.460Z</time>
      </trkpt>
      <trkpt lat="49.32365" lon="0.98578">
        <ele>72.38731384277</ele>
        <time>2020-08-30T17:37:35.789Z</time>
      </trkpt>
      <trkpt lat="49.32365" lon="0.98583">
        <ele>72.68726348877</ele>
        <time>2020-08-30T17:37:36.119Z</time>
      </trkpt>
      <trkpt lat="49.32366" lon="0.98587">
        <ele>73.08319854736</ele>
        <time>2020-08-30T17:37:36.450Z</time>
      </trkpt>
      <trkpt lat="49.32371" lon="0.98593">
        <ele>74.22300720215</ele>
        <time>2020-08-30T17:37:36.783Z</time>
      </trkpt>
      <trkpt lat="49.32376" lon="0.98599">
        <ele>75.36281585693</ele>
        <time>2020-08-30T17:37:37.118Z</time>
      </trkpt>
      <trkpt lat="49.32377" lon="0.98602">
        <ele>75.69876098633</ele>
        <time>2020-08-30T17:37:37.454Z</time>
      </trkpt>
      <trkpt lat="49.32379" lon="0.9861">
        <ele>76.49063110352</ele>
        <time>2020-08-30T17:37:37.792Z</time>
      </trkpt>
      <trkpt lat="49.32379" lon="0.98613">
        <ele>76.67060089111</ele>
        <time>2020-08-30T17:37:38.130Z</time>
      </trkpt>
      <trkpt lat="49.32378" lon="0.98616">
        <ele>76.69459533691</ele>
        <time>2020-08-30T17:37:38.469Z</time>
      </trkpt>
      <trkpt lat="49.32381" lon="0.98623">
        <ele>77.5824432373</ele>
        <time>2020-08-30T17:37:38.810Z</time>
      </trkpt>
      <trkpt lat="49.32387" lon="0.98627">
        <ele>78.75824737549</ele>
        <time>2020-08-30T17:37:39.153Z</time>
      </trkpt>
      <trkpt lat="49.32393" lon="0.98626">
        <ele>79.63410186768</ele>
        <time>2020-08-30T17:37:39.498Z</time>
      </trkpt>
      <trkpt lat="49.32394" lon="0.98625">
        <ele>79.73008728027</ele>
        <time>2020-08-30T17:37:39.843Z</time>
      </trkpt>
      <trkpt lat="49.32401" lon="0.98621">
        <ele>80.58194732666</ele>
        <time>2020-08-30T17:37:40.191Z</time>
      </trkpt>
      <trkpt lat="49.32404" lon="0.98619">
        <ele>80.92988586426</ele>
        <time>2020-08-30T17:37:40.540Z</time>
      </trkpt>
      <trkpt lat="49.32413" lon="0.98602">
        <ele>81.18560028076</ele>
        <time>2020-08-30T17:37:40.894Z</time>
      </trkpt>
      <trkpt lat="49.32416" lon="0.9859">
        <ele>80.57370758057</ele>
        <time>2020-08-30T17:37:41.251Z</time>
      </trkpt>
      <trkpt lat="49.32418" lon="0.98589">
        <ele>80.75367736816</ele>
        <time>2020-08-30T17:37:41.608Z</time>
      </trkpt>
      <trkpt lat="49.3243" lon="0.98546">
        <ele>79.4520111084</ele>
        <time>2020-08-30T17:37:41.976Z</time>
      </trkpt>
      <trkpt lat="49.3243" lon="0.98538">
        <ele>79.22409820557</ele>
        <time>2020-08-30T17:37:42.345Z</time>
      </trkpt>
      <trkpt lat="49.3243" lon="0.98528">
        <ele>78.86415863037</ele>
        <time>2020-08-30T17:37:42.716Z</time>
      </trkpt>
      <trkpt lat="49.32431" lon="0.98511">
        <ele>78.37223815918</ele>
        <time>2020-08-30T17:37:43.091Z</time>
      </trkpt>
      <trkpt lat="49.32435" lon="0.98487">
        <ele>77.98830413818</ele>
        <time>2020-08-30T17:37:43.472Z</time>
      </trkpt>
      <trkpt lat="49.32435" lon="0.98478">
        <ele>77.66436004639</ele>
        <time>2020-08-30T17:37:43.855Z</time>
      </trkpt>
      <trkpt lat="49.32438" lon="0.98457">
        <ele>77.15917205811</ele>
        <time>2020-08-30T17:37:44.242Z</time>
      </trkpt>
      <trkpt lat="49.32444" lon="0.9844">
        <ele>77.3391418457</ele>
        <time>2020-08-30T17:37:44.633Z</time>
      </trkpt>
      <trkpt lat="49.32453" lon="0.98431">
        <ele>78.34443664551</ele>
        <time>2020-08-30T17:37:45.028Z</time>
      </trkpt>
      <trkpt lat="49.32454" lon="0.9843">
        <ele>78.46441650391</ele>
        <time>2020-08-30T17:37:45.423Z</time>
      </trkpt>
      <trkpt lat="49.32457" lon="0.98427">
        <ele>78.8243560791</ele>
        <time>2020-08-30T17:37:45.820Z</time>
      </trkpt>
      <trkpt lat="49.32457" lon="0.98423">
        <ele>78.6803817749</ele>
        <time>2020-08-30T17:37:46.218Z</time>
      </trkpt>
      <trkpt lat="49.32472" lon="0.98392">
        <ele>78.73788452148</ele>
        <time>2020-08-30T17:37:46.624Z</time>
      </trkpt>
      <trkpt lat="49.32475" lon="0.98383">
        <ele>77.80158233643</ele>
        <time>2020-08-30T17:37:47.032Z</time>
      </trkpt>
      <trkpt lat="49.32478" lon="0.98382">
        <ele>77.98155212402</ele>
        <time>2020-08-30T17:37:47.441Z</time>
      </trkpt>
      <trkpt lat="49.32489" lon="0.98386">
        <ele>79.7452545166</ele>
        <time>2020-08-30T17:37:47.854Z</time>
      </trkpt>
      <trkpt lat="49.32495" lon="0.98392">
        <ele>81.22146606445</ele>
        <time>2020-08-30T17:37:48.269Z</time>
      </trkpt>
      <trkpt lat="49.32494" lon="0.9839">
        <ele>80.86106872559</ele>
        <time>2020-08-30T17:37:48.685Z</time>
      </trkpt>
      <trkpt lat="49.32491" lon="0.98376">
        <ele>78.52146148682</ele>
        <time>2020-08-30T17:37:49.104Z</time>
      </trkpt>
      <trkpt lat="49.32491" lon="0.98378">
        <ele>78.80941009521</ele>
        <time>2020-08-30T17:37:49.524Z</time>
      </trkpt>
      <trkpt lat="49.32502" lon="0.98382">
        <ele>80.57312011719</ele>
        <time>2020-08-30T17:37:49.947Z</time>
      </trkpt>
      <trkpt lat="49.32488" lon="0.9837">
        <ele>77.33365631104</ele>
        <time>2020-08-30T17:37:50.376Z</time>
      </trkpt>
      <trkpt lat="49.3248" lon="0.98363">
        <ele>75.46196746826</ele>
        <time>2020-08-30T17:37:50.808Z</time>
      </trkpt>
      <trkpt lat="49.32479" lon="0.98366">
        <ele>75.78591918945</ele>
        <time>2020-08-30T17:37:51.240Z</time>
      </trkpt>
      <trkpt lat="49.32485" lon="0.98365">
        <ele>76.28983306885</ele>
        <time>2020-08-30T17:37:51.674Z</time>
      </trkpt>
      <trkpt lat="49.32488" lon="0.98368">
        <ele>77.04570770264</ele>
        <time>2020-08-30T17:37:52.110Z</time>
      </trkpt>
      <trkpt lat="49.32489" lon="0.98368">
        <ele>77.15368652344</ele>
        <time>2020-08-30T17:37:52.546Z</time>
      </trkpt>
      <trkpt lat="49.32493" lon="0.98371">
        <ele>78.01754760742</ele>
        <time>2020-08-30T17:37:52.983Z</time>
      </trkpt>
      <trkpt lat="49.32494" lon="0.98372">
        <ele>78.26950073242</ele>
        <time>2020-08-30T17:37:53.421Z</time>
      </trkpt>
      <trkpt lat="49.32496" lon="0.98375">
        <ele>78.91739654541</ele>
        <time>2020-08-30T17:37:53.860Z</time>
      </trkpt>
      <trkpt lat="49.325" lon="0.9838">
        <ele>80.06920623779</ele>
        <time>2020-08-30T17:37:54.301Z</time>
      </trkpt>
      <trkpt lat="49.32497" lon="0.98376">
        <ele>79.16934967041</ele>
        <time>2020-08-30T17:37:54.743Z</time>
      </trkpt>
      <trkpt lat="49.325" lon="0.98368">
        <ele>78.34149169922</ele>
        <time>2020-08-30T17:37:55.187Z</time>
      </trkpt>
      <trkpt lat="49.32498" lon="0.98362">
        <ele>77.26167297363</ele>
        <time>2020-08-30T17:37:55.632Z</time>
      </trkpt>
      <trkpt lat="49.32497" lon="0.98359">
        <ele>76.72176361084</ele>
        <time>2020-08-30T17:37:56.078Z</time>
      </trkpt>
      <trkpt lat="49.32501" lon="0.98373">
        <ele>79.16934967041</ele>
        <time>2020-08-30T17:37:56.527Z</time>
      </trkpt>
      <trkpt lat="49.32503" lon="0.98375">
        <ele>79.6732711792</ele>
        <time>2020-08-30T17:37:56.977Z</time>
      </trkpt>
      <trkpt lat="49.3251" lon="0.98378">
        <ele>80.86106872559</ele>
        <time>2020-08-30T17:37:57.430Z</time>
      </trkpt>
      <trkpt lat="49.32508" lon="0.98378">
        <ele>80.64510345459</ele>
        <time>2020-08-30T17:37:57.883Z</time>
      </trkpt>
      <trkpt lat="49.3251" lon="0.98378">
        <ele>80.86106872559</ele>
        <time>2020-08-30T17:37:58.337Z</time>
      </trkpt>
      <trkpt lat="49.32505" lon="0.98391">
        <ele>82.19284820557</ele>
        <time>2020-08-30T17:37:58.794Z</time>
      </trkpt>
      <trkpt lat="49.32504" lon="0.98389">
        <ele>81.79691314697</ele>
        <time>2020-08-30T17:37:59.252Z</time>
      </trkpt>
      <trkpt lat="49.32503" lon="0.98388">
        <ele>81.54496002197</ele>
        <time>2020-08-30T17:37:59.710Z</time>
      </trkpt>
      <trkpt lat="49.32494" lon="0.98367">
        <ele>77.54962158203</ele>
        <time>2020-08-30T17:38:00.174Z</time>
      </trkpt>
      <trkpt lat="49.32493" lon="0.98365">
        <ele>77.15368652344</ele>
        <time>2020-08-30T17:38:00.638Z</time>
      </trkpt>
      <trkpt lat="49.32492" lon="0.98371">
        <ele>77.90956115723</ele>
        <time>2020-08-30T17:38:01.104Z</time>
      </trkpt>
      <trkpt lat="49.32492" lon="0.98372">
        <ele>78.05353546143</ele>
        <time>2020-08-30T17:38:01.570Z</time>
      </trkpt>
      <trkpt lat="49.3249" lon="0.98373">
        <ele>77.98155212402</ele>
        <time>2020-08-30T17:38:02.036Z</time>
      </trkpt>
      <trkpt lat="49.3249" lon="0.98369">
        <ele>77.40564727783</ele>
        <time>2020-08-30T17:38:02.503Z</time>
      </trkpt>
      <trkpt lat="49.32492" lon="0.98367">
        <ele>77.33365631104</ele>
        <time>2020-08-30T17:38:02.971Z</time>
      </trkpt>
      <trkpt lat="49.3249" lon="0.98365">
        <ele>76.82974243164</ele>
        <time>2020-08-30T17:38:03.440Z</time>
      </trkpt>
      <trkpt lat="49.32492" lon="0.98372">
        <ele>78.05353546143</ele>
        <time>2020-08-30T17:38:03.911Z</time>
      </trkpt>
      <trkpt lat="49.32494" lon="0.98376">
        <ele>78.84540557861</ele>
        <time>2020-08-30T17:38:04.383Z</time>
      </trkpt>
      <trkpt lat="49.32497" lon="0.98368">
        <ele>78.01754760742</ele>
        <time>2020-08-30T17:38:04.857Z</time>
      </trkpt>
      <trkpt lat="49.325" lon="0.98365">
        <ele>77.90956115723</ele>
        <time>2020-08-30T17:38:05.332Z</time>
      </trkpt>
      <trkpt lat="49.325" lon="0.98364">
        <ele>77.76558685303</ele>
        <time>2020-08-30T17:38:05.807Z</time>
      </trkpt>
      <trkpt lat="49.32499" lon="0.98361">
        <ele>77.22567749023</ele>
        <time>2020-08-30T17:38:06.283Z</time>
      </trkpt>
      <trkpt lat="49.32496" lon="0.98364">
        <ele>77.33365631104</ele>
        <time>2020-08-30T17:38:06.760Z</time>
      </trkpt>
      <trkpt lat="49.32492" lon="0.98382">
        <ele>79.4933013916</ele>
        <time>2020-08-30T17:38:07.241Z</time>
      </trkpt>
      <trkpt lat="49.32499" lon="0.9839">
        <ele>81.40097808838</ele>
        <time>2020-08-30T17:38:07.725Z</time>
      </trkpt>
      <trkpt lat="49.32515" lon="0.98397">
        <ele>83.80104064941</ele>
        <time>2020-08-30T17:38:08.215Z</time>
      </trkpt>
      <trkpt lat="49.32512" lon="0.98382">
        <ele>81.65293884277</ele>
        <time>2020-08-30T17:38:08.708Z</time>
      </trkpt>
      <trkpt lat="49.32511" lon="0.98379">
        <ele>81.11302947998</ele>
        <time>2020-08-30T17:38:09.202Z</time>
      </trkpt>
      <trkpt lat="49.32509" lon="0.98373">
        <ele>80.03321075439</ele>
        <time>2020-08-30T17:38:09.697Z</time>
      </trkpt>
      <trkpt lat="49.32508" lon="0.98374">
        <ele>80.06920623779</ele>
        <time>2020-08-30T17:38:10.193Z</time>
      </trkpt>
      <trkpt lat="49.3251" lon="0.98381">
        <ele>81.29299926758</ele>
        <time>2020-08-30T17:38:10.690Z</time>
      </trkpt>
      <trkpt lat="49.32505" lon="0.98377">
        <ele>80.17718505859</ele>
        <time>2020-08-30T17:38:11.189Z</time>
      </trkpt>
      <trkpt lat="49.32505" lon="0.98378">
        <ele>80.32115936279</ele>
        <time>2020-08-30T17:38:11.688Z</time>
      </trkpt>
      <trkpt lat="49.32508" lon="0.98383">
        <ele>81.36499023438</ele>
        <time>2020-08-30T17:38:12.189Z</time>
      </trkpt>
      <trkpt lat="49.32511" lon="0.98385">
        <ele>81.97688293457</ele>
        <time>2020-08-30T17:38:12.691Z</time>
      </trkpt>
      <trkpt lat="49.32516" lon="0.98392">
        <ele>83.48908996582</ele>
        <time>2020-08-30T17:38:13.195Z</time>
      </trkpt>
      <trkpt lat="49.32514" lon="0.98388">
        <ele>82.73275756836</ele>
        <time>2020-08-30T17:38:13.700Z</time>
      </trkpt>
      <trkpt lat="49.32506" lon="0.98379">
        <ele>80.57312011719</ele>
        <time>2020-08-30T17:38:14.209Z</time>
      </trkpt>
      <trkpt lat="49.32503" lon="0.98378">
        <ele>80.1051940918</ele>
        <time>2020-08-30T17:38:14.719Z</time>
      </trkpt>
      <trkpt lat="49.32497" lon="0.9838">
        <ele>79.7452545166</ele>
        <time>2020-08-30T17:38:15.231Z</time>
      </trkpt>
      <trkpt lat="49.32498" lon="0.98382">
        <ele>80.1411895752</ele>
        <time>2020-08-30T17:38:15.743Z</time>
      </trkpt>
      <trkpt lat="49.32493" lon="0.98363">
        <ele>76.86573791504</ele>
        <time>2020-08-30T17:38:16.260Z</time>
      </trkpt>
      <trkpt lat="49.32492" lon="0.98371">
        <ele>77.90956115723</ele>
        <time>2020-08-30T17:38:16.779Z</time>
      </trkpt>
      <trkpt lat="49.32496" lon="0.98374">
        <ele>78.77341461182</ele>
        <time>2020-08-30T17:38:17.299Z</time>
      </trkpt>
      <trkpt lat="49.32496" lon="0.98375">
        <ele>78.91739654541</ele>
        <time>2020-08-30T17:38:17.819Z</time>
      </trkpt>
      <trkpt lat="49.32496" lon="0.98374">
        <ele>78.77341461182</ele>
        <time>2020-08-30T17:38:18.340Z</time>
      </trkpt>
      <trkpt lat="49.32491" lon="0.98382">
        <ele>79.38531494141</ele>
        <time>2020-08-30T17:38:18.863Z</time>
      </trkpt>
      <trkpt lat="49.3249" lon="0.98381">
        <ele>79.13336181641</ele>
        <time>2020-08-30T17:38:19.386Z</time>
      </trkpt>
      <trkpt lat="49.32496" lon="0.98375">
        <ele>78.91739654541</ele>
        <time>2020-08-30T17:38:19.912Z</time>
      </trkpt>
      <trkpt lat="49.32497" lon="0.98375">
        <ele>79.02537536621</ele>
        <time>2020-08-30T17:38:20.438Z</time>
      </trkpt>
      <trkpt lat="49.32504" lon="0.98379">
        <ele>80.35715484619</ele>
        <time>2020-08-30T17:38:20.967Z</time>
      </trkpt>
      <trkpt lat="49.32495" lon="0.98368">
        <ele>77.80158233643</ele>
        <time>2020-08-30T17:38:21.499Z</time>
      </trkpt>
      <trkpt lat="49.32511" lon="0.98388">
        <ele>82.40881347656</ele>
        <time>2020-08-30T17:38:22.038Z</time>
      </trkpt>
      <trkpt lat="49.32515" lon="0.98394">
        <ele>83.54907989502</ele>
        <time>2020-08-30T17:38:22.579Z</time>
      </trkpt>
      <trkpt lat="49.32516" lon="0.98394">
        <ele>83.65705871582</ele>
        <time>2020-08-30T17:38:23.120Z</time>
      </trkpt>
      <trkpt lat="49.32513" lon="0.98398">
        <ele>83.66905975342</ele>
        <time>2020-08-30T17:38:23.663Z</time>
      </trkpt>
      <trkpt lat="49.32507" lon="0.98399">
        <ele>83.10515594482</ele>
        <time>2020-08-30T17:38:24.208Z</time>
      </trkpt>
      <trkpt lat="49.32505" lon="0.98397">
        <ele>82.72121429443</ele>
        <time>2020-08-30T17:38:24.754Z</time>
      </trkpt>
      <trkpt lat="49.32502" lon="0.98391">
        <ele>81.86890411377</ele>
        <time>2020-08-30T17:38:25.301Z</time>
      </trkpt>
      <trkpt lat="49.32494" lon="0.98376">
        <ele>78.84540557861</ele>
        <time>2020-08-30T17:38:25.853Z</time>
      </trkpt>
      <trkpt lat="49.32495" lon="0.98376">
        <ele>78.95339202881</ele>
        <time>2020-08-30T17:38:26.405Z</time>
      </trkpt>
      <trkpt lat="49.32501" lon="0.98379">
        <ele>80.03321075439</ele>
        <time>2020-08-30T17:38:26.959Z</time>
      </trkpt>
      <trkpt lat="49.32503" lon="0.98387">
        <ele>81.40097808838</ele>
        <time>2020-08-30T17:38:27.515Z</time>
      </trkpt>
      <trkpt lat="49.32504" lon="0.98388">
        <ele>81.65293884277</ele>
        <time>2020-08-30T17:38:28.071Z</time>
      </trkpt>
      <trkpt lat="49.32505" lon="0.98387">
        <ele>81.61694335938</ele>
        <time>2020-08-30T17:38:28.628Z</time>
      </trkpt>
      <trkpt lat="49.32506" lon="0.98386">
        <ele>81.58094787598</ele>
        <time>2020-08-30T17:38:29.185Z</time>
      </trkpt>
      <trkpt lat="49.32506" lon="0.98387">
        <ele>81.72492980957</ele>
        <time>2020-08-30T17:38:29.742Z</time>
      </trkpt>
      <trkpt lat="49.32505" lon="0.98385">
        <ele>81.32899475098</ele>
        <time>2020-08-30T17:38:30.300Z</time>
      </trkpt>
      <trkpt lat="49.32504" lon="0.98386">
        <ele>81.36499023438</ele>
        <time>2020-08-30T17:38:30.858Z</time>
      </trkpt>
      <trkpt lat="49.32503" lon="0.98385">
        <ele>81.11302947998</ele>
        <time>2020-08-30T17:38:31.417Z</time>
      </trkpt>
      <trkpt lat="49.32502" lon="0.98387">
        <ele>81.29299926758</ele>
        <time>2020-08-30T17:38:31.976Z</time>
      </trkpt>
      <trkpt lat="49.32504" lon="0.98387">
        <ele>81.50896453857</ele>
        <time>2020-08-30T17:38:32.536Z</time>
      </trkpt>
      <trkpt lat="49.32504" lon="0.98388">
        <ele>81.65293884277</ele>
        <time>2020-08-30T17:38:33.096Z</time>
      </trkpt>
      <trkpt lat="49.32506" lon="0.98388">
        <ele>81.86890411377</ele>
        <time>2020-08-30T17:38:33.657Z</time>
      </trkpt>
      <trkpt lat="49.32504" lon="0.98387">
        <ele>81.50896453857</ele>
        <time>2020-08-30T17:38:34.218Z</time>
      </trkpt>
      <trkpt lat="49.32494" lon="0.98367">
        <ele>77.54962158203</ele>
        <time>2020-08-30T17:38:34.785Z</time>
      </trkpt>
      <trkpt lat="49.32491" lon="0.98364">
        <ele>76.79374694824</ele>
        <time>2020-08-30T17:38:35.353Z</time>
      </trkpt>
      <trkpt lat="49.32491" lon="0.98363">
        <ele>76.64977264404</ele>
        <time>2020-08-30T17:38:35.921Z</time>
      </trkpt>
      <trkpt lat="49.3249" lon="0.98364">
        <ele>76.68576812744</ele>
        <time>2020-08-30T17:38:36.490Z</time>
      </trkpt>
      <trkpt lat="49.32492" lon="0.9837">
        <ele>77.76558685303</ele>
        <time>2020-08-30T17:38:37.060Z</time>
      </trkpt>
      <trkpt lat="49.32493" lon="0.98375">
        <ele>78.59344482422</ele>
        <time>2020-08-30T17:38:37.631Z</time>
      </trkpt>
      <trkpt lat="49.325" lon="0.98378">
        <ele>79.78125</ele>
        <time>2020-08-30T17:38:38.205Z</time>
      </trkpt>
      <trkpt lat="49.32497" lon="0.9837">
        <ele>78.30549621582</ele>
        <time>2020-08-30T17:38:38.781Z</time>
      </trkpt>
      <trkpt lat="49.32505" lon="0.9838">
        <ele>80.60911560059</ele>
        <time>2020-08-30T17:38:39.360Z</time>
      </trkpt>
      <trkpt lat="49.3251" lon="0.98384">
        <ele>81.72492980957</ele>
        <time>2020-08-30T17:38:39.941Z</time>
      </trkpt>
      <trkpt lat="49.32512" lon="0.98387">
        <ele>82.37281799316</ele>
        <time>2020-08-30T17:38:40.523Z</time>
      </trkpt>
      <trkpt lat="49.32515" lon="0.98385">
        <ele>82.40881347656</ele>
        <time>2020-08-30T17:38:41.106Z</time>
      </trkpt>
      <trkpt lat="49.32515" lon="0.98387">
        <ele>82.69676208496</ele>
        <time>2020-08-30T17:38:41.690Z</time>
      </trkpt>
      <trkpt lat="49.32515" lon="0.98388">
        <ele>82.84074401855</ele>
        <time>2020-08-30T17:38:42.274Z</time>
      </trkpt>
      <trkpt lat="49.32516" lon="0.98389">
        <ele>83.09269714355</ele>
        <time>2020-08-30T17:38:42.858Z</time>
      </trkpt>
      <trkpt lat="49.32517" lon="0.98391">
        <ele>83.48863220215</ele>
        <time>2020-08-30T17:38:43.443Z</time>
      </trkpt>
      <trkpt lat="49.32518" lon="0.98391">
        <ele>83.59661102295</ele>
        <time>2020-08-30T17:38:44.028Z</time>
      </trkpt>
      <trkpt lat="49.32513" lon="0.9839">
        <ele>82.91272735596</ele>
        <time>2020-08-30T17:38:44.615Z</time>
      </trkpt>
      <trkpt lat="49.32509" lon="0.98389">
        <ele>82.33682250977</ele>
        <time>2020-08-30T17:38:45.203Z</time>
      </trkpt>
      <trkpt lat="49.32509" lon="0.98387">
        <ele>82.04887390137</ele>
        <time>2020-08-30T17:38:45.791Z</time>
      </trkpt>
      <trkpt lat="49.32508" lon="0.98383">
        <ele>81.36499023438</ele>
        <time>2020-08-30T17:38:46.380Z</time>
      </trkpt>
      <trkpt lat="49.32509" lon="0.98384">
        <ele>81.61694335938</ele>
        <time>2020-08-30T17:38:46.970Z</time>
      </trkpt>
      <trkpt lat="49.32509" lon="0.98383">
        <ele>81.47296905518</ele>
        <time>2020-08-30T17:38:47.560Z</time>
      </trkpt>
      <trkpt lat="49.32508" lon="0.98389">
        <ele>82.22884368896</ele>
        <time>2020-08-30T17:38:48.151Z</time>
      </trkpt>
      <trkpt lat="49.32509" lon="0.98384">
        <ele>81.61694335938</ele>
        <time>2020-08-30T17:38:48.744Z</time>
      </trkpt>
      <trkpt lat="49.32508" lon="0.98384">
        <ele>81.50896453857</ele>
        <time>2020-08-30T17:38:49.337Z</time>
      </trkpt>
      <trkpt lat="49.32506" lon="0.98384">
        <ele>81.29299926758</ele>
        <time>2020-08-30T17:38:49.931Z</time>
      </trkpt>
      <trkpt lat="49.32503" lon="0.98384">
        <ele>80.96905517578</ele>
        <time>2020-08-30T17:38:50.526Z</time>
      </trkpt>
      <trkpt lat="49.32502" lon="0.98385">
        <ele>81.00504302979</ele>
        <time>2020-08-30T17:38:51.121Z</time>
      </trkpt>
      <trkpt lat="49.32503" lon="0.98382">
        <ele>80.68109893799</ele>
        <time>2020-08-30T17:38:51.717Z</time>
      </trkpt>
      <trkpt lat="49.32499" lon="0.98377">
        <ele>79.52928924561</ele>
        <time>2020-08-30T17:38:52.314Z</time>
      </trkpt>
      <trkpt lat="49.32501" lon="0.98377">
        <ele>79.7452545166</ele>
        <time>2020-08-30T17:38:52.912Z</time>
      </trkpt>
      <trkpt lat="49.32502" lon="0.98389">
        <ele>81.58094787598</ele>
        <time>2020-08-30T17:38:53.513Z</time>
      </trkpt>
      <trkpt lat="49.32498" lon="0.98389">
        <ele>81.14902496338</ele>
        <time>2020-08-30T17:38:54.115Z</time>
      </trkpt>
      <trkpt lat="49.32502" lon="0.98386">
        <ele>81.14902496338</ele>
        <time>2020-08-30T17:38:54.719Z</time>
      </trkpt>
      <trkpt lat="49.32506" lon="0.98385">
        <ele>81.43697357178</ele>
        <time>2020-08-30T17:38:55.324Z</time>
      </trkpt>
      <trkpt lat="49.32508" lon="0.98384">
        <ele>81.50896453857</ele>
        <time>2020-08-30T17:38:55.930Z</time>
      </trkpt>
      <trkpt lat="49.3251" lon="0.98382">
        <ele>81.43697357178</ele>
        <time>2020-08-30T17:38:56.536Z</time>
      </trkpt>
      <trkpt lat="49.32515" lon="0.98377">
        <ele>81.25700378418</ele>
        <time>2020-08-30T17:38:57.144Z</time>
      </trkpt>
      <trkpt lat="49.32522" lon="0.98375">
        <ele>80.96141052246</ele>
        <time>2020-08-30T17:38:57.755Z</time>
      </trkpt>
      <trkpt lat="49.3253" lon="0.98378">
        <ele>81.77727508545</ele>
        <time>2020-08-30T17:38:58.368Z</time>
      </trkpt>
      <trkpt lat="49.32532" lon="0.98378">
        <ele>81.93119812012</ele>
        <time>2020-08-30T17:38:58.982Z</time>
      </trkpt>
      <trkpt lat="49.32541" lon="0.98378">
        <ele>82.79505157471</ele>
        <time>2020-08-30T17:38:59.599Z</time>
      </trkpt>
      <trkpt lat="49.3256" lon="0.98379">
        <ele>84.85871124268</ele>
        <time>2020-08-30T17:39:00.222Z</time>
      </trkpt>
      <trkpt lat="49.32579" lon="0.98378">
        <ele>86.44244384766</ele>
        <time>2020-08-30T17:39:00.852Z</time>
      </trkpt>
      <trkpt lat="49.32594" lon="0.98374">
        <ele>86.92236328125</ele>
        <time>2020-08-30T17:39:01.487Z</time>
      </trkpt>
      <trkpt lat="49.32609" lon="0.98371">
        <ele>87.26773071289</ele>
        <time>2020-08-30T17:39:02.127Z</time>
      </trkpt>
      <trkpt lat="49.32611" lon="0.9837">
        <ele>87.14775085449</ele>
        <time>2020-08-30T17:39:02.768Z</time>
      </trkpt>
      <trkpt lat="49.32625" lon="0.98363">
        <ele>86.9797668457</ele>
        <time>2020-08-30T17:39:03.414Z</time>
      </trkpt>
      <trkpt lat="49.32628" lon="0.98362">
        <ele>87.1117401123</ele>
        <time>2020-08-30T17:39:04.061Z</time>
      </trkpt>
      <trkpt lat="49.32632" lon="0.98357">
        <ele>86.31987762451</ele>
        <time>2020-08-30T17:39:04.709Z</time>
      </trkpt>
      <trkpt lat="49.32634" lon="0.98356">
        <ele>86.31987762451</ele>
        <time>2020-08-30T17:39:05.358Z</time>
      </trkpt>
      <trkpt lat="49.32638" lon="0.98354">
        <ele>86.31987762451</ele>
        <time>2020-08-30T17:39:06.008Z</time>
      </trkpt>
      <trkpt lat="49.32688" lon="0.98322">
        <ele>84.47218322754</ele>
        <time>2020-08-30T17:39:06.677Z</time>
      </trkpt>
      <trkpt lat="49.32709" lon="0.98308">
        <ele>84.11716461182</ele>
        <time>2020-08-30T17:39:07.353Z</time>
      </trkpt>
      <trkpt lat="49.32714" lon="0.98303">
        <ele>83.69723510742</ele>
        <time>2020-08-30T17:39:08.031Z</time>
      </trkpt>
      <trkpt lat="49.32718" lon="0.98299">
        <ele>83.36128997803</ele>
        <time>2020-08-30T17:39:08.711Z</time>
      </trkpt>
      <trkpt lat="49.32748" lon="0.98263">
        <ele>80.46408843994</ele>
        <time>2020-08-30T17:39:09.403Z</time>
      </trkpt>
      <trkpt lat="49.32753" lon="0.98258">
        <ele>81.00399780273</ele>
        <time>2020-08-30T17:39:10.097Z</time>
      </trkpt>
      <trkpt lat="49.32757" lon="0.98251">
        <ele>80.93200683594</ele>
        <time>2020-08-30T17:39:10.793Z</time>
      </trkpt>
      <trkpt lat="49.32762" lon="0.98242">
        <ele>80.80002593994</ele>
        <time>2020-08-30T17:39:11.492Z</time>
      </trkpt>
      <trkpt lat="49.32779" lon="0.98211">
        <ele>79.64392852783</ele>
        <time>2020-08-30T17:39:12.200Z</time>
      </trkpt>
      <trkpt lat="49.32782" lon="0.98204">
        <ele>78.86986541748</ele>
        <time>2020-08-30T17:39:12.910Z</time>
      </trkpt>
      <trkpt lat="49.32804" lon="0.98165">
        <ele>75.46243286133</ele>
        <time>2020-08-30T17:39:13.631Z</time>
      </trkpt>
      <trkpt lat="49.32807" lon="0.98163">
        <ele>76.12351226807</ele>
        <time>2020-08-30T17:39:14.353Z</time>
      </trkpt>
      <trkpt lat="49.32815" lon="0.98156">
        <ele>77.69524383545</ele>
        <time>2020-08-30T17:39:15.078Z</time>
      </trkpt>
      <trkpt lat="49.32819" lon="0.98154">
        <ele>78.67908477783</ele>
        <time>2020-08-30T17:39:15.805Z</time>
      </trkpt>
      <trkpt lat="49.32825" lon="0.98146">
        <ele>79.49494934082</ele>
        <time>2020-08-30T17:39:16.534Z</time>
      </trkpt>
      <trkpt lat="49.32826" lon="0.98143">
        <ele>79.41096496582</ele>
        <time>2020-08-30T17:39:17.264Z</time>
      </trkpt>
      <trkpt lat="49.32833" lon="0.98134">
        <ele>79.61140441895</ele>
        <time>2020-08-30T17:39:17.997Z</time>
      </trkpt>
      <trkpt lat="49.3284" lon="0.98128">
        <ele>80.35527801514</ele>
        <time>2020-08-30T17:39:18.733Z</time>
      </trkpt>
      <trkpt lat="49.3285" lon="0.98114">
        <ele>80.7643661499</ele>
        <time>2020-08-30T17:39:19.473Z</time>
      </trkpt>
      <trkpt lat="49.32855" lon="0.9812">
        <ele>83.71587371826</ele>
        <time>2020-08-30T17:39:20.215Z</time>
      </trkpt>
      <trkpt lat="49.32856" lon="0.98121">
        <ele>84.26778411865</ele>
        <time>2020-08-30T17:39:20.958Z</time>
      </trkpt>
      <trkpt lat="49.32857" lon="0.98126">
        <ele>85.58756256104</ele>
        <time>2020-08-30T17:39:21.702Z</time>
      </trkpt>
      <trkpt lat="49.32858" lon="0.98128">
        <ele>86.33144378662</ele>
        <time>2020-08-30T17:39:22.446Z</time>
      </trkpt>
      <trkpt lat="49.32859" lon="0.98132">
        <ele>87.45925140381</ele>
        <time>2020-08-30T17:39:23.191Z</time>
      </trkpt>
      <trkpt lat="49.3286" lon="0.98137">
        <ele>88.77902984619</ele>
        <time>2020-08-30T17:39:23.937Z</time>
      </trkpt>
      <trkpt lat="49.3286" lon="0.98141">
        <ele>89.713722229</ele>
        <time>2020-08-30T17:39:24.684Z</time>
      </trkpt>
      <trkpt lat="49.3286" lon="0.98143">
        <ele>90.01719665527</ele>
        <time>2020-08-30T17:39:25.432Z</time>
      </trkpt>
      <trkpt lat="49.32859" lon="0.98147">
        <ele>90.23315429688</ele>
        <time>2020-08-30T17:39:26.181Z</time>
      </trkpt>
      <trkpt lat="49.32859" lon="0.98152">
        <ele>90.89305114746</ele>
        <time>2020-08-30T17:39:26.931Z</time>
      </trkpt>
      <trkpt lat="49.32857" lon="0.98164">
        <ele>91.85289001465</ele>
        <time>2020-08-30T17:39:27.683Z</time>
      </trkpt>
      <trkpt lat="49.32857" lon="0.98165">
        <ele>91.98486328125</ele>
        <time>2020-08-30T17:39:28.436Z</time>
      </trkpt>
      <trkpt lat="49.32856" lon="0.98176">
        <ele>93.12467193604</ele>
        <time>2020-08-30T17:39:29.191Z</time>
      </trkpt>
      <trkpt lat="49.32857" lon="0.98181">
        <ele>94.09651184082</ele>
        <time>2020-08-30T17:39:29.947Z</time>
      </trkpt>
      <trkpt lat="49.32857" lon="0.98184">
        <ele>94.49244689941</ele>
        <time>2020-08-30T17:39:30.704Z</time>
      </trkpt>
      <trkpt lat="49.32856" lon="0.98188">
        <ele>94.70841217041</ele>
        <time>2020-08-30T17:39:31.462Z</time>
      </trkpt>
      <trkpt lat="49.32855" lon="0.98196">
        <ele>95.4522857666</ele>
        <time>2020-08-30T17:39:32.222Z</time>
      </trkpt>
      <trkpt lat="49.32854" lon="0.98199">
        <ele>95.5362701416</ele>
        <time>2020-08-30T17:39:32.982Z</time>
      </trkpt>
      <trkpt lat="49.32854" lon="0.98205">
        <ele>96.32814025879</ele>
        <time>2020-08-30T17:39:33.744Z</time>
      </trkpt>
      <trkpt lat="49.32854" lon="0.98213">
        <ele>97.38396453857</ele>
        <time>2020-08-30T17:39:34.507Z</time>
      </trkpt>
      <trkpt lat="49.32854" lon="0.98214">
        <ele>97.51594543457</ele>
        <time>2020-08-30T17:39:35.271Z</time>
      </trkpt>
      <trkpt lat="49.32853" lon="0.98218">
        <ele>98.07865905762</ele>
        <time>2020-08-30T17:39:36.036Z</time>
      </trkpt>
      <trkpt lat="49.32852" lon="0.98224">
        <ele>99.146484375</ele>
        <time>2020-08-30T17:39:36.802Z</time>
      </trkpt>
      <trkpt lat="49.32849" lon="0.98234">
        <ele>99.73085021973</ele>
        <time>2020-08-30T17:39:37.570Z</time>
      </trkpt>
      <trkpt lat="49.32848" lon="0.98243">
        <ele>100.58271026611</ele>
        <time>2020-08-30T17:39:38.340Z</time>
      </trkpt>
      <trkpt lat="49.32849" lon="0.98249">
        <ele>101.5305480957</ele>
        <time>2020-08-30T17:39:39.112Z</time>
      </trkpt>
      <trkpt lat="49.32849" lon="0.98253">
        <ele>102.0104675293</ele>
        <time>2020-08-30T17:39:39.885Z</time>
      </trkpt>
      <trkpt lat="49.32849" lon="0.98255">
        <ele>102.25042724609</ele>
        <time>2020-08-30T17:39:40.658Z</time>
      </trkpt>
      <trkpt lat="49.3285" lon="0.98265">
        <ele>103.67819213867</ele>
        <time>2020-08-30T17:39:41.433Z</time>
      </trkpt>
      <trkpt lat="49.3285" lon="0.98267">
        <ele>103.91815185547</ele>
        <time>2020-08-30T17:39:42.209Z</time>
      </trkpt>
      <trkpt lat="49.3285" lon="0.98271">
        <ele>104.39807128906</ele>
        <time>2020-08-30T17:39:42.985Z</time>
      </trkpt>
      <trkpt lat="49.3285" lon="0.98273">
        <ele>104.63803100586</ele>
        <time>2020-08-30T17:39:43.762Z</time>
      </trkpt>
      <trkpt lat="49.32853" lon="0.98283">
        <ele>106.52172088623</ele>
        <time>2020-08-30T17:39:44.541Z</time>
      </trkpt>
      <trkpt lat="49.32853" lon="0.98288">
        <ele>107.12162017822</ele>
        <time>2020-08-30T17:39:45.321Z</time>
      </trkpt>
      <trkpt lat="49.32854" lon="0.98291">
        <ele>107.70951843262</ele>
        <time>2020-08-30T17:39:46.102Z</time>
      </trkpt>
      <trkpt lat="49.32855" lon="0.98311">
        <ele>110.7261505127</ele>
        <time>2020-08-30T17:39:46.888Z</time>
      </trkpt>
      <trkpt lat="49.32859" lon="0.98333">
        <ele>113.82164001465</ele>
        <time>2020-08-30T17:39:47.678Z</time>
      </trkpt>
      <trkpt lat="49.32862" lon="0.98339">
        <ele>115.00943756104</ele>
        <time>2020-08-30T17:39:48.470Z</time>
      </trkpt>
      <trkpt lat="49.32862" lon="0.98341">
        <ele>115.22540283203</ele>
        <time>2020-08-30T17:39:49.263Z</time>
      </trkpt>
      <trkpt lat="49.32863" lon="0.98348">
        <ele>116.16124725342</ele>
        <time>2020-08-30T17:39:50.057Z</time>
      </trkpt>
      <trkpt lat="49.32862" lon="0.98353">
        <ele>116.52118682861</ele>
        <time>2020-08-30T17:39:50.852Z</time>
      </trkpt>
      <trkpt lat="49.32863" lon="0.98358">
        <ele>117.241065979</ele>
        <time>2020-08-30T17:39:51.648Z</time>
      </trkpt>
      <trkpt lat="49.32863" lon="0.98361">
        <ele>117.5650100708</ele>
        <time>2020-08-30T17:39:52.445Z</time>
      </trkpt>
      <trkpt lat="49.32864" lon="0.98367">
        <ele>118.35492706299</ele>
        <time>2020-08-30T17:39:53.243Z</time>
      </trkpt>
      <trkpt lat="49.32867" lon="0.98381">
        <ele>119.68670654297</ele>
        <time>2020-08-30T17:39:54.045Z</time>
      </trkpt>
      <trkpt lat="49.32866" lon="0.98388">
        <ele>120.50257110596</ele>
        <time>2020-08-30T17:39:54.848Z</time>
      </trkpt>
      <trkpt lat="49.32867" lon="0.98389">
        <ele>120.55056762695</ele>
        <time>2020-08-30T17:39:55.652Z</time>
      </trkpt>
      <trkpt lat="49.32865" lon="0.98392">
        <ele>120.98027801514</ele>
        <time>2020-08-30T17:39:56.457Z</time>
      </trkpt>
      <trkpt lat="49.32868" lon="0.98395">
        <ele>121.05226135254</ele>
        <time>2020-08-30T17:39:57.263Z</time>
      </trkpt>
      <trkpt lat="49.32869" lon="0.98396">
        <ele>121.07626342773</ele>
        <time>2020-08-30T17:39:58.069Z</time>
      </trkpt>
      <trkpt lat="49.32868" lon="0.98396">
        <ele>121.11540985107</ele>
        <time>2020-08-30T17:39:58.875Z</time>
      </trkpt>
      <trkpt lat="49.32868" lon="0.98393">
        <ele>120.88429260254</ele>
        <time>2020-08-30T17:39:59.682Z</time>
      </trkpt>
      <trkpt lat="49.32868" lon="0.98391">
        <ele>120.70653533936</ele>
        <time>2020-08-30T17:40:00.490Z</time>
      </trkpt>
      <trkpt lat="49.32869" lon="0.98392">
        <ele>120.74031829834</ele>
        <time>2020-08-30T17:40:01.298Z</time>
      </trkpt>
      <trkpt lat="49.3287" lon="0.98393">
        <ele>120.76431274414</ele>
        <time>2020-08-30T17:40:02.106Z</time>
      </trkpt>
      <trkpt lat="49.32873" lon="0.98395">
        <ele>120.75231170654</ele>
        <time>2020-08-30T17:40:02.915Z</time>
      </trkpt>
      <trkpt lat="49.32874" lon="0.98398">
        <ele>120.94428253174</ele>
        <time>2020-08-30T17:40:03.725Z</time>
      </trkpt>
      <trkpt lat="49.32884" lon="0.98401">
        <ele>120.59633636475</ele>
        <time>2020-08-30T17:40:04.539Z</time>
      </trkpt>
      <trkpt lat="49.32883" lon="0.98403">
        <ele>120.82430267334</ele>
        <time>2020-08-30T17:40:05.353Z</time>
      </trkpt>
      <trkpt lat="49.32883" lon="0.98408">
        <ele>121.24423217773</ele>
        <time>2020-08-30T17:40:06.168Z</time>
      </trkpt>
      <trkpt lat="49.32883" lon="0.98411">
        <ele>121.47534942627</ele>
        <time>2020-08-30T17:40:06.984Z</time>
      </trkpt>
      <trkpt lat="49.32883" lon="0.98417">
        <ele>121.69131469727</ele>
        <time>2020-08-30T17:40:07.801Z</time>
      </trkpt>
      <trkpt lat="49.32883" lon="0.98425">
        <ele>121.97926330566</ele>
        <time>2020-08-30T17:40:08.620Z</time>
      </trkpt>
      <trkpt lat="49.32883" lon="0.98438">
        <ele>122.44718933105</ele>
        <time>2020-08-30T17:40:09.442Z</time>
      </trkpt>
      <trkpt lat="49.32883" lon="0.98444">
        <ele>122.66315460205</ele>
        <time>2020-08-30T17:40:10.265Z</time>
      </trkpt>
      <trkpt lat="49.32886" lon="0.98454">
        <ele>122.98709869385</ele>
        <time>2020-08-30T17:40:11.090Z</time>
      </trkpt>
      <trkpt lat="49.32886" lon="0.98457">
        <ele>123.09507751465</ele>
        <time>2020-08-30T17:40:11.916Z</time>
      </trkpt>
      <trkpt lat="49.32887" lon="0.98469">
        <ele>123.51500701904</ele>
        <time>2020-08-30T17:40:12.745Z</time>
      </trkpt>
      <trkpt lat="49.32889" lon="0.98484">
        <ele>124.14184570312</ele>
        <time>2020-08-30T17:40:13.577Z</time>
      </trkpt>
      <trkpt lat="49.32896" lon="0.98504">
        <ele>125.01770019531</ele>
        <time>2020-08-30T17:40:14.414Z</time>
      </trkpt>
      <trkpt lat="49.32917" lon="0.98541">
        <ele>126.07038879395</ele>
        <time>2020-08-30T17:40:15.262Z</time>
      </trkpt>
      <trkpt lat="49.32918" lon="0.98542">
        <ele>126.10638427734</ele>
        <time>2020-08-30T17:40:16.110Z</time>
      </trkpt>
      <trkpt lat="49.32921" lon="0.98543">
        <ele>126.19036865234</ele>
        <time>2020-08-30T17:40:16.959Z</time>
      </trkpt>
      <trkpt lat="49.32933" lon="0.98548">
        <ele>126.53831481934</ele>
        <time>2020-08-30T17:40:17.812Z</time>
      </trkpt>
      <trkpt lat="49.32937" lon="0.9855">
        <ele>126.65829467773</ele>
        <time>2020-08-30T17:40:18.667Z</time>
      </trkpt>
      <trkpt lat="49.32944" lon="0.98556">
        <ele>126.89825439453</ele>
        <time>2020-08-30T17:40:19.524Z</time>
      </trkpt>
      <trkpt lat="49.32957" lon="0.98589">
        <ele>127.5060043335</ele>
        <time>2020-08-30T17:40:20.390Z</time>
      </trkpt>
      <trkpt lat="49.32958" lon="0.98596">
        <ele>127.6499786377</ele>
        <time>2020-08-30T17:40:21.257Z</time>
      </trkpt>
      <trkpt lat="49.32963" lon="0.98611">
        <ele>127.88993835449</ele>
        <time>2020-08-30T17:40:22.128Z</time>
      </trkpt>
      <trkpt lat="49.32965" lon="0.98616">
        <ele>127.96192932129</ele>
        <time>2020-08-30T17:40:23.000Z</time>
      </trkpt>
      <trkpt lat="49.32975" lon="0.98667">
        <ele>128.63920593262</ele>
        <time>2020-08-30T17:40:23.884Z</time>
      </trkpt>
      <trkpt lat="49.32978" lon="0.98675">
        <ele>128.63032531738</ele>
        <time>2020-08-30T17:40:24.770Z</time>
      </trkpt>
      <trkpt lat="49.32993" lon="0.98713">
        <ele>128.45036315918</ele>
        <time>2020-08-30T17:40:25.666Z</time>
      </trkpt>
      <trkpt lat="49.32998" lon="0.98742">
        <ele>128.39036560059</ele>
        <time>2020-08-30T17:40:26.568Z</time>
      </trkpt>
      <trkpt lat="49.33002" lon="0.98756">
        <ele>128.34237670898</ele>
        <time>2020-08-30T17:40:27.473Z</time>
      </trkpt>
      <trkpt lat="49.33003" lon="0.98761">
        <ele>128.33038330078</ele>
        <time>2020-08-30T17:40:28.380Z</time>
      </trkpt>
      <trkpt lat="49.33004" lon="0.98764">
        <ele>128.31838989258</ele>
        <time>2020-08-30T17:40:29.287Z</time>
      </trkpt>
      <trkpt lat="49.33008" lon="0.98771">
        <ele>128.27038574219</ele>
        <time>2020-08-30T17:40:30.196Z</time>
      </trkpt>
      <trkpt lat="49.33012" lon="0.98773">
        <ele>128.22239685059</ele>
        <time>2020-08-30T17:40:31.107Z</time>
      </trkpt>
      <trkpt lat="49.33013" lon="0.98771">
        <ele>128.21040344238</ele>
        <time>2020-08-30T17:40:32.018Z</time>
      </trkpt>
      <trkpt lat="49.33014" lon="0.9877">
        <ele>128.19841003418</ele>
        <time>2020-08-30T17:40:32.930Z</time>
      </trkpt>
      <trkpt lat="49.33016" lon="0.98768">
        <ele>128.17440795898</ele>
        <time>2020-08-30T17:40:33.843Z</time>
      </trkpt>
      <trkpt lat="49.33013" lon="0.98773">
        <ele>128.21040344238</ele>
        <time>2020-08-30T17:40:34.757Z</time>
      </trkpt>
      <trkpt lat="49.33014" lon="0.98772">
        <ele>128.19841003418</ele>
        <time>2020-08-30T17:40:35.671Z</time>
      </trkpt>
      <trkpt lat="49.33019" lon="0.98768">
        <ele>128.13841247559</ele>
        <time>2020-08-30T17:40:36.587Z</time>
      </trkpt>
      <trkpt lat="49.33027" lon="0.98761">
        <ele>128.04243469238</ele>
        <time>2020-08-30T17:40:37.506Z</time>
      </trkpt>
      <trkpt lat="49.33034" lon="0.98755">
        <ele>127.87532806396</ele>
        <time>2020-08-30T17:40:38.428Z</time>
      </trkpt>
      <trkpt lat="49.33038" lon="0.98751">
        <ele>127.73135375977</ele>
        <time>2020-08-30T17:40:39.352Z</time>
      </trkpt>
      <trkpt lat="49.33044" lon="0.98748">
        <ele>127.51538848877</ele>
        <time>2020-08-30T17:40:40.278Z</time>
      </trkpt>
      <trkpt lat="49.33049" lon="0.98744">
        <ele>127.33541870117</ele>
        <time>2020-08-30T17:40:41.206Z</time>
      </trkpt>
      <trkpt lat="49.33056" lon="0.98742">
        <ele>126.78614044189</ele>
        <time>2020-08-30T17:40:42.136Z</time>
      </trkpt>
      <trkpt lat="49.33061" lon="0.98737">
        <ele>126.2462310791</ele>
        <time>2020-08-30T17:40:43.068Z</time>
      </trkpt>
      <trkpt lat="49.33066" lon="0.98732">
        <ele>125.70632171631</ele>
        <time>2020-08-30T17:40:44.002Z</time>
      </trkpt>
      <trkpt lat="49.33069" lon="0.98727">
        <ele>125.31038665771</ele>
        <time>2020-08-30T17:40:44.937Z</time>
      </trkpt>
      <trkpt lat="49.33072" lon="0.98718">
        <ele>124.93357086182</ele>
        <time>2020-08-30T17:40:45.875Z</time>
      </trkpt>
      <trkpt lat="49.33072" lon="0.98714">
        <ele>124.88557434082</ele>
        <time>2020-08-30T17:40:46.814Z</time>
      </trkpt>
      <trkpt lat="49.33072" lon="0.9871">
        <ele>124.83758544922</ele>
        <time>2020-08-30T17:40:47.753Z</time>
      </trkpt>
      <trkpt lat="49.33074" lon="0.98699">
        <ele>124.56163024902</ele>
        <time>2020-08-30T17:40:48.695Z</time>
      </trkpt>
      <trkpt lat="49.33075" lon="0.98695">
        <ele>124.44165039062</ele>
        <time>2020-08-30T17:40:49.638Z</time>
      </trkpt>
      <trkpt lat="49.33077" lon="0.98688">
        <ele>124.21369171143</ele>
        <time>2020-08-30T17:40:50.582Z</time>
      </trkpt>
      <trkpt lat="49.33079" lon="0.9868">
        <ele>123.85478973389</ele>
        <time>2020-08-30T17:40:51.528Z</time>
      </trkpt>
      <trkpt lat="49.3308" lon="0.98676">
        <ele>123.67481994629</ele>
        <time>2020-08-30T17:40:52.475Z</time>
      </trkpt>
      <trkpt lat="49.33081" lon="0.98666">
        <ele>123.35087585449</ele>
        <time>2020-08-30T17:40:53.424Z</time>
      </trkpt>
      <trkpt lat="49.33077" lon="0.98639">
        <ele>122.98015594482</ele>
        <time>2020-08-30T17:40:54.380Z</time>
      </trkpt>
      <trkpt lat="49.33074" lon="0.98616">
        <ele>122.12829589844</ele>
        <time>2020-08-30T17:40:55.341Z</time>
      </trkpt>
      <trkpt lat="49.33073" lon="0.98608">
        <ele>121.82834625244</ele>
        <time>2020-08-30T17:40:56.303Z</time>
      </trkpt>
      <trkpt lat="49.33075" lon="0.98594">
        <ele>121.50234222412</ele>
        <time>2020-08-30T17:40:57.269Z</time>
      </trkpt>
      <trkpt lat="49.33075" lon="0.98587">
        <ele>121.58633422852</ele>
        <time>2020-08-30T17:40:58.236Z</time>
      </trkpt>
      <trkpt lat="49.33083" lon="0.98539">
        <ele>119.67840576172</ele>
        <time>2020-08-30T17:40:59.214Z</time>
      </trkpt>
      <trkpt lat="49.3309" lon="0.98505">
        <ele>118.29299163818</ele>
        <time>2020-08-30T17:41:00.200Z</time>
      </trkpt>
      <trkpt lat="49.33096" lon="0.98493">
        <ele>118.36497497559</ele>
        <time>2020-08-30T17:41:01.189Z</time>
      </trkpt>
      <trkpt lat="49.331" lon="0.98485">
        <ele>118.41297149658</ele>
        <time>2020-08-30T17:41:02.180Z</time>
      </trkpt>
      <trkpt lat="49.331" lon="0.9848">
        <ele>118.29299163818</ele>
        <time>2020-08-30T17:41:03.172Z</time>
      </trkpt>
      <trkpt lat="49.33101" lon="0.98475">
        <ele>118.23300170898</ele>
        <time>2020-08-30T17:41:04.165Z</time>
      </trkpt>
      <trkpt lat="49.33101" lon="0.98455">
        <ele>116.99050140381</ele>
        <time>2020-08-30T17:41:05.163Z</time>
      </trkpt>
      <trkpt lat="49.33098" lon="0.98401">
        <ele>116.52258300781</ele>
        <time>2020-08-30T17:41:06.173Z</time>
      </trkpt>
      <trkpt lat="49.33094" lon="0.9838">
        <ele>115.21434020996</ele>
        <time>2020-08-30T17:41:07.187Z</time>
      </trkpt>
      <trkpt lat="49.33097" lon="0.98374">
        <ele>115.34747314453</ele>
        <time>2020-08-30T17:41:08.203Z</time>
      </trkpt>
      <trkpt lat="49.33101" lon="0.98368">
        <ele>116.09135437012</ele>
        <time>2020-08-30T17:41:09.221Z</time>
      </trkpt>
      <trkpt lat="49.33101" lon="0.98363">
        <ele>116.03136444092</ele>
        <time>2020-08-30T17:41:10.240Z</time>
      </trkpt>
      <trkpt lat="49.3309" lon="0.98307">
        <ele>113.07768249512</ele>
        <time>2020-08-30T17:41:11.272Z</time>
      </trkpt>
      <trkpt lat="49.33089" lon="0.98297">
        <ele>112.39379119873</ele>
        <time>2020-08-30T17:41:12.306Z</time>
      </trkpt>
      <trkpt lat="49.33089" lon="0.98292">
        <ele>112.15383148193</ele>
        <time>2020-08-30T17:41:13.341Z</time>
      </trkpt>
      <trkpt lat="49.33092" lon="0.98271">
        <ele>112.48626708984</ele>
        <time>2020-08-30T17:41:14.381Z</time>
      </trkpt>
      <trkpt lat="49.33097" lon="0.98259">
        <ele>113.74605560303</ele>
        <time>2020-08-30T17:41:15.424Z</time>
      </trkpt>
      <trkpt lat="49.33098" lon="0.9824">
        <ele>113.99801635742</ele>
        <time>2020-08-30T17:41:16.471Z</time>
      </trkpt>
      <trkpt lat="49.33096" lon="0.98214">
        <ele>112.46580505371</ele>
        <time>2020-08-30T17:41:17.524Z</time>
      </trkpt>
      <trkpt lat="49.33095" lon="0.98206">
        <ele>111.44597625732</ele>
        <time>2020-08-30T17:41:18.578Z</time>
      </trkpt>
      <trkpt lat="49.33093" lon="0.98198">
        <ele>110.38401794434</ele>
        <time>2020-08-30T17:41:19.634Z</time>
      </trkpt>
      <trkpt lat="49.33092" lon="0.9819">
        <ele>109.61614990234</ele>
        <time>2020-08-30T17:41:20.692Z</time>
      </trkpt>
      <trkpt lat="49.33094" lon="0.98176">
        <ele>109.35218811035</ele>
        <time>2020-08-30T17:41:21.753Z</time>
      </trkpt>
      <trkpt lat="49.33103" lon="0.9815">
        <ele>110.38401794434</ele>
        <time>2020-08-30T17:41:22.821Z</time>
      </trkpt>
      <trkpt lat="49.33107" lon="0.98135">
        <ele>110.02494812012</ele>
        <time>2020-08-30T17:41:23.892Z</time>
      </trkpt>
      <trkpt lat="49.33109" lon="0.98117">
        <ele>108.96206665039</ele>
        <time>2020-08-30T17:41:24.967Z</time>
      </trkpt>
      <trkpt lat="49.33109" lon="0.98096">
        <ele>106.94640350342</ele>
        <time>2020-08-30T17:41:26.047Z</time>
      </trkpt>
      <trkpt lat="49.33112" lon="0.98081">
        <ele>106.55046844482</ele>
        <time>2020-08-30T17:41:27.130Z</time>
      </trkpt>
      <trkpt lat="49.33114" lon="0.98073">
        <ele>106.43656158447</ele>
        <time>2020-08-30T17:41:28.215Z</time>
      </trkpt>
      <trkpt lat="49.33113" lon="0.98065">
        <ele>105.36267089844</ele>
        <time>2020-08-30T17:41:29.302Z</time>
      </trkpt>
      <trkpt lat="49.33112" lon="0.98056">
        <ele>104.07172393799</ele>
        <time>2020-08-30T17:41:30.391Z</time>
      </trkpt>
      <trkpt lat="49.3311" lon="0.98048">
        <ele>102.03205871582</ele>
        <time>2020-08-30T17:41:31.482Z</time>
      </trkpt>
      <trkpt lat="49.33109" lon="0.9804">
        <ele>100.29235076904</ele>
        <time>2020-08-30T17:41:32.574Z</time>
      </trkpt>
      <trkpt lat="49.3311" lon="0.98021">
        <ele>97.17287445068</ele>
        <time>2020-08-30T17:41:33.671Z</time>
      </trkpt>
      <trkpt lat="49.33109" lon="0.98012">
        <ele>95.25318908691</ele>
        <time>2020-08-30T17:41:34.770Z</time>
      </trkpt>
      <trkpt lat="49.33107" lon="0.98005">
        <ele>93.39350128174</ele>
        <time>2020-08-30T17:41:35.870Z</time>
      </trkpt>
      <trkpt lat="49.33105" lon="0.98">
        <ele>91.89375305176</ele>
        <time>2020-08-30T17:41:36.971Z</time>
      </trkpt>
      <trkpt lat="49.33105" lon="0.97995">
        <ele>90.99390411377</ele>
        <time>2020-08-30T17:41:38.074Z</time>
      </trkpt>
      <trkpt lat="49.33107" lon="0.97989">
        <ele>90.51398468018</ele>
        <time>2020-08-30T17:41:39.178Z</time>
      </trkpt>
      <trkpt lat="49.33111" lon="0.97982">
        <ele>90.45398712158</ele>
        <time>2020-08-30T17:41:40.284Z</time>
      </trkpt>
      <trkpt lat="49.33115" lon="0.97976">
        <ele>90.22569274902</ele>
        <time>2020-08-30T17:41:41.392Z</time>
      </trkpt>
      <trkpt lat="49.33121" lon="0.97974">
        <ele>89.52149963379</ele>
        <time>2020-08-30T17:41:42.502Z</time>
      </trkpt>
      <trkpt lat="49.33125" lon="0.97977">
        <ele>89.96936798096</ele>
        <time>2020-08-30T17:41:43.613Z</time>
      </trkpt>
      <trkpt lat="49.33127" lon="0.97978">
        <ele>90.08934783936</ele>
        <time>2020-08-30T17:41:44.725Z</time>
      </trkpt>
      <trkpt lat="49.33131" lon="0.97985">
        <ele>91.40912628174</ele>
        <time>2020-08-30T17:41:45.839Z</time>
      </trkpt>
      <trkpt lat="49.33135" lon="0.97993">
        <ele>92.94486999512</ele>
        <time>2020-08-30T17:41:46.955Z</time>
      </trkpt>
      <trkpt lat="49.33138" lon="0.98">
        <ele>94.26902008057</ele>
        <time>2020-08-30T17:41:48.073Z</time>
      </trkpt>
      <trkpt lat="49.33144" lon="0.98011">
        <ele>96.17670440674</ele>
        <time>2020-08-30T17:41:49.194Z</time>
      </trkpt>
      <trkpt lat="49.33153" lon="0.9803">
        <ele>99.48815155029</ele>
        <time>2020-08-30T17:41:50.320Z</time>
      </trkpt>
      <trkpt lat="49.33159" lon="0.98044">
        <ele>101.93574523926</ele>
        <time>2020-08-30T17:41:51.450Z</time>
      </trkpt>
      <trkpt lat="49.33164" lon="0.98053">
        <ele>103.49548339844</ele>
        <time>2020-08-30T17:41:52.583Z</time>
      </trkpt>
      <trkpt lat="49.33165" lon="0.98057">
        <ele>104.20336151123</ele>
        <time>2020-08-30T17:41:53.717Z</time>
      </trkpt>
      <trkpt lat="49.33166" lon="0.9806">
        <ele>104.56488037109</ele>
        <time>2020-08-30T17:41:54.851Z</time>
      </trkpt>
      <trkpt lat="49.3317" lon="0.98069">
        <ele>105.38073730469</ele>
        <time>2020-08-30T17:41:55.988Z</time>
      </trkpt>
      <trkpt lat="49.33178" lon="0.98079">
        <ele>106.24459838867</ele>
        <time>2020-08-30T17:41:57.128Z</time>
      </trkpt>
      <trkpt lat="49.33184" lon="0.98084">
        <ele>106.65252685547</ele>
        <time>2020-08-30T17:41:58.270Z</time>
      </trkpt>
      <trkpt lat="49.33196" lon="0.98089">
        <ele>106.98847198486</ele>
        <time>2020-08-30T17:41:59.417Z</time>
      </trkpt>
      <trkpt lat="49.33201" lon="0.98091">
        <ele>106.30643463135</ele>
        <time>2020-08-30T17:42:00.565Z</time>
      </trkpt>
      <trkpt lat="49.33205" lon="0.98093">
        <ele>105.58654785156</ele>
        <time>2020-08-30T17:42:01.715Z</time>
      </trkpt>
      <trkpt lat="49.3321" lon="0.98096">
        <ele>104.73469543457</ele>
        <time>2020-08-30T17:42:02.867Z</time>
      </trkpt>
      <trkpt lat="49.33214" lon="0.981">
        <ele>104.20677947998</ele>
        <time>2020-08-30T17:42:04.020Z</time>
      </trkpt>
      <trkpt lat="49.33217" lon="0.98104">
        <ele>103.90682983398</ele>
        <time>2020-08-30T17:42:05.174Z</time>
      </trkpt>
      <trkpt lat="49.33219" lon="0.98109">
        <ele>103.93082427979</ele>
        <time>2020-08-30T17:42:06.330Z</time>
      </trkpt>
      <trkpt lat="49.33225" lon="0.98119">
        <ele>103.52289581299</ele>
        <time>2020-08-30T17:42:07.489Z</time>
      </trkpt>
      <trkpt lat="49.33235" lon="0.98142">
        <ele>103.47373199463</ele>
        <time>2020-08-30T17:42:08.654Z</time>
      </trkpt>
      <trkpt lat="49.33249" lon="0.98158">
        <ele>102.39390563965</ele>
        <time>2020-08-30T17:42:09.825Z</time>
      </trkpt>
      <trkpt lat="49.33259" lon="0.98178">
        <ele>102.75385284424</ele>
        <time>2020-08-30T17:42:11.001Z</time>
      </trkpt>
      <trkpt lat="49.33266" lon="0.9819">
        <ele>102.74185180664</ele>
        <time>2020-08-30T17:42:12.181Z</time>
      </trkpt>
      <trkpt lat="49.3327" lon="0.98196">
        <ele>102.62187194824</ele>
        <time>2020-08-30T17:42:13.362Z</time>
      </trkpt>
      <trkpt lat="49.33279" lon="0.98208">
        <ele>102.15394592285</ele>
        <time>2020-08-30T17:42:14.547Z</time>
      </trkpt>
      <trkpt lat="49.33284" lon="0.98217">
        <ele>102.24299621582</ele>
        <time>2020-08-30T17:42:15.735Z</time>
      </trkpt>
      <trkpt lat="49.33289" lon="0.98228">
        <ele>102.65437316895</ele>
        <time>2020-08-30T17:42:16.926Z</time>
      </trkpt>
      <trkpt lat="49.33313" lon="0.98269">
        <ele>103.23189544678</ele>
        <time>2020-08-30T17:42:18.129Z</time>
      </trkpt>
      <trkpt lat="49.33323" lon="0.98285">
        <ele>103.30388641357</ele>
        <time>2020-08-30T17:42:19.337Z</time>
      </trkpt>
      <trkpt lat="49.33324" lon="0.98287">
        <ele>103.36387634277</ele>
        <time>2020-08-30T17:42:20.545Z</time>
      </trkpt>
      <trkpt lat="49.33328" lon="0.98292">
        <ele>103.20790100098</ele>
        <time>2020-08-30T17:42:21.755Z</time>
      </trkpt>
      <trkpt lat="49.33339" lon="0.98293">
        <ele>101.09625244141</ele>
        <time>2020-08-30T17:42:22.969Z</time>
      </trkpt>
      <trkpt lat="49.33346" lon="0.98291">
        <ele>99.40453338623</ele>
        <time>2020-08-30T17:42:24.185Z</time>
      </trkpt>
      <trkpt lat="49.33351" lon="0.98287">
        <ele>97.75918579102</ele>
        <time>2020-08-30T17:42:25.403Z</time>
      </trkpt>
      <trkpt lat="49.33356" lon="0.98282">
        <ele>95.95948791504</ele>
        <time>2020-08-30T17:42:26.623Z</time>
      </trkpt>
      <trkpt lat="49.33358" lon="0.98277">
        <ele>94.80767822266</ele>
        <time>2020-08-30T17:42:27.844Z</time>
      </trkpt>
      <trkpt lat="49.33361" lon="0.98265">
        <ele>92.43207550049</ele>
        <time>2020-08-30T17:42:29.068Z</time>
      </trkpt>
      <trkpt lat="49.33366" lon="0.98257">
        <ele>90.64852905273</ele>
        <time>2020-08-30T17:42:30.294Z</time>
      </trkpt>
      <trkpt lat="49.33373" lon="0.98254">
        <ele>90.21659851074</ele>
        <time>2020-08-30T17:42:31.523Z</time>
      </trkpt>
      <trkpt lat="49.3338" lon="0.98238">
        <ele>88.11368560791</ele>
        <time>2020-08-30T17:42:32.756Z</time>
      </trkpt>
      <trkpt lat="49.33379" lon="0.98235">
        <ele>87.82572937012</ele>
        <time>2020-08-30T17:42:33.990Z</time>
      </trkpt>
      <trkpt lat="49.33379" lon="0.9823">
        <ele>87.46578979492</ele>
        <time>2020-08-30T17:42:35.225Z</time>
      </trkpt>
      <trkpt lat="49.33379" lon="0.98225">
        <ele>87.10585021973</ele>
        <time>2020-08-30T17:42:36.461Z</time>
      </trkpt>
      <trkpt lat="49.3338" lon="0.98215">
        <ele>86.5745010376</ele>
        <time>2020-08-30T17:42:37.699Z</time>
      </trkpt>
      <trkpt lat="49.33379" lon="0.98205">
        <ele>85.90261077881</ele>
        <time>2020-08-30T17:42:38.939Z</time>
      </trkpt>
      <trkpt lat="49.33378" lon="0.982">
        <ele>85.53067016602</ele>
        <time>2020-08-30T17:42:40.180Z</time>
      </trkpt>
      <trkpt lat="49.33381" lon="0.98181">
        <ele>84.60682678223</ele>
        <time>2020-08-30T17:42:41.426Z</time>
      </trkpt>
      <trkpt lat="49.33388" lon="0.9816">
        <ele>84.24262237549</ele>
        <time>2020-08-30T17:42:42.677Z</time>
      </trkpt>
      <trkpt lat="49.33391" lon="0.98152">
        <ele>84.77053070068</ele>
        <time>2020-08-30T17:42:43.930Z</time>
      </trkpt>
      <trkpt lat="49.33392" lon="0.9815">
        <ele>84.93850708008</ele>
        <time>2020-08-30T17:42:45.183Z</time>
      </trkpt>
      <trkpt lat="49.33394" lon="0.98141">
        <ele>85.29931640625</ele>
        <time>2020-08-30T17:42:46.439Z</time>
      </trkpt>
      <trkpt lat="49.33395" lon="0.98139">
        <ele>85.27531433105</ele>
        <time>2020-08-30T17:42:47.695Z</time>
      </trkpt>
      <trkpt lat="49.33397" lon="0.98137">
        <ele>85.39529418945</ele>
        <time>2020-08-30T17:42:48.952Z</time>
      </trkpt>
      <trkpt lat="49.33401" lon="0.98129">
        <ele>85.29931640625</ele>
        <time>2020-08-30T17:42:50.211Z</time>
      </trkpt>
      <trkpt lat="49.33404" lon="0.98119">
        <ele>84.89138031006</ele>
        <time>2020-08-30T17:42:51.472Z</time>
      </trkpt>
      <trkpt lat="49.33404" lon="0.98115">
        <ele>84.55543518066</ele>
        <time>2020-08-30T17:42:52.734Z</time>
      </trkpt>
      <trkpt lat="49.33402" lon="0.98096">
        <ele>82.68184661865</ele>
        <time>2020-08-30T17:42:54.001Z</time>
      </trkpt>
      <trkpt lat="49.334" lon="0.98082">
        <ele>82.51387786865</ele>
        <time>2020-08-30T17:42:55.271Z</time>
      </trkpt>
      <trkpt lat="49.33401" lon="0.98078">
        <ele>82.86182403564</ele>
        <time>2020-08-30T17:42:56.542Z</time>
      </trkpt>
      <trkpt lat="49.33409" lon="0.98029">
        <ele>83.26795196533</ele>
        <time>2020-08-30T17:42:57.824Z</time>
      </trkpt>
      <trkpt lat="49.33415" lon="0.98014">
        <ele>83.84081268311</ele>
        <time>2020-08-30T17:42:59.109Z</time>
      </trkpt>
      <trkpt lat="49.33427" lon="0.97989">
        <ele>85.50853729248</ele>
        <time>2020-08-30T17:43:00.401Z</time>
      </trkpt>
      <trkpt lat="49.33428" lon="0.97987">
        <ele>85.65251159668</ele>
        <time>2020-08-30T17:43:01.694Z</time>
      </trkpt>
      <trkpt lat="49.33452" lon="0.97952">
        <ele>88.91320037842</ele>
        <time>2020-08-30T17:43:02.998Z</time>
      </trkpt>
      <trkpt lat="49.33465" lon="0.97921">
        <ele>89.30913543701</ele>
        <time>2020-08-30T17:43:04.310Z</time>
      </trkpt>
      <trkpt lat="49.33469" lon="0.97899">
        <ele>88.75971221924</ele>
        <time>2020-08-30T17:43:05.627Z</time>
      </trkpt>
      <trkpt lat="49.33472" lon="0.97893">
        <ele>89.40760803223</ele>
        <time>2020-08-30T17:43:06.945Z</time>
      </trkpt>
      <trkpt lat="49.33473" lon="0.97891">
        <ele>89.6157913208</ele>
        <time>2020-08-30T17:43:08.264Z</time>
      </trkpt>
      <trkpt lat="49.33475" lon="0.97885">
        <ele>89.7837600708</ele>
        <time>2020-08-30T17:43:09.584Z</time>
      </trkpt>
      <trkpt lat="49.33475" lon="0.97877">
        <ele>89.11186981201</ele>
        <time>2020-08-30T17:43:10.906Z</time>
      </trkpt>
      <trkpt lat="49.33476" lon="0.9787">
        <ele>88.85991668701</ele>
        <time>2020-08-30T17:43:12.230Z</time>
      </trkpt>
      <trkpt lat="49.33479" lon="0.97829">
        <ele>86.16744995117</ele>
        <time>2020-08-30T17:43:13.563Z</time>
      </trkpt>
      <trkpt lat="49.33491" lon="0.97801">
        <ele>87.55701446533</ele>
        <time>2020-08-30T17:43:14.903Z</time>
      </trkpt>
      <trkpt lat="49.33494" lon="0.9779">
        <ele>88.36088562012</ele>
        <time>2020-08-30T17:43:16.246Z</time>
      </trkpt>
      <trkpt lat="49.33496" lon="0.97784">
        <ele>88.91278839111</ele>
        <time>2020-08-30T17:43:17.590Z</time>
      </trkpt>
      <trkpt lat="49.33505" lon="0.97769">
        <ele>90.73904418945</ele>
        <time>2020-08-30T17:43:18.939Z</time>
      </trkpt>
      <trkpt lat="49.33509" lon="0.97767">
        <ele>91.60289764404</ele>
        <time>2020-08-30T17:43:20.289Z</time>
      </trkpt>
      <trkpt lat="49.33511" lon="0.97766">
        <ele>92.03482818604</ele>
        <time>2020-08-30T17:43:21.640Z</time>
      </trkpt>
      <trkpt lat="49.33514" lon="0.97764">
        <ele>92.64672851562</ele>
        <time>2020-08-30T17:43:22.992Z</time>
      </trkpt>
      <trkpt lat="49.33518" lon="0.97763">
        <ele>93.58256530762</ele>
        <time>2020-08-30T17:43:24.345Z</time>
      </trkpt>
      <trkpt lat="49.33522" lon="0.97762">
        <ele>94.518409729</ele>
        <time>2020-08-30T17:43:25.700Z</time>
      </trkpt>
      <trkpt lat="49.33528" lon="0.97761">
        <ele>95.95817565918</ele>
        <time>2020-08-30T17:43:27.057Z</time>
      </trkpt>
      <trkpt lat="49.3353" lon="0.97761">
        <ele>96.46208953857</ele>
        <time>2020-08-30T17:43:28.414Z</time>
      </trkpt>
      <trkpt lat="49.33534" lon="0.97762">
        <ele>97.25800323486</ele>
        <time>2020-08-30T17:43:29.773Z</time>
      </trkpt>
      <trkpt lat="49.33536" lon="0.97763">
        <ele>97.66593933105</ele>
        <time>2020-08-30T17:43:31.132Z</time>
      </trkpt>
      <trkpt lat="49.3354" lon="0.97765">
        <ele>98.48180389404</ele>
        <time>2020-08-30T17:43:32.493Z</time>
      </trkpt>
      <trkpt lat="49.33547" lon="0.97771">
        <ele>100.08953857422</ele>
        <time>2020-08-30T17:43:33.856Z</time>
      </trkpt>
      <trkpt lat="49.33554" lon="0.97771">
        <ele>101.2653427124</ele>
        <time>2020-08-30T17:43:35.222Z</time>
      </trkpt>
      <trkpt lat="49.33557" lon="0.97778">
        <ele>102.27317047119</ele>
        <time>2020-08-30T17:43:36.589Z</time>
      </trkpt>
      <trkpt lat="49.33558" lon="0.97779">
        <ele>102.51313018799</ele>
        <time>2020-08-30T17:43:37.957Z</time>
      </trkpt>
      <trkpt lat="49.33561" lon="0.97786">
        <ele>103.52096557617</ele>
        <time>2020-08-30T17:43:39.327Z</time>
      </trkpt>
      <trkpt lat="49.33566" lon="0.97798">
        <ele>105.22467803955</ele>
        <time>2020-08-30T17:43:40.700Z</time>
      </trkpt>
      <trkpt lat="49.33571" lon="0.97809">
        <ele>106.89322662354</ele>
        <time>2020-08-30T17:43:42.076Z</time>
      </trkpt>
      <trkpt lat="49.33573" lon="0.97815">
        <ele>107.87705993652</ele>
        <time>2020-08-30T17:43:43.453Z</time>
      </trkpt>
      <trkpt lat="49.33575" lon="0.97823">
        <ele>109.0768661499</ele>
        <time>2020-08-30T17:43:44.832Z</time>
      </trkpt>
      <trkpt lat="49.33578" lon="0.97832">
        <ele>110.55261993408</ele>
        <time>2020-08-30T17:43:46.213Z</time>
      </trkpt>
      <trkpt lat="49.33581" lon="0.97842">
        <ele>112.13635253906</ele>
        <time>2020-08-30T17:43:47.597Z</time>
      </trkpt>
      <trkpt lat="49.33584" lon="0.97849">
        <ele>113.39614105225</ele>
        <time>2020-08-30T17:43:48.982Z</time>
      </trkpt>
      <trkpt lat="49.33587" lon="0.97861">
        <ele>115.19584655762</ele>
        <time>2020-08-30T17:43:50.370Z</time>
      </trkpt>
      <trkpt lat="49.3359" lon="0.9787">
        <ele>116.6716003418</ele>
        <time>2020-08-30T17:43:51.761Z</time>
      </trkpt>
      <trkpt lat="49.33593" lon="0.97875">
        <ele>117.71542358398</ele>
        <time>2020-08-30T17:43:53.153Z</time>
      </trkpt>
      <trkpt lat="49.33596" lon="0.9789">
        <ele>119.83906555176</ele>
        <time>2020-08-30T17:43:54.548Z</time>
      </trkpt>
      <trkpt lat="49.33599" lon="0.97902">
        <ele>120.99833679199</ele>
        <time>2020-08-30T17:43:55.946Z</time>
      </trkpt>
      <trkpt lat="49.33602" lon="0.97914">
        <ele>122.07815551758</ele>
        <time>2020-08-30T17:43:57.347Z</time>
      </trkpt>
      <trkpt lat="49.33604" lon="0.97921">
        <ele>122.75003814697</ele>
        <time>2020-08-30T17:43:58.750Z</time>
      </trkpt>
      <trkpt lat="49.33605" lon="0.97923">
        <ele>123.01399993896</ele>
        <time>2020-08-30T17:44:00.153Z</time>
      </trkpt>
      <trkpt lat="49.33609" lon="0.97934">
        <ele>124.21379852295</ele>
        <time>2020-08-30T17:44:01.559Z</time>
      </trkpt>
      <trkpt lat="49.3361" lon="0.97937">
        <ele>124.52574157715</ele>
        <time>2020-08-30T17:44:02.966Z</time>
      </trkpt>
      <trkpt lat="49.33611" lon="0.97944">
        <ele>125.02966308594</ele>
        <time>2020-08-30T17:44:04.374Z</time>
      </trkpt>
      <trkpt lat="49.33616" lon="0.97955">
        <ele>126.17789459229</ele>
        <time>2020-08-30T17:44:05.785Z</time>
      </trkpt>
      <trkpt lat="49.33621" lon="0.9797">
        <ele>127.19772338867</ele>
        <time>2020-08-30T17:44:07.200Z</time>
      </trkpt>
      <trkpt lat="49.33627" lon="0.9799">
        <ele>128.01197814941</ele>
        <time>2020-08-30T17:44:08.620Z</time>
      </trkpt>
      <trkpt lat="49.33628" lon="0.97996">
        <ele>127.91600036621</ele>
        <time>2020-08-30T17:44:10.041Z</time>
      </trkpt>
      <trkpt lat="49.33633" lon="0.98005">
        <ele>128.19195556641</ele>
        <time>2020-08-30T17:44:11.465Z</time>
      </trkpt>
      <trkpt lat="49.33637" lon="0.98015">
        <ele>128.3119354248</ele>
        <time>2020-08-30T17:44:12.891Z</time>
      </trkpt>
      <trkpt lat="49.33643" lon="0.98032">
        <ele>128.41990661621</ele>
        <time>2020-08-30T17:44:14.321Z</time>
      </trkpt>
      <trkpt lat="49.33644" lon="0.98034">
        <ele>128.4679107666</ele>
        <time>2020-08-30T17:44:15.752Z</time>
      </trkpt>
      <trkpt lat="49.33646" lon="0.98043">
        <ele>128.38391113281</ele>
        <time>2020-08-30T17:44:17.185Z</time>
      </trkpt>
      <trkpt lat="49.33648" lon="0.98049">
        <ele>128.40791320801</ele>
        <time>2020-08-30T17:44:18.619Z</time>
      </trkpt>
      <trkpt lat="49.33655" lon="0.98067">
        <ele>128.81539916992</ele>
        <time>2020-08-30T17:44:20.058Z</time>
      </trkpt>
      <trkpt lat="49.3366" lon="0.98082">
        <ele>129.23532104492</ele>
        <time>2020-08-30T17:44:21.501Z</time>
      </trkpt>
      <trkpt lat="49.33665" lon="0.98101">
        <ele>129.60726928711</ele>
        <time>2020-08-30T17:44:22.948Z</time>
      </trkpt>
      <trkpt lat="49.33665" lon="0.98103">
        <ele>129.58326721191</ele>
        <time>2020-08-30T17:44:24.396Z</time>
      </trkpt>
      <trkpt lat="49.33663" lon="0.98099">
        <ele>129.39129638672</ele>
        <time>2020-08-30T17:44:25.845Z</time>
      </trkpt>
      <trkpt lat="49.33662" lon="0.98098">
        <ele>129.28332519531</ele>
        <time>2020-08-30T17:44:27.294Z</time>
      </trkpt>
      <trkpt lat="49.33659" lon="0.98099">
        <ele>128.91137695312</ele>
        <time>2020-08-30T17:44:28.744Z</time>
      </trkpt>
      <trkpt lat="49.33659" lon="0.98097">
        <ele>128.93537902832</ele>
        <time>2020-08-30T17:44:30.195Z</time>
      </trkpt>
      <trkpt lat="49.33656" lon="0.98094">
        <ele>128.61143493652</ele>
        <time>2020-08-30T17:44:31.647Z</time>
      </trkpt>
      <trkpt lat="49.33654" lon="0.98092">
        <ele>128.39546203613</ele>
        <time>2020-08-30T17:44:33.100Z</time>
      </trkpt>
      <trkpt lat="49.33661" lon="0.98095">
        <ele>129.19934082031</ele>
        <time>2020-08-30T17:44:34.555Z</time>
      </trkpt>
      <trkpt lat="49.33661" lon="0.98094">
        <ele>129.21133422852</ele>
        <time>2020-08-30T17:44:36.010Z</time>
      </trkpt>
      <trkpt lat="49.3366" lon="0.98095">
        <ele>129.07934570312</ele>
        <time>2020-08-30T17:44:37.466Z</time>
      </trkpt>
      <trkpt lat="49.33658" lon="0.98095">
        <ele>128.83938598633</ele>
        <time>2020-08-30T17:44:38.922Z</time>
      </trkpt>
      <trkpt lat="49.33657" lon="0.98086">
        <ele>128.82739257812</ele>
        <time>2020-08-30T17:44:40.380Z</time>
      </trkpt>
      <trkpt lat="49.33666" lon="0.98097">
        <ele>129.77523803711</ele>
        <time>2020-08-30T17:44:41.842Z</time>
      </trkpt>
      <trkpt lat="49.33669" lon="0.98097">
        <ele>130.1351776123</ele>
        <time>2020-08-30T17:44:43.305Z</time>
      </trkpt>
      <trkpt lat="49.33689" lon="0.9808">
        <ele>132.73873901367</ele>
        <time>2020-08-30T17:44:44.776Z</time>
      </trkpt>
      <trkpt lat="49.33703" lon="0.98071">
        <ele>134.04890441895</ele>
        <time>2020-08-30T17:44:46.252Z</time>
      </trkpt>
      <trkpt lat="49.33706" lon="0.98065">
        <ele>134.22888183594</ele>
        <time>2020-08-30T17:44:47.729Z</time>
      </trkpt>
      <trkpt lat="49.33707" lon="0.98052">
        <ele>134.20420837402</ele>
        <time>2020-08-30T17:44:49.209Z</time>
      </trkpt>
      <trkpt lat="49.33709" lon="0.98038">
        <ele>133.94024658203</ele>
        <time>2020-08-30T17:44:50.692Z</time>
      </trkpt>
      <trkpt lat="49.3371" lon="0.9803">
        <ele>133.78428649902</ele>
        <time>2020-08-30T17:44:52.177Z</time>
      </trkpt>
      <trkpt lat="49.33713" lon="0.98022">
        <ele>133.70028686523</ele>
        <time>2020-08-30T17:44:53.664Z</time>
      </trkpt>
      <trkpt lat="49.33722" lon="0.98012">
        <ele>133.78428649902</ele>
        <time>2020-08-30T17:44:55.155Z</time>
      </trkpt>
      <trkpt lat="49.33725" lon="0.98007">
        <ele>133.77227783203</ele>
        <time>2020-08-30T17:44:56.647Z</time>
      </trkpt>
      <trkpt lat="49.33734" lon="0.97999">
        <ele>134.05252075195</ele>
        <time>2020-08-30T17:44:58.143Z</time>
      </trkpt>
      <trkpt lat="49.3374" lon="0.97988">
        <ele>134.20849609375</ele>
        <time>2020-08-30T17:44:59.642Z</time>
      </trkpt>
      <trkpt lat="49.33745" lon="0.97983">
        <ele>134.38847351074</ele>
        <time>2020-08-30T17:45:01.143Z</time>
      </trkpt>
      <trkpt lat="49.33749" lon="0.97977">
        <ele>134.50845336914</ele>
        <time>2020-08-30T17:45:02.646Z</time>
      </trkpt>
      <trkpt lat="49.33753" lon="0.97969">
        <ele>134.26419067383</ele>
        <time>2020-08-30T17:45:04.151Z</time>
      </trkpt>
      <trkpt lat="49.33753" lon="0.9796">
        <ele>133.61630249023</ele>
        <time>2020-08-30T17:45:05.658Z</time>
      </trkpt>
      <trkpt lat="49.33755" lon="0.97951">
        <ele>133.06439208984</ele>
        <time>2020-08-30T17:45:07.167Z</time>
      </trkpt>
      <trkpt lat="49.33761" lon="0.97932">
        <ele>130.88027954102</ele>
        <time>2020-08-30T17:45:08.681Z</time>
      </trkpt>
      <trkpt lat="49.33762" lon="0.97921">
        <ele>129.56048583984</ele>
        <time>2020-08-30T17:45:10.197Z</time>
      </trkpt>
      <trkpt lat="49.33765" lon="0.97911">
        <ele>128.36068725586</ele>
        <time>2020-08-30T17:45:11.715Z</time>
      </trkpt>
      <trkpt lat="49.33768" lon="0.979">
        <ele>127.04090881348</ele>
        <time>2020-08-30T17:45:13.236Z</time>
      </trkpt>
      <trkpt lat="49.3377" lon="0.97887">
        <ele>125.63681793213</ele>
        <time>2020-08-30T17:45:14.760Z</time>
      </trkpt>
      <trkpt lat="49.33772" lon="0.97876">
        <ele>124.39320373535</ele>
        <time>2020-08-30T17:45:16.286Z</time>
      </trkpt>
      <trkpt lat="49.33777" lon="0.97857">
        <ele>121.64566040039</ele>
        <time>2020-08-30T17:45:17.817Z</time>
      </trkpt>
      <trkpt lat="49.33783" lon="0.97839">
        <ele>119.06628417969</ele>
        <time>2020-08-30T17:45:19.352Z</time>
      </trkpt>
      <trkpt lat="49.33784" lon="0.9783">
        <ele>117.8664855957</ele>
        <time>2020-08-30T17:45:20.889Z</time>
      </trkpt>
      <trkpt lat="49.33784" lon="0.97821">
        <ele>116.67868041992</ele>
        <time>2020-08-30T17:45:22.428Z</time>
      </trkpt>
      <trkpt lat="49.33783" lon="0.97813">
        <ele>115.63485717773</ele>
        <time>2020-08-30T17:45:23.969Z</time>
      </trkpt>
      <trkpt lat="49.33781" lon="0.97805">
        <ele>114.90503692627</ele>
        <time>2020-08-30T17:45:25.512Z</time>
      </trkpt>
      <trkpt lat="49.33778" lon="0.97798">
        <ele>114.67281341553</ele>
        <time>2020-08-30T17:45:27.057Z</time>
      </trkpt>
      <trkpt lat="49.33777" lon="0.97792">
        <ele>114.46884918213</ele>
        <time>2020-08-30T17:45:28.603Z</time>
      </trkpt>
      <trkpt lat="49.33777" lon="0.97786">
        <ele>114.25288391113</ele>
        <time>2020-08-30T17:45:30.150Z</time>
      </trkpt>
      <trkpt lat="49.33776" lon="0.97779">
        <ele>114.01292419434</ele>
        <time>2020-08-30T17:45:31.699Z</time>
      </trkpt>
      <trkpt lat="49.33774" lon="0.97772">
        <ele>113.78496551514</ele>
        <time>2020-08-30T17:45:33.250Z</time>
      </trkpt>
      <trkpt lat="49.33772" lon="0.97765">
        <ele>113.55699920654</ele>
        <time>2020-08-30T17:45:34.802Z</time>
      </trkpt>
      <trkpt lat="49.3377" lon="0.9776">
        <ele>113.40103149414</ele>
        <time>2020-08-30T17:45:36.356Z</time>
      </trkpt>
      <trkpt lat="49.33767" lon="0.97749">
        <ele>113.04108428955</ele>
        <time>2020-08-30T17:45:37.912Z</time>
      </trkpt>
      <trkpt lat="49.33769" lon="0.97737">
        <ele>112.58516693115</ele>
        <time>2020-08-30T17:45:39.471Z</time>
      </trkpt>
      <trkpt lat="49.3377" lon="0.97732">
        <ele>112.39319610596</ele>
        <time>2020-08-30T17:45:41.031Z</time>
      </trkpt>
      <trkpt lat="49.3377" lon="0.97727">
        <ele>112.21322631836</ele>
        <time>2020-08-30T17:45:42.592Z</time>
      </trkpt>
      <trkpt lat="49.3377" lon="0.97722">
        <ele>111.81238555908</ele>
        <time>2020-08-30T17:45:44.154Z</time>
      </trkpt>
      <trkpt lat="49.33767" lon="0.97722">
        <ele>111.84838104248</ele>
        <time>2020-08-30T17:45:45.717Z</time>
      </trkpt>
      <trkpt lat="49.33764" lon="0.97722">
        <ele>111.88437652588</ele>
        <time>2020-08-30T17:45:47.281Z</time>
      </trkpt>
      <trkpt lat="49.33763" lon="0.97716">
        <ele>111.17649078369</ele>
        <time>2020-08-30T17:45:48.847Z</time>
      </trkpt>
      <trkpt lat="49.33759" lon="0.97708">
        <ele>110.26464080811</ele>
        <time>2020-08-30T17:45:50.415Z</time>
      </trkpt>
      <trkpt lat="49.33746" lon="0.97687">
        <ele>108.32843780518</ele>
        <time>2020-08-30T17:45:51.989Z</time>
      </trkpt>
      <trkpt lat="49.33732" lon="0.97672">
        <ele>106.8406829834</ele>
        <time>2020-08-30T17:45:53.569Z</time>
      </trkpt>
      <trkpt lat="49.33728" lon="0.97668">
        <ele>106.40875244141</ele>
        <time>2020-08-30T17:45:55.150Z</time>
      </trkpt>
      <trkpt lat="49.33716" lon="0.97654">
        <ele>105.16096496582</ele>
        <time>2020-08-30T17:45:56.736Z</time>
      </trkpt>
      <trkpt lat="49.33708" lon="0.97637">
        <ele>104.25615692139</ele>
        <time>2020-08-30T17:45:58.327Z</time>
      </trkpt>
      <trkpt lat="49.33707" lon="0.97629">
        <ele>103.83622741699</ele>
        <time>2020-08-30T17:45:59.920Z</time>
      </trkpt>
      <trkpt lat="49.33706" lon="0.97623">
        <ele>103.48828125</ele>
        <time>2020-08-30T17:46:01.514Z</time>
      </trkpt>
      <trkpt lat="49.33705" lon="0.9762">
        <ele>103.2483215332</ele>
        <time>2020-08-30T17:46:03.109Z</time>
      </trkpt>
      <trkpt lat="49.33701" lon="0.97595">
        <ele>101.82056427002</ele>
        <time>2020-08-30T17:46:04.709Z</time>
      </trkpt>
      <trkpt lat="49.33696" lon="0.97548">
        <ele>99.80387115479</ele>
        <time>2020-08-30T17:46:06.320Z</time>
      </trkpt>
      <trkpt lat="49.33692" lon="0.97516">
        <ele>99.22797393799</ele>
        <time>2020-08-30T17:46:07.938Z</time>
      </trkpt>
      <trkpt lat="49.33685" lon="0.97472">
        <ele>98.2935333252</ele>
        <time>2020-08-30T17:46:09.566Z</time>
      </trkpt>
      <trkpt lat="49.33683" lon="0.97458">
        <ele>99.18466949463</ele>
        <time>2020-08-30T17:46:11.197Z</time>
      </trkpt>
      <trkpt lat="49.33671" lon="0.97405">
        <ele>101.88422393799</ele>
        <time>2020-08-30T17:46:12.840Z</time>
      </trkpt>
      <trkpt lat="49.33667" lon="0.97387">
        <ele>102.41300201416</ele>
        <time>2020-08-30T17:46:14.487Z</time>
      </trkpt>
      <trkpt lat="49.33661" lon="0.97366">
        <ele>101.15321350098</ele>
        <time>2020-08-30T17:46:16.139Z</time>
      </trkpt>
      <trkpt lat="49.33656" lon="0.97336">
        <ele>100.75464630127</ele>
        <time>2020-08-30T17:46:17.798Z</time>
      </trkpt>
      <trkpt lat="49.33652" lon="0.97308">
        <ele>100.94661712646</ele>
        <time>2020-08-30T17:46:19.463Z</time>
      </trkpt>
      <trkpt lat="49.33648" lon="0.97291">
        <ele>99.19183349609</ele>
        <time>2020-08-30T17:46:21.132Z</time>
      </trkpt>
      <trkpt lat="49.33647" lon="0.97285">
        <ele>98.6879196167</ele>
        <time>2020-08-30T17:46:22.803Z</time>
      </trkpt>
      <trkpt lat="49.33652" lon="0.97265">
        <ele>99.40779876709</ele>
        <time>2020-08-30T17:46:24.478Z</time>
      </trkpt>
      <trkpt lat="49.33658" lon="0.97228">
        <ele>98.82998657227</ele>
        <time>2020-08-30T17:46:26.162Z</time>
      </trkpt>
      <trkpt lat="49.33664" lon="0.97201">
        <ele>98.51147460938</ele>
        <time>2020-08-30T17:46:27.852Z</time>
      </trkpt>
      <trkpt lat="49.33685" lon="0.97122">
        <ele>98.30236816406</ele>
        <time>2020-08-30T17:46:29.560Z</time>
      </trkpt>
      <trkpt lat="49.33686" lon="0.97103">
        <ele>97.45050811768</ele>
        <time>2020-08-30T17:46:31.273Z</time>
      </trkpt>
      <trkpt lat="49.33696" lon="0.97075">
        <ele>98.65030670166</ele>
        <time>2020-08-30T17:46:32.993Z</time>
      </trkpt>
      <trkpt lat="49.33698" lon="0.97067">
        <ele>98.69691467285</ele>
        <time>2020-08-30T17:46:34.714Z</time>
      </trkpt>
      <trkpt lat="49.33703" lon="0.97025">
        <ele>98.1136932373</ele>
        <time>2020-08-30T17:46:36.445Z</time>
      </trkpt>
      <trkpt lat="49.33704" lon="0.97017">
        <ele>98.05370330811</ele>
        <time>2020-08-30T17:46:38.177Z</time>
      </trkpt>
      <trkpt lat="49.33714" lon="0.96991">
        <ele>99.39060974121</ele>
        <time>2020-08-30T17:46:39.916Z</time>
      </trkpt>
      <trkpt lat="49.33717" lon="0.96958">
        <ele>97.98696136475</ele>
        <time>2020-08-30T17:46:41.662Z</time>
      </trkpt>
      <trkpt lat="49.33723" lon="0.96883">
        <ele>96.35147857666</ele>
        <time>2020-08-30T17:46:43.425Z</time>
      </trkpt>
      <trkpt lat="49.33723" lon="0.96876">
        <ele>96.18350982666</ele>
        <time>2020-08-30T17:46:45.189Z</time>
      </trkpt>
      <trkpt lat="49.33726" lon="0.96856">
        <ele>96.35147857666</ele>
        <time>2020-08-30T17:46:46.958Z</time>
      </trkpt>
      <trkpt lat="49.33727" lon="0.96827">
        <ele>95.87155914307</ele>
        <time>2020-08-30T17:46:48.733Z</time>
      </trkpt>
      <trkpt lat="49.33726" lon="0.96805">
        <ele>95.2625579834</ele>
        <time>2020-08-30T17:46:50.513Z</time>
      </trkpt>
      <trkpt lat="49.33723" lon="0.9672">
        <ele>96.29260253906</ele>
        <time>2020-08-30T17:46:52.311Z</time>
      </trkpt>
      <trkpt lat="49.33718" lon="0.967">
        <ele>95.51273345947</ele>
        <time>2020-08-30T17:46:54.114Z</time>
      </trkpt>
      <trkpt lat="49.33717" lon="0.96691">
        <ele>95.41674804688</ele>
        <time>2020-08-30T17:46:55.919Z</time>
      </trkpt>
      <trkpt lat="49.33714" lon="0.96683">
        <ele>94.90083312988</ele>
        <time>2020-08-30T17:46:57.726Z</time>
      </trkpt>
      <trkpt lat="49.33711" lon="0.96649">
        <ele>94.55764770508</ele>
        <time>2020-08-30T17:46:59.541Z</time>
      </trkpt>
      <trkpt lat="49.33713" lon="0.96621">
        <ele>94.58164215088</ele>
        <time>2020-08-30T17:47:01.362Z</time>
      </trkpt>
      <trkpt lat="49.33715" lon="0.96611">
        <ele>94.82160186768</ele>
        <time>2020-08-30T17:47:03.185Z</time>
      </trkpt>
      <trkpt lat="49.33718" lon="0.96587">
        <ele>95.07356262207</ele>
        <time>2020-08-30T17:47:05.013Z</time>
      </trkpt>
      <trkpt lat="49.33719" lon="0.96566">
        <ele>94.51728820801</ele>
        <time>2020-08-30T17:47:06.846Z</time>
      </trkpt>
      <trkpt lat="49.33719" lon="0.96557">
        <ele>94.12225341797</ele>
        <time>2020-08-30T17:47:08.681Z</time>
      </trkpt>
      <trkpt lat="49.33721" lon="0.96534">
        <ele>94.41020202637</ele>
        <time>2020-08-30T17:47:10.521Z</time>
      </trkpt>
      <trkpt lat="49.33723" lon="0.96515">
        <ele>94.69815063477</ele>
        <time>2020-08-30T17:47:12.365Z</time>
      </trkpt>
      <trkpt lat="49.33728" lon="0.96477">
        <ele>94.74356842041</ele>
        <time>2020-08-30T17:47:14.218Z</time>
      </trkpt>
      <trkpt lat="49.33742" lon="0.96465">
        <ele>96.47445678711</ele>
        <time>2020-08-30T17:47:16.076Z</time>
      </trkpt>
      <trkpt lat="49.33744" lon="0.96464">
        <ele>96.72640991211</ele>
        <time>2020-08-30T17:47:17.935Z</time>
      </trkpt>
      <trkpt lat="49.33745" lon="0.96464">
        <ele>96.84638977051</ele>
        <time>2020-08-30T17:47:19.794Z</time>
      </trkpt>
      <trkpt lat="49.33752" lon="0.96466">
        <ele>97.6622543335</ele>
        <time>2020-08-30T17:47:21.655Z</time>
      </trkpt>
      <trkpt lat="49.33758" lon="0.9647">
        <ele>98.33414459229</ele>
        <time>2020-08-30T17:47:23.519Z</time>
      </trkpt>
      <trkpt lat="49.33761" lon="0.96473">
        <ele>98.65808868408</ele>
        <time>2020-08-30T17:47:25.384Z</time>
      </trkpt>
      <trkpt lat="49.33762" lon="0.96479">
        <ele>98.87088012695</ele>
        <time>2020-08-30T17:47:27.250Z</time>
      </trkpt>
      <trkpt lat="49.33763" lon="0.96483">
        <ele>99.08684539795</ele>
        <time>2020-08-30T17:47:29.117Z</time>
      </trkpt>
      <trkpt lat="49.33762" lon="0.96493">
        <ele>99.20682525635</ele>
        <time>2020-08-30T17:47:30.986Z</time>
      </trkpt>
      <trkpt lat="49.33764" lon="0.96504">
        <ele>99.71073913574</ele>
        <time>2020-08-30T17:47:32.858Z</time>
      </trkpt>
      <trkpt lat="49.33765" lon="0.9651">
        <ele>99.97469329834</ele>
        <time>2020-08-30T17:47:34.731Z</time>
      </trkpt>
      <trkpt lat="49.33769" lon="0.96517">
        <ele>100.62258911133</ele>
        <time>2020-08-30T17:47:36.606Z</time>
      </trkpt>
      <trkpt lat="49.33771" lon="0.96517">
        <ele>100.86254882812</ele>
        <time>2020-08-30T17:47:38.482Z</time>
      </trkpt>
      <trkpt lat="49.33774" lon="0.96514">
        <ele>101.15049743652</ele>
        <time>2020-08-30T17:47:40.359Z</time>
      </trkpt>
      <trkpt lat="49.33776" lon="0.96509">
        <ele>101.27047729492</ele>
        <time>2020-08-30T17:47:42.237Z</time>
      </trkpt>
      <trkpt lat="49.33777" lon="0.96506">
        <ele>101.31847381592</ele>
        <time>2020-08-30T17:47:44.116Z</time>
      </trkpt>
      <trkpt lat="49.33781" lon="0.96506">
        <ele>101.79026794434</ele>
        <time>2020-08-30T17:47:45.996Z</time>
      </trkpt>
      <trkpt lat="49.33783" lon="0.96511">
        <ele>102.10221099854</ele>
        <time>2020-08-30T17:47:47.878Z</time>
      </trkpt>
      <trkpt lat="49.33784" lon="0.96513">
        <ele>102.24619293213</ele>
        <time>2020-08-30T17:47:49.760Z</time>
      </trkpt>
      <trkpt lat="49.33786" lon="0.96524">
        <ele>102.70211029053</ele>
        <time>2020-08-30T17:47:51.645Z</time>
      </trkpt>
      <trkpt lat="49.33789" lon="0.96527">
        <ele>103.06204986572</ele>
        <time>2020-08-30T17:47:53.531Z</time>
      </trkpt>
      <trkpt lat="49.33791" lon="0.96531">
        <ele>103.35000610352</ele>
        <time>2020-08-30T17:47:55.418Z</time>
      </trkpt>
      <trkpt lat="49.33791" lon="0.96534">
        <ele>103.42199707031</ele>
        <time>2020-08-30T17:47:57.306Z</time>
      </trkpt>
      <trkpt lat="49.33789" lon="0.96548">
        <ele>103.56597137451</ele>
        <time>2020-08-30T17:47:59.197Z</time>
      </trkpt>
      <trkpt lat="49.33788" lon="0.96556">
        <ele>103.66195678711</ele>
        <time>2020-08-30T17:48:01.090Z</time>
      </trkpt>
      <trkpt lat="49.33789" lon="0.96564">
        <ele>103.57608795166</ele>
        <time>2020-08-30T17:48:02.984Z</time>
      </trkpt>
      <trkpt lat="49.33793" lon="0.96568">
        <ele>103.81605529785</ele>
        <time>2020-08-30T17:48:04.880Z</time>
      </trkpt>
      <trkpt lat="49.33795" lon="0.96565">
        <ele>104.11600494385</ele>
        <time>2020-08-30T17:48:06.777Z</time>
      </trkpt>
      <trkpt lat="49.33796" lon="0.96563">
        <ele>104.28397369385</ele>
        <time>2020-08-30T17:48:08.674Z</time>
      </trkpt>
      <trkpt lat="49.33799" lon="0.96563">
        <ele>104.57192230225</ele>
        <time>2020-08-30T17:48:10.572Z</time>
      </trkpt>
      <trkpt lat="49.338" lon="0.96564">
        <ele>104.63191223145</ele>
        <time>2020-08-30T17:48:12.471Z</time>
      </trkpt>
      <trkpt lat="49.33803" lon="0.96566">
        <ele>104.84787750244</ele>
        <time>2020-08-30T17:48:14.371Z</time>
      </trkpt>
      <trkpt lat="49.33805" lon="0.96569">
        <ele>104.93186187744</ele>
        <time>2020-08-30T17:48:16.272Z</time>
      </trkpt>
      <trkpt lat="49.33807" lon="0.96593">
        <ele>105.00682830811</ele>
        <time>2020-08-30T17:48:18.178Z</time>
      </trkpt>
      <trkpt lat="49.33802" lon="0.96607">
        <ele>105.6187286377</ele>
        <time>2020-08-30T17:48:20.088Z</time>
      </trkpt>
      <trkpt lat="49.33807" lon="0.96632">
        <ele>106.87851715088</ele>
        <time>2020-08-30T17:48:22.003Z</time>
      </trkpt>
      <trkpt lat="49.33807" lon="0.96658">
        <ele>107.31600952148</ele>
        <time>2020-08-30T17:48:23.924Z</time>
      </trkpt>
      <trkpt lat="49.33804" lon="0.96674">
        <ele>107.39454650879</ele>
        <time>2020-08-30T17:48:25.849Z</time>
      </trkpt>
      <trkpt lat="49.33811" lon="0.96709">
        <ele>107.81447601318</ele>
        <time>2020-08-30T17:48:27.782Z</time>
      </trkpt>
      <trkpt lat="49.33814" lon="0.96722">
        <ele>107.97044372559</ele>
        <time>2020-08-30T17:48:29.718Z</time>
      </trkpt>
      <trkpt lat="49.33815" lon="0.96718">
        <ele>107.92245483398</ele>
        <time>2020-08-30T17:48:31.654Z</time>
      </trkpt>
      <trkpt lat="49.33818" lon="0.96702">
        <ele>107.73048400879</ele>
        <time>2020-08-30T17:48:33.594Z</time>
      </trkpt>
      <trkpt lat="49.33823" lon="0.96667">
        <ele>107.50798034668</ele>
        <time>2020-08-30T17:48:35.542Z</time>
      </trkpt>
      <trkpt lat="49.33823" lon="0.96658">
        <ele>107.50798034668</ele>
        <time>2020-08-30T17:48:37.492Z</time>
      </trkpt>
      <trkpt lat="49.33825" lon="0.9665">
        <ele>107.53197479248</ele>
        <time>2020-08-30T17:48:39.444Z</time>
      </trkpt>
      <trkpt lat="49.33824" lon="0.96638">
        <ele>107.37043762207</ele>
        <time>2020-08-30T17:48:41.398Z</time>
      </trkpt>
      <trkpt lat="49.33829" lon="0.96619">
        <ele>106.51857757568</ele>
        <time>2020-08-30T17:48:43.357Z</time>
      </trkpt>
      <trkpt lat="49.3383" lon="0.96605">
        <ele>106.03568267822</ele>
        <time>2020-08-30T17:48:45.319Z</time>
      </trkpt>
      <trkpt lat="49.33838" lon="0.96583">
        <ele>107.5954208374</ele>
        <time>2020-08-30T17:48:47.286Z</time>
      </trkpt>
      <trkpt lat="49.33838" lon="0.96579">
        <ele>107.7393951416</ele>
        <time>2020-08-30T17:48:49.254Z</time>
      </trkpt>
      <trkpt lat="49.33833" lon="0.96552">
        <ele>107.88524627686</ele>
        <time>2020-08-30T17:48:51.228Z</time>
      </trkpt>
      <trkpt lat="49.3384" lon="0.96538">
        <ele>108.22119140625</ele>
        <time>2020-08-30T17:48:53.206Z</time>
      </trkpt>
      <trkpt lat="49.33844" lon="0.96518">
        <ele>109.07353973389</ele>
        <time>2020-08-30T17:48:55.189Z</time>
      </trkpt>
      <trkpt lat="49.33848" lon="0.96493">
        <ele>110.24934387207</ele>
        <time>2020-08-30T17:48:57.177Z</time>
      </trkpt>
      <trkpt lat="49.33854" lon="0.96484">
        <ele>111.32916259766</ele>
        <time>2020-08-30T17:48:59.168Z</time>
      </trkpt>
      <trkpt lat="49.3386" lon="0.96471">
        <ele>112.46392059326</ele>
        <time>2020-08-30T17:49:01.163Z</time>
      </trkpt>
      <trkpt lat="49.33867" lon="0.96445">
        <ele>112.07865142822</ele>
        <time>2020-08-30T17:49:03.164Z</time>
      </trkpt>
      <trkpt lat="49.33869" lon="0.96439">
        <ele>111.79070281982</ele>
        <time>2020-08-30T17:49:05.166Z</time>
      </trkpt>
      <trkpt lat="49.3387" lon="0.9643">
        <ele>111.50274658203</ele>
        <time>2020-08-30T17:49:07.170Z</time>
      </trkpt>
      <trkpt lat="49.33872" lon="0.96422">
        <ele>111.16680145264</ele>
        <time>2020-08-30T17:49:09.176Z</time>
      </trkpt>
      <trkpt lat="49.33875" lon="0.96416">
        <ele>110.80686187744</ele>
        <time>2020-08-30T17:49:11.184Z</time>
      </trkpt>
      <trkpt lat="49.33876" lon="0.96412">
        <ele>110.63889312744</ele>
        <time>2020-08-30T17:49:13.193Z</time>
      </trkpt>
      <trkpt lat="49.33876" lon="0.96402">
        <ele>110.45008087158</ele>
        <time>2020-08-30T17:49:15.204Z</time>
      </trkpt>
      <trkpt lat="49.33876" lon="0.96393">
        <ele>110.66604614258</ele>
        <time>2020-08-30T17:49:17.217Z</time>
      </trkpt>
      <trkpt lat="49.33877" lon="0.96374">
        <ele>108.63968658447</ele>
        <time>2020-08-30T17:49:19.234Z</time>
      </trkpt>
      <trkpt lat="49.33879" lon="0.96368">
        <ele>107.87181091309</ele>
        <time>2020-08-30T17:49:21.252Z</time>
      </trkpt>
      <trkpt lat="49.3388" lon="0.96359">
        <ele>106.7679977417</ele>
        <time>2020-08-30T17:49:23.272Z</time>
      </trkpt>
      <trkpt lat="49.33884" lon="0.96347">
        <ele>105.23225402832</ele>
        <time>2020-08-30T17:49:25.295Z</time>
      </trkpt>
      <trkpt lat="49.33885" lon="0.96334">
        <ele>103.64851379395</ele>
        <time>2020-08-30T17:49:27.321Z</time>
      </trkpt>
      <trkpt lat="49.33886" lon="0.9633">
        <ele>103.14459991455</ele>
        <time>2020-08-30T17:49:29.348Z</time>
      </trkpt>
      <trkpt lat="49.33893" lon="0.96317">
        <ele>101.89005279541</ele>
        <time>2020-08-30T17:49:31.379Z</time>
      </trkpt>
      <trkpt lat="49.33893" lon="0.96315">
        <ele>101.69808197021</ele>
        <time>2020-08-30T17:49:33.410Z</time>
      </trkpt>
      <trkpt lat="49.33894" lon="0.96306">
        <ele>100.77206420898</ele>
        <time>2020-08-30T17:49:35.443Z</time>
      </trkpt>
      <trkpt lat="49.33888" lon="0.96297">
        <ele>99.5842666626</ele>
        <time>2020-08-30T17:49:37.479Z</time>
      </trkpt>
      <trkpt lat="49.33887" lon="0.96291">
        <ele>98.79239654541</ele>
        <time>2020-08-30T17:49:39.516Z</time>
      </trkpt>
      <trkpt lat="49.33891" lon="0.96281">
        <ele>97.47261810303</ele>
        <time>2020-08-30T17:49:41.556Z</time>
      </trkpt>
      <trkpt lat="49.33895" lon="0.96278">
        <ele>97.07668304443</ele>
        <time>2020-08-30T17:49:43.597Z</time>
      </trkpt>
      <trkpt lat="49.33899" lon="0.96274">
        <ele>96.54876708984</ele>
        <time>2020-08-30T17:49:45.640Z</time>
      </trkpt>
      <trkpt lat="49.33904" lon="0.96267">
        <ele>95.62492370605</ele>
        <time>2020-08-30T17:49:47.685Z</time>
      </trkpt>
      <trkpt lat="49.33921" lon="0.96219">
        <ele>90.42559051514</ele>
        <time>2020-08-30T17:49:49.742Z</time>
      </trkpt>
      <trkpt lat="49.33945" lon="0.962">
        <ele>89.80169677734</ele>
        <time>2020-08-30T17:49:51.808Z</time>
      </trkpt>
      <trkpt lat="49.33952" lon="0.96192">
        <ele>89.11169433594</ele>
        <time>2020-08-30T17:49:53.877Z</time>
      </trkpt>
      <trkpt lat="49.33953" lon="0.96187">
        <ele>88.79975128174</ele>
        <time>2020-08-30T17:49:55.947Z</time>
      </trkpt>
      <trkpt lat="49.33942" lon="0.96167">
        <ele>88.18196868896</ele>
        <time>2020-08-30T17:49:58.023Z</time>
      </trkpt>
      <trkpt lat="49.33941" lon="0.96163">
        <ele>87.97800445557</ele>
        <time>2020-08-30T17:50:00.100Z</time>
      </trkpt>
      <trkpt lat="49.33939" lon="0.96153">
        <ele>87.47408294678</ele>
        <time>2020-08-30T17:50:02.179Z</time>
      </trkpt>
      <trkpt lat="49.33937" lon="0.96147">
        <ele>87.16213989258</ele>
        <time>2020-08-30T17:50:04.260Z</time>
      </trkpt>
      <trkpt lat="49.33936" lon="0.96145">
        <ele>87.05415344238</ele>
        <time>2020-08-30T17:50:06.341Z</time>
      </trkpt>
      <trkpt lat="49.33936" lon="0.9614">
        <ele>86.80180358887</ele>
        <time>2020-08-30T17:50:08.423Z</time>
      </trkpt>
      <trkpt lat="49.33941" lon="0.96145">
        <ele>87.11414337158</ele>
        <time>2020-08-30T17:50:10.507Z</time>
      </trkpt>
    </trkseg>
  </trk>
</gpx>